<?xml version="1.0" encoding="UTF-8" standalone="no" ?>
<gpx xmlns="http://www.topografix.com/GPX/1/1" xmlns:xsi="http://www.w3.org/2001/XMLSchema-instance" xsi:schemaLocation="http://www.topografix.com/GPX/1/1 http://www.topografix.com/GPX/1/1/gpx.xsd" version="1.1" creator="VisuGPX - https://www.visugpx.com">
  <metadata>
    <name>A la découverte...</name>
    <desc><![CDATA[Circuit principalement sur sentiers]]></desc>
  </metadata>
  <trk>
    <name><![CDATA[20180607202937-wi3GT]]></name>
    <trkseg>
      <trkpt lat="44.54663" lon="2.23372">
        <ele>229</ele>
        <time>2018-06-07T15:50:06Z</time>
      </trkpt>
      <trkpt lat="44.54673" lon="2.23399">
        <ele>238</ele>
        <time>2018-06-07T15:50:11Z</time>
      </trkpt>
      <trkpt lat="44.54683" lon="2.23418">
        <ele>238</ele>
        <time>2018-06-07T15:50:13Z</time>
      </trkpt>
      <trkpt lat="44.54688" lon="2.23427">
        <ele>240</ele>
        <time>2018-06-07T15:50:15Z</time>
      </trkpt>
      <trkpt lat="44.54685" lon="2.23428">
        <ele>239</ele>
        <time>2018-06-07T15:50:16Z</time>
      </trkpt>
      <trkpt lat="44.54681" lon="2.23419">
        <ele>237</ele>
        <time>2018-06-07T15:50:17Z</time>
      </trkpt>
      <trkpt lat="44.54684" lon="2.23424">
        <ele>238</ele>
        <time>2018-06-07T15:50:19Z</time>
      </trkpt>
      <trkpt lat="44.54686" lon="2.23423">
        <ele>239</ele>
        <time>2018-06-07T15:50:20Z</time>
      </trkpt>
      <trkpt lat="44.54683" lon="2.23418">
        <ele>238</ele>
        <time>2018-06-07T15:50:21Z</time>
      </trkpt>
      <trkpt lat="44.54683" lon="2.23422">
        <ele>238</ele>
        <time>2018-06-07T15:50:23Z</time>
      </trkpt>
      <trkpt lat="44.54685" lon="2.23427">
        <ele>239</ele>
        <time>2018-06-07T15:50:24Z</time>
      </trkpt>
      <trkpt lat="44.54686" lon="2.23432">
        <ele>239</ele>
        <time>2018-06-07T15:50:26Z</time>
      </trkpt>
      <trkpt lat="44.54687" lon="2.23438">
        <ele>240</ele>
        <time>2018-06-07T15:50:28Z</time>
      </trkpt>
      <trkpt lat="44.5469" lon="2.23439">
        <ele>241</ele>
        <time>2018-06-07T15:50:31Z</time>
      </trkpt>
      <trkpt lat="44.54692" lon="2.23445">
        <ele>241</ele>
        <time>2018-06-07T15:50:33Z</time>
      </trkpt>
      <trkpt lat="44.5469" lon="2.23441">
        <ele>241</ele>
        <time>2018-06-07T15:50:35Z</time>
      </trkpt>
      <trkpt lat="44.54692" lon="2.23445">
        <ele>241</ele>
        <time>2018-06-07T15:50:38Z</time>
      </trkpt>
      <trkpt lat="44.54693" lon="2.23449">
        <ele>242</ele>
        <time>2018-06-07T15:50:40Z</time>
      </trkpt>
      <trkpt lat="44.54694" lon="2.23453">
        <ele>242</ele>
        <time>2018-06-07T15:50:44Z</time>
      </trkpt>
      <trkpt lat="44.54693" lon="2.23458">
        <ele>241</ele>
        <time>2018-06-07T15:50:47Z</time>
      </trkpt>
      <trkpt lat="44.54696" lon="2.23464">
        <ele>242</ele>
        <time>2018-06-07T15:50:49Z</time>
      </trkpt>
      <trkpt lat="44.54698" lon="2.23468">
        <ele>242</ele>
        <time>2018-06-07T15:50:50Z</time>
      </trkpt>
      <trkpt lat="44.54698" lon="2.23472">
        <ele>242</ele>
        <time>2018-06-07T15:50:51Z</time>
      </trkpt>
      <trkpt lat="44.54701" lon="2.2348">
        <ele>242</ele>
        <time>2018-06-07T15:50:53Z</time>
      </trkpt>
      <trkpt lat="44.54703" lon="2.23485">
        <ele>242</ele>
        <time>2018-06-07T15:50:55Z</time>
      </trkpt>
      <trkpt lat="44.54704" lon="2.23489">
        <ele>242</ele>
        <time>2018-06-07T15:50:56Z</time>
      </trkpt>
      <trkpt lat="44.54706" lon="2.23493">
        <ele>243</ele>
        <time>2018-06-07T15:50:57Z</time>
      </trkpt>
      <trkpt lat="44.54708" lon="2.23496">
        <ele>243</ele>
        <time>2018-06-07T15:50:58Z</time>
      </trkpt>
      <trkpt lat="44.54707" lon="2.23506">
        <ele>240</ele>
        <time>2018-06-07T15:51:00Z</time>
      </trkpt>
      <trkpt lat="44.54708" lon="2.23512">
        <ele>240</ele>
        <time>2018-06-07T15:51:01Z</time>
      </trkpt>
      <trkpt lat="44.54707" lon="2.23517">
        <ele>239</ele>
        <time>2018-06-07T15:51:03Z</time>
      </trkpt>
      <trkpt lat="44.54708" lon="2.23523">
        <ele>239</ele>
        <time>2018-06-07T15:51:04Z</time>
      </trkpt>
      <trkpt lat="44.5471" lon="2.23528">
        <ele>240</ele>
        <time>2018-06-07T15:51:05Z</time>
      </trkpt>
      <trkpt lat="44.54708" lon="2.23532">
        <ele>239</ele>
        <time>2018-06-07T15:51:06Z</time>
      </trkpt>
      <trkpt lat="44.5471" lon="2.23537">
        <ele>239</ele>
        <time>2018-06-07T15:51:07Z</time>
      </trkpt>
      <trkpt lat="44.5471" lon="2.23542">
        <ele>239</ele>
        <time>2018-06-07T15:51:08Z</time>
      </trkpt>
      <trkpt lat="44.54712" lon="2.23545">
        <ele>239</ele>
        <time>2018-06-07T15:51:11Z</time>
      </trkpt>
      <trkpt lat="44.54714" lon="2.23549">
        <ele>240</ele>
        <time>2018-06-07T15:51:12Z</time>
      </trkpt>
      <trkpt lat="44.54717" lon="2.23554">
        <ele>240</ele>
        <time>2018-06-07T15:51:14Z</time>
      </trkpt>
      <trkpt lat="44.54716" lon="2.2356">
        <ele>239</ele>
        <time>2018-06-07T15:51:16Z</time>
      </trkpt>
      <trkpt lat="44.54717" lon="2.23565">
        <ele>239</ele>
        <time>2018-06-07T15:51:18Z</time>
      </trkpt>
      <trkpt lat="44.54717" lon="2.23569">
        <ele>239</ele>
        <time>2018-06-07T15:51:19Z</time>
      </trkpt>
      <trkpt lat="44.54717" lon="2.23574">
        <ele>239</ele>
        <time>2018-06-07T15:51:20Z</time>
      </trkpt>
      <trkpt lat="44.54718" lon="2.23578">
        <ele>239</ele>
        <time>2018-06-07T15:51:21Z</time>
      </trkpt>
      <trkpt lat="44.54719" lon="2.23582">
        <ele>239</ele>
        <time>2018-06-07T15:51:22Z</time>
      </trkpt>
      <trkpt lat="44.5472" lon="2.23588">
        <ele>237</ele>
        <time>2018-06-07T15:51:23Z</time>
      </trkpt>
      <trkpt lat="44.54721" lon="2.23593">
        <ele>237</ele>
        <time>2018-06-07T15:51:25Z</time>
      </trkpt>
      <trkpt lat="44.54719" lon="2.2359">
        <ele>237</ele>
        <time>2018-06-07T15:51:26Z</time>
      </trkpt>
      <trkpt lat="44.54719" lon="2.23595">
        <ele>236</ele>
        <time>2018-06-07T15:51:27Z</time>
      </trkpt>
      <trkpt lat="44.54724" lon="2.23598">
        <ele>237</ele>
        <time>2018-06-07T15:51:28Z</time>
      </trkpt>
      <trkpt lat="44.5473" lon="2.23599">
        <ele>238</ele>
        <time>2018-06-07T15:51:30Z</time>
      </trkpt>
      <trkpt lat="44.54733" lon="2.23605">
        <ele>237</ele>
        <time>2018-06-07T15:51:31Z</time>
      </trkpt>
      <trkpt lat="44.54739" lon="2.23613">
        <ele>237</ele>
        <time>2018-06-07T15:51:32Z</time>
      </trkpt>
      <trkpt lat="44.54744" lon="2.23613">
        <ele>237</ele>
        <time>2018-06-07T15:51:33Z</time>
      </trkpt>
      <trkpt lat="44.54735" lon="2.23619">
        <ele>236</ele>
        <time>2018-06-07T15:51:34Z</time>
      </trkpt>
      <trkpt lat="44.54735" lon="2.23627">
        <ele>236</ele>
        <time>2018-06-07T15:51:36Z</time>
      </trkpt>
      <trkpt lat="44.54733" lon="2.2363">
        <ele>236</ele>
        <time>2018-06-07T15:51:37Z</time>
      </trkpt>
      <trkpt lat="44.54734" lon="2.23636">
        <ele>235</ele>
        <time>2018-06-07T15:51:39Z</time>
      </trkpt>
      <trkpt lat="44.54732" lon="2.23642">
        <ele>235</ele>
        <time>2018-06-07T15:51:40Z</time>
      </trkpt>
      <trkpt lat="44.54735" lon="2.23647">
        <ele>235</ele>
        <time>2018-06-07T15:51:42Z</time>
      </trkpt>
      <trkpt lat="44.54737" lon="2.23655">
        <ele>235</ele>
        <time>2018-06-07T15:51:44Z</time>
      </trkpt>
      <trkpt lat="44.54737" lon="2.2366">
        <ele>235</ele>
        <time>2018-06-07T15:51:45Z</time>
      </trkpt>
      <trkpt lat="44.54744" lon="2.23666">
        <ele>235</ele>
        <time>2018-06-07T15:51:46Z</time>
      </trkpt>
      <trkpt lat="44.54744" lon="2.23674">
        <ele>234</ele>
        <time>2018-06-07T15:51:49Z</time>
      </trkpt>
      <trkpt lat="44.54745" lon="2.23679">
        <ele>233</ele>
        <time>2018-06-07T15:51:51Z</time>
      </trkpt>
      <trkpt lat="44.54743" lon="2.23685">
        <ele>233</ele>
        <time>2018-06-07T15:51:53Z</time>
      </trkpt>
      <trkpt lat="44.54741" lon="2.2369">
        <ele>232</ele>
        <time>2018-06-07T15:51:54Z</time>
      </trkpt>
      <trkpt lat="44.54744" lon="2.23696">
        <ele>232</ele>
        <time>2018-06-07T15:51:55Z</time>
      </trkpt>
      <trkpt lat="44.54747" lon="2.23699">
        <ele>232</ele>
        <time>2018-06-07T15:51:56Z</time>
      </trkpt>
      <trkpt lat="44.54744" lon="2.23702">
        <ele>232</ele>
        <time>2018-06-07T15:51:57Z</time>
      </trkpt>
      <trkpt lat="44.54746" lon="2.23706">
        <ele>232</ele>
        <time>2018-06-07T15:51:58Z</time>
      </trkpt>
      <trkpt lat="44.54747" lon="2.2371">
        <ele>231</ele>
        <time>2018-06-07T15:51:59Z</time>
      </trkpt>
      <trkpt lat="44.54749" lon="2.23743">
        <ele>230</ele>
        <time>2018-06-07T15:52:09Z</time>
      </trkpt>
      <trkpt lat="44.54754" lon="2.23741">
        <ele>235</ele>
        <time>2018-06-07T15:52:10Z</time>
      </trkpt>
      <trkpt lat="44.54755" lon="2.23745">
        <ele>234</ele>
        <time>2018-06-07T15:52:11Z</time>
      </trkpt>
      <trkpt lat="44.54759" lon="2.23747">
        <ele>234</ele>
        <time>2018-06-07T15:52:12Z</time>
      </trkpt>
      <trkpt lat="44.54764" lon="2.23751">
        <ele>235</ele>
        <time>2018-06-07T15:52:13Z</time>
      </trkpt>
      <trkpt lat="44.54759" lon="2.23751">
        <ele>234</ele>
        <time>2018-06-07T15:52:14Z</time>
      </trkpt>
      <trkpt lat="44.54764" lon="2.23756">
        <ele>236</ele>
        <time>2018-06-07T15:52:15Z</time>
      </trkpt>
      <trkpt lat="44.54764" lon="2.2376">
        <ele>236</ele>
        <time>2018-06-07T15:52:16Z</time>
      </trkpt>
      <trkpt lat="44.54767" lon="2.23761">
        <ele>237</ele>
        <time>2018-06-07T15:52:19Z</time>
      </trkpt>
      <trkpt lat="44.5477" lon="2.23763">
        <ele>238</ele>
        <time>2018-06-07T15:52:21Z</time>
      </trkpt>
      <trkpt lat="44.54779" lon="2.2377">
        <ele>240</ele>
        <time>2018-06-07T15:52:24Z</time>
      </trkpt>
      <trkpt lat="44.54785" lon="2.23777">
        <ele>241</ele>
        <time>2018-06-07T15:52:26Z</time>
      </trkpt>
      <trkpt lat="44.54789" lon="2.23779">
        <ele>241</ele>
        <time>2018-06-07T15:52:27Z</time>
      </trkpt>
      <trkpt lat="44.54792" lon="2.23784">
        <ele>242</ele>
        <time>2018-06-07T15:52:28Z</time>
      </trkpt>
      <trkpt lat="44.54801" lon="2.23784">
        <ele>243</ele>
        <time>2018-06-07T15:52:29Z</time>
      </trkpt>
      <trkpt lat="44.54801" lon="2.2379">
        <ele>243</ele>
        <time>2018-06-07T15:52:31Z</time>
      </trkpt>
      <trkpt lat="44.54805" lon="2.23793">
        <ele>243</ele>
        <time>2018-06-07T15:52:32Z</time>
      </trkpt>
      <trkpt lat="44.54813" lon="2.23797">
        <ele>243</ele>
        <time>2018-06-07T15:52:34Z</time>
      </trkpt>
      <trkpt lat="44.54815" lon="2.238">
        <ele>244</ele>
        <time>2018-06-07T15:52:36Z</time>
      </trkpt>
      <trkpt lat="44.54817" lon="2.23804">
        <ele>244</ele>
        <time>2018-06-07T15:52:38Z</time>
      </trkpt>
      <trkpt lat="44.54819" lon="2.23807">
        <ele>244</ele>
        <time>2018-06-07T15:52:39Z</time>
      </trkpt>
      <trkpt lat="44.54821" lon="2.2381">
        <ele>244</ele>
        <time>2018-06-07T15:52:40Z</time>
      </trkpt>
      <trkpt lat="44.54823" lon="2.23813">
        <ele>244</ele>
        <time>2018-06-07T15:52:42Z</time>
      </trkpt>
      <trkpt lat="44.54822" lon="2.23817">
        <ele>244</ele>
        <time>2018-06-07T15:52:44Z</time>
      </trkpt>
      <trkpt lat="44.54824" lon="2.23824">
        <ele>244</ele>
        <time>2018-06-07T15:52:46Z</time>
      </trkpt>
      <trkpt lat="44.54827" lon="2.23827">
        <ele>245</ele>
        <time>2018-06-07T15:52:48Z</time>
      </trkpt>
      <trkpt lat="44.54825" lon="2.23832">
        <ele>245</ele>
        <time>2018-06-07T15:52:49Z</time>
      </trkpt>
      <trkpt lat="44.54826" lon="2.23835">
        <ele>246</ele>
        <time>2018-06-07T15:52:50Z</time>
      </trkpt>
      <trkpt lat="44.54827" lon="2.23838">
        <ele>246</ele>
        <time>2018-06-07T15:52:51Z</time>
      </trkpt>
      <trkpt lat="44.54832" lon="2.23839">
        <ele>246</ele>
        <time>2018-06-07T15:52:54Z</time>
      </trkpt>
      <trkpt lat="44.54834" lon="2.23842">
        <ele>247</ele>
        <time>2018-06-07T15:52:55Z</time>
      </trkpt>
      <trkpt lat="44.54838" lon="2.23851">
        <ele>248</ele>
        <time>2018-06-07T15:52:57Z</time>
      </trkpt>
      <trkpt lat="44.54842" lon="2.23856">
        <ele>249</ele>
        <time>2018-06-07T15:52:59Z</time>
      </trkpt>
      <trkpt lat="44.54846" lon="2.23861">
        <ele>249</ele>
        <time>2018-06-07T15:53:00Z</time>
      </trkpt>
      <trkpt lat="44.54848" lon="2.23866">
        <ele>249</ele>
        <time>2018-06-07T15:53:01Z</time>
      </trkpt>
      <trkpt lat="44.54849" lon="2.2387">
        <ele>249</ele>
        <time>2018-06-07T15:53:02Z</time>
      </trkpt>
      <trkpt lat="44.54851" lon="2.23874">
        <ele>249</ele>
        <time>2018-06-07T15:53:03Z</time>
      </trkpt>
      <trkpt lat="44.54853" lon="2.2388">
        <ele>249</ele>
        <time>2018-06-07T15:53:05Z</time>
      </trkpt>
      <trkpt lat="44.54856" lon="2.23886">
        <ele>249</ele>
        <time>2018-06-07T15:53:07Z</time>
      </trkpt>
      <trkpt lat="44.54856" lon="2.2389">
        <ele>249</ele>
        <time>2018-06-07T15:53:08Z</time>
      </trkpt>
      <trkpt lat="44.54857" lon="2.23896">
        <ele>249</ele>
        <time>2018-06-07T15:53:09Z</time>
      </trkpt>
      <trkpt lat="44.5486" lon="2.239">
        <ele>249</ele>
        <time>2018-06-07T15:53:10Z</time>
      </trkpt>
      <trkpt lat="44.54869" lon="2.23904">
        <ele>249</ele>
        <time>2018-06-07T15:53:11Z</time>
      </trkpt>
      <trkpt lat="44.54871" lon="2.23907">
        <ele>249</ele>
        <time>2018-06-07T15:53:12Z</time>
      </trkpt>
      <trkpt lat="44.54878" lon="2.2391">
        <ele>249</ele>
        <time>2018-06-07T15:53:13Z</time>
      </trkpt>
      <trkpt lat="44.54875" lon="2.23913">
        <ele>249</ele>
        <time>2018-06-07T15:53:15Z</time>
      </trkpt>
      <trkpt lat="44.54879" lon="2.23913">
        <ele>249</ele>
        <time>2018-06-07T15:53:17Z</time>
      </trkpt>
      <trkpt lat="44.54881" lon="2.23918">
        <ele>247</ele>
        <time>2018-06-07T15:53:20Z</time>
      </trkpt>
      <trkpt lat="44.54884" lon="2.23917">
        <ele>247</ele>
        <time>2018-06-07T15:53:22Z</time>
      </trkpt>
      <trkpt lat="44.54887" lon="2.23918">
        <ele>247</ele>
        <time>2018-06-07T15:53:24Z</time>
      </trkpt>
      <trkpt lat="44.5489" lon="2.23922">
        <ele>247</ele>
        <time>2018-06-07T15:53:26Z</time>
      </trkpt>
      <trkpt lat="44.5489" lon="2.23927">
        <ele>247</ele>
        <time>2018-06-07T15:53:28Z</time>
      </trkpt>
      <trkpt lat="44.54895" lon="2.23929">
        <ele>247</ele>
        <time>2018-06-07T15:53:29Z</time>
      </trkpt>
      <trkpt lat="44.54896" lon="2.23932">
        <ele>247</ele>
        <time>2018-06-07T15:53:31Z</time>
      </trkpt>
      <trkpt lat="44.54901" lon="2.23936">
        <ele>247</ele>
        <time>2018-06-07T15:53:34Z</time>
      </trkpt>
      <trkpt lat="44.54904" lon="2.2394">
        <ele>247</ele>
        <time>2018-06-07T15:53:35Z</time>
      </trkpt>
      <trkpt lat="44.54905" lon="2.23945">
        <ele>247</ele>
        <time>2018-06-07T15:53:36Z</time>
      </trkpt>
      <trkpt lat="44.54908" lon="2.23949">
        <ele>247</ele>
        <time>2018-06-07T15:53:37Z</time>
      </trkpt>
      <trkpt lat="44.5492" lon="2.23948">
        <ele>247</ele>
        <time>2018-06-07T15:53:38Z</time>
      </trkpt>
      <trkpt lat="44.54922" lon="2.23952">
        <ele>247</ele>
        <time>2018-06-07T15:53:39Z</time>
      </trkpt>
      <trkpt lat="44.54926" lon="2.23957">
        <ele>247</ele>
        <time>2018-06-07T15:53:41Z</time>
      </trkpt>
      <trkpt lat="44.54929" lon="2.23959">
        <ele>247</ele>
        <time>2018-06-07T15:53:43Z</time>
      </trkpt>
      <trkpt lat="44.54932" lon="2.23961">
        <ele>247</ele>
        <time>2018-06-07T15:53:44Z</time>
      </trkpt>
      <trkpt lat="44.54937" lon="2.23959">
        <ele>247</ele>
        <time>2018-06-07T15:53:46Z</time>
      </trkpt>
      <trkpt lat="44.54941" lon="2.23957">
        <ele>247</ele>
        <time>2018-06-07T15:53:47Z</time>
      </trkpt>
      <trkpt lat="44.54945" lon="2.23959">
        <ele>247</ele>
        <time>2018-06-07T15:53:51Z</time>
      </trkpt>
      <trkpt lat="44.54947" lon="2.23961">
        <ele>247</ele>
        <time>2018-06-07T15:53:52Z</time>
      </trkpt>
      <trkpt lat="44.54949" lon="2.23957">
        <ele>248</ele>
        <time>2018-06-07T15:53:53Z</time>
      </trkpt>
      <trkpt lat="44.54952" lon="2.23958">
        <ele>248</ele>
        <time>2018-06-07T15:53:55Z</time>
      </trkpt>
      <trkpt lat="44.54956" lon="2.2396">
        <ele>248</ele>
        <time>2018-06-07T15:53:56Z</time>
      </trkpt>
      <trkpt lat="44.54962" lon="2.23953">
        <ele>248</ele>
        <time>2018-06-07T15:53:58Z</time>
      </trkpt>
      <trkpt lat="44.54966" lon="2.23953">
        <ele>248</ele>
        <time>2018-06-07T15:53:59Z</time>
      </trkpt>
      <trkpt lat="44.5497" lon="2.23958">
        <ele>248</ele>
        <time>2018-06-07T15:54:00Z</time>
      </trkpt>
      <trkpt lat="44.54974" lon="2.23956">
        <ele>248</ele>
        <time>2018-06-07T15:54:01Z</time>
      </trkpt>
      <trkpt lat="44.54971" lon="2.23961">
        <ele>248</ele>
        <time>2018-06-07T15:54:02Z</time>
      </trkpt>
      <trkpt lat="44.54976" lon="2.23956">
        <ele>248</ele>
        <time>2018-06-07T15:54:03Z</time>
      </trkpt>
      <trkpt lat="44.54981" lon="2.23957">
        <ele>248</ele>
        <time>2018-06-07T15:54:04Z</time>
      </trkpt>
      <trkpt lat="44.54987" lon="2.23952">
        <ele>249</ele>
        <time>2018-06-07T15:54:05Z</time>
      </trkpt>
      <trkpt lat="44.54986" lon="2.23956">
        <ele>248</ele>
        <time>2018-06-07T15:54:06Z</time>
      </trkpt>
      <trkpt lat="44.55011" lon="2.23953">
        <ele>252</ele>
        <time>2018-06-07T15:54:12Z</time>
      </trkpt>
      <trkpt lat="44.55014" lon="2.23956">
        <ele>252</ele>
        <time>2018-06-07T15:54:14Z</time>
      </trkpt>
      <trkpt lat="44.55017" lon="2.23961">
        <ele>251</ele>
        <time>2018-06-07T15:54:15Z</time>
      </trkpt>
      <trkpt lat="44.5502" lon="2.2396">
        <ele>251</ele>
        <time>2018-06-07T15:54:16Z</time>
      </trkpt>
      <trkpt lat="44.55023" lon="2.23962">
        <ele>251</ele>
        <time>2018-06-07T15:54:17Z</time>
      </trkpt>
      <trkpt lat="44.55027" lon="2.23959">
        <ele>252</ele>
        <time>2018-06-07T15:54:19Z</time>
      </trkpt>
      <trkpt lat="44.5503" lon="2.23962">
        <ele>252</ele>
        <time>2018-06-07T15:54:23Z</time>
      </trkpt>
      <trkpt lat="44.55028" lon="2.23967">
        <ele>251</ele>
        <time>2018-06-07T15:54:24Z</time>
      </trkpt>
      <trkpt lat="44.55031" lon="2.23971">
        <ele>251</ele>
        <time>2018-06-07T15:54:25Z</time>
      </trkpt>
      <trkpt lat="44.55033" lon="2.23977">
        <ele>251</ele>
        <time>2018-06-07T15:54:29Z</time>
      </trkpt>
      <trkpt lat="44.55036" lon="2.23981">
        <ele>251</ele>
        <time>2018-06-07T15:54:30Z</time>
      </trkpt>
      <trkpt lat="44.55041" lon="2.23982">
        <ele>251</ele>
        <time>2018-06-07T15:54:32Z</time>
      </trkpt>
      <trkpt lat="44.55044" lon="2.23981">
        <ele>251</ele>
        <time>2018-06-07T15:54:33Z</time>
      </trkpt>
      <trkpt lat="44.55045" lon="2.23985">
        <ele>251</ele>
        <time>2018-06-07T15:54:35Z</time>
      </trkpt>
      <trkpt lat="44.55047" lon="2.2399">
        <ele>251</ele>
        <time>2018-06-07T15:54:37Z</time>
      </trkpt>
      <trkpt lat="44.5505" lon="2.23992">
        <ele>251</ele>
        <time>2018-06-07T15:54:38Z</time>
      </trkpt>
      <trkpt lat="44.55054" lon="2.23994">
        <ele>251</ele>
        <time>2018-06-07T15:54:40Z</time>
      </trkpt>
      <trkpt lat="44.55058" lon="2.23992">
        <ele>251</ele>
        <time>2018-06-07T15:54:41Z</time>
      </trkpt>
      <trkpt lat="44.5506" lon="2.23993">
        <ele>251</ele>
        <time>2018-06-07T15:54:42Z</time>
      </trkpt>
      <trkpt lat="44.55068" lon="2.23992">
        <ele>251</ele>
        <time>2018-06-07T15:54:44Z</time>
      </trkpt>
      <trkpt lat="44.55073" lon="2.23994">
        <ele>250</ele>
        <time>2018-06-07T15:54:45Z</time>
      </trkpt>
      <trkpt lat="44.55075" lon="2.23997">
        <ele>250</ele>
        <time>2018-06-07T15:54:46Z</time>
      </trkpt>
      <trkpt lat="44.55079" lon="2.23997">
        <ele>250</ele>
        <time>2018-06-07T15:54:47Z</time>
      </trkpt>
      <trkpt lat="44.55084" lon="2.23998">
        <ele>250</ele>
        <time>2018-06-07T15:54:50Z</time>
      </trkpt>
      <trkpt lat="44.55087" lon="2.23998">
        <ele>250</ele>
        <time>2018-06-07T15:54:51Z</time>
      </trkpt>
      <trkpt lat="44.55091" lon="2.24">
        <ele>251</ele>
        <time>2018-06-07T15:54:53Z</time>
      </trkpt>
      <trkpt lat="44.55097" lon="2.23998">
        <ele>252</ele>
        <time>2018-06-07T15:54:59Z</time>
      </trkpt>
      <trkpt lat="44.55101" lon="2.23995">
        <ele>253</ele>
        <time>2018-06-07T15:55:00Z</time>
      </trkpt>
      <trkpt lat="44.55109" lon="2.23992">
        <ele>254</ele>
        <time>2018-06-07T15:55:01Z</time>
      </trkpt>
      <trkpt lat="44.55111" lon="2.23998">
        <ele>254</ele>
        <time>2018-06-07T15:55:03Z</time>
      </trkpt>
      <trkpt lat="44.55112" lon="2.24008">
        <ele>253</ele>
        <time>2018-06-07T15:55:05Z</time>
      </trkpt>
      <trkpt lat="44.55113" lon="2.24013">
        <ele>253</ele>
        <time>2018-06-07T15:55:06Z</time>
      </trkpt>
      <trkpt lat="44.55117" lon="2.24015">
        <ele>254</ele>
        <time>2018-06-07T15:55:09Z</time>
      </trkpt>
      <trkpt lat="44.55121" lon="2.24015">
        <ele>254</ele>
        <time>2018-06-07T15:55:10Z</time>
      </trkpt>
      <trkpt lat="44.55122" lon="2.24019">
        <ele>254</ele>
        <time>2018-06-07T15:55:11Z</time>
      </trkpt>
      <trkpt lat="44.55125" lon="2.24018">
        <ele>254</ele>
        <time>2018-06-07T15:55:13Z</time>
      </trkpt>
      <trkpt lat="44.55128" lon="2.24019">
        <ele>254</ele>
        <time>2018-06-07T15:55:14Z</time>
      </trkpt>
      <trkpt lat="44.55132" lon="2.2402">
        <ele>254</ele>
        <time>2018-06-07T15:55:15Z</time>
      </trkpt>
      <trkpt lat="44.55135" lon="2.24023">
        <ele>255</ele>
        <time>2018-06-07T15:55:16Z</time>
      </trkpt>
      <trkpt lat="44.55138" lon="2.24027">
        <ele>255</ele>
        <time>2018-06-07T15:55:19Z</time>
      </trkpt>
      <trkpt lat="44.55141" lon="2.24031">
        <ele>255</ele>
        <time>2018-06-07T15:55:21Z</time>
      </trkpt>
      <trkpt lat="44.55147" lon="2.24039">
        <ele>255</ele>
        <time>2018-06-07T15:55:24Z</time>
      </trkpt>
      <trkpt lat="44.55149" lon="2.24042">
        <ele>255</ele>
        <time>2018-06-07T15:55:25Z</time>
      </trkpt>
      <trkpt lat="44.55153" lon="2.24039">
        <ele>255</ele>
        <time>2018-06-07T15:55:26Z</time>
      </trkpt>
      <trkpt lat="44.55158" lon="2.2404">
        <ele>255</ele>
        <time>2018-06-07T15:55:28Z</time>
      </trkpt>
      <trkpt lat="44.55163" lon="2.24041">
        <ele>255</ele>
        <time>2018-06-07T15:55:29Z</time>
      </trkpt>
      <trkpt lat="44.55168" lon="2.24043">
        <ele>257</ele>
        <time>2018-06-07T15:55:30Z</time>
      </trkpt>
      <trkpt lat="44.55172" lon="2.24044">
        <ele>257</ele>
        <time>2018-06-07T15:55:31Z</time>
      </trkpt>
      <trkpt lat="44.55176" lon="2.24047">
        <ele>257</ele>
        <time>2018-06-07T15:55:32Z</time>
      </trkpt>
      <trkpt lat="44.55177" lon="2.24051">
        <ele>257</ele>
        <time>2018-06-07T15:55:35Z</time>
      </trkpt>
      <trkpt lat="44.55175" lon="2.24053">
        <ele>257</ele>
        <time>2018-06-07T15:55:37Z</time>
      </trkpt>
      <trkpt lat="44.55177" lon="2.24058">
        <ele>257</ele>
        <time>2018-06-07T15:55:40Z</time>
      </trkpt>
      <trkpt lat="44.55174" lon="2.24057">
        <ele>257</ele>
        <time>2018-06-07T15:55:42Z</time>
      </trkpt>
      <trkpt lat="44.55169" lon="2.24056">
        <ele>257</ele>
        <time>2018-06-07T15:55:48Z</time>
      </trkpt>
      <trkpt lat="44.55166" lon="2.24057">
        <ele>256</ele>
        <time>2018-06-07T15:55:52Z</time>
      </trkpt>
      <trkpt lat="44.55161" lon="2.2406">
        <ele>256</ele>
        <time>2018-06-07T15:55:54Z</time>
      </trkpt>
      <trkpt lat="44.55154" lon="2.2406">
        <ele>256</ele>
        <time>2018-06-07T15:55:56Z</time>
      </trkpt>
      <trkpt lat="44.55151" lon="2.24062">
        <ele>256</ele>
        <time>2018-06-07T15:55:58Z</time>
      </trkpt>
      <trkpt lat="44.55147" lon="2.24062">
        <ele>256</ele>
        <time>2018-06-07T15:55:59Z</time>
      </trkpt>
      <trkpt lat="44.55144" lon="2.24063">
        <ele>256</ele>
        <time>2018-06-07T15:56:00Z</time>
      </trkpt>
      <trkpt lat="44.55141" lon="2.24063">
        <ele>256</ele>
        <time>2018-06-07T15:56:02Z</time>
      </trkpt>
      <trkpt lat="44.55138" lon="2.24068">
        <ele>256</ele>
        <time>2018-06-07T15:56:04Z</time>
      </trkpt>
      <trkpt lat="44.5514" lon="2.24072">
        <ele>256</ele>
        <time>2018-06-07T15:56:05Z</time>
      </trkpt>
      <trkpt lat="44.55136" lon="2.24075">
        <ele>256</ele>
        <time>2018-06-07T15:56:06Z</time>
      </trkpt>
      <trkpt lat="44.5513" lon="2.24071">
        <ele>255</ele>
        <time>2018-06-07T15:56:07Z</time>
      </trkpt>
      <trkpt lat="44.55125" lon="2.24067">
        <ele>255</ele>
        <time>2018-06-07T15:56:08Z</time>
      </trkpt>
      <trkpt lat="44.55128" lon="2.24069">
        <ele>255</ele>
        <time>2018-06-07T15:56:09Z</time>
      </trkpt>
      <trkpt lat="44.55125" lon="2.24074">
        <ele>255</ele>
        <time>2018-06-07T15:56:11Z</time>
      </trkpt>
      <trkpt lat="44.5512" lon="2.24074">
        <ele>255</ele>
        <time>2018-06-07T15:56:12Z</time>
      </trkpt>
      <trkpt lat="44.55118" lon="2.24081">
        <ele>256</ele>
        <time>2018-06-07T15:56:13Z</time>
      </trkpt>
      <trkpt lat="44.55114" lon="2.24085">
        <ele>261</ele>
        <time>2018-06-07T15:56:14Z</time>
      </trkpt>
      <trkpt lat="44.55112" lon="2.24081">
        <ele>256</ele>
        <time>2018-06-07T15:56:15Z</time>
      </trkpt>
      <trkpt lat="44.55108" lon="2.24081">
        <ele>256</ele>
        <time>2018-06-07T15:56:17Z</time>
      </trkpt>
      <trkpt lat="44.55103" lon="2.24084">
        <ele>261</ele>
        <time>2018-06-07T15:56:19Z</time>
      </trkpt>
      <trkpt lat="44.551" lon="2.24085">
        <ele>260</ele>
        <time>2018-06-07T15:56:20Z</time>
      </trkpt>
      <trkpt lat="44.55095" lon="2.24082">
        <ele>256</ele>
        <time>2018-06-07T15:56:21Z</time>
      </trkpt>
      <trkpt lat="44.55092" lon="2.24083">
        <ele>256</ele>
        <time>2018-06-07T15:56:22Z</time>
      </trkpt>
      <trkpt lat="44.55089" lon="2.24082">
        <ele>257</ele>
        <time>2018-06-07T15:56:23Z</time>
      </trkpt>
      <trkpt lat="44.55083" lon="2.2408">
        <ele>256</ele>
        <time>2018-06-07T15:56:25Z</time>
      </trkpt>
      <trkpt lat="44.55079" lon="2.24078">
        <ele>256</ele>
        <time>2018-06-07T15:56:26Z</time>
      </trkpt>
      <trkpt lat="44.55074" lon="2.24078">
        <ele>255</ele>
        <time>2018-06-07T15:56:27Z</time>
      </trkpt>
      <trkpt lat="44.5507" lon="2.24077">
        <ele>255</ele>
        <time>2018-06-07T15:56:28Z</time>
      </trkpt>
      <trkpt lat="44.55066" lon="2.24077">
        <ele>255</ele>
        <time>2018-06-07T15:56:29Z</time>
      </trkpt>
      <trkpt lat="44.55064" lon="2.24078">
        <ele>255</ele>
        <time>2018-06-07T15:56:30Z</time>
      </trkpt>
      <trkpt lat="44.55059" lon="2.24077">
        <ele>254</ele>
        <time>2018-06-07T15:56:31Z</time>
      </trkpt>
      <trkpt lat="44.55056" lon="2.24076">
        <ele>254</ele>
        <time>2018-06-07T15:56:32Z</time>
      </trkpt>
      <trkpt lat="44.55052" lon="2.24076">
        <ele>254</ele>
        <time>2018-06-07T15:56:33Z</time>
      </trkpt>
      <trkpt lat="44.55049" lon="2.24075">
        <ele>254</ele>
        <time>2018-06-07T15:56:34Z</time>
      </trkpt>
      <trkpt lat="44.55046" lon="2.24075">
        <ele>254</ele>
        <time>2018-06-07T15:56:35Z</time>
      </trkpt>
      <trkpt lat="44.5504" lon="2.24075">
        <ele>254</ele>
        <time>2018-06-07T15:56:36Z</time>
      </trkpt>
      <trkpt lat="44.55034" lon="2.24076">
        <ele>254</ele>
        <time>2018-06-07T15:56:39Z</time>
      </trkpt>
      <trkpt lat="44.55031" lon="2.24078">
        <ele>254</ele>
        <time>2018-06-07T15:56:42Z</time>
      </trkpt>
      <trkpt lat="44.55028" lon="2.24077">
        <ele>254</ele>
        <time>2018-06-07T15:56:43Z</time>
      </trkpt>
      <trkpt lat="44.55023" lon="2.24075">
        <ele>255</ele>
        <time>2018-06-07T15:56:44Z</time>
      </trkpt>
      <trkpt lat="44.55019" lon="2.24073">
        <ele>255</ele>
        <time>2018-06-07T15:56:48Z</time>
      </trkpt>
      <trkpt lat="44.55014" lon="2.24072">
        <ele>255</ele>
        <time>2018-06-07T15:56:49Z</time>
      </trkpt>
      <trkpt lat="44.55009" lon="2.24072">
        <ele>255</ele>
        <time>2018-06-07T15:56:51Z</time>
      </trkpt>
      <trkpt lat="44.55006" lon="2.24074">
        <ele>256</ele>
        <time>2018-06-07T15:56:54Z</time>
      </trkpt>
      <trkpt lat="44.54998" lon="2.24078">
        <ele>257</ele>
        <time>2018-06-07T15:56:56Z</time>
      </trkpt>
      <trkpt lat="44.54995" lon="2.24079">
        <ele>257</ele>
        <time>2018-06-07T15:56:58Z</time>
      </trkpt>
      <trkpt lat="44.54991" lon="2.24083">
        <ele>256</ele>
        <time>2018-06-07T15:57:01Z</time>
      </trkpt>
      <trkpt lat="44.54987" lon="2.24081">
        <ele>256</ele>
        <time>2018-06-07T15:57:02Z</time>
      </trkpt>
      <trkpt lat="44.54968" lon="2.24081">
        <ele>255</ele>
        <time>2018-06-07T15:57:09Z</time>
      </trkpt>
      <trkpt lat="44.54963" lon="2.2408">
        <ele>255</ele>
        <time>2018-06-07T15:57:10Z</time>
      </trkpt>
      <trkpt lat="44.54958" lon="2.24082">
        <ele>255</ele>
        <time>2018-06-07T15:57:12Z</time>
      </trkpt>
      <trkpt lat="44.54955" lon="2.24082">
        <ele>255</ele>
        <time>2018-06-07T15:57:15Z</time>
      </trkpt>
      <trkpt lat="44.54953" lon="2.24081">
        <ele>255</ele>
        <time>2018-06-07T15:57:16Z</time>
      </trkpt>
      <trkpt lat="44.54947" lon="2.2408">
        <ele>255</ele>
        <time>2018-06-07T15:57:18Z</time>
      </trkpt>
      <trkpt lat="44.54944" lon="2.24081">
        <ele>255</ele>
        <time>2018-06-07T15:57:19Z</time>
      </trkpt>
      <trkpt lat="44.5494" lon="2.2408">
        <ele>255</ele>
        <time>2018-06-07T15:57:21Z</time>
      </trkpt>
      <trkpt lat="44.54936" lon="2.24081">
        <ele>256</ele>
        <time>2018-06-07T15:57:23Z</time>
      </trkpt>
      <trkpt lat="44.54919" lon="2.2407">
        <ele>256</ele>
        <time>2018-06-07T15:57:27Z</time>
      </trkpt>
      <trkpt lat="44.54915" lon="2.2407">
        <ele>257</ele>
        <time>2018-06-07T15:57:28Z</time>
      </trkpt>
      <trkpt lat="44.54914" lon="2.24076">
        <ele>257</ele>
        <time>2018-06-07T15:57:30Z</time>
      </trkpt>
      <trkpt lat="44.54911" lon="2.24078">
        <ele>257</ele>
        <time>2018-06-07T15:57:31Z</time>
      </trkpt>
      <trkpt lat="44.54906" lon="2.24082">
        <ele>257</ele>
        <time>2018-06-07T15:57:32Z</time>
      </trkpt>
      <trkpt lat="44.54902" lon="2.24083">
        <ele>257</ele>
        <time>2018-06-07T15:57:33Z</time>
      </trkpt>
      <trkpt lat="44.54899" lon="2.24086">
        <ele>261</ele>
        <time>2018-06-07T15:57:34Z</time>
      </trkpt>
      <trkpt lat="44.54893" lon="2.24089">
        <ele>262</ele>
        <time>2018-06-07T15:57:37Z</time>
      </trkpt>
      <trkpt lat="44.54891" lon="2.24091">
        <ele>262</ele>
        <time>2018-06-07T15:57:38Z</time>
      </trkpt>
      <trkpt lat="44.54893" lon="2.24098">
        <ele>262</ele>
        <time>2018-06-07T15:57:39Z</time>
      </trkpt>
      <trkpt lat="44.5489" lon="2.24097">
        <ele>262</ele>
        <time>2018-06-07T15:57:41Z</time>
      </trkpt>
      <trkpt lat="44.54891" lon="2.24103">
        <ele>262</ele>
        <time>2018-06-07T15:57:42Z</time>
      </trkpt>
      <trkpt lat="44.54891" lon="2.24107">
        <ele>263</ele>
        <time>2018-06-07T15:57:43Z</time>
      </trkpt>
      <trkpt lat="44.54892" lon="2.2411">
        <ele>263</ele>
        <time>2018-06-07T15:57:45Z</time>
      </trkpt>
      <trkpt lat="44.54891" lon="2.24115">
        <ele>263</ele>
        <time>2018-06-07T15:57:47Z</time>
      </trkpt>
      <trkpt lat="44.54888" lon="2.24117">
        <ele>264</ele>
        <time>2018-06-07T15:57:48Z</time>
      </trkpt>
      <trkpt lat="44.54888" lon="2.24124">
        <ele>264</ele>
        <time>2018-06-07T15:57:50Z</time>
      </trkpt>
      <trkpt lat="44.54888" lon="2.24129">
        <ele>265</ele>
        <time>2018-06-07T15:57:52Z</time>
      </trkpt>
      <trkpt lat="44.54881" lon="2.24138">
        <ele>265</ele>
        <time>2018-06-07T15:57:53Z</time>
      </trkpt>
      <trkpt lat="44.54881" lon="2.24145">
        <ele>266</ele>
        <time>2018-06-07T15:57:54Z</time>
      </trkpt>
      <trkpt lat="44.54876" lon="2.24146">
        <ele>265</ele>
        <time>2018-06-07T15:57:55Z</time>
      </trkpt>
      <trkpt lat="44.54873" lon="2.24144">
        <ele>265</ele>
        <time>2018-06-07T15:57:58Z</time>
      </trkpt>
      <trkpt lat="44.54872" lon="2.24148">
        <ele>265</ele>
        <time>2018-06-07T15:58:01Z</time>
      </trkpt>
      <trkpt lat="44.54871" lon="2.24153">
        <ele>265</ele>
        <time>2018-06-07T15:58:03Z</time>
      </trkpt>
      <trkpt lat="44.5487" lon="2.24158">
        <ele>266</ele>
        <time>2018-06-07T15:58:05Z</time>
      </trkpt>
      <trkpt lat="44.5487" lon="2.24162">
        <ele>266</ele>
        <time>2018-06-07T15:58:06Z</time>
      </trkpt>
      <trkpt lat="44.54867" lon="2.24163">
        <ele>265</ele>
        <time>2018-06-07T15:58:08Z</time>
      </trkpt>
      <trkpt lat="44.54862" lon="2.24164">
        <ele>265</ele>
        <time>2018-06-07T15:58:11Z</time>
      </trkpt>
      <trkpt lat="44.54859" lon="2.2417">
        <ele>273</ele>
        <time>2018-06-07T15:58:13Z</time>
      </trkpt>
      <trkpt lat="44.54855" lon="2.24174">
        <ele>273</ele>
        <time>2018-06-07T15:58:15Z</time>
      </trkpt>
      <trkpt lat="44.54853" lon="2.24179">
        <ele>273</ele>
        <time>2018-06-07T15:58:16Z</time>
      </trkpt>
      <trkpt lat="44.5485" lon="2.24183">
        <ele>273</ele>
        <time>2018-06-07T15:58:17Z</time>
      </trkpt>
      <trkpt lat="44.54851" lon="2.24188">
        <ele>274</ele>
        <time>2018-06-07T15:58:19Z</time>
      </trkpt>
      <trkpt lat="44.54847" lon="2.24193">
        <ele>275</ele>
        <time>2018-06-07T15:58:20Z</time>
      </trkpt>
      <trkpt lat="44.54847" lon="2.24198">
        <ele>276</ele>
        <time>2018-06-07T15:58:22Z</time>
      </trkpt>
      <trkpt lat="44.54844" lon="2.24202">
        <ele>276</ele>
        <time>2018-06-07T15:58:24Z</time>
      </trkpt>
      <trkpt lat="44.54842" lon="2.24206">
        <ele>277</ele>
        <time>2018-06-07T15:58:26Z</time>
      </trkpt>
      <trkpt lat="44.5484" lon="2.2421">
        <ele>277</ele>
        <time>2018-06-07T15:58:27Z</time>
      </trkpt>
      <trkpt lat="44.54839" lon="2.24214">
        <ele>278</ele>
        <time>2018-06-07T15:58:28Z</time>
      </trkpt>
      <trkpt lat="44.54837" lon="2.24221">
        <ele>279</ele>
        <time>2018-06-07T15:58:30Z</time>
      </trkpt>
      <trkpt lat="44.54834" lon="2.24225">
        <ele>279</ele>
        <time>2018-06-07T15:58:32Z</time>
      </trkpt>
      <trkpt lat="44.54833" lon="2.24232">
        <ele>276</ele>
        <time>2018-06-07T15:58:35Z</time>
      </trkpt>
      <trkpt lat="44.54833" lon="2.24236">
        <ele>277</ele>
        <time>2018-06-07T15:58:37Z</time>
      </trkpt>
      <trkpt lat="44.5483" lon="2.24241">
        <ele>279</ele>
        <time>2018-06-07T15:58:38Z</time>
      </trkpt>
      <trkpt lat="44.54827" lon="2.24246">
        <ele>279</ele>
        <time>2018-06-07T15:58:40Z</time>
      </trkpt>
      <trkpt lat="44.54828" lon="2.2425">
        <ele>282</ele>
        <time>2018-06-07T15:58:42Z</time>
      </trkpt>
      <trkpt lat="44.54828" lon="2.24257">
        <ele>283</ele>
        <time>2018-06-07T15:58:44Z</time>
      </trkpt>
      <trkpt lat="44.54823" lon="2.24265">
        <ele>283</ele>
        <time>2018-06-07T15:58:46Z</time>
      </trkpt>
      <trkpt lat="44.54822" lon="2.24271">
        <ele>284</ele>
        <time>2018-06-07T15:58:47Z</time>
      </trkpt>
      <trkpt lat="44.54818" lon="2.24273">
        <ele>284</ele>
        <time>2018-06-07T15:58:48Z</time>
      </trkpt>
      <trkpt lat="44.54813" lon="2.24268">
        <ele>284</ele>
        <time>2018-06-07T15:58:49Z</time>
      </trkpt>
      <trkpt lat="44.54809" lon="2.2427">
        <ele>284</ele>
        <time>2018-06-07T15:58:52Z</time>
      </trkpt>
      <trkpt lat="44.54807" lon="2.24274">
        <ele>284</ele>
        <time>2018-06-07T15:58:56Z</time>
      </trkpt>
      <trkpt lat="44.54805" lon="2.2428">
        <ele>284</ele>
        <time>2018-06-07T15:58:57Z</time>
      </trkpt>
      <trkpt lat="44.54804" lon="2.24286">
        <ele>285</ele>
        <time>2018-06-07T15:58:58Z</time>
      </trkpt>
      <trkpt lat="44.54801" lon="2.2429">
        <ele>285</ele>
        <time>2018-06-07T15:58:59Z</time>
      </trkpt>
      <trkpt lat="44.54797" lon="2.24292">
        <ele>285</ele>
        <time>2018-06-07T15:59:01Z</time>
      </trkpt>
      <trkpt lat="44.54796" lon="2.24298">
        <ele>285</ele>
        <time>2018-06-07T15:59:03Z</time>
      </trkpt>
      <trkpt lat="44.54795" lon="2.24303">
        <ele>285</ele>
        <time>2018-06-07T15:59:04Z</time>
      </trkpt>
      <trkpt lat="44.54793" lon="2.24307">
        <ele>285</ele>
        <time>2018-06-07T15:59:06Z</time>
      </trkpt>
      <trkpt lat="44.5479" lon="2.24308">
        <ele>285</ele>
        <time>2018-06-07T15:59:08Z</time>
      </trkpt>
      <trkpt lat="44.54787" lon="2.24312">
        <ele>285</ele>
        <time>2018-06-07T15:59:10Z</time>
      </trkpt>
      <trkpt lat="44.54785" lon="2.24315">
        <ele>286</ele>
        <time>2018-06-07T15:59:11Z</time>
      </trkpt>
      <trkpt lat="44.54783" lon="2.24318">
        <ele>286</ele>
        <time>2018-06-07T15:59:12Z</time>
      </trkpt>
      <trkpt lat="44.54778" lon="2.24317">
        <ele>286</ele>
        <time>2018-06-07T15:59:13Z</time>
      </trkpt>
      <trkpt lat="44.54774" lon="2.24322">
        <ele>286</ele>
        <time>2018-06-07T15:59:15Z</time>
      </trkpt>
      <trkpt lat="44.54772" lon="2.24327">
        <ele>286</ele>
        <time>2018-06-07T15:59:16Z</time>
      </trkpt>
      <trkpt lat="44.54768" lon="2.24328">
        <ele>286</ele>
        <time>2018-06-07T15:59:19Z</time>
      </trkpt>
      <trkpt lat="44.54764" lon="2.24332">
        <ele>286</ele>
        <time>2018-06-07T15:59:21Z</time>
      </trkpt>
      <trkpt lat="44.54761" lon="2.24337">
        <ele>290</ele>
        <time>2018-06-07T15:59:23Z</time>
      </trkpt>
      <trkpt lat="44.54758" lon="2.24339">
        <ele>289</ele>
        <time>2018-06-07T15:59:24Z</time>
      </trkpt>
      <trkpt lat="44.54755" lon="2.24341">
        <ele>289</ele>
        <time>2018-06-07T15:59:26Z</time>
      </trkpt>
      <trkpt lat="44.54752" lon="2.24345">
        <ele>290</ele>
        <time>2018-06-07T15:59:28Z</time>
      </trkpt>
      <trkpt lat="44.54749" lon="2.24346">
        <ele>290</ele>
        <time>2018-06-07T15:59:29Z</time>
      </trkpt>
      <trkpt lat="44.54745" lon="2.24347">
        <ele>290</ele>
        <time>2018-06-07T15:59:30Z</time>
      </trkpt>
      <trkpt lat="44.54741" lon="2.24349">
        <ele>290</ele>
        <time>2018-06-07T15:59:32Z</time>
      </trkpt>
      <trkpt lat="44.54735" lon="2.2435">
        <ele>291</ele>
        <time>2018-06-07T15:59:34Z</time>
      </trkpt>
      <trkpt lat="44.54731" lon="2.24352">
        <ele>291</ele>
        <time>2018-06-07T15:59:36Z</time>
      </trkpt>
      <trkpt lat="44.54726" lon="2.24355">
        <ele>292</ele>
        <time>2018-06-07T15:59:38Z</time>
      </trkpt>
      <trkpt lat="44.54722" lon="2.24359">
        <ele>292</ele>
        <time>2018-06-07T15:59:40Z</time>
      </trkpt>
      <trkpt lat="44.5472" lon="2.24362">
        <ele>292</ele>
        <time>2018-06-07T15:59:41Z</time>
      </trkpt>
      <trkpt lat="44.54718" lon="2.24364">
        <ele>293</ele>
        <time>2018-06-07T15:59:42Z</time>
      </trkpt>
      <trkpt lat="44.54714" lon="2.24366">
        <ele>293</ele>
        <time>2018-06-07T15:59:44Z</time>
      </trkpt>
      <trkpt lat="44.54711" lon="2.24367">
        <ele>293</ele>
        <time>2018-06-07T15:59:45Z</time>
      </trkpt>
      <trkpt lat="44.54705" lon="2.2437">
        <ele>293</ele>
        <time>2018-06-07T15:59:47Z</time>
      </trkpt>
      <trkpt lat="44.54702" lon="2.24372">
        <ele>293</ele>
        <time>2018-06-07T15:59:48Z</time>
      </trkpt>
      <trkpt lat="44.54698" lon="2.24374">
        <ele>293</ele>
        <time>2018-06-07T15:59:50Z</time>
      </trkpt>
      <trkpt lat="44.54694" lon="2.24378">
        <ele>294</ele>
        <time>2018-06-07T15:59:52Z</time>
      </trkpt>
      <trkpt lat="44.54693" lon="2.24381">
        <ele>294</ele>
        <time>2018-06-07T15:59:53Z</time>
      </trkpt>
      <trkpt lat="44.5469" lon="2.24386">
        <ele>295</ele>
        <time>2018-06-07T15:59:54Z</time>
      </trkpt>
      <trkpt lat="44.54687" lon="2.24388">
        <ele>295</ele>
        <time>2018-06-07T15:59:55Z</time>
      </trkpt>
      <trkpt lat="44.54683" lon="2.24391">
        <ele>295</ele>
        <time>2018-06-07T15:59:57Z</time>
      </trkpt>
      <trkpt lat="44.5468" lon="2.24394">
        <ele>296</ele>
        <time>2018-06-07T15:59:58Z</time>
      </trkpt>
      <trkpt lat="44.54676" lon="2.24396">
        <ele>296</ele>
        <time>2018-06-07T16:00:00Z</time>
      </trkpt>
      <trkpt lat="44.54672" lon="2.24399">
        <ele>296</ele>
        <time>2018-06-07T16:00:02Z</time>
      </trkpt>
      <trkpt lat="44.54669" lon="2.24398">
        <ele>296</ele>
        <time>2018-06-07T16:00:04Z</time>
      </trkpt>
      <trkpt lat="44.54667" lon="2.24403">
        <ele>297</ele>
        <time>2018-06-07T16:00:06Z</time>
      </trkpt>
      <trkpt lat="44.54664" lon="2.24404">
        <ele>295</ele>
        <time>2018-06-07T16:00:07Z</time>
      </trkpt>
      <trkpt lat="44.54661" lon="2.24406">
        <ele>296</ele>
        <time>2018-06-07T16:00:08Z</time>
      </trkpt>
      <trkpt lat="44.54659" lon="2.2441">
        <ele>296</ele>
        <time>2018-06-07T16:00:09Z</time>
      </trkpt>
      <trkpt lat="44.54657" lon="2.24412">
        <ele>296</ele>
        <time>2018-06-07T16:00:10Z</time>
      </trkpt>
      <trkpt lat="44.54655" lon="2.24416">
        <ele>296</ele>
        <time>2018-06-07T16:00:11Z</time>
      </trkpt>
      <trkpt lat="44.54651" lon="2.24415">
        <ele>295</ele>
        <time>2018-06-07T16:00:14Z</time>
      </trkpt>
      <trkpt lat="44.54648" lon="2.2442">
        <ele>300</ele>
        <time>2018-06-07T16:00:16Z</time>
      </trkpt>
      <trkpt lat="44.54646" lon="2.24424">
        <ele>300</ele>
        <time>2018-06-07T16:00:17Z</time>
      </trkpt>
      <trkpt lat="44.54646" lon="2.24429">
        <ele>300</ele>
        <time>2018-06-07T16:00:18Z</time>
      </trkpt>
      <trkpt lat="44.54642" lon="2.24432">
        <ele>300</ele>
        <time>2018-06-07T16:00:19Z</time>
      </trkpt>
      <trkpt lat="44.54645" lon="2.24434">
        <ele>300</ele>
        <time>2018-06-07T16:00:20Z</time>
      </trkpt>
      <trkpt lat="44.54642" lon="2.24439">
        <ele>301</ele>
        <time>2018-06-07T16:00:23Z</time>
      </trkpt>
      <trkpt lat="44.54636" lon="2.24441">
        <ele>300</ele>
        <time>2018-06-07T16:00:25Z</time>
      </trkpt>
      <trkpt lat="44.54636" lon="2.24447">
        <ele>301</ele>
        <time>2018-06-07T16:00:27Z</time>
      </trkpt>
      <trkpt lat="44.54633" lon="2.2445">
        <ele>301</ele>
        <time>2018-06-07T16:00:29Z</time>
      </trkpt>
      <trkpt lat="44.54631" lon="2.24454">
        <ele>301</ele>
        <time>2018-06-07T16:00:30Z</time>
      </trkpt>
      <trkpt lat="44.5463" lon="2.2446">
        <ele>301</ele>
        <time>2018-06-07T16:00:32Z</time>
      </trkpt>
      <trkpt lat="44.54627" lon="2.24463">
        <ele>301</ele>
        <time>2018-06-07T16:00:33Z</time>
      </trkpt>
      <trkpt lat="44.54625" lon="2.24467">
        <ele>301</ele>
        <time>2018-06-07T16:00:34Z</time>
      </trkpt>
      <trkpt lat="44.5462" lon="2.24466">
        <ele>301</ele>
        <time>2018-06-07T16:00:35Z</time>
      </trkpt>
      <trkpt lat="44.5462" lon="2.2447">
        <ele>301</ele>
        <time>2018-06-07T16:00:36Z</time>
      </trkpt>
      <trkpt lat="44.54619" lon="2.24476">
        <ele>301</ele>
        <time>2018-06-07T16:00:37Z</time>
      </trkpt>
      <trkpt lat="44.54622" lon="2.24482">
        <ele>302</ele>
        <time>2018-06-07T16:00:39Z</time>
      </trkpt>
      <trkpt lat="44.54626" lon="2.24486">
        <ele>302</ele>
        <time>2018-06-07T16:00:40Z</time>
      </trkpt>
      <trkpt lat="44.54631" lon="2.24487">
        <ele>303</ele>
        <time>2018-06-07T16:00:42Z</time>
      </trkpt>
      <trkpt lat="44.54635" lon="2.24485">
        <ele>303</ele>
        <time>2018-06-07T16:00:44Z</time>
      </trkpt>
      <trkpt lat="44.54639" lon="2.24483">
        <ele>304</ele>
        <time>2018-06-07T16:00:46Z</time>
      </trkpt>
      <trkpt lat="44.54643" lon="2.24482">
        <ele>304</ele>
        <time>2018-06-07T16:00:49Z</time>
      </trkpt>
      <trkpt lat="44.54647" lon="2.2448">
        <ele>304</ele>
        <time>2018-06-07T16:00:51Z</time>
      </trkpt>
      <trkpt lat="44.54652" lon="2.24478">
        <ele>305</ele>
        <time>2018-06-07T16:00:53Z</time>
      </trkpt>
      <trkpt lat="44.54657" lon="2.24478">
        <ele>305</ele>
        <time>2018-06-07T16:00:55Z</time>
      </trkpt>
      <trkpt lat="44.5466" lon="2.24477">
        <ele>305</ele>
        <time>2018-06-07T16:00:56Z</time>
      </trkpt>
      <trkpt lat="44.54663" lon="2.24477">
        <ele>305</ele>
        <time>2018-06-07T16:00:57Z</time>
      </trkpt>
      <trkpt lat="44.54666" lon="2.2448">
        <ele>306</ele>
        <time>2018-06-07T16:00:59Z</time>
      </trkpt>
      <trkpt lat="44.54671" lon="2.2448">
        <ele>309</ele>
        <time>2018-06-07T16:01:01Z</time>
      </trkpt>
      <trkpt lat="44.54675" lon="2.24482">
        <ele>309</ele>
        <time>2018-06-07T16:01:03Z</time>
      </trkpt>
      <trkpt lat="44.54679" lon="2.24485">
        <ele>309</ele>
        <time>2018-06-07T16:01:05Z</time>
      </trkpt>
      <trkpt lat="44.54683" lon="2.24489">
        <ele>309</ele>
        <time>2018-06-07T16:01:07Z</time>
      </trkpt>
      <trkpt lat="44.54686" lon="2.24493">
        <ele>309</ele>
        <time>2018-06-07T16:01:09Z</time>
      </trkpt>
      <trkpt lat="44.54689" lon="2.24498">
        <ele>309</ele>
        <time>2018-06-07T16:01:11Z</time>
      </trkpt>
      <trkpt lat="44.54691" lon="2.24499">
        <ele>309</ele>
        <time>2018-06-07T16:01:12Z</time>
      </trkpt>
      <trkpt lat="44.54694" lon="2.24503">
        <ele>314</ele>
        <time>2018-06-07T16:01:13Z</time>
      </trkpt>
      <trkpt lat="44.54698" lon="2.24505">
        <ele>314</ele>
        <time>2018-06-07T16:01:15Z</time>
      </trkpt>
      <trkpt lat="44.54702" lon="2.2451">
        <ele>315</ele>
        <time>2018-06-07T16:01:17Z</time>
      </trkpt>
      <trkpt lat="44.54705" lon="2.24513">
        <ele>315</ele>
        <time>2018-06-07T16:01:19Z</time>
      </trkpt>
      <trkpt lat="44.54709" lon="2.24515">
        <ele>315</ele>
        <time>2018-06-07T16:01:21Z</time>
      </trkpt>
      <trkpt lat="44.54713" lon="2.24521">
        <ele>315</ele>
        <time>2018-06-07T16:01:25Z</time>
      </trkpt>
      <trkpt lat="44.54715" lon="2.24524">
        <ele>315</ele>
        <time>2018-06-07T16:01:26Z</time>
      </trkpt>
      <trkpt lat="44.54716" lon="2.24529">
        <ele>316</ele>
        <time>2018-06-07T16:01:29Z</time>
      </trkpt>
      <trkpt lat="44.54719" lon="2.24534">
        <ele>316</ele>
        <time>2018-06-07T16:01:33Z</time>
      </trkpt>
      <trkpt lat="44.54723" lon="2.24541">
        <ele>316</ele>
        <time>2018-06-07T16:01:35Z</time>
      </trkpt>
      <trkpt lat="44.54723" lon="2.24545">
        <ele>317</ele>
        <time>2018-06-07T16:01:37Z</time>
      </trkpt>
      <trkpt lat="44.54723" lon="2.2455">
        <ele>317</ele>
        <time>2018-06-07T16:01:39Z</time>
      </trkpt>
      <trkpt lat="44.54722" lon="2.24555">
        <ele>317</ele>
        <time>2018-06-07T16:01:41Z</time>
      </trkpt>
      <trkpt lat="44.54721" lon="2.24559">
        <ele>318</ele>
        <time>2018-06-07T16:01:42Z</time>
      </trkpt>
      <trkpt lat="44.54722" lon="2.24564">
        <ele>318</ele>
        <time>2018-06-07T16:01:44Z</time>
      </trkpt>
      <trkpt lat="44.54723" lon="2.2457">
        <ele>318</ele>
        <time>2018-06-07T16:01:46Z</time>
      </trkpt>
      <trkpt lat="44.54723" lon="2.24577">
        <ele>319</ele>
        <time>2018-06-07T16:01:48Z</time>
      </trkpt>
      <trkpt lat="44.54723" lon="2.24583">
        <ele>319</ele>
        <time>2018-06-07T16:01:50Z</time>
      </trkpt>
      <trkpt lat="44.54723" lon="2.24587">
        <ele>321</ele>
        <time>2018-06-07T16:01:53Z</time>
      </trkpt>
      <trkpt lat="44.54724" lon="2.24592">
        <ele>321</ele>
        <time>2018-06-07T16:01:55Z</time>
      </trkpt>
      <trkpt lat="44.54723" lon="2.24597">
        <ele>321</ele>
        <time>2018-06-07T16:01:56Z</time>
      </trkpt>
      <trkpt lat="44.54723" lon="2.24602">
        <ele>321</ele>
        <time>2018-06-07T16:01:57Z</time>
      </trkpt>
      <trkpt lat="44.54724" lon="2.24613">
        <ele>321</ele>
        <time>2018-06-07T16:02:03Z</time>
      </trkpt>
      <trkpt lat="44.54725" lon="2.24617">
        <ele>321</ele>
        <time>2018-06-07T16:02:04Z</time>
      </trkpt>
      <trkpt lat="44.54723" lon="2.24622">
        <ele>321</ele>
        <time>2018-06-07T16:02:06Z</time>
      </trkpt>
      <trkpt lat="44.54724" lon="2.24628">
        <ele>321</ele>
        <time>2018-06-07T16:02:07Z</time>
      </trkpt>
      <trkpt lat="44.54726" lon="2.24634">
        <ele>321</ele>
        <time>2018-06-07T16:02:08Z</time>
      </trkpt>
      <trkpt lat="44.54726" lon="2.2464">
        <ele>321</ele>
        <time>2018-06-07T16:02:09Z</time>
      </trkpt>
      <trkpt lat="44.54725" lon="2.24645">
        <ele>321</ele>
        <time>2018-06-07T16:02:10Z</time>
      </trkpt>
      <trkpt lat="44.54727" lon="2.24649">
        <ele>322</ele>
        <time>2018-06-07T16:02:11Z</time>
      </trkpt>
      <trkpt lat="44.54728" lon="2.24658">
        <ele>323</ele>
        <time>2018-06-07T16:02:12Z</time>
      </trkpt>
      <trkpt lat="44.54728" lon="2.24663">
        <ele>323</ele>
        <time>2018-06-07T16:02:13Z</time>
      </trkpt>
      <trkpt lat="44.54728" lon="2.24668">
        <ele>323</ele>
        <time>2018-06-07T16:02:16Z</time>
      </trkpt>
      <trkpt lat="44.54727" lon="2.24672">
        <ele>323</ele>
        <time>2018-06-07T16:02:17Z</time>
      </trkpt>
      <trkpt lat="44.54726" lon="2.24677">
        <ele>323</ele>
        <time>2018-06-07T16:02:19Z</time>
      </trkpt>
      <trkpt lat="44.54726" lon="2.24687">
        <ele>322</ele>
        <time>2018-06-07T16:02:22Z</time>
      </trkpt>
      <trkpt lat="44.54725" lon="2.24691">
        <ele>322</ele>
        <time>2018-06-07T16:02:24Z</time>
      </trkpt>
      <trkpt lat="44.54726" lon="2.24696">
        <ele>322</ele>
        <time>2018-06-07T16:02:25Z</time>
      </trkpt>
      <trkpt lat="44.54726" lon="2.247">
        <ele>322</ele>
        <time>2018-06-07T16:02:26Z</time>
      </trkpt>
      <trkpt lat="44.54726" lon="2.24704">
        <ele>322</ele>
        <time>2018-06-07T16:02:28Z</time>
      </trkpt>
      <trkpt lat="44.54725" lon="2.2471">
        <ele>322</ele>
        <time>2018-06-07T16:02:30Z</time>
      </trkpt>
      <trkpt lat="44.54725" lon="2.24714">
        <ele>322</ele>
        <time>2018-06-07T16:02:32Z</time>
      </trkpt>
      <trkpt lat="44.54725" lon="2.24718">
        <ele>322</ele>
        <time>2018-06-07T16:02:37Z</time>
      </trkpt>
      <trkpt lat="44.54726" lon="2.24723">
        <ele>322</ele>
        <time>2018-06-07T16:02:39Z</time>
      </trkpt>
      <trkpt lat="44.54726" lon="2.24728">
        <ele>323</ele>
        <time>2018-06-07T16:02:41Z</time>
      </trkpt>
      <trkpt lat="44.54728" lon="2.24734">
        <ele>324</ele>
        <time>2018-06-07T16:02:42Z</time>
      </trkpt>
      <trkpt lat="44.5473" lon="2.24741">
        <ele>324</ele>
        <time>2018-06-07T16:02:44Z</time>
      </trkpt>
      <trkpt lat="44.5473" lon="2.24745">
        <ele>325</ele>
        <time>2018-06-07T16:02:45Z</time>
      </trkpt>
      <trkpt lat="44.54733" lon="2.24749">
        <ele>326</ele>
        <time>2018-06-07T16:02:47Z</time>
      </trkpt>
      <trkpt lat="44.54735" lon="2.24754">
        <ele>326</ele>
        <time>2018-06-07T16:02:49Z</time>
      </trkpt>
      <trkpt lat="44.54737" lon="2.24759">
        <ele>325</ele>
        <time>2018-06-07T16:02:50Z</time>
      </trkpt>
      <trkpt lat="44.54738" lon="2.24764">
        <ele>325</ele>
        <time>2018-06-07T16:02:52Z</time>
      </trkpt>
      <trkpt lat="44.54739" lon="2.24768">
        <ele>324</ele>
        <time>2018-06-07T16:02:53Z</time>
      </trkpt>
      <trkpt lat="44.54743" lon="2.24767">
        <ele>325</ele>
        <time>2018-06-07T16:02:55Z</time>
      </trkpt>
      <trkpt lat="44.54745" lon="2.2477">
        <ele>325</ele>
        <time>2018-06-07T16:02:56Z</time>
      </trkpt>
      <trkpt lat="44.54747" lon="2.24777">
        <ele>324</ele>
        <time>2018-06-07T16:02:58Z</time>
      </trkpt>
      <trkpt lat="44.54748" lon="2.24781">
        <ele>323</ele>
        <time>2018-06-07T16:02:59Z</time>
      </trkpt>
      <trkpt lat="44.54749" lon="2.24786">
        <ele>323</ele>
        <time>2018-06-07T16:03:00Z</time>
      </trkpt>
      <trkpt lat="44.54751" lon="2.24795">
        <ele>336</ele>
        <time>2018-06-07T16:03:02Z</time>
      </trkpt>
      <trkpt lat="44.54752" lon="2.24802">
        <ele>335</ele>
        <time>2018-06-07T16:03:04Z</time>
      </trkpt>
      <trkpt lat="44.54754" lon="2.24808">
        <ele>335</ele>
        <time>2018-06-07T16:03:06Z</time>
      </trkpt>
      <trkpt lat="44.54756" lon="2.24812">
        <ele>334</ele>
        <time>2018-06-07T16:03:08Z</time>
      </trkpt>
      <trkpt lat="44.54759" lon="2.24818">
        <ele>334</ele>
        <time>2018-06-07T16:03:10Z</time>
      </trkpt>
      <trkpt lat="44.5476" lon="2.24821">
        <ele>333</ele>
        <time>2018-06-07T16:03:11Z</time>
      </trkpt>
      <trkpt lat="44.54762" lon="2.24825">
        <ele>333</ele>
        <time>2018-06-07T16:03:13Z</time>
      </trkpt>
      <trkpt lat="44.54765" lon="2.24829">
        <ele>333</ele>
        <time>2018-06-07T16:03:15Z</time>
      </trkpt>
      <trkpt lat="44.54769" lon="2.24833">
        <ele>334</ele>
        <time>2018-06-07T16:03:17Z</time>
      </trkpt>
      <trkpt lat="44.54772" lon="2.24836">
        <ele>330</ele>
        <time>2018-06-07T16:03:19Z</time>
      </trkpt>
      <trkpt lat="44.54775" lon="2.2484">
        <ele>330</ele>
        <time>2018-06-07T16:03:20Z</time>
      </trkpt>
      <trkpt lat="44.54778" lon="2.24845">
        <ele>330</ele>
        <time>2018-06-07T16:03:22Z</time>
      </trkpt>
      <trkpt lat="44.5478" lon="2.24849">
        <ele>330</ele>
        <time>2018-06-07T16:03:24Z</time>
      </trkpt>
      <trkpt lat="44.54781" lon="2.24854">
        <ele>330</ele>
        <time>2018-06-07T16:03:26Z</time>
      </trkpt>
      <trkpt lat="44.54786" lon="2.24858">
        <ele>330</ele>
        <time>2018-06-07T16:03:28Z</time>
      </trkpt>
      <trkpt lat="44.54789" lon="2.24858">
        <ele>331</ele>
        <time>2018-06-07T16:03:29Z</time>
      </trkpt>
      <trkpt lat="44.54794" lon="2.2486">
        <ele>331</ele>
        <time>2018-06-07T16:03:30Z</time>
      </trkpt>
      <trkpt lat="44.54795" lon="2.24865">
        <ele>331</ele>
        <time>2018-06-07T16:03:32Z</time>
      </trkpt>
      <trkpt lat="44.54796" lon="2.24873">
        <ele>330</ele>
        <time>2018-06-07T16:03:34Z</time>
      </trkpt>
      <trkpt lat="44.54798" lon="2.24878">
        <ele>330</ele>
        <time>2018-06-07T16:03:38Z</time>
      </trkpt>
      <trkpt lat="44.54802" lon="2.24882">
        <ele>330</ele>
        <time>2018-06-07T16:03:41Z</time>
      </trkpt>
      <trkpt lat="44.54806" lon="2.24887">
        <ele>330</ele>
        <time>2018-06-07T16:03:43Z</time>
      </trkpt>
      <trkpt lat="44.5481" lon="2.24892">
        <ele>330</ele>
        <time>2018-06-07T16:03:44Z</time>
      </trkpt>
      <trkpt lat="44.54815" lon="2.24898">
        <ele>330</ele>
        <time>2018-06-07T16:03:46Z</time>
      </trkpt>
      <trkpt lat="44.54817" lon="2.24903">
        <ele>330</ele>
        <time>2018-06-07T16:03:48Z</time>
      </trkpt>
      <trkpt lat="44.5482" lon="2.24908">
        <ele>330</ele>
        <time>2018-06-07T16:03:49Z</time>
      </trkpt>
      <trkpt lat="44.54823" lon="2.2491">
        <ele>330</ele>
        <time>2018-06-07T16:03:51Z</time>
      </trkpt>
      <trkpt lat="44.54826" lon="2.24913">
        <ele>330</ele>
        <time>2018-06-07T16:03:52Z</time>
      </trkpt>
      <trkpt lat="44.54829" lon="2.24918">
        <ele>327</ele>
        <time>2018-06-07T16:03:54Z</time>
      </trkpt>
      <trkpt lat="44.5483" lon="2.24921">
        <ele>327</ele>
        <time>2018-06-07T16:03:55Z</time>
      </trkpt>
      <trkpt lat="44.54832" lon="2.24924">
        <ele>326</ele>
        <time>2018-06-07T16:03:56Z</time>
      </trkpt>
      <trkpt lat="44.54837" lon="2.24928">
        <ele>330</ele>
        <time>2018-06-07T16:03:57Z</time>
      </trkpt>
      <trkpt lat="44.5484" lon="2.24932">
        <ele>330</ele>
        <time>2018-06-07T16:03:58Z</time>
      </trkpt>
      <trkpt lat="44.54843" lon="2.24936">
        <ele>330</ele>
        <time>2018-06-07T16:03:59Z</time>
      </trkpt>
      <trkpt lat="44.54845" lon="2.2494">
        <ele>330</ele>
        <time>2018-06-07T16:04:01Z</time>
      </trkpt>
      <trkpt lat="44.5485" lon="2.24944">
        <ele>330</ele>
        <time>2018-06-07T16:04:03Z</time>
      </trkpt>
      <trkpt lat="44.54856" lon="2.24948">
        <ele>330</ele>
        <time>2018-06-07T16:04:05Z</time>
      </trkpt>
      <trkpt lat="44.54859" lon="2.24951">
        <ele>330</ele>
        <time>2018-06-07T16:04:06Z</time>
      </trkpt>
      <trkpt lat="44.54865" lon="2.24954">
        <ele>331</ele>
        <time>2018-06-07T16:04:08Z</time>
      </trkpt>
      <trkpt lat="44.54871" lon="2.24959">
        <ele>331</ele>
        <time>2018-06-07T16:04:11Z</time>
      </trkpt>
      <trkpt lat="44.54875" lon="2.24961">
        <ele>331</ele>
        <time>2018-06-07T16:04:13Z</time>
      </trkpt>
      <trkpt lat="44.54879" lon="2.24964">
        <ele>331</ele>
        <time>2018-06-07T16:04:15Z</time>
      </trkpt>
      <trkpt lat="44.54882" lon="2.24968">
        <ele>331</ele>
        <time>2018-06-07T16:04:17Z</time>
      </trkpt>
      <trkpt lat="44.54884" lon="2.24973">
        <ele>331</ele>
        <time>2018-06-07T16:04:19Z</time>
      </trkpt>
      <trkpt lat="44.54887" lon="2.24977">
        <ele>331</ele>
        <time>2018-06-07T16:04:21Z</time>
      </trkpt>
      <trkpt lat="44.5489" lon="2.24981">
        <ele>331</ele>
        <time>2018-06-07T16:04:23Z</time>
      </trkpt>
      <trkpt lat="44.5489" lon="2.24985">
        <ele>331</ele>
        <time>2018-06-07T16:04:26Z</time>
      </trkpt>
      <trkpt lat="44.5489" lon="2.24993">
        <ele>331</ele>
        <time>2018-06-07T16:04:28Z</time>
      </trkpt>
      <trkpt lat="44.54893" lon="2.24998">
        <ele>331</ele>
        <time>2018-06-07T16:04:29Z</time>
      </trkpt>
      <trkpt lat="44.54895" lon="2.25002">
        <ele>322</ele>
        <time>2018-06-07T16:04:30Z</time>
      </trkpt>
      <trkpt lat="44.54895" lon="2.25007">
        <ele>322</ele>
        <time>2018-06-07T16:04:32Z</time>
      </trkpt>
      <trkpt lat="44.54896" lon="2.25012">
        <ele>321</ele>
        <time>2018-06-07T16:04:35Z</time>
      </trkpt>
      <trkpt lat="44.54898" lon="2.25015">
        <ele>321</ele>
        <time>2018-06-07T16:04:36Z</time>
      </trkpt>
      <trkpt lat="44.54899" lon="2.25021">
        <ele>320</ele>
        <time>2018-06-07T16:04:38Z</time>
      </trkpt>
      <trkpt lat="44.54898" lon="2.25024">
        <ele>319</ele>
        <time>2018-06-07T16:04:41Z</time>
      </trkpt>
      <trkpt lat="44.549" lon="2.25029">
        <ele>318</ele>
        <time>2018-06-07T16:04:44Z</time>
      </trkpt>
      <trkpt lat="44.54904" lon="2.25035">
        <ele>317</ele>
        <time>2018-06-07T16:04:46Z</time>
      </trkpt>
      <trkpt lat="44.54908" lon="2.25037">
        <ele>317</ele>
        <time>2018-06-07T16:04:49Z</time>
      </trkpt>
      <trkpt lat="44.54911" lon="2.2504">
        <ele>317</ele>
        <time>2018-06-07T16:04:50Z</time>
      </trkpt>
      <trkpt lat="44.54914" lon="2.2504">
        <ele>317</ele>
        <time>2018-06-07T16:04:51Z</time>
      </trkpt>
      <trkpt lat="44.54919" lon="2.25042">
        <ele>325</ele>
        <time>2018-06-07T16:04:53Z</time>
      </trkpt>
      <trkpt lat="44.54922" lon="2.25044">
        <ele>325</ele>
        <time>2018-06-07T16:04:55Z</time>
      </trkpt>
      <trkpt lat="44.54926" lon="2.25047">
        <ele>324</ele>
        <time>2018-06-07T16:04:58Z</time>
      </trkpt>
      <trkpt lat="44.5493" lon="2.25049">
        <ele>324</ele>
        <time>2018-06-07T16:05:01Z</time>
      </trkpt>
      <trkpt lat="44.54941" lon="2.25053">
        <ele>324</ele>
        <time>2018-06-07T16:05:04Z</time>
      </trkpt>
      <trkpt lat="44.54945" lon="2.25057">
        <ele>324</ele>
        <time>2018-06-07T16:05:06Z</time>
      </trkpt>
      <trkpt lat="44.54951" lon="2.25054">
        <ele>325</ele>
        <time>2018-06-07T16:05:08Z</time>
      </trkpt>
      <trkpt lat="44.54954" lon="2.25054">
        <ele>325</ele>
        <time>2018-06-07T16:05:10Z</time>
      </trkpt>
      <trkpt lat="44.54956" lon="2.25059">
        <ele>324</ele>
        <time>2018-06-07T16:05:12Z</time>
      </trkpt>
      <trkpt lat="44.54958" lon="2.25063">
        <ele>324</ele>
        <time>2018-06-07T16:05:13Z</time>
      </trkpt>
      <trkpt lat="44.54961" lon="2.25063">
        <ele>324</ele>
        <time>2018-06-07T16:05:14Z</time>
      </trkpt>
      <trkpt lat="44.54965" lon="2.25062">
        <ele>325</ele>
        <time>2018-06-07T16:05:15Z</time>
      </trkpt>
      <trkpt lat="44.54974" lon="2.25067">
        <ele>324</ele>
        <time>2018-06-07T16:05:19Z</time>
      </trkpt>
      <trkpt lat="44.54976" lon="2.2507">
        <ele>324</ele>
        <time>2018-06-07T16:05:20Z</time>
      </trkpt>
      <trkpt lat="44.54981" lon="2.2507">
        <ele>323</ele>
        <time>2018-06-07T16:05:21Z</time>
      </trkpt>
      <trkpt lat="44.54985" lon="2.25071">
        <ele>323</ele>
        <time>2018-06-07T16:05:22Z</time>
      </trkpt>
      <trkpt lat="44.54987" lon="2.25072">
        <ele>323</ele>
        <time>2018-06-07T16:05:24Z</time>
      </trkpt>
      <trkpt lat="44.54992" lon="2.25072">
        <ele>322</ele>
        <time>2018-06-07T16:05:26Z</time>
      </trkpt>
      <trkpt lat="44.54996" lon="2.25073">
        <ele>322</ele>
        <time>2018-06-07T16:05:29Z</time>
      </trkpt>
      <trkpt lat="44.54998" lon="2.25076">
        <ele>320</ele>
        <time>2018-06-07T16:05:33Z</time>
      </trkpt>
      <trkpt lat="44.55002" lon="2.25076">
        <ele>322</ele>
        <time>2018-06-07T16:05:34Z</time>
      </trkpt>
      <trkpt lat="44.55007" lon="2.25076">
        <ele>323</ele>
        <time>2018-06-07T16:05:36Z</time>
      </trkpt>
      <trkpt lat="44.5501" lon="2.25079">
        <ele>324</ele>
        <time>2018-06-07T16:05:39Z</time>
      </trkpt>
      <trkpt lat="44.55014" lon="2.25079">
        <ele>325</ele>
        <time>2018-06-07T16:05:40Z</time>
      </trkpt>
      <trkpt lat="44.55017" lon="2.25078">
        <ele>326</ele>
        <time>2018-06-07T16:05:41Z</time>
      </trkpt>
      <trkpt lat="44.55022" lon="2.25077">
        <ele>327</ele>
        <time>2018-06-07T16:05:43Z</time>
      </trkpt>
      <trkpt lat="44.55025" lon="2.25075">
        <ele>327</ele>
        <time>2018-06-07T16:05:44Z</time>
      </trkpt>
      <trkpt lat="44.55028" lon="2.25078">
        <ele>327</ele>
        <time>2018-06-07T16:05:46Z</time>
      </trkpt>
      <trkpt lat="44.55034" lon="2.25082">
        <ele>328</ele>
        <time>2018-06-07T16:05:48Z</time>
      </trkpt>
      <trkpt lat="44.55037" lon="2.25087">
        <ele>315</ele>
        <time>2018-06-07T16:05:50Z</time>
      </trkpt>
      <trkpt lat="44.5504" lon="2.25089">
        <ele>315</ele>
        <time>2018-06-07T16:05:51Z</time>
      </trkpt>
      <trkpt lat="44.55042" lon="2.25091">
        <ele>315</ele>
        <time>2018-06-07T16:05:52Z</time>
      </trkpt>
      <trkpt lat="44.55048" lon="2.25093">
        <ele>315</ele>
        <time>2018-06-07T16:05:54Z</time>
      </trkpt>
      <trkpt lat="44.5505" lon="2.25095">
        <ele>315</ele>
        <time>2018-06-07T16:05:55Z</time>
      </trkpt>
      <trkpt lat="44.55053" lon="2.25096">
        <ele>316</ele>
        <time>2018-06-07T16:05:56Z</time>
      </trkpt>
      <trkpt lat="44.55058" lon="2.25095">
        <ele>316</ele>
        <time>2018-06-07T16:05:57Z</time>
      </trkpt>
      <trkpt lat="44.55061" lon="2.25093">
        <ele>316</ele>
        <time>2018-06-07T16:05:58Z</time>
      </trkpt>
      <trkpt lat="44.55064" lon="2.25096">
        <ele>316</ele>
        <time>2018-06-07T16:05:59Z</time>
      </trkpt>
      <trkpt lat="44.55069" lon="2.25096">
        <ele>317</ele>
        <time>2018-06-07T16:06:00Z</time>
      </trkpt>
      <trkpt lat="44.55073" lon="2.25098">
        <ele>317</ele>
        <time>2018-06-07T16:06:01Z</time>
      </trkpt>
      <trkpt lat="44.55079" lon="2.25097">
        <ele>318</ele>
        <time>2018-06-07T16:06:03Z</time>
      </trkpt>
      <trkpt lat="44.55087" lon="2.25098">
        <ele>319</ele>
        <time>2018-06-07T16:06:04Z</time>
      </trkpt>
      <trkpt lat="44.55093" lon="2.25101">
        <ele>319</ele>
        <time>2018-06-07T16:06:06Z</time>
      </trkpt>
      <trkpt lat="44.55095" lon="2.25104">
        <ele>319</ele>
        <time>2018-06-07T16:06:07Z</time>
      </trkpt>
      <trkpt lat="44.55098" lon="2.25104">
        <ele>319</ele>
        <time>2018-06-07T16:06:08Z</time>
      </trkpt>
      <trkpt lat="44.55103" lon="2.25106">
        <ele>318</ele>
        <time>2018-06-07T16:06:10Z</time>
      </trkpt>
      <trkpt lat="44.55107" lon="2.25107">
        <ele>318</ele>
        <time>2018-06-07T16:06:11Z</time>
      </trkpt>
      <trkpt lat="44.5511" lon="2.25111">
        <ele>318</ele>
        <time>2018-06-07T16:06:12Z</time>
      </trkpt>
      <trkpt lat="44.55113" lon="2.25111">
        <ele>318</ele>
        <time>2018-06-07T16:06:13Z</time>
      </trkpt>
      <trkpt lat="44.55112" lon="2.25115">
        <ele>318</ele>
        <time>2018-06-07T16:06:15Z</time>
      </trkpt>
      <trkpt lat="44.55114" lon="2.25118">
        <ele>318</ele>
        <time>2018-06-07T16:06:18Z</time>
      </trkpt>
      <trkpt lat="44.55116" lon="2.25122">
        <ele>318</ele>
        <time>2018-06-07T16:06:20Z</time>
      </trkpt>
      <trkpt lat="44.5512" lon="2.25127">
        <ele>317</ele>
        <time>2018-06-07T16:06:22Z</time>
      </trkpt>
      <trkpt lat="44.55123" lon="2.2513">
        <ele>317</ele>
        <time>2018-06-07T16:06:23Z</time>
      </trkpt>
      <trkpt lat="44.55126" lon="2.25136">
        <ele>317</ele>
        <time>2018-06-07T16:06:25Z</time>
      </trkpt>
      <trkpt lat="44.55128" lon="2.2514">
        <ele>317</ele>
        <time>2018-06-07T16:06:26Z</time>
      </trkpt>
      <trkpt lat="44.55129" lon="2.25143">
        <ele>316</ele>
        <time>2018-06-07T16:06:27Z</time>
      </trkpt>
      <trkpt lat="44.55131" lon="2.25147">
        <ele>316</ele>
        <time>2018-06-07T16:06:28Z</time>
      </trkpt>
      <trkpt lat="44.55133" lon="2.25151">
        <ele>316</ele>
        <time>2018-06-07T16:06:30Z</time>
      </trkpt>
      <trkpt lat="44.55132" lon="2.25173">
        <ele>312</ele>
        <time>2018-06-07T16:06:36Z</time>
      </trkpt>
      <trkpt lat="44.55132" lon="2.25177">
        <ele>312</ele>
        <time>2018-06-07T16:06:37Z</time>
      </trkpt>
      <trkpt lat="44.55131" lon="2.25187">
        <ele>312</ele>
        <time>2018-06-07T16:06:39Z</time>
      </trkpt>
      <trkpt lat="44.55129" lon="2.25191">
        <ele>312</ele>
        <time>2018-06-07T16:06:40Z</time>
      </trkpt>
      <trkpt lat="44.55127" lon="2.252">
        <ele>312</ele>
        <time>2018-06-07T16:06:42Z</time>
      </trkpt>
      <trkpt lat="44.55127" lon="2.25205">
        <ele>312</ele>
        <time>2018-06-07T16:06:43Z</time>
      </trkpt>
      <trkpt lat="44.55124" lon="2.25211">
        <ele>312</ele>
        <time>2018-06-07T16:06:45Z</time>
      </trkpt>
      <trkpt lat="44.55123" lon="2.25215">
        <ele>312</ele>
        <time>2018-06-07T16:06:46Z</time>
      </trkpt>
      <trkpt lat="44.55123" lon="2.25219">
        <ele>312</ele>
        <time>2018-06-07T16:06:47Z</time>
      </trkpt>
      <trkpt lat="44.55122" lon="2.25223">
        <ele>312</ele>
        <time>2018-06-07T16:06:48Z</time>
      </trkpt>
      <trkpt lat="44.55119" lon="2.25227">
        <ele>312</ele>
        <time>2018-06-07T16:06:50Z</time>
      </trkpt>
      <trkpt lat="44.55115" lon="2.25232">
        <ele>312</ele>
        <time>2018-06-07T16:06:52Z</time>
      </trkpt>
      <trkpt lat="44.55112" lon="2.25236">
        <ele>313</ele>
        <time>2018-06-07T16:06:55Z</time>
      </trkpt>
      <trkpt lat="44.55111" lon="2.25239">
        <ele>313</ele>
        <time>2018-06-07T16:06:56Z</time>
      </trkpt>
      <trkpt lat="44.55107" lon="2.25239">
        <ele>313</ele>
        <time>2018-06-07T16:06:59Z</time>
      </trkpt>
      <trkpt lat="44.55103" lon="2.2524">
        <ele>313</ele>
        <time>2018-06-07T16:07:01Z</time>
      </trkpt>
      <trkpt lat="44.55096" lon="2.25238">
        <ele>313</ele>
        <time>2018-06-07T16:07:03Z</time>
      </trkpt>
      <trkpt lat="44.55089" lon="2.25245">
        <ele>314</ele>
        <time>2018-06-07T16:07:04Z</time>
      </trkpt>
      <trkpt lat="44.55085" lon="2.25249">
        <ele>315</ele>
        <time>2018-06-07T16:07:05Z</time>
      </trkpt>
      <trkpt lat="44.55082" lon="2.25254">
        <ele>316</ele>
        <time>2018-06-07T16:07:06Z</time>
      </trkpt>
      <trkpt lat="44.55078" lon="2.25256">
        <ele>317</ele>
        <time>2018-06-07T16:07:07Z</time>
      </trkpt>
      <trkpt lat="44.55078" lon="2.25261">
        <ele>317</ele>
        <time>2018-06-07T16:07:09Z</time>
      </trkpt>
      <trkpt lat="44.55078" lon="2.25254">
        <ele>316</ele>
        <time>2018-06-07T16:07:10Z</time>
      </trkpt>
      <trkpt lat="44.55077" lon="2.25258">
        <ele>317</ele>
        <time>2018-06-07T16:07:11Z</time>
      </trkpt>
      <trkpt lat="44.55075" lon="2.2526">
        <ele>317</ele>
        <time>2018-06-07T16:07:12Z</time>
      </trkpt>
      <trkpt lat="44.55069" lon="2.25262">
        <ele>318</ele>
        <time>2018-06-07T16:07:14Z</time>
      </trkpt>
      <trkpt lat="44.55066" lon="2.25263">
        <ele>318</ele>
        <time>2018-06-07T16:07:15Z</time>
      </trkpt>
      <trkpt lat="44.55046" lon="2.25281">
        <ele>320</ele>
        <time>2018-06-07T16:07:31Z</time>
      </trkpt>
      <trkpt lat="44.55047" lon="2.25283">
        <ele>320</ele>
        <time>2018-06-07T16:07:32Z</time>
      </trkpt>
      <trkpt lat="44.55043" lon="2.25286">
        <ele>320</ele>
        <time>2018-06-07T16:07:34Z</time>
      </trkpt>
      <trkpt lat="44.55043" lon="2.25291">
        <ele>321</ele>
        <time>2018-06-07T16:07:37Z</time>
      </trkpt>
      <trkpt lat="44.5504" lon="2.25295">
        <ele>321</ele>
        <time>2018-06-07T16:07:39Z</time>
      </trkpt>
      <trkpt lat="44.55038" lon="2.25298">
        <ele>321</ele>
        <time>2018-06-07T16:07:40Z</time>
      </trkpt>
      <trkpt lat="44.55035" lon="2.25292">
        <ele>320</ele>
        <time>2018-06-07T16:07:43Z</time>
      </trkpt>
      <trkpt lat="44.55033" lon="2.25293">
        <ele>320</ele>
        <time>2018-06-07T16:08:37Z</time>
      </trkpt>
      <trkpt lat="44.5503" lon="2.25293">
        <ele>320</ele>
        <time>2018-06-07T16:08:38Z</time>
      </trkpt>
      <trkpt lat="44.55032" lon="2.25303">
        <ele>321</ele>
        <time>2018-06-07T16:08:48Z</time>
      </trkpt>
      <trkpt lat="44.55035" lon="2.25313">
        <ele>322</ele>
        <time>2018-06-07T16:08:51Z</time>
      </trkpt>
      <trkpt lat="44.55037" lon="2.25316">
        <ele>322</ele>
        <time>2018-06-07T16:08:52Z</time>
      </trkpt>
      <trkpt lat="44.5503" lon="2.25312">
        <ele>322</ele>
        <time>2018-06-07T16:08:54Z</time>
      </trkpt>
      <trkpt lat="44.55027" lon="2.25315">
        <ele>322</ele>
        <time>2018-06-07T16:08:55Z</time>
      </trkpt>
      <trkpt lat="44.55027" lon="2.25319">
        <ele>322</ele>
        <time>2018-06-07T16:08:56Z</time>
      </trkpt>
      <trkpt lat="44.55022" lon="2.25321">
        <ele>323</ele>
        <time>2018-06-07T16:08:58Z</time>
      </trkpt>
      <trkpt lat="44.55016" lon="2.25318">
        <ele>322</ele>
        <time>2018-06-07T16:08:59Z</time>
      </trkpt>
      <trkpt lat="44.55007" lon="2.25316">
        <ele>322</ele>
        <time>2018-06-07T16:09:00Z</time>
      </trkpt>
      <trkpt lat="44.55011" lon="2.2532">
        <ele>323</ele>
        <time>2018-06-07T16:09:01Z</time>
      </trkpt>
      <trkpt lat="44.55009" lon="2.25317">
        <ele>322</ele>
        <time>2018-06-07T16:09:02Z</time>
      </trkpt>
      <trkpt lat="44.55006" lon="2.2532">
        <ele>323</ele>
        <time>2018-06-07T16:09:03Z</time>
      </trkpt>
      <trkpt lat="44.55004" lon="2.25324">
        <ele>323</ele>
        <time>2018-06-07T16:09:05Z</time>
      </trkpt>
      <trkpt lat="44.54998" lon="2.25325">
        <ele>323</ele>
        <time>2018-06-07T16:09:07Z</time>
      </trkpt>
      <trkpt lat="44.54996" lon="2.25328">
        <ele>323</ele>
        <time>2018-06-07T16:09:08Z</time>
      </trkpt>
      <trkpt lat="44.54993" lon="2.25331">
        <ele>323</ele>
        <time>2018-06-07T16:09:09Z</time>
      </trkpt>
      <trkpt lat="44.5499" lon="2.25335">
        <ele>329</ele>
        <time>2018-06-07T16:09:10Z</time>
      </trkpt>
      <trkpt lat="44.54987" lon="2.2534">
        <ele>330</ele>
        <time>2018-06-07T16:09:11Z</time>
      </trkpt>
      <trkpt lat="44.54987" lon="2.25345">
        <ele>331</ele>
        <time>2018-06-07T16:09:12Z</time>
      </trkpt>
      <trkpt lat="44.54981" lon="2.25349">
        <ele>332</ele>
        <time>2018-06-07T16:09:14Z</time>
      </trkpt>
      <trkpt lat="44.54977" lon="2.25351">
        <ele>333</ele>
        <time>2018-06-07T16:09:15Z</time>
      </trkpt>
      <trkpt lat="44.54972" lon="2.25354">
        <ele>333</ele>
        <time>2018-06-07T16:09:17Z</time>
      </trkpt>
      <trkpt lat="44.54969" lon="2.25353">
        <ele>333</ele>
        <time>2018-06-07T16:09:18Z</time>
      </trkpt>
      <trkpt lat="44.54966" lon="2.25354">
        <ele>334</ele>
        <time>2018-06-07T16:09:20Z</time>
      </trkpt>
      <trkpt lat="44.54961" lon="2.25355">
        <ele>334</ele>
        <time>2018-06-07T16:09:22Z</time>
      </trkpt>
      <trkpt lat="44.54958" lon="2.25356">
        <ele>334</ele>
        <time>2018-06-07T16:09:24Z</time>
      </trkpt>
      <trkpt lat="44.54961" lon="2.25359">
        <ele>334</ele>
        <time>2018-06-07T16:09:26Z</time>
      </trkpt>
      <trkpt lat="44.54958" lon="2.25363">
        <ele>335</ele>
        <time>2018-06-07T16:09:28Z</time>
      </trkpt>
      <trkpt lat="44.54955" lon="2.25362">
        <ele>335</ele>
        <time>2018-06-07T16:09:29Z</time>
      </trkpt>
      <trkpt lat="44.54951" lon="2.25362">
        <ele>335</ele>
        <time>2018-06-07T16:09:32Z</time>
      </trkpt>
      <trkpt lat="44.54956" lon="2.25366">
        <ele>335</ele>
        <time>2018-06-07T16:09:34Z</time>
      </trkpt>
      <trkpt lat="44.54958" lon="2.2537">
        <ele>335</ele>
        <time>2018-06-07T16:09:35Z</time>
      </trkpt>
      <trkpt lat="44.54966" lon="2.25376">
        <ele>336</ele>
        <time>2018-06-07T16:09:37Z</time>
      </trkpt>
      <trkpt lat="44.54963" lon="2.25378">
        <ele>336</ele>
        <time>2018-06-07T16:09:39Z</time>
      </trkpt>
      <trkpt lat="44.54962" lon="2.25368">
        <ele>335</ele>
        <time>2018-06-07T16:09:41Z</time>
      </trkpt>
      <trkpt lat="44.54973" lon="2.25369">
        <ele>335</ele>
        <time>2018-06-07T16:09:42Z</time>
      </trkpt>
      <trkpt lat="44.54959" lon="2.25366">
        <ele>335</ele>
        <time>2018-06-07T16:09:43Z</time>
      </trkpt>
      <trkpt lat="44.54944" lon="2.25369">
        <ele>335</ele>
        <time>2018-06-07T16:09:44Z</time>
      </trkpt>
      <trkpt lat="44.54904" lon="2.25341">
        <ele>332</ele>
        <time>2018-06-07T16:09:48Z</time>
      </trkpt>
      <trkpt lat="44.54902" lon="2.25337">
        <ele>332</ele>
        <time>2018-06-07T16:09:49Z</time>
      </trkpt>
      <trkpt lat="44.54898" lon="2.25346">
        <ele>334</ele>
        <time>2018-06-07T16:09:50Z</time>
      </trkpt>
      <trkpt lat="44.54887" lon="2.25342">
        <ele>335</ele>
        <time>2018-06-07T16:09:51Z</time>
      </trkpt>
      <trkpt lat="44.54869" lon="2.25342">
        <ele>336</ele>
        <time>2018-06-07T16:09:54Z</time>
      </trkpt>
      <trkpt lat="44.54869" lon="2.25346">
        <ele>336</ele>
        <time>2018-06-07T16:09:55Z</time>
      </trkpt>
      <trkpt lat="44.54872" lon="2.2535">
        <ele>336</ele>
        <time>2018-06-07T16:09:57Z</time>
      </trkpt>
      <trkpt lat="44.54876" lon="2.25351">
        <ele>336</ele>
        <time>2018-06-07T16:09:59Z</time>
      </trkpt>
      <trkpt lat="44.5488" lon="2.25354">
        <ele>336</ele>
        <time>2018-06-07T16:10:00Z</time>
      </trkpt>
      <trkpt lat="44.54885" lon="2.25352">
        <ele>336</ele>
        <time>2018-06-07T16:10:01Z</time>
      </trkpt>
      <trkpt lat="44.54887" lon="2.25356">
        <ele>336</ele>
        <time>2018-06-07T16:10:03Z</time>
      </trkpt>
      <trkpt lat="44.5489" lon="2.25358">
        <ele>336</ele>
        <time>2018-06-07T16:10:04Z</time>
      </trkpt>
      <trkpt lat="44.54895" lon="2.25361">
        <ele>336</ele>
        <time>2018-06-07T16:10:05Z</time>
      </trkpt>
      <trkpt lat="44.54899" lon="2.25364">
        <ele>336</ele>
        <time>2018-06-07T16:10:06Z</time>
      </trkpt>
      <trkpt lat="44.549" lon="2.25371">
        <ele>337</ele>
        <time>2018-06-07T16:10:07Z</time>
      </trkpt>
      <trkpt lat="44.54902" lon="2.25374">
        <ele>337</ele>
        <time>2018-06-07T16:10:08Z</time>
      </trkpt>
      <trkpt lat="44.54905" lon="2.25374">
        <ele>337</ele>
        <time>2018-06-07T16:10:09Z</time>
      </trkpt>
      <trkpt lat="44.54908" lon="2.25373">
        <ele>337</ele>
        <time>2018-06-07T16:10:10Z</time>
      </trkpt>
      <trkpt lat="44.5491" lon="2.25377">
        <ele>338</ele>
        <time>2018-06-07T16:10:13Z</time>
      </trkpt>
      <trkpt lat="44.54914" lon="2.25377">
        <ele>338</ele>
        <time>2018-06-07T16:10:14Z</time>
      </trkpt>
      <trkpt lat="44.5492" lon="2.25372">
        <ele>336</ele>
        <time>2018-06-07T16:10:16Z</time>
      </trkpt>
      <trkpt lat="44.54921" lon="2.25379">
        <ele>337</ele>
        <time>2018-06-07T16:10:19Z</time>
      </trkpt>
      <trkpt lat="44.54924" lon="2.25386">
        <ele>338</ele>
        <time>2018-06-07T16:10:20Z</time>
      </trkpt>
      <trkpt lat="44.54926" lon="2.25388">
        <ele>338</ele>
        <time>2018-06-07T16:10:21Z</time>
      </trkpt>
      <trkpt lat="44.54933" lon="2.25392">
        <ele>339</ele>
        <time>2018-06-07T16:10:22Z</time>
      </trkpt>
      <trkpt lat="44.54939" lon="2.25395">
        <ele>339</ele>
        <time>2018-06-07T16:10:23Z</time>
      </trkpt>
      <trkpt lat="44.54937" lon="2.25385">
        <ele>337</ele>
        <time>2018-06-07T16:10:24Z</time>
      </trkpt>
      <trkpt lat="44.5494" lon="2.25378">
        <ele>336</ele>
        <time>2018-06-07T16:10:25Z</time>
      </trkpt>
      <trkpt lat="44.54944" lon="2.25376">
        <ele>336</ele>
        <time>2018-06-07T16:10:26Z</time>
      </trkpt>
      <trkpt lat="44.54948" lon="2.25397">
        <ele>338</ele>
        <time>2018-06-07T16:10:29Z</time>
      </trkpt>
      <trkpt lat="44.54952" lon="2.25398">
        <ele>338</ele>
        <time>2018-06-07T16:10:30Z</time>
      </trkpt>
      <trkpt lat="44.54951" lon="2.25402">
        <ele>339</ele>
        <time>2018-06-07T16:10:31Z</time>
      </trkpt>
      <trkpt lat="44.54956" lon="2.25402">
        <ele>339</ele>
        <time>2018-06-07T16:10:32Z</time>
      </trkpt>
      <trkpt lat="44.54962" lon="2.25405">
        <ele>339</ele>
        <time>2018-06-07T16:10:34Z</time>
      </trkpt>
      <trkpt lat="44.54965" lon="2.25405">
        <ele>339</ele>
        <time>2018-06-07T16:10:35Z</time>
      </trkpt>
      <trkpt lat="44.5497" lon="2.25405">
        <ele>339</ele>
        <time>2018-06-07T16:10:37Z</time>
      </trkpt>
      <trkpt lat="44.54974" lon="2.25403">
        <ele>339</ele>
        <time>2018-06-07T16:10:38Z</time>
      </trkpt>
      <trkpt lat="44.54979" lon="2.25405">
        <ele>340</ele>
        <time>2018-06-07T16:10:40Z</time>
      </trkpt>
      <trkpt lat="44.54983" lon="2.25406">
        <ele>341</ele>
        <time>2018-06-07T16:10:41Z</time>
      </trkpt>
      <trkpt lat="44.54985" lon="2.25408">
        <ele>341</ele>
        <time>2018-06-07T16:10:42Z</time>
      </trkpt>
      <trkpt lat="44.54989" lon="2.25411">
        <ele>342</ele>
        <time>2018-06-07T16:10:44Z</time>
      </trkpt>
      <trkpt lat="44.54992" lon="2.25409">
        <ele>342</ele>
        <time>2018-06-07T16:10:45Z</time>
      </trkpt>
      <trkpt lat="44.54995" lon="2.25413">
        <ele>344</ele>
        <time>2018-06-07T16:10:47Z</time>
      </trkpt>
      <trkpt lat="44.55" lon="2.25414">
        <ele>345</ele>
        <time>2018-06-07T16:10:48Z</time>
      </trkpt>
      <trkpt lat="44.55002" lon="2.25411">
        <ele>344</ele>
        <time>2018-06-07T16:10:49Z</time>
      </trkpt>
      <trkpt lat="44.55009" lon="2.25407">
        <ele>342</ele>
        <time>2018-06-07T16:10:50Z</time>
      </trkpt>
      <trkpt lat="44.55011" lon="2.25405">
        <ele>342</ele>
        <time>2018-06-07T16:10:51Z</time>
      </trkpt>
      <trkpt lat="44.55017" lon="2.25402">
        <ele>341</ele>
        <time>2018-06-07T16:10:53Z</time>
      </trkpt>
      <trkpt lat="44.5502" lon="2.25402">
        <ele>340</ele>
        <time>2018-06-07T16:10:54Z</time>
      </trkpt>
      <trkpt lat="44.55022" lon="2.25398">
        <ele>340</ele>
        <time>2018-06-07T16:10:56Z</time>
      </trkpt>
      <trkpt lat="44.55025" lon="2.25401">
        <ele>340</ele>
        <time>2018-06-07T16:10:57Z</time>
      </trkpt>
      <trkpt lat="44.55029" lon="2.25399">
        <ele>340</ele>
        <time>2018-06-07T16:10:58Z</time>
      </trkpt>
      <trkpt lat="44.55031" lon="2.25404">
        <ele>340</ele>
        <time>2018-06-07T16:10:59Z</time>
      </trkpt>
      <trkpt lat="44.55037" lon="2.25404">
        <ele>340</ele>
        <time>2018-06-07T16:11:01Z</time>
      </trkpt>
      <trkpt lat="44.55043" lon="2.25406">
        <ele>340</ele>
        <time>2018-06-07T16:11:03Z</time>
      </trkpt>
      <trkpt lat="44.55046" lon="2.25406">
        <ele>340</ele>
        <time>2018-06-07T16:11:04Z</time>
      </trkpt>
      <trkpt lat="44.55049" lon="2.25409">
        <ele>341</ele>
        <time>2018-06-07T16:11:07Z</time>
      </trkpt>
      <trkpt lat="44.55051" lon="2.25411">
        <ele>341</ele>
        <time>2018-06-07T16:11:08Z</time>
      </trkpt>
      <trkpt lat="44.55074" lon="2.25413">
        <ele>344</ele>
        <time>2018-06-07T16:11:16Z</time>
      </trkpt>
      <trkpt lat="44.55078" lon="2.25415">
        <ele>345</ele>
        <time>2018-06-07T16:11:17Z</time>
      </trkpt>
      <trkpt lat="44.55078" lon="2.2542">
        <ele>347</ele>
        <time>2018-06-07T16:11:18Z</time>
      </trkpt>
      <trkpt lat="44.5508" lon="2.25426">
        <ele>348</ele>
        <time>2018-06-07T16:11:20Z</time>
      </trkpt>
      <trkpt lat="44.55082" lon="2.25425">
        <ele>348</ele>
        <time>2018-06-07T16:11:23Z</time>
      </trkpt>
      <trkpt lat="44.55084" lon="2.25428">
        <ele>344</ele>
        <time>2018-06-07T16:11:24Z</time>
      </trkpt>
      <trkpt lat="44.55089" lon="2.25434">
        <ele>342</ele>
        <time>2018-06-07T16:11:25Z</time>
      </trkpt>
      <trkpt lat="44.5509" lon="2.2544">
        <ele>342</ele>
        <time>2018-06-07T16:11:28Z</time>
      </trkpt>
      <trkpt lat="44.55095" lon="2.25459">
        <ele>341</ele>
        <time>2018-06-07T16:11:32Z</time>
      </trkpt>
      <trkpt lat="44.55094" lon="2.25465">
        <ele>341</ele>
        <time>2018-06-07T16:11:33Z</time>
      </trkpt>
      <trkpt lat="44.55096" lon="2.25471">
        <ele>341</ele>
        <time>2018-06-07T16:11:36Z</time>
      </trkpt>
      <trkpt lat="44.55094" lon="2.25478">
        <ele>342</ele>
        <time>2018-06-07T16:11:39Z</time>
      </trkpt>
      <trkpt lat="44.55092" lon="2.25485">
        <ele>343</ele>
        <time>2018-06-07T16:11:41Z</time>
      </trkpt>
      <trkpt lat="44.55089" lon="2.2549">
        <ele>344</ele>
        <time>2018-06-07T16:11:43Z</time>
      </trkpt>
      <trkpt lat="44.55087" lon="2.25492">
        <ele>345</ele>
        <time>2018-06-07T16:11:47Z</time>
      </trkpt>
      <trkpt lat="44.55085" lon="2.25495">
        <ele>346</ele>
        <time>2018-06-07T16:11:48Z</time>
      </trkpt>
      <trkpt lat="44.55081" lon="2.25495">
        <ele>348</ele>
        <time>2018-06-07T16:11:49Z</time>
      </trkpt>
      <trkpt lat="44.55079" lon="2.25497">
        <ele>348</ele>
        <time>2018-06-07T16:11:51Z</time>
      </trkpt>
      <trkpt lat="44.55078" lon="2.25504">
        <ele>347</ele>
        <time>2018-06-07T16:11:54Z</time>
      </trkpt>
      <trkpt lat="44.55074" lon="2.25503">
        <ele>347</ele>
        <time>2018-06-07T16:11:56Z</time>
      </trkpt>
      <trkpt lat="44.55071" lon="2.25499">
        <ele>349</ele>
        <time>2018-06-07T16:11:58Z</time>
      </trkpt>
      <trkpt lat="44.55069" lon="2.25501">
        <ele>346</ele>
        <time>2018-06-07T16:12:00Z</time>
      </trkpt>
      <trkpt lat="44.55064" lon="2.25501">
        <ele>346</ele>
        <time>2018-06-07T16:12:01Z</time>
      </trkpt>
      <trkpt lat="44.55053" lon="2.25498">
        <ele>350</ele>
        <time>2018-06-07T16:12:03Z</time>
      </trkpt>
      <trkpt lat="44.55048" lon="2.25497">
        <ele>350</ele>
        <time>2018-06-07T16:12:05Z</time>
      </trkpt>
      <trkpt lat="44.55041" lon="2.25495">
        <ele>351</ele>
        <time>2018-06-07T16:12:07Z</time>
      </trkpt>
      <trkpt lat="44.55034" lon="2.25493">
        <ele>351</ele>
        <time>2018-06-07T16:12:08Z</time>
      </trkpt>
      <trkpt lat="44.55032" lon="2.25498">
        <ele>351</ele>
        <time>2018-06-07T16:12:09Z</time>
      </trkpt>
      <trkpt lat="44.55029" lon="2.255">
        <ele>352</ele>
        <time>2018-06-07T16:12:12Z</time>
      </trkpt>
      <trkpt lat="44.55026" lon="2.25501">
        <ele>349</ele>
        <time>2018-06-07T16:12:13Z</time>
      </trkpt>
      <trkpt lat="44.55022" lon="2.25501">
        <ele>349</ele>
        <time>2018-06-07T16:12:15Z</time>
      </trkpt>
      <trkpt lat="44.55017" lon="2.25502">
        <ele>351</ele>
        <time>2018-06-07T16:12:17Z</time>
      </trkpt>
      <trkpt lat="44.55021" lon="2.25507">
        <ele>349</ele>
        <time>2018-06-07T16:12:20Z</time>
      </trkpt>
      <trkpt lat="44.55016" lon="2.25507">
        <ele>350</ele>
        <time>2018-06-07T16:12:21Z</time>
      </trkpt>
      <trkpt lat="44.55012" lon="2.25508">
        <ele>351</ele>
        <time>2018-06-07T16:12:22Z</time>
      </trkpt>
      <trkpt lat="44.55009" lon="2.25508">
        <ele>352</ele>
        <time>2018-06-07T16:12:24Z</time>
      </trkpt>
      <trkpt lat="44.55008" lon="2.25513">
        <ele>351</ele>
        <time>2018-06-07T16:12:27Z</time>
      </trkpt>
      <trkpt lat="44.54998" lon="2.25513">
        <ele>356</ele>
        <time>2018-06-07T16:12:29Z</time>
      </trkpt>
      <trkpt lat="44.54995" lon="2.25516">
        <ele>356</ele>
        <time>2018-06-07T16:12:32Z</time>
      </trkpt>
      <trkpt lat="44.54991" lon="2.25516">
        <ele>356</ele>
        <time>2018-06-07T16:12:33Z</time>
      </trkpt>
      <trkpt lat="44.54984" lon="2.25517">
        <ele>356</ele>
        <time>2018-06-07T16:12:35Z</time>
      </trkpt>
      <trkpt lat="44.54981" lon="2.25517">
        <ele>356</ele>
        <time>2018-06-07T16:12:36Z</time>
      </trkpt>
      <trkpt lat="44.54972" lon="2.25516">
        <ele>356</ele>
        <time>2018-06-07T16:12:38Z</time>
      </trkpt>
      <trkpt lat="44.54969" lon="2.25517">
        <ele>356</ele>
        <time>2018-06-07T16:12:40Z</time>
      </trkpt>
      <trkpt lat="44.54966" lon="2.25518">
        <ele>357</ele>
        <time>2018-06-07T16:12:43Z</time>
      </trkpt>
      <trkpt lat="44.54963" lon="2.25519">
        <ele>357</ele>
        <time>2018-06-07T16:12:44Z</time>
      </trkpt>
      <trkpt lat="44.5496" lon="2.25521">
        <ele>357</ele>
        <time>2018-06-07T16:12:47Z</time>
      </trkpt>
      <trkpt lat="44.54956" lon="2.25523">
        <ele>357</ele>
        <time>2018-06-07T16:12:48Z</time>
      </trkpt>
      <trkpt lat="44.54952" lon="2.25523">
        <ele>357</ele>
        <time>2018-06-07T16:12:49Z</time>
      </trkpt>
      <trkpt lat="44.54949" lon="2.25525">
        <ele>357</ele>
        <time>2018-06-07T16:12:51Z</time>
      </trkpt>
      <trkpt lat="44.54941" lon="2.25525">
        <ele>358</ele>
        <time>2018-06-07T16:12:53Z</time>
      </trkpt>
      <trkpt lat="44.54933" lon="2.25525">
        <ele>358</ele>
        <time>2018-06-07T16:12:55Z</time>
      </trkpt>
      <trkpt lat="44.54929" lon="2.25526">
        <ele>358</ele>
        <time>2018-06-07T16:12:56Z</time>
      </trkpt>
      <trkpt lat="44.5493" lon="2.2553">
        <ele>358</ele>
        <time>2018-06-07T16:12:59Z</time>
      </trkpt>
      <trkpt lat="44.54927" lon="2.25534">
        <ele>358</ele>
        <time>2018-06-07T16:13:01Z</time>
      </trkpt>
      <trkpt lat="44.54924" lon="2.25536">
        <ele>358</ele>
        <time>2018-06-07T16:13:03Z</time>
      </trkpt>
      <trkpt lat="44.54919" lon="2.25536">
        <ele>358</ele>
        <time>2018-06-07T16:13:04Z</time>
      </trkpt>
      <trkpt lat="44.54917" lon="2.25539">
        <ele>358</ele>
        <time>2018-06-07T16:13:06Z</time>
      </trkpt>
      <trkpt lat="44.54912" lon="2.25537">
        <ele>362</ele>
        <time>2018-06-07T16:13:07Z</time>
      </trkpt>
      <trkpt lat="44.54908" lon="2.25538">
        <ele>362</ele>
        <time>2018-06-07T16:13:08Z</time>
      </trkpt>
      <trkpt lat="44.54905" lon="2.25542">
        <ele>362</ele>
        <time>2018-06-07T16:13:10Z</time>
      </trkpt>
      <trkpt lat="44.54902" lon="2.25543">
        <ele>362</ele>
        <time>2018-06-07T16:13:11Z</time>
      </trkpt>
      <trkpt lat="44.54898" lon="2.25547">
        <ele>362</ele>
        <time>2018-06-07T16:13:13Z</time>
      </trkpt>
      <trkpt lat="44.54895" lon="2.25546">
        <ele>362</ele>
        <time>2018-06-07T16:13:14Z</time>
      </trkpt>
      <trkpt lat="44.54891" lon="2.25545">
        <ele>362</ele>
        <time>2018-06-07T16:13:15Z</time>
      </trkpt>
      <trkpt lat="44.54884" lon="2.25546">
        <ele>362</ele>
        <time>2018-06-07T16:13:17Z</time>
      </trkpt>
      <trkpt lat="44.54882" lon="2.25546">
        <ele>362</ele>
        <time>2018-06-07T16:13:18Z</time>
      </trkpt>
      <trkpt lat="44.5488" lon="2.2555">
        <ele>362</ele>
        <time>2018-06-07T16:13:22Z</time>
      </trkpt>
      <trkpt lat="44.54877" lon="2.25551">
        <ele>362</ele>
        <time>2018-06-07T16:13:23Z</time>
      </trkpt>
      <trkpt lat="44.54879" lon="2.25553">
        <ele>362</ele>
        <time>2018-06-07T16:13:25Z</time>
      </trkpt>
      <trkpt lat="44.54875" lon="2.25553">
        <ele>362</ele>
        <time>2018-06-07T16:13:26Z</time>
      </trkpt>
      <trkpt lat="44.54869" lon="2.25552">
        <ele>362</ele>
        <time>2018-06-07T16:13:27Z</time>
      </trkpt>
      <trkpt lat="44.5487" lon="2.25557">
        <ele>363</ele>
        <time>2018-06-07T16:13:28Z</time>
      </trkpt>
      <trkpt lat="44.54866" lon="2.25555">
        <ele>363</ele>
        <time>2018-06-07T16:13:29Z</time>
      </trkpt>
      <trkpt lat="44.54861" lon="2.25558">
        <ele>363</ele>
        <time>2018-06-07T16:13:31Z</time>
      </trkpt>
      <trkpt lat="44.54859" lon="2.25563">
        <ele>363</ele>
        <time>2018-06-07T16:13:34Z</time>
      </trkpt>
      <trkpt lat="44.54854" lon="2.25562">
        <ele>363</ele>
        <time>2018-06-07T16:13:36Z</time>
      </trkpt>
      <trkpt lat="44.54842" lon="2.25583">
        <ele>365</ele>
        <time>2018-06-07T16:13:47Z</time>
      </trkpt>
      <trkpt lat="44.54841" lon="2.25597">
        <ele>364</ele>
        <time>2018-06-07T16:13:53Z</time>
      </trkpt>
      <trkpt lat="44.54839" lon="2.25602">
        <ele>364</ele>
        <time>2018-06-07T16:13:56Z</time>
      </trkpt>
      <trkpt lat="44.54841" lon="2.25605">
        <ele>363</ele>
        <time>2018-06-07T16:14:00Z</time>
      </trkpt>
      <trkpt lat="44.54843" lon="2.25609">
        <ele>363</ele>
        <time>2018-06-07T16:14:04Z</time>
      </trkpt>
      <trkpt lat="44.54845" lon="2.25613">
        <ele>363</ele>
        <time>2018-06-07T16:14:06Z</time>
      </trkpt>
      <trkpt lat="44.54844" lon="2.25605">
        <ele>363</ele>
        <time>2018-06-07T16:14:11Z</time>
      </trkpt>
      <trkpt lat="44.54844" lon="2.25602">
        <ele>364</ele>
        <time>2018-06-07T16:14:13Z</time>
      </trkpt>
      <trkpt lat="44.54843" lon="2.25598">
        <ele>364</ele>
        <time>2018-06-07T16:14:15Z</time>
      </trkpt>
      <trkpt lat="44.54843" lon="2.25595">
        <ele>364</ele>
        <time>2018-06-07T16:14:28Z</time>
      </trkpt>
      <trkpt lat="44.54843" lon="2.25592">
        <ele>365</ele>
        <time>2018-06-07T16:14:29Z</time>
      </trkpt>
      <trkpt lat="44.54839" lon="2.25589">
        <ele>365</ele>
        <time>2018-06-07T16:14:35Z</time>
      </trkpt>
      <trkpt lat="44.54835" lon="2.2559">
        <ele>366</ele>
        <time>2018-06-07T16:14:38Z</time>
      </trkpt>
      <trkpt lat="44.54832" lon="2.25593">
        <ele>366</ele>
        <time>2018-06-07T16:14:40Z</time>
      </trkpt>
      <trkpt lat="44.54827" lon="2.25596">
        <ele>365</ele>
        <time>2018-06-07T16:14:43Z</time>
      </trkpt>
      <trkpt lat="44.54825" lon="2.25596">
        <ele>365</ele>
        <time>2018-06-07T16:14:44Z</time>
      </trkpt>
      <trkpt lat="44.54823" lon="2.256">
        <ele>365</ele>
        <time>2018-06-07T16:14:46Z</time>
      </trkpt>
      <trkpt lat="44.5482" lon="2.25603">
        <ele>365</ele>
        <time>2018-06-07T16:14:48Z</time>
      </trkpt>
      <trkpt lat="44.54818" lon="2.25607">
        <ele>364</ele>
        <time>2018-06-07T16:14:50Z</time>
      </trkpt>
      <trkpt lat="44.54815" lon="2.25611">
        <ele>364</ele>
        <time>2018-06-07T16:14:52Z</time>
      </trkpt>
      <trkpt lat="44.54811" lon="2.25615">
        <ele>364</ele>
        <time>2018-06-07T16:14:54Z</time>
      </trkpt>
      <trkpt lat="44.54804" lon="2.25617">
        <ele>363</ele>
        <time>2018-06-07T16:14:56Z</time>
      </trkpt>
      <trkpt lat="44.54799" lon="2.25617">
        <ele>363</ele>
        <time>2018-06-07T16:14:57Z</time>
      </trkpt>
      <trkpt lat="44.54801" lon="2.25621">
        <ele>363</ele>
        <time>2018-06-07T16:14:59Z</time>
      </trkpt>
      <trkpt lat="44.54799" lon="2.25624">
        <ele>363</ele>
        <time>2018-06-07T16:15:01Z</time>
      </trkpt>
      <trkpt lat="44.54794" lon="2.25625">
        <ele>363</ele>
        <time>2018-06-07T16:15:02Z</time>
      </trkpt>
      <trkpt lat="44.54785" lon="2.25623">
        <ele>363</ele>
        <time>2018-06-07T16:15:05Z</time>
      </trkpt>
      <trkpt lat="44.54776" lon="2.25624">
        <ele>362</ele>
        <time>2018-06-07T16:15:08Z</time>
      </trkpt>
      <trkpt lat="44.54772" lon="2.25624">
        <ele>362</ele>
        <time>2018-06-07T16:15:09Z</time>
      </trkpt>
      <trkpt lat="44.54769" lon="2.25626">
        <ele>362</ele>
        <time>2018-06-07T16:15:10Z</time>
      </trkpt>
      <trkpt lat="44.54767" lon="2.25628">
        <ele>362</ele>
        <time>2018-06-07T16:15:11Z</time>
      </trkpt>
      <trkpt lat="44.54764" lon="2.2563">
        <ele>362</ele>
        <time>2018-06-07T16:15:12Z</time>
      </trkpt>
      <trkpt lat="44.5476" lon="2.25633">
        <ele>362</ele>
        <time>2018-06-07T16:15:14Z</time>
      </trkpt>
      <trkpt lat="44.54757" lon="2.25635">
        <ele>362</ele>
        <time>2018-06-07T16:15:16Z</time>
      </trkpt>
      <trkpt lat="44.54751" lon="2.25635">
        <ele>362</ele>
        <time>2018-06-07T16:15:17Z</time>
      </trkpt>
      <trkpt lat="44.54748" lon="2.25634">
        <ele>359</ele>
        <time>2018-06-07T16:15:19Z</time>
      </trkpt>
      <trkpt lat="44.54745" lon="2.25636">
        <ele>359</ele>
        <time>2018-06-07T16:15:21Z</time>
      </trkpt>
      <trkpt lat="44.54742" lon="2.25636">
        <ele>359</ele>
        <time>2018-06-07T16:15:23Z</time>
      </trkpt>
      <trkpt lat="44.54739" lon="2.25635">
        <ele>359</ele>
        <time>2018-06-07T16:15:24Z</time>
      </trkpt>
      <trkpt lat="44.54734" lon="2.25635">
        <ele>359</ele>
        <time>2018-06-07T16:15:25Z</time>
      </trkpt>
      <trkpt lat="44.54729" lon="2.25635">
        <ele>359</ele>
        <time>2018-06-07T16:15:26Z</time>
      </trkpt>
      <trkpt lat="44.54724" lon="2.25635">
        <ele>359</ele>
        <time>2018-06-07T16:15:28Z</time>
      </trkpt>
      <trkpt lat="44.54721" lon="2.25635">
        <ele>359</ele>
        <time>2018-06-07T16:15:32Z</time>
      </trkpt>
      <trkpt lat="44.54718" lon="2.25634">
        <ele>359</ele>
        <time>2018-06-07T16:15:33Z</time>
      </trkpt>
      <trkpt lat="44.54712" lon="2.25634">
        <ele>359</ele>
        <time>2018-06-07T16:15:34Z</time>
      </trkpt>
      <trkpt lat="44.54706" lon="2.25635">
        <ele>359</ele>
        <time>2018-06-07T16:15:37Z</time>
      </trkpt>
      <trkpt lat="44.54703" lon="2.25632">
        <ele>359</ele>
        <time>2018-06-07T16:15:39Z</time>
      </trkpt>
      <trkpt lat="44.54696" lon="2.25633">
        <ele>359</ele>
        <time>2018-06-07T16:15:42Z</time>
      </trkpt>
      <trkpt lat="44.54689" lon="2.25633">
        <ele>358</ele>
        <time>2018-06-07T16:15:44Z</time>
      </trkpt>
      <trkpt lat="44.54684" lon="2.25633">
        <ele>358</ele>
        <time>2018-06-07T16:15:46Z</time>
      </trkpt>
      <trkpt lat="44.5468" lon="2.25632">
        <ele>358</ele>
        <time>2018-06-07T16:15:47Z</time>
      </trkpt>
      <trkpt lat="44.54674" lon="2.25633">
        <ele>358</ele>
        <time>2018-06-07T16:15:48Z</time>
      </trkpt>
      <trkpt lat="44.5467" lon="2.25634">
        <ele>358</ele>
        <time>2018-06-07T16:15:50Z</time>
      </trkpt>
      <trkpt lat="44.54667" lon="2.25633">
        <ele>358</ele>
        <time>2018-06-07T16:15:51Z</time>
      </trkpt>
      <trkpt lat="44.54662" lon="2.25633">
        <ele>359</ele>
        <time>2018-06-07T16:15:53Z</time>
      </trkpt>
      <trkpt lat="44.54659" lon="2.25631">
        <ele>359</ele>
        <time>2018-06-07T16:15:54Z</time>
      </trkpt>
      <trkpt lat="44.54655" lon="2.25632">
        <ele>359</ele>
        <time>2018-06-07T16:15:55Z</time>
      </trkpt>
      <trkpt lat="44.54653" lon="2.25634">
        <ele>359</ele>
        <time>2018-06-07T16:15:56Z</time>
      </trkpt>
      <trkpt lat="44.5465" lon="2.25633">
        <ele>359</ele>
        <time>2018-06-07T16:15:57Z</time>
      </trkpt>
      <trkpt lat="44.54644" lon="2.25633">
        <ele>359</ele>
        <time>2018-06-07T16:15:59Z</time>
      </trkpt>
      <trkpt lat="44.54634" lon="2.25631">
        <ele>359</ele>
        <time>2018-06-07T16:16:03Z</time>
      </trkpt>
      <trkpt lat="44.54629" lon="2.25632">
        <ele>359</ele>
        <time>2018-06-07T16:16:05Z</time>
      </trkpt>
      <trkpt lat="44.54625" lon="2.25633">
        <ele>359</ele>
        <time>2018-06-07T16:16:06Z</time>
      </trkpt>
      <trkpt lat="44.5462" lon="2.25633">
        <ele>360</ele>
        <time>2018-06-07T16:16:08Z</time>
      </trkpt>
      <trkpt lat="44.54615" lon="2.25633">
        <ele>360</ele>
        <time>2018-06-07T16:16:10Z</time>
      </trkpt>
      <trkpt lat="44.54612" lon="2.25634">
        <ele>360</ele>
        <time>2018-06-07T16:16:11Z</time>
      </trkpt>
      <trkpt lat="44.54607" lon="2.25635">
        <ele>360</ele>
        <time>2018-06-07T16:16:13Z</time>
      </trkpt>
      <trkpt lat="44.54602" lon="2.25636">
        <ele>360</ele>
        <time>2018-06-07T16:16:15Z</time>
      </trkpt>
      <trkpt lat="44.54599" lon="2.25636">
        <ele>360</ele>
        <time>2018-06-07T16:16:16Z</time>
      </trkpt>
      <trkpt lat="44.54593" lon="2.25637">
        <ele>360</ele>
        <time>2018-06-07T16:16:18Z</time>
      </trkpt>
      <trkpt lat="44.54585" lon="2.2564">
        <ele>360</ele>
        <time>2018-06-07T16:16:21Z</time>
      </trkpt>
      <trkpt lat="44.54581" lon="2.2564">
        <ele>364</ele>
        <time>2018-06-07T16:16:23Z</time>
      </trkpt>
      <trkpt lat="44.54577" lon="2.2564">
        <ele>364</ele>
        <time>2018-06-07T16:16:25Z</time>
      </trkpt>
      <trkpt lat="44.54572" lon="2.25642">
        <ele>364</ele>
        <time>2018-06-07T16:16:27Z</time>
      </trkpt>
      <trkpt lat="44.54569" lon="2.25643">
        <ele>364</ele>
        <time>2018-06-07T16:16:28Z</time>
      </trkpt>
      <trkpt lat="44.54566" lon="2.25643">
        <ele>364</ele>
        <time>2018-06-07T16:16:29Z</time>
      </trkpt>
      <trkpt lat="44.54555" lon="2.25641">
        <ele>364</ele>
        <time>2018-06-07T16:16:30Z</time>
      </trkpt>
      <trkpt lat="44.5455" lon="2.25641">
        <ele>365</ele>
        <time>2018-06-07T16:16:32Z</time>
      </trkpt>
      <trkpt lat="44.54546" lon="2.25641">
        <ele>365</ele>
        <time>2018-06-07T16:16:33Z</time>
      </trkpt>
      <trkpt lat="44.54543" lon="2.25641">
        <ele>365</ele>
        <time>2018-06-07T16:16:34Z</time>
      </trkpt>
      <trkpt lat="44.5454" lon="2.25642">
        <ele>365</ele>
        <time>2018-06-07T16:16:36Z</time>
      </trkpt>
      <trkpt lat="44.54536" lon="2.25643">
        <ele>365</ele>
        <time>2018-06-07T16:16:37Z</time>
      </trkpt>
      <trkpt lat="44.54533" lon="2.25644">
        <ele>365</ele>
        <time>2018-06-07T16:16:39Z</time>
      </trkpt>
      <trkpt lat="44.54529" lon="2.25646">
        <ele>366</ele>
        <time>2018-06-07T16:16:41Z</time>
      </trkpt>
      <trkpt lat="44.54526" lon="2.25646">
        <ele>366</ele>
        <time>2018-06-07T16:16:42Z</time>
      </trkpt>
      <trkpt lat="44.54522" lon="2.25646">
        <ele>366</ele>
        <time>2018-06-07T16:16:43Z</time>
      </trkpt>
      <trkpt lat="44.54516" lon="2.25647">
        <ele>366</ele>
        <time>2018-06-07T16:16:45Z</time>
      </trkpt>
      <trkpt lat="44.54512" lon="2.25647">
        <ele>366</ele>
        <time>2018-06-07T16:16:46Z</time>
      </trkpt>
      <trkpt lat="44.54508" lon="2.25649">
        <ele>367</ele>
        <time>2018-06-07T16:16:48Z</time>
      </trkpt>
      <trkpt lat="44.54504" lon="2.2565">
        <ele>367</ele>
        <time>2018-06-07T16:16:49Z</time>
      </trkpt>
      <trkpt lat="44.54499" lon="2.25652">
        <ele>367</ele>
        <time>2018-06-07T16:16:51Z</time>
      </trkpt>
      <trkpt lat="44.54495" lon="2.25656">
        <ele>367</ele>
        <time>2018-06-07T16:16:53Z</time>
      </trkpt>
      <trkpt lat="44.54492" lon="2.25656">
        <ele>367</ele>
        <time>2018-06-07T16:16:54Z</time>
      </trkpt>
      <trkpt lat="44.54488" lon="2.2566">
        <ele>367</ele>
        <time>2018-06-07T16:16:57Z</time>
      </trkpt>
      <trkpt lat="44.54485" lon="2.25664">
        <ele>367</ele>
        <time>2018-06-07T16:16:59Z</time>
      </trkpt>
      <trkpt lat="44.54481" lon="2.25666">
        <ele>367</ele>
        <time>2018-06-07T16:17:01Z</time>
      </trkpt>
      <trkpt lat="44.54478" lon="2.25669">
        <ele>365</ele>
        <time>2018-06-07T16:17:02Z</time>
      </trkpt>
      <trkpt lat="44.54473" lon="2.25668">
        <ele>364</ele>
        <time>2018-06-07T16:17:03Z</time>
      </trkpt>
      <trkpt lat="44.54466" lon="2.25668">
        <ele>364</ele>
        <time>2018-06-07T16:17:04Z</time>
      </trkpt>
      <trkpt lat="44.54458" lon="2.25667">
        <ele>364</ele>
        <time>2018-06-07T16:17:05Z</time>
      </trkpt>
      <trkpt lat="44.54461" lon="2.25671">
        <ele>364</ele>
        <time>2018-06-07T16:17:06Z</time>
      </trkpt>
      <trkpt lat="44.54449" lon="2.25669">
        <ele>364</ele>
        <time>2018-06-07T16:17:07Z</time>
      </trkpt>
      <trkpt lat="44.54444" lon="2.25671">
        <ele>364</ele>
        <time>2018-06-07T16:17:08Z</time>
      </trkpt>
      <trkpt lat="44.54445" lon="2.25677">
        <ele>363</ele>
        <time>2018-06-07T16:17:10Z</time>
      </trkpt>
      <trkpt lat="44.54441" lon="2.25682">
        <ele>363</ele>
        <time>2018-06-07T16:17:12Z</time>
      </trkpt>
      <trkpt lat="44.54438" lon="2.25685">
        <ele>363</ele>
        <time>2018-06-07T16:17:13Z</time>
      </trkpt>
      <trkpt lat="44.54435" lon="2.25691">
        <ele>363</ele>
        <time>2018-06-07T16:17:15Z</time>
      </trkpt>
      <trkpt lat="44.54432" lon="2.25695">
        <ele>363</ele>
        <time>2018-06-07T16:17:17Z</time>
      </trkpt>
      <trkpt lat="44.54432" lon="2.25703">
        <ele>363</ele>
        <time>2018-06-07T16:17:19Z</time>
      </trkpt>
      <trkpt lat="44.54431" lon="2.25707">
        <ele>362</ele>
        <time>2018-06-07T16:17:21Z</time>
      </trkpt>
      <trkpt lat="44.54429" lon="2.25712">
        <ele>362</ele>
        <time>2018-06-07T16:17:23Z</time>
      </trkpt>
      <trkpt lat="44.54431" lon="2.25716">
        <ele>362</ele>
        <time>2018-06-07T16:17:24Z</time>
      </trkpt>
      <trkpt lat="44.54427" lon="2.25718">
        <ele>362</ele>
        <time>2018-06-07T16:17:25Z</time>
      </trkpt>
      <trkpt lat="44.54427" lon="2.25725">
        <ele>362</ele>
        <time>2018-06-07T16:17:27Z</time>
      </trkpt>
      <trkpt lat="44.54426" lon="2.25731">
        <ele>361</ele>
        <time>2018-06-07T16:17:29Z</time>
      </trkpt>
      <trkpt lat="44.54424" lon="2.25735">
        <ele>361</ele>
        <time>2018-06-07T16:17:30Z</time>
      </trkpt>
      <trkpt lat="44.54422" lon="2.25738">
        <ele>361</ele>
        <time>2018-06-07T16:17:31Z</time>
      </trkpt>
      <trkpt lat="44.54417" lon="2.25743">
        <ele>358</ele>
        <time>2018-06-07T16:17:33Z</time>
      </trkpt>
      <trkpt lat="44.54414" lon="2.25747">
        <ele>359</ele>
        <time>2018-06-07T16:17:35Z</time>
      </trkpt>
      <trkpt lat="44.54413" lon="2.25751">
        <ele>359</ele>
        <time>2018-06-07T16:17:36Z</time>
      </trkpt>
      <trkpt lat="44.54413" lon="2.25755">
        <ele>358</ele>
        <time>2018-06-07T16:17:37Z</time>
      </trkpt>
      <trkpt lat="44.54412" lon="2.2576">
        <ele>357</ele>
        <time>2018-06-07T16:17:39Z</time>
      </trkpt>
      <trkpt lat="44.54409" lon="2.25763">
        <ele>355</ele>
        <time>2018-06-07T16:17:40Z</time>
      </trkpt>
      <trkpt lat="44.54409" lon="2.25769">
        <ele>354</ele>
        <time>2018-06-07T16:17:42Z</time>
      </trkpt>
      <trkpt lat="44.54407" lon="2.25777">
        <ele>353</ele>
        <time>2018-06-07T16:17:44Z</time>
      </trkpt>
      <trkpt lat="44.54404" lon="2.25782">
        <ele>352</ele>
        <time>2018-06-07T16:17:46Z</time>
      </trkpt>
      <trkpt lat="44.54401" lon="2.25782">
        <ele>352</ele>
        <time>2018-06-07T16:17:47Z</time>
      </trkpt>
      <trkpt lat="44.54399" lon="2.25787">
        <ele>352</ele>
        <time>2018-06-07T16:17:49Z</time>
      </trkpt>
      <trkpt lat="44.54398" lon="2.25792">
        <ele>351</ele>
        <time>2018-06-07T16:17:52Z</time>
      </trkpt>
      <trkpt lat="44.54397" lon="2.258">
        <ele>351</ele>
        <time>2018-06-07T16:17:54Z</time>
      </trkpt>
      <trkpt lat="44.54395" lon="2.25806">
        <ele>351</ele>
        <time>2018-06-07T16:17:55Z</time>
      </trkpt>
      <trkpt lat="44.54395" lon="2.25811">
        <ele>351</ele>
        <time>2018-06-07T16:17:56Z</time>
      </trkpt>
      <trkpt lat="44.54392" lon="2.25816">
        <ele>351</ele>
        <time>2018-06-07T16:17:57Z</time>
      </trkpt>
      <trkpt lat="44.54391" lon="2.25821">
        <ele>351</ele>
        <time>2018-06-07T16:17:58Z</time>
      </trkpt>
      <trkpt lat="44.5439" lon="2.25829">
        <ele>351</ele>
        <time>2018-06-07T16:17:59Z</time>
      </trkpt>
      <trkpt lat="44.54389" lon="2.25833">
        <ele>351</ele>
        <time>2018-06-07T16:18:00Z</time>
      </trkpt>
      <trkpt lat="44.54387" lon="2.25837">
        <ele>353</ele>
        <time>2018-06-07T16:18:01Z</time>
      </trkpt>
      <trkpt lat="44.54385" lon="2.2584">
        <ele>353</ele>
        <time>2018-06-07T16:18:02Z</time>
      </trkpt>
      <trkpt lat="44.54384" lon="2.25845">
        <ele>353</ele>
        <time>2018-06-07T16:18:03Z</time>
      </trkpt>
      <trkpt lat="44.54383" lon="2.25848">
        <ele>352</ele>
        <time>2018-06-07T16:18:04Z</time>
      </trkpt>
      <trkpt lat="44.54385" lon="2.25852">
        <ele>353</ele>
        <time>2018-06-07T16:18:05Z</time>
      </trkpt>
      <trkpt lat="44.54382" lon="2.25856">
        <ele>352</ele>
        <time>2018-06-07T16:18:06Z</time>
      </trkpt>
      <trkpt lat="44.54378" lon="2.2586">
        <ele>352</ele>
        <time>2018-06-07T16:18:07Z</time>
      </trkpt>
      <trkpt lat="44.54376" lon="2.25865">
        <ele>352</ele>
        <time>2018-06-07T16:18:08Z</time>
      </trkpt>
      <trkpt lat="44.54375" lon="2.2587">
        <ele>352</ele>
        <time>2018-06-07T16:18:09Z</time>
      </trkpt>
      <trkpt lat="44.54374" lon="2.25879">
        <ele>352</ele>
        <time>2018-06-07T16:18:10Z</time>
      </trkpt>
      <trkpt lat="44.5437" lon="2.25882">
        <ele>352</ele>
        <time>2018-06-07T16:18:12Z</time>
      </trkpt>
      <trkpt lat="44.54369" lon="2.25885">
        <ele>352</ele>
        <time>2018-06-07T16:18:13Z</time>
      </trkpt>
      <trkpt lat="44.54369" lon="2.2589">
        <ele>352</ele>
        <time>2018-06-07T16:18:14Z</time>
      </trkpt>
      <trkpt lat="44.54369" lon="2.25895">
        <ele>352</ele>
        <time>2018-06-07T16:18:15Z</time>
      </trkpt>
      <trkpt lat="44.54364" lon="2.25901">
        <ele>353</ele>
        <time>2018-06-07T16:18:17Z</time>
      </trkpt>
      <trkpt lat="44.54362" lon="2.25905">
        <ele>353</ele>
        <time>2018-06-07T16:18:18Z</time>
      </trkpt>
      <trkpt lat="44.54363" lon="2.25911">
        <ele>353</ele>
        <time>2018-06-07T16:18:20Z</time>
      </trkpt>
      <trkpt lat="44.54353" lon="2.2592">
        <ele>354</ele>
        <time>2018-06-07T16:18:22Z</time>
      </trkpt>
      <trkpt lat="44.54351" lon="2.25925">
        <ele>354</ele>
        <time>2018-06-07T16:18:23Z</time>
      </trkpt>
      <trkpt lat="44.54352" lon="2.25932">
        <ele>354</ele>
        <time>2018-06-07T16:18:24Z</time>
      </trkpt>
      <trkpt lat="44.54353" lon="2.25936">
        <ele>354</ele>
        <time>2018-06-07T16:18:25Z</time>
      </trkpt>
      <trkpt lat="44.54351" lon="2.25943">
        <ele>354</ele>
        <time>2018-06-07T16:18:26Z</time>
      </trkpt>
      <trkpt lat="44.54351" lon="2.2595">
        <ele>354</ele>
        <time>2018-06-07T16:18:27Z</time>
      </trkpt>
      <trkpt lat="44.54351" lon="2.25957">
        <ele>354</ele>
        <time>2018-06-07T16:18:28Z</time>
      </trkpt>
      <trkpt lat="44.54353" lon="2.25964">
        <ele>354</ele>
        <time>2018-06-07T16:18:30Z</time>
      </trkpt>
      <trkpt lat="44.54354" lon="2.2597">
        <ele>354</ele>
        <time>2018-06-07T16:18:31Z</time>
      </trkpt>
      <trkpt lat="44.54354" lon="2.25973">
        <ele>354</ele>
        <time>2018-06-07T16:18:32Z</time>
      </trkpt>
      <trkpt lat="44.54354" lon="2.25979">
        <ele>354</ele>
        <time>2018-06-07T16:18:33Z</time>
      </trkpt>
      <trkpt lat="44.54354" lon="2.25985">
        <ele>354</ele>
        <time>2018-06-07T16:18:34Z</time>
      </trkpt>
      <trkpt lat="44.54355" lon="2.25989">
        <ele>354</ele>
        <time>2018-06-07T16:18:35Z</time>
      </trkpt>
      <trkpt lat="44.54355" lon="2.25995">
        <ele>354</ele>
        <time>2018-06-07T16:18:37Z</time>
      </trkpt>
      <trkpt lat="44.54356" lon="2.26">
        <ele>354</ele>
        <time>2018-06-07T16:18:38Z</time>
      </trkpt>
      <trkpt lat="44.5436" lon="2.26019">
        <ele>352</ele>
        <time>2018-06-07T16:18:43Z</time>
      </trkpt>
      <trkpt lat="44.54361" lon="2.26023">
        <ele>352</ele>
        <time>2018-06-07T16:18:44Z</time>
      </trkpt>
      <trkpt lat="44.54365" lon="2.26029">
        <ele>352</ele>
        <time>2018-06-07T16:18:45Z</time>
      </trkpt>
      <trkpt lat="44.54367" lon="2.26034">
        <ele>352</ele>
        <time>2018-06-07T16:18:46Z</time>
      </trkpt>
      <trkpt lat="44.54369" lon="2.26042">
        <ele>352</ele>
        <time>2018-06-07T16:18:48Z</time>
      </trkpt>
      <trkpt lat="44.54369" lon="2.26049">
        <ele>351</ele>
        <time>2018-06-07T16:18:50Z</time>
      </trkpt>
      <trkpt lat="44.5437" lon="2.26056">
        <ele>351</ele>
        <time>2018-06-07T16:18:52Z</time>
      </trkpt>
      <trkpt lat="44.54371" lon="2.26063">
        <ele>351</ele>
        <time>2018-06-07T16:18:54Z</time>
      </trkpt>
      <trkpt lat="44.54373" lon="2.26072">
        <ele>351</ele>
        <time>2018-06-07T16:18:56Z</time>
      </trkpt>
      <trkpt lat="44.54374" lon="2.26076">
        <ele>351</ele>
        <time>2018-06-07T16:18:57Z</time>
      </trkpt>
      <trkpt lat="44.54374" lon="2.2608">
        <ele>351</ele>
        <time>2018-06-07T16:18:58Z</time>
      </trkpt>
      <trkpt lat="44.54376" lon="2.2609">
        <ele>348</ele>
        <time>2018-06-07T16:19:00Z</time>
      </trkpt>
      <trkpt lat="44.54378" lon="2.26097">
        <ele>348</ele>
        <time>2018-06-07T16:19:02Z</time>
      </trkpt>
      <trkpt lat="44.54379" lon="2.26102">
        <ele>348</ele>
        <time>2018-06-07T16:19:03Z</time>
      </trkpt>
      <trkpt lat="44.54379" lon="2.2611">
        <ele>347</ele>
        <time>2018-06-07T16:19:05Z</time>
      </trkpt>
      <trkpt lat="44.5438" lon="2.26115">
        <ele>347</ele>
        <time>2018-06-07T16:19:06Z</time>
      </trkpt>
      <trkpt lat="44.54381" lon="2.26119">
        <ele>347</ele>
        <time>2018-06-07T16:19:07Z</time>
      </trkpt>
      <trkpt lat="44.54383" lon="2.26123">
        <ele>347</ele>
        <time>2018-06-07T16:19:08Z</time>
      </trkpt>
      <trkpt lat="44.54385" lon="2.26132">
        <ele>347</ele>
        <time>2018-06-07T16:19:10Z</time>
      </trkpt>
      <trkpt lat="44.54387" lon="2.26142">
        <ele>346</ele>
        <time>2018-06-07T16:19:12Z</time>
      </trkpt>
      <trkpt lat="44.54388" lon="2.26147">
        <ele>346</ele>
        <time>2018-06-07T16:19:14Z</time>
      </trkpt>
      <trkpt lat="44.54389" lon="2.26151">
        <ele>346</ele>
        <time>2018-06-07T16:19:15Z</time>
      </trkpt>
      <trkpt lat="44.54389" lon="2.26156">
        <ele>345</ele>
        <time>2018-06-07T16:19:16Z</time>
      </trkpt>
      <trkpt lat="44.54391" lon="2.26161">
        <ele>345</ele>
        <time>2018-06-07T16:19:17Z</time>
      </trkpt>
      <trkpt lat="44.54392" lon="2.26165">
        <ele>345</ele>
        <time>2018-06-07T16:19:18Z</time>
      </trkpt>
      <trkpt lat="44.54393" lon="2.26169">
        <ele>343</ele>
        <time>2018-06-07T16:19:20Z</time>
      </trkpt>
      <trkpt lat="44.54395" lon="2.26173">
        <ele>343</ele>
        <time>2018-06-07T16:19:21Z</time>
      </trkpt>
      <trkpt lat="44.54396" lon="2.26176">
        <ele>343</ele>
        <time>2018-06-07T16:19:23Z</time>
      </trkpt>
      <trkpt lat="44.54399" lon="2.26183">
        <ele>343</ele>
        <time>2018-06-07T16:19:25Z</time>
      </trkpt>
      <trkpt lat="44.544" lon="2.26188">
        <ele>343</ele>
        <time>2018-06-07T16:19:26Z</time>
      </trkpt>
      <trkpt lat="44.54402" lon="2.26194">
        <ele>344</ele>
        <time>2018-06-07T16:19:28Z</time>
      </trkpt>
      <trkpt lat="44.54403" lon="2.26198">
        <ele>344</ele>
        <time>2018-06-07T16:19:29Z</time>
      </trkpt>
      <trkpt lat="44.54405" lon="2.26204">
        <ele>344</ele>
        <time>2018-06-07T16:19:31Z</time>
      </trkpt>
      <trkpt lat="44.54407" lon="2.26211">
        <ele>344</ele>
        <time>2018-06-07T16:19:33Z</time>
      </trkpt>
      <trkpt lat="44.54408" lon="2.26215">
        <ele>344</ele>
        <time>2018-06-07T16:19:34Z</time>
      </trkpt>
      <trkpt lat="44.54408" lon="2.2622">
        <ele>344</ele>
        <time>2018-06-07T16:19:35Z</time>
      </trkpt>
      <trkpt lat="44.54409" lon="2.26225">
        <ele>345</ele>
        <time>2018-06-07T16:19:37Z</time>
      </trkpt>
      <trkpt lat="44.54411" lon="2.26231">
        <ele>345</ele>
        <time>2018-06-07T16:19:39Z</time>
      </trkpt>
      <trkpt lat="44.54412" lon="2.26235">
        <ele>345</ele>
        <time>2018-06-07T16:19:40Z</time>
      </trkpt>
      <trkpt lat="44.54413" lon="2.26239">
        <ele>345</ele>
        <time>2018-06-07T16:19:41Z</time>
      </trkpt>
      <trkpt lat="44.54415" lon="2.26244">
        <ele>345</ele>
        <time>2018-06-07T16:19:43Z</time>
      </trkpt>
      <trkpt lat="44.54417" lon="2.2625">
        <ele>346</ele>
        <time>2018-06-07T16:19:45Z</time>
      </trkpt>
      <trkpt lat="44.54418" lon="2.26254">
        <ele>344</ele>
        <time>2018-06-07T16:19:46Z</time>
      </trkpt>
      <trkpt lat="44.5442" lon="2.2626">
        <ele>342</ele>
        <time>2018-06-07T16:19:48Z</time>
      </trkpt>
      <trkpt lat="44.54422" lon="2.26264">
        <ele>340</ele>
        <time>2018-06-07T16:19:49Z</time>
      </trkpt>
      <trkpt lat="44.54424" lon="2.26268">
        <ele>340</ele>
        <time>2018-06-07T16:19:50Z</time>
      </trkpt>
      <trkpt lat="44.54426" lon="2.26274">
        <ele>339</ele>
        <time>2018-06-07T16:19:52Z</time>
      </trkpt>
      <trkpt lat="44.54426" lon="2.26278">
        <ele>338</ele>
        <time>2018-06-07T16:19:54Z</time>
      </trkpt>
      <trkpt lat="44.54427" lon="2.26282">
        <ele>338</ele>
        <time>2018-06-07T16:19:55Z</time>
      </trkpt>
      <trkpt lat="44.54428" lon="2.26286">
        <ele>338</ele>
        <time>2018-06-07T16:19:56Z</time>
      </trkpt>
      <trkpt lat="44.54429" lon="2.2629">
        <ele>338</ele>
        <time>2018-06-07T16:19:57Z</time>
      </trkpt>
      <trkpt lat="44.54431" lon="2.26293">
        <ele>337</ele>
        <time>2018-06-07T16:19:58Z</time>
      </trkpt>
      <trkpt lat="44.54432" lon="2.26298">
        <ele>337</ele>
        <time>2018-06-07T16:19:59Z</time>
      </trkpt>
      <trkpt lat="44.54436" lon="2.26304">
        <ele>337</ele>
        <time>2018-06-07T16:20:01Z</time>
      </trkpt>
      <trkpt lat="44.54439" lon="2.2631">
        <ele>337</ele>
        <time>2018-06-07T16:20:03Z</time>
      </trkpt>
      <trkpt lat="44.54441" lon="2.2632">
        <ele>338</ele>
        <time>2018-06-07T16:20:05Z</time>
      </trkpt>
      <trkpt lat="44.54443" lon="2.26327">
        <ele>338</ele>
        <time>2018-06-07T16:20:07Z</time>
      </trkpt>
      <trkpt lat="44.54444" lon="2.26332">
        <ele>338</ele>
        <time>2018-06-07T16:20:08Z</time>
      </trkpt>
      <trkpt lat="44.54445" lon="2.2634">
        <ele>340</ele>
        <time>2018-06-07T16:20:10Z</time>
      </trkpt>
      <trkpt lat="44.54447" lon="2.26347">
        <ele>340</ele>
        <time>2018-06-07T16:20:12Z</time>
      </trkpt>
      <trkpt lat="44.54448" lon="2.26352">
        <ele>339</ele>
        <time>2018-06-07T16:20:13Z</time>
      </trkpt>
      <trkpt lat="44.54448" lon="2.26357">
        <ele>339</ele>
        <time>2018-06-07T16:20:14Z</time>
      </trkpt>
      <trkpt lat="44.54449" lon="2.26362">
        <ele>339</ele>
        <time>2018-06-07T16:20:15Z</time>
      </trkpt>
      <trkpt lat="44.54449" lon="2.26366">
        <ele>339</ele>
        <time>2018-06-07T16:20:16Z</time>
      </trkpt>
      <trkpt lat="44.5445" lon="2.26371">
        <ele>339</ele>
        <time>2018-06-07T16:20:17Z</time>
      </trkpt>
      <trkpt lat="44.5445" lon="2.26376">
        <ele>339</ele>
        <time>2018-06-07T16:20:18Z</time>
      </trkpt>
      <trkpt lat="44.54451" lon="2.26381">
        <ele>339</ele>
        <time>2018-06-07T16:20:19Z</time>
      </trkpt>
      <trkpt lat="44.54451" lon="2.26388">
        <ele>339</ele>
        <time>2018-06-07T16:20:21Z</time>
      </trkpt>
      <trkpt lat="44.54453" lon="2.26395">
        <ele>339</ele>
        <time>2018-06-07T16:20:23Z</time>
      </trkpt>
      <trkpt lat="44.54454" lon="2.26401">
        <ele>339</ele>
        <time>2018-06-07T16:20:25Z</time>
      </trkpt>
      <trkpt lat="44.54455" lon="2.26407">
        <ele>339</ele>
        <time>2018-06-07T16:20:27Z</time>
      </trkpt>
      <trkpt lat="44.54456" lon="2.26411">
        <ele>339</ele>
        <time>2018-06-07T16:20:28Z</time>
      </trkpt>
      <trkpt lat="44.54456" lon="2.26415">
        <ele>339</ele>
        <time>2018-06-07T16:20:29Z</time>
      </trkpt>
      <trkpt lat="44.54456" lon="2.26421">
        <ele>341</ele>
        <time>2018-06-07T16:20:31Z</time>
      </trkpt>
      <trkpt lat="44.54458" lon="2.26427">
        <ele>341</ele>
        <time>2018-06-07T16:20:33Z</time>
      </trkpt>
      <trkpt lat="44.54458" lon="2.26432">
        <ele>341</ele>
        <time>2018-06-07T16:20:34Z</time>
      </trkpt>
      <trkpt lat="44.54459" lon="2.26438">
        <ele>341</ele>
        <time>2018-06-07T16:20:36Z</time>
      </trkpt>
      <trkpt lat="44.5446" lon="2.26442">
        <ele>341</ele>
        <time>2018-06-07T16:20:38Z</time>
      </trkpt>
      <trkpt lat="44.54463" lon="2.26457">
        <ele>341</ele>
        <time>2018-06-07T16:20:46Z</time>
      </trkpt>
      <trkpt lat="44.54465" lon="2.2646">
        <ele>341</ele>
        <time>2018-06-07T16:20:47Z</time>
      </trkpt>
      <trkpt lat="44.54466" lon="2.26467">
        <ele>341</ele>
        <time>2018-06-07T16:20:49Z</time>
      </trkpt>
      <trkpt lat="44.54466" lon="2.26474">
        <ele>341</ele>
        <time>2018-06-07T16:20:51Z</time>
      </trkpt>
      <trkpt lat="44.54467" lon="2.26478">
        <ele>341</ele>
        <time>2018-06-07T16:20:52Z</time>
      </trkpt>
      <trkpt lat="44.54468" lon="2.26484">
        <ele>341</ele>
        <time>2018-06-07T16:20:54Z</time>
      </trkpt>
      <trkpt lat="44.5447" lon="2.26491">
        <ele>341</ele>
        <time>2018-06-07T16:20:56Z</time>
      </trkpt>
      <trkpt lat="44.54471" lon="2.26494">
        <ele>341</ele>
        <time>2018-06-07T16:20:57Z</time>
      </trkpt>
      <trkpt lat="44.54472" lon="2.26499">
        <ele>341</ele>
        <time>2018-06-07T16:20:58Z</time>
      </trkpt>
      <trkpt lat="44.54472" lon="2.26503">
        <ele>340</ele>
        <time>2018-06-07T16:20:59Z</time>
      </trkpt>
      <trkpt lat="44.54473" lon="2.26508">
        <ele>340</ele>
        <time>2018-06-07T16:21:00Z</time>
      </trkpt>
      <trkpt lat="44.54475" lon="2.26522">
        <ele>340</ele>
        <time>2018-06-07T16:21:04Z</time>
      </trkpt>
      <trkpt lat="44.54475" lon="2.26527">
        <ele>340</ele>
        <time>2018-06-07T16:21:05Z</time>
      </trkpt>
      <trkpt lat="44.54475" lon="2.26535">
        <ele>340</ele>
        <time>2018-06-07T16:21:07Z</time>
      </trkpt>
      <trkpt lat="44.54475" lon="2.2654">
        <ele>340</ele>
        <time>2018-06-07T16:21:08Z</time>
      </trkpt>
      <trkpt lat="44.54475" lon="2.26545">
        <ele>340</ele>
        <time>2018-06-07T16:21:09Z</time>
      </trkpt>
      <trkpt lat="44.54474" lon="2.26549">
        <ele>340</ele>
        <time>2018-06-07T16:21:10Z</time>
      </trkpt>
      <trkpt lat="44.54473" lon="2.26554">
        <ele>340</ele>
        <time>2018-06-07T16:21:12Z</time>
      </trkpt>
      <trkpt lat="44.54473" lon="2.26558">
        <ele>340</ele>
        <time>2018-06-07T16:21:13Z</time>
      </trkpt>
      <trkpt lat="44.54471" lon="2.26563">
        <ele>340</ele>
        <time>2018-06-07T16:21:14Z</time>
      </trkpt>
      <trkpt lat="44.5447" lon="2.26567">
        <ele>340</ele>
        <time>2018-06-07T16:21:15Z</time>
      </trkpt>
      <trkpt lat="44.54468" lon="2.26571">
        <ele>340</ele>
        <time>2018-06-07T16:21:16Z</time>
      </trkpt>
      <trkpt lat="44.54467" lon="2.26574">
        <ele>340</ele>
        <time>2018-06-07T16:21:17Z</time>
      </trkpt>
      <trkpt lat="44.54465" lon="2.26577">
        <ele>340</ele>
        <time>2018-06-07T16:21:18Z</time>
      </trkpt>
      <trkpt lat="44.54463" lon="2.2658">
        <ele>340</ele>
        <time>2018-06-07T16:21:19Z</time>
      </trkpt>
      <trkpt lat="44.54461" lon="2.26583">
        <ele>341</ele>
        <time>2018-06-07T16:21:20Z</time>
      </trkpt>
      <trkpt lat="44.54459" lon="2.26586">
        <ele>339</ele>
        <time>2018-06-07T16:21:21Z</time>
      </trkpt>
      <trkpt lat="44.54456" lon="2.26589">
        <ele>339</ele>
        <time>2018-06-07T16:21:23Z</time>
      </trkpt>
      <trkpt lat="44.54453" lon="2.266">
        <ele>339</ele>
        <time>2018-06-07T16:21:24Z</time>
      </trkpt>
      <trkpt lat="44.54448" lon="2.26603">
        <ele>339</ele>
        <time>2018-06-07T16:21:26Z</time>
      </trkpt>
      <trkpt lat="44.54445" lon="2.26606">
        <ele>339</ele>
        <time>2018-06-07T16:21:28Z</time>
      </trkpt>
      <trkpt lat="44.54443" lon="2.2661">
        <ele>339</ele>
        <time>2018-06-07T16:21:30Z</time>
      </trkpt>
      <trkpt lat="44.54441" lon="2.26614">
        <ele>339</ele>
        <time>2018-06-07T16:21:32Z</time>
      </trkpt>
      <trkpt lat="44.54437" lon="2.26618">
        <ele>339</ele>
        <time>2018-06-07T16:21:34Z</time>
      </trkpt>
      <trkpt lat="44.54433" lon="2.26619">
        <ele>339</ele>
        <time>2018-06-07T16:21:36Z</time>
      </trkpt>
      <trkpt lat="44.54422" lon="2.26621">
        <ele>339</ele>
        <time>2018-06-07T16:21:38Z</time>
      </trkpt>
      <trkpt lat="44.5442" lon="2.2662">
        <ele>339</ele>
        <time>2018-06-07T16:21:39Z</time>
      </trkpt>
      <trkpt lat="44.54417" lon="2.2662">
        <ele>339</ele>
        <time>2018-06-07T16:21:40Z</time>
      </trkpt>
      <trkpt lat="44.54414" lon="2.26621">
        <ele>339</ele>
        <time>2018-06-07T16:21:41Z</time>
      </trkpt>
      <trkpt lat="44.5441" lon="2.26621">
        <ele>339</ele>
        <time>2018-06-07T16:21:43Z</time>
      </trkpt>
      <trkpt lat="44.54407" lon="2.26619">
        <ele>339</ele>
        <time>2018-06-07T16:21:45Z</time>
      </trkpt>
      <trkpt lat="44.54401" lon="2.26619">
        <ele>339</ele>
        <time>2018-06-07T16:21:48Z</time>
      </trkpt>
      <trkpt lat="44.54395" lon="2.26618">
        <ele>339</ele>
        <time>2018-06-07T16:21:50Z</time>
      </trkpt>
      <trkpt lat="44.5439" lon="2.26619">
        <ele>339</ele>
        <time>2018-06-07T16:21:52Z</time>
      </trkpt>
      <trkpt lat="44.54387" lon="2.2662">
        <ele>339</ele>
        <time>2018-06-07T16:21:53Z</time>
      </trkpt>
      <trkpt lat="44.54383" lon="2.2662">
        <ele>339</ele>
        <time>2018-06-07T16:21:54Z</time>
      </trkpt>
      <trkpt lat="44.54379" lon="2.26619">
        <ele>339</ele>
        <time>2018-06-07T16:21:56Z</time>
      </trkpt>
      <trkpt lat="44.54375" lon="2.2662">
        <ele>338</ele>
        <time>2018-06-07T16:21:57Z</time>
      </trkpt>
      <trkpt lat="44.54372" lon="2.26621">
        <ele>338</ele>
        <time>2018-06-07T16:21:58Z</time>
      </trkpt>
      <trkpt lat="44.54371" lon="2.26624">
        <ele>338</ele>
        <time>2018-06-07T16:22:01Z</time>
      </trkpt>
      <trkpt lat="44.54368" lon="2.26624">
        <ele>338</ele>
        <time>2018-06-07T16:22:02Z</time>
      </trkpt>
      <trkpt lat="44.54362" lon="2.26623">
        <ele>338</ele>
        <time>2018-06-07T16:22:04Z</time>
      </trkpt>
      <trkpt lat="44.54354" lon="2.2662">
        <ele>338</ele>
        <time>2018-06-07T16:22:06Z</time>
      </trkpt>
      <trkpt lat="44.54352" lon="2.2662">
        <ele>338</ele>
        <time>2018-06-07T16:22:07Z</time>
      </trkpt>
      <trkpt lat="44.54348" lon="2.26618">
        <ele>338</ele>
        <time>2018-06-07T16:22:09Z</time>
      </trkpt>
      <trkpt lat="44.54345" lon="2.26619">
        <ele>338</ele>
        <time>2018-06-07T16:22:10Z</time>
      </trkpt>
      <trkpt lat="44.54341" lon="2.2662">
        <ele>338</ele>
        <time>2018-06-07T16:22:12Z</time>
      </trkpt>
      <trkpt lat="44.54334" lon="2.26619">
        <ele>338</ele>
        <time>2018-06-07T16:22:13Z</time>
      </trkpt>
      <trkpt lat="44.54328" lon="2.2662">
        <ele>334</ele>
        <time>2018-06-07T16:22:14Z</time>
      </trkpt>
      <trkpt lat="44.54325" lon="2.2662">
        <ele>334</ele>
        <time>2018-06-07T16:22:15Z</time>
      </trkpt>
      <trkpt lat="44.54319" lon="2.26622">
        <ele>333</ele>
        <time>2018-06-07T16:22:17Z</time>
      </trkpt>
      <trkpt lat="44.5429" lon="2.26643">
        <ele>331</ele>
        <time>2018-06-07T16:22:49Z</time>
      </trkpt>
      <trkpt lat="44.54285" lon="2.26646">
        <ele>331</ele>
        <time>2018-06-07T16:22:51Z</time>
      </trkpt>
      <trkpt lat="44.54281" lon="2.2665">
        <ele>331</ele>
        <time>2018-06-07T16:22:53Z</time>
      </trkpt>
      <trkpt lat="44.54279" lon="2.26653">
        <ele>330</ele>
        <time>2018-06-07T16:22:54Z</time>
      </trkpt>
      <trkpt lat="44.54277" lon="2.26658">
        <ele>330</ele>
        <time>2018-06-07T16:22:56Z</time>
      </trkpt>
      <trkpt lat="44.54274" lon="2.26664">
        <ele>330</ele>
        <time>2018-06-07T16:22:58Z</time>
      </trkpt>
      <trkpt lat="44.54272" lon="2.2667">
        <ele>329</ele>
        <time>2018-06-07T16:23:00Z</time>
      </trkpt>
      <trkpt lat="44.5427" lon="2.26678">
        <ele>329</ele>
        <time>2018-06-07T16:23:02Z</time>
      </trkpt>
      <trkpt lat="44.54267" lon="2.26685">
        <ele>329</ele>
        <time>2018-06-07T16:23:04Z</time>
      </trkpt>
      <trkpt lat="44.54267" lon="2.26691">
        <ele>330</ele>
        <time>2018-06-07T16:23:06Z</time>
      </trkpt>
      <trkpt lat="44.54267" lon="2.26698">
        <ele>330</ele>
        <time>2018-06-07T16:23:08Z</time>
      </trkpt>
      <trkpt lat="44.54267" lon="2.26703">
        <ele>330</ele>
        <time>2018-06-07T16:23:09Z</time>
      </trkpt>
      <trkpt lat="44.54269" lon="2.26708">
        <ele>330</ele>
        <time>2018-06-07T16:23:11Z</time>
      </trkpt>
      <trkpt lat="44.54269" lon="2.26714">
        <ele>330</ele>
        <time>2018-06-07T16:23:13Z</time>
      </trkpt>
      <trkpt lat="44.54271" lon="2.26718">
        <ele>330</ele>
        <time>2018-06-07T16:23:14Z</time>
      </trkpt>
      <trkpt lat="44.54273" lon="2.26723">
        <ele>330</ele>
        <time>2018-06-07T16:23:16Z</time>
      </trkpt>
      <trkpt lat="44.54274" lon="2.2673">
        <ele>330</ele>
        <time>2018-06-07T16:23:18Z</time>
      </trkpt>
      <trkpt lat="44.54277" lon="2.26735">
        <ele>331</ele>
        <time>2018-06-07T16:23:19Z</time>
      </trkpt>
      <trkpt lat="44.54279" lon="2.2674">
        <ele>331</ele>
        <time>2018-06-07T16:23:21Z</time>
      </trkpt>
      <trkpt lat="44.54282" lon="2.26743">
        <ele>331</ele>
        <time>2018-06-07T16:23:23Z</time>
      </trkpt>
      <trkpt lat="44.54282" lon="2.26747">
        <ele>331</ele>
        <time>2018-06-07T16:23:25Z</time>
      </trkpt>
      <trkpt lat="44.54284" lon="2.26753">
        <ele>330</ele>
        <time>2018-06-07T16:23:27Z</time>
      </trkpt>
      <trkpt lat="44.54285" lon="2.26757">
        <ele>330</ele>
        <time>2018-06-07T16:23:28Z</time>
      </trkpt>
      <trkpt lat="44.54287" lon="2.2676">
        <ele>330</ele>
        <time>2018-06-07T16:23:29Z</time>
      </trkpt>
      <trkpt lat="44.54289" lon="2.26765">
        <ele>330</ele>
        <time>2018-06-07T16:23:30Z</time>
      </trkpt>
      <trkpt lat="44.54293" lon="2.26771">
        <ele>330</ele>
        <time>2018-06-07T16:23:33Z</time>
      </trkpt>
      <trkpt lat="44.54295" lon="2.26775">
        <ele>330</ele>
        <time>2018-06-07T16:23:35Z</time>
      </trkpt>
      <trkpt lat="44.54298" lon="2.26779">
        <ele>330</ele>
        <time>2018-06-07T16:23:37Z</time>
      </trkpt>
      <trkpt lat="44.543" lon="2.26785">
        <ele>330</ele>
        <time>2018-06-07T16:23:39Z</time>
      </trkpt>
      <trkpt lat="44.54303" lon="2.26789">
        <ele>330</ele>
        <time>2018-06-07T16:23:40Z</time>
      </trkpt>
      <trkpt lat="44.54305" lon="2.26792">
        <ele>330</ele>
        <time>2018-06-07T16:23:42Z</time>
      </trkpt>
      <trkpt lat="44.54307" lon="2.26795">
        <ele>330</ele>
        <time>2018-06-07T16:23:43Z</time>
      </trkpt>
      <trkpt lat="44.5431" lon="2.26799">
        <ele>330</ele>
        <time>2018-06-07T16:23:45Z</time>
      </trkpt>
      <trkpt lat="44.54312" lon="2.26801">
        <ele>330</ele>
        <time>2018-06-07T16:23:46Z</time>
      </trkpt>
      <trkpt lat="44.54315" lon="2.26804">
        <ele>330</ele>
        <time>2018-06-07T16:23:47Z</time>
      </trkpt>
      <trkpt lat="44.54318" lon="2.26809">
        <ele>330</ele>
        <time>2018-06-07T16:23:49Z</time>
      </trkpt>
      <trkpt lat="44.54321" lon="2.2681">
        <ele>330</ele>
        <time>2018-06-07T16:23:51Z</time>
      </trkpt>
      <trkpt lat="44.54323" lon="2.26813">
        <ele>330</ele>
        <time>2018-06-07T16:23:52Z</time>
      </trkpt>
      <trkpt lat="44.54325" lon="2.26819">
        <ele>330</ele>
        <time>2018-06-07T16:23:53Z</time>
      </trkpt>
      <trkpt lat="44.54331" lon="2.26827">
        <ele>329</ele>
        <time>2018-06-07T16:23:55Z</time>
      </trkpt>
      <trkpt lat="44.54334" lon="2.26833">
        <ele>329</ele>
        <time>2018-06-07T16:23:56Z</time>
      </trkpt>
      <trkpt lat="44.54337" lon="2.26836">
        <ele>329</ele>
        <time>2018-06-07T16:23:57Z</time>
      </trkpt>
      <trkpt lat="44.54339" lon="2.26841">
        <ele>329</ele>
        <time>2018-06-07T16:23:58Z</time>
      </trkpt>
      <trkpt lat="44.54344" lon="2.26852">
        <ele>329</ele>
        <time>2018-06-07T16:23:59Z</time>
      </trkpt>
      <trkpt lat="44.54347" lon="2.26855">
        <ele>329</ele>
        <time>2018-06-07T16:24:00Z</time>
      </trkpt>
      <trkpt lat="44.54352" lon="2.26868">
        <ele>329</ele>
        <time>2018-06-07T16:24:02Z</time>
      </trkpt>
      <trkpt lat="44.54356" lon="2.26874">
        <ele>329</ele>
        <time>2018-06-07T16:24:03Z</time>
      </trkpt>
      <trkpt lat="44.54357" lon="2.26879">
        <ele>329</ele>
        <time>2018-06-07T16:24:04Z</time>
      </trkpt>
      <trkpt lat="44.54362" lon="2.26883">
        <ele>329</ele>
        <time>2018-06-07T16:24:05Z</time>
      </trkpt>
      <trkpt lat="44.54368" lon="2.26886">
        <ele>329</ele>
        <time>2018-06-07T16:24:07Z</time>
      </trkpt>
      <trkpt lat="44.5437" lon="2.26882">
        <ele>329</ele>
        <time>2018-06-07T16:24:08Z</time>
      </trkpt>
      <trkpt lat="44.54373" lon="2.26881">
        <ele>329</ele>
        <time>2018-06-07T16:24:09Z</time>
      </trkpt>
      <trkpt lat="44.54376" lon="2.26879">
        <ele>329</ele>
        <time>2018-06-07T16:24:10Z</time>
      </trkpt>
      <trkpt lat="44.54379" lon="2.26878">
        <ele>329</ele>
        <time>2018-06-07T16:24:11Z</time>
      </trkpt>
      <trkpt lat="44.54381" lon="2.26881">
        <ele>329</ele>
        <time>2018-06-07T16:24:12Z</time>
      </trkpt>
      <trkpt lat="44.54386" lon="2.2688">
        <ele>329</ele>
        <time>2018-06-07T16:24:15Z</time>
      </trkpt>
      <trkpt lat="44.54392" lon="2.26881">
        <ele>329</ele>
        <time>2018-06-07T16:24:17Z</time>
      </trkpt>
      <trkpt lat="44.54395" lon="2.2688">
        <ele>329</ele>
        <time>2018-06-07T16:24:18Z</time>
      </trkpt>
      <trkpt lat="44.54398" lon="2.26883">
        <ele>329</ele>
        <time>2018-06-07T16:24:19Z</time>
      </trkpt>
      <trkpt lat="44.54402" lon="2.26881">
        <ele>329</ele>
        <time>2018-06-07T16:24:21Z</time>
      </trkpt>
      <trkpt lat="44.54404" lon="2.26884">
        <ele>329</ele>
        <time>2018-06-07T16:24:22Z</time>
      </trkpt>
      <trkpt lat="44.54407" lon="2.26884">
        <ele>329</ele>
        <time>2018-06-07T16:24:23Z</time>
      </trkpt>
      <trkpt lat="44.54412" lon="2.26884">
        <ele>329</ele>
        <time>2018-06-07T16:24:24Z</time>
      </trkpt>
      <trkpt lat="44.54417" lon="2.26882">
        <ele>329</ele>
        <time>2018-06-07T16:24:25Z</time>
      </trkpt>
      <trkpt lat="44.5442" lon="2.26883">
        <ele>331</ele>
        <time>2018-06-07T16:24:26Z</time>
      </trkpt>
      <trkpt lat="44.54423" lon="2.26882">
        <ele>331</ele>
        <time>2018-06-07T16:24:27Z</time>
      </trkpt>
      <trkpt lat="44.54426" lon="2.26884">
        <ele>331</ele>
        <time>2018-06-07T16:24:28Z</time>
      </trkpt>
      <trkpt lat="44.54428" lon="2.26889">
        <ele>331</ele>
        <time>2018-06-07T16:24:29Z</time>
      </trkpt>
      <trkpt lat="44.54431" lon="2.26891">
        <ele>330</ele>
        <time>2018-06-07T16:24:30Z</time>
      </trkpt>
      <trkpt lat="44.54434" lon="2.2689">
        <ele>331</ele>
        <time>2018-06-07T16:24:31Z</time>
      </trkpt>
      <trkpt lat="44.54438" lon="2.26893">
        <ele>330</ele>
        <time>2018-06-07T16:24:32Z</time>
      </trkpt>
      <trkpt lat="44.5444" lon="2.26897">
        <ele>330</ele>
        <time>2018-06-07T16:24:33Z</time>
      </trkpt>
      <trkpt lat="44.54447" lon="2.26895">
        <ele>331</ele>
        <time>2018-06-07T16:24:35Z</time>
      </trkpt>
      <trkpt lat="44.54452" lon="2.26893">
        <ele>331</ele>
        <time>2018-06-07T16:24:37Z</time>
      </trkpt>
      <trkpt lat="44.54455" lon="2.26896">
        <ele>331</ele>
        <time>2018-06-07T16:24:38Z</time>
      </trkpt>
      <trkpt lat="44.54459" lon="2.26898">
        <ele>331</ele>
        <time>2018-06-07T16:24:39Z</time>
      </trkpt>
      <trkpt lat="44.54462" lon="2.269">
        <ele>331</ele>
        <time>2018-06-07T16:24:40Z</time>
      </trkpt>
      <trkpt lat="44.54466" lon="2.26903">
        <ele>330</ele>
        <time>2018-06-07T16:24:42Z</time>
      </trkpt>
      <trkpt lat="44.54468" lon="2.26905">
        <ele>330</ele>
        <time>2018-06-07T16:24:43Z</time>
      </trkpt>
      <trkpt lat="44.54473" lon="2.26907">
        <ele>330</ele>
        <time>2018-06-07T16:24:45Z</time>
      </trkpt>
      <trkpt lat="44.54477" lon="2.26908">
        <ele>330</ele>
        <time>2018-06-07T16:24:46Z</time>
      </trkpt>
      <trkpt lat="44.54479" lon="2.2691">
        <ele>330</ele>
        <time>2018-06-07T16:24:47Z</time>
      </trkpt>
      <trkpt lat="44.54483" lon="2.26911">
        <ele>329</ele>
        <time>2018-06-07T16:24:48Z</time>
      </trkpt>
      <trkpt lat="44.54487" lon="2.26911">
        <ele>329</ele>
        <time>2018-06-07T16:24:49Z</time>
      </trkpt>
      <trkpt lat="44.54489" lon="2.26914">
        <ele>329</ele>
        <time>2018-06-07T16:24:50Z</time>
      </trkpt>
      <trkpt lat="44.54492" lon="2.26916">
        <ele>328</ele>
        <time>2018-06-07T16:24:51Z</time>
      </trkpt>
      <trkpt lat="44.54497" lon="2.26917">
        <ele>327</ele>
        <time>2018-06-07T16:24:52Z</time>
      </trkpt>
      <trkpt lat="44.54499" lon="2.26921">
        <ele>327</ele>
        <time>2018-06-07T16:24:53Z</time>
      </trkpt>
      <trkpt lat="44.54503" lon="2.26926">
        <ele>327</ele>
        <time>2018-06-07T16:24:54Z</time>
      </trkpt>
      <trkpt lat="44.54505" lon="2.26928">
        <ele>327</ele>
        <time>2018-06-07T16:24:55Z</time>
      </trkpt>
      <trkpt lat="44.5451" lon="2.26931">
        <ele>327</ele>
        <time>2018-06-07T16:24:57Z</time>
      </trkpt>
      <trkpt lat="44.54512" lon="2.26935">
        <ele>327</ele>
        <time>2018-06-07T16:24:58Z</time>
      </trkpt>
      <trkpt lat="44.54514" lon="2.26941">
        <ele>327</ele>
        <time>2018-06-07T16:24:59Z</time>
      </trkpt>
      <trkpt lat="44.54517" lon="2.2694">
        <ele>327</ele>
        <time>2018-06-07T16:25:00Z</time>
      </trkpt>
      <trkpt lat="44.54523" lon="2.26941">
        <ele>327</ele>
        <time>2018-06-07T16:25:02Z</time>
      </trkpt>
      <trkpt lat="44.54526" lon="2.26944">
        <ele>327</ele>
        <time>2018-06-07T16:25:04Z</time>
      </trkpt>
      <trkpt lat="44.54529" lon="2.26945">
        <ele>327</ele>
        <time>2018-06-07T16:25:05Z</time>
      </trkpt>
      <trkpt lat="44.54535" lon="2.26946">
        <ele>327</ele>
        <time>2018-06-07T16:25:06Z</time>
      </trkpt>
      <trkpt lat="44.54536" lon="2.2695">
        <ele>327</ele>
        <time>2018-06-07T16:25:08Z</time>
      </trkpt>
      <trkpt lat="44.54541" lon="2.26952">
        <ele>327</ele>
        <time>2018-06-07T16:25:09Z</time>
      </trkpt>
      <trkpt lat="44.5455" lon="2.26952">
        <ele>327</ele>
        <time>2018-06-07T16:25:12Z</time>
      </trkpt>
      <trkpt lat="44.54554" lon="2.26953">
        <ele>327</ele>
        <time>2018-06-07T16:25:14Z</time>
      </trkpt>
      <trkpt lat="44.54557" lon="2.26958">
        <ele>327</ele>
        <time>2018-06-07T16:25:16Z</time>
      </trkpt>
      <trkpt lat="44.54563" lon="2.26958">
        <ele>327</ele>
        <time>2018-06-07T16:25:17Z</time>
      </trkpt>
      <trkpt lat="44.54572" lon="2.2696">
        <ele>327</ele>
        <time>2018-06-07T16:25:18Z</time>
      </trkpt>
      <trkpt lat="44.54576" lon="2.26963">
        <ele>327</ele>
        <time>2018-06-07T16:25:19Z</time>
      </trkpt>
      <trkpt lat="44.54581" lon="2.26963">
        <ele>327</ele>
        <time>2018-06-07T16:25:21Z</time>
      </trkpt>
      <trkpt lat="44.54584" lon="2.26966">
        <ele>330</ele>
        <time>2018-06-07T16:25:23Z</time>
      </trkpt>
      <trkpt lat="44.54589" lon="2.26966">
        <ele>330</ele>
        <time>2018-06-07T16:25:24Z</time>
      </trkpt>
      <trkpt lat="44.5459" lon="2.26969">
        <ele>330</ele>
        <time>2018-06-07T16:25:25Z</time>
      </trkpt>
      <trkpt lat="44.54592" lon="2.26973">
        <ele>330</ele>
        <time>2018-06-07T16:25:27Z</time>
      </trkpt>
      <trkpt lat="44.54596" lon="2.26978">
        <ele>329</ele>
        <time>2018-06-07T16:25:29Z</time>
      </trkpt>
      <trkpt lat="44.54598" lon="2.2698">
        <ele>329</ele>
        <time>2018-06-07T16:25:30Z</time>
      </trkpt>
      <trkpt lat="44.54604" lon="2.26982">
        <ele>330</ele>
        <time>2018-06-07T16:25:32Z</time>
      </trkpt>
      <trkpt lat="44.54606" lon="2.26983">
        <ele>330</ele>
        <time>2018-06-07T16:25:33Z</time>
      </trkpt>
      <trkpt lat="44.54611" lon="2.26985">
        <ele>330</ele>
        <time>2018-06-07T16:25:35Z</time>
      </trkpt>
      <trkpt lat="44.54613" lon="2.26988">
        <ele>330</ele>
        <time>2018-06-07T16:25:37Z</time>
      </trkpt>
      <trkpt lat="44.54616" lon="2.26992">
        <ele>330</ele>
        <time>2018-06-07T16:25:38Z</time>
      </trkpt>
      <trkpt lat="44.5462" lon="2.26995">
        <ele>331</ele>
        <time>2018-06-07T16:25:40Z</time>
      </trkpt>
      <trkpt lat="44.54621" lon="2.27">
        <ele>331</ele>
        <time>2018-06-07T16:25:41Z</time>
      </trkpt>
      <trkpt lat="44.54625" lon="2.27005">
        <ele>332</ele>
        <time>2018-06-07T16:25:43Z</time>
      </trkpt>
      <trkpt lat="44.54628" lon="2.2701">
        <ele>332</ele>
        <time>2018-06-07T16:25:44Z</time>
      </trkpt>
      <trkpt lat="44.5463" lon="2.27013">
        <ele>332</ele>
        <time>2018-06-07T16:25:45Z</time>
      </trkpt>
      <trkpt lat="44.54633" lon="2.27017">
        <ele>333</ele>
        <time>2018-06-07T16:25:47Z</time>
      </trkpt>
      <trkpt lat="44.54637" lon="2.27021">
        <ele>333</ele>
        <time>2018-06-07T16:25:49Z</time>
      </trkpt>
      <trkpt lat="44.5464" lon="2.27027">
        <ele>333</ele>
        <time>2018-06-07T16:25:51Z</time>
      </trkpt>
      <trkpt lat="44.54643" lon="2.27029">
        <ele>334</ele>
        <time>2018-06-07T16:25:52Z</time>
      </trkpt>
      <trkpt lat="44.54647" lon="2.27031">
        <ele>334</ele>
        <time>2018-06-07T16:25:54Z</time>
      </trkpt>
      <trkpt lat="44.5465" lon="2.27034">
        <ele>334</ele>
        <time>2018-06-07T16:25:56Z</time>
      </trkpt>
      <trkpt lat="44.54653" lon="2.27039">
        <ele>334</ele>
        <time>2018-06-07T16:25:57Z</time>
      </trkpt>
      <trkpt lat="44.54654" lon="2.27045">
        <ele>334</ele>
        <time>2018-06-07T16:25:59Z</time>
      </trkpt>
      <trkpt lat="44.54657" lon="2.27048">
        <ele>335</ele>
        <time>2018-06-07T16:26:00Z</time>
      </trkpt>
      <trkpt lat="44.54661" lon="2.27053">
        <ele>335</ele>
        <time>2018-06-07T16:26:02Z</time>
      </trkpt>
      <trkpt lat="44.54665" lon="2.27058">
        <ele>335</ele>
        <time>2018-06-07T16:26:04Z</time>
      </trkpt>
      <trkpt lat="44.54669" lon="2.27056">
        <ele>339</ele>
        <time>2018-06-07T16:26:07Z</time>
      </trkpt>
      <trkpt lat="44.54671" lon="2.27059">
        <ele>339</ele>
        <time>2018-06-07T16:26:08Z</time>
      </trkpt>
      <trkpt lat="44.54674" lon="2.2706">
        <ele>339</ele>
        <time>2018-06-07T16:26:09Z</time>
      </trkpt>
      <trkpt lat="44.54678" lon="2.27061">
        <ele>339</ele>
        <time>2018-06-07T16:26:10Z</time>
      </trkpt>
      <trkpt lat="44.54682" lon="2.27061">
        <ele>339</ele>
        <time>2018-06-07T16:26:12Z</time>
      </trkpt>
      <trkpt lat="44.54683" lon="2.27065">
        <ele>339</ele>
        <time>2018-06-07T16:26:13Z</time>
      </trkpt>
      <trkpt lat="44.54687" lon="2.27068">
        <ele>340</ele>
        <time>2018-06-07T16:26:15Z</time>
      </trkpt>
      <trkpt lat="44.5469" lon="2.27071">
        <ele>340</ele>
        <time>2018-06-07T16:26:17Z</time>
      </trkpt>
      <trkpt lat="44.54694" lon="2.27072">
        <ele>340</ele>
        <time>2018-06-07T16:26:20Z</time>
      </trkpt>
      <trkpt lat="44.54709" lon="2.2707">
        <ele>341</ele>
        <time>2018-06-07T16:27:17Z</time>
      </trkpt>
      <trkpt lat="44.54712" lon="2.27066">
        <ele>341</ele>
        <time>2018-06-07T16:27:19Z</time>
      </trkpt>
      <trkpt lat="44.54714" lon="2.2706">
        <ele>341</ele>
        <time>2018-06-07T16:27:21Z</time>
      </trkpt>
      <trkpt lat="44.54715" lon="2.27057">
        <ele>341</ele>
        <time>2018-06-07T16:27:22Z</time>
      </trkpt>
      <trkpt lat="44.54716" lon="2.27053">
        <ele>341</ele>
        <time>2018-06-07T16:27:23Z</time>
      </trkpt>
      <trkpt lat="44.54721" lon="2.27047">
        <ele>341</ele>
        <time>2018-06-07T16:27:25Z</time>
      </trkpt>
      <trkpt lat="44.54724" lon="2.27044">
        <ele>341</ele>
        <time>2018-06-07T16:27:27Z</time>
      </trkpt>
      <trkpt lat="44.54729" lon="2.2704">
        <ele>341</ele>
        <time>2018-06-07T16:27:28Z</time>
      </trkpt>
      <trkpt lat="44.54731" lon="2.2704">
        <ele>341</ele>
        <time>2018-06-07T16:27:29Z</time>
      </trkpt>
      <trkpt lat="44.54736" lon="2.27037">
        <ele>341</ele>
        <time>2018-06-07T16:27:31Z</time>
      </trkpt>
      <trkpt lat="44.54742" lon="2.27036">
        <ele>341</ele>
        <time>2018-06-07T16:27:33Z</time>
      </trkpt>
      <trkpt lat="44.54745" lon="2.27036">
        <ele>341</ele>
        <time>2018-06-07T16:27:34Z</time>
      </trkpt>
      <trkpt lat="44.54749" lon="2.27037">
        <ele>342</ele>
        <time>2018-06-07T16:27:36Z</time>
      </trkpt>
      <trkpt lat="44.54752" lon="2.27038">
        <ele>345</ele>
        <time>2018-06-07T16:27:38Z</time>
      </trkpt>
      <trkpt lat="44.54757" lon="2.27038">
        <ele>345</ele>
        <time>2018-06-07T16:27:40Z</time>
      </trkpt>
      <trkpt lat="44.54761" lon="2.2704">
        <ele>345</ele>
        <time>2018-06-07T16:27:42Z</time>
      </trkpt>
      <trkpt lat="44.54765" lon="2.27042">
        <ele>345</ele>
        <time>2018-06-07T16:27:44Z</time>
      </trkpt>
      <trkpt lat="44.54769" lon="2.27043">
        <ele>345</ele>
        <time>2018-06-07T16:27:46Z</time>
      </trkpt>
      <trkpt lat="44.54771" lon="2.27044">
        <ele>345</ele>
        <time>2018-06-07T16:27:47Z</time>
      </trkpt>
      <trkpt lat="44.54774" lon="2.27045">
        <ele>345</ele>
        <time>2018-06-07T16:27:48Z</time>
      </trkpt>
      <trkpt lat="44.54778" lon="2.27047">
        <ele>346</ele>
        <time>2018-06-07T16:27:50Z</time>
      </trkpt>
      <trkpt lat="44.54781" lon="2.27049">
        <ele>346</ele>
        <time>2018-06-07T16:27:52Z</time>
      </trkpt>
      <trkpt lat="44.54785" lon="2.27051">
        <ele>346</ele>
        <time>2018-06-07T16:27:54Z</time>
      </trkpt>
      <trkpt lat="44.5479" lon="2.2705">
        <ele>346</ele>
        <time>2018-06-07T16:27:56Z</time>
      </trkpt>
      <trkpt lat="44.54793" lon="2.27052">
        <ele>346</ele>
        <time>2018-06-07T16:27:58Z</time>
      </trkpt>
      <trkpt lat="44.54798" lon="2.27053">
        <ele>346</ele>
        <time>2018-06-07T16:28:00Z</time>
      </trkpt>
      <trkpt lat="44.54803" lon="2.27055">
        <ele>347</ele>
        <time>2018-06-07T16:28:03Z</time>
      </trkpt>
      <trkpt lat="44.54806" lon="2.27057">
        <ele>347</ele>
        <time>2018-06-07T16:28:04Z</time>
      </trkpt>
      <trkpt lat="44.54809" lon="2.27062">
        <ele>348</ele>
        <time>2018-06-07T16:28:06Z</time>
      </trkpt>
      <trkpt lat="44.54812" lon="2.2706">
        <ele>348</ele>
        <time>2018-06-07T16:28:07Z</time>
      </trkpt>
      <trkpt lat="44.54816" lon="2.27068">
        <ele>349</ele>
        <time>2018-06-07T16:28:09Z</time>
      </trkpt>
      <trkpt lat="44.5482" lon="2.27065">
        <ele>349</ele>
        <time>2018-06-07T16:28:10Z</time>
      </trkpt>
      <trkpt lat="44.54822" lon="2.27069">
        <ele>350</ele>
        <time>2018-06-07T16:28:11Z</time>
      </trkpt>
      <trkpt lat="44.54825" lon="2.27073">
        <ele>351</ele>
        <time>2018-06-07T16:28:13Z</time>
      </trkpt>
      <trkpt lat="44.54829" lon="2.27072">
        <ele>351</ele>
        <time>2018-06-07T16:28:15Z</time>
      </trkpt>
      <trkpt lat="44.54832" lon="2.27072">
        <ele>351</ele>
        <time>2018-06-07T16:28:17Z</time>
      </trkpt>
      <trkpt lat="44.54837" lon="2.27075">
        <ele>351</ele>
        <time>2018-06-07T16:28:19Z</time>
      </trkpt>
      <trkpt lat="44.54839" lon="2.27077">
        <ele>351</ele>
        <time>2018-06-07T16:28:20Z</time>
      </trkpt>
      <trkpt lat="44.54845" lon="2.27079">
        <ele>350</ele>
        <time>2018-06-07T16:28:22Z</time>
      </trkpt>
      <trkpt lat="44.54848" lon="2.2708">
        <ele>349</ele>
        <time>2018-06-07T16:28:24Z</time>
      </trkpt>
      <trkpt lat="44.54851" lon="2.27081">
        <ele>349</ele>
        <time>2018-06-07T16:28:26Z</time>
      </trkpt>
      <trkpt lat="44.54856" lon="2.2708">
        <ele>348</ele>
        <time>2018-06-07T16:28:28Z</time>
      </trkpt>
      <trkpt lat="44.5486" lon="2.27078">
        <ele>347</ele>
        <time>2018-06-07T16:28:30Z</time>
      </trkpt>
      <trkpt lat="44.54864" lon="2.27081">
        <ele>346</ele>
        <time>2018-06-07T16:28:33Z</time>
      </trkpt>
      <trkpt lat="44.54866" lon="2.27084">
        <ele>357</ele>
        <time>2018-06-07T16:28:35Z</time>
      </trkpt>
      <trkpt lat="44.54869" lon="2.27086">
        <ele>357</ele>
        <time>2018-06-07T16:28:36Z</time>
      </trkpt>
      <trkpt lat="44.54871" lon="2.27089">
        <ele>357</ele>
        <time>2018-06-07T16:28:37Z</time>
      </trkpt>
      <trkpt lat="44.54875" lon="2.27091">
        <ele>357</ele>
        <time>2018-06-07T16:28:40Z</time>
      </trkpt>
      <trkpt lat="44.54879" lon="2.27093">
        <ele>357</ele>
        <time>2018-06-07T16:28:42Z</time>
      </trkpt>
      <trkpt lat="44.5488" lon="2.27097">
        <ele>357</ele>
        <time>2018-06-07T16:28:43Z</time>
      </trkpt>
      <trkpt lat="44.54883" lon="2.27101">
        <ele>357</ele>
        <time>2018-06-07T16:28:44Z</time>
      </trkpt>
      <trkpt lat="44.54888" lon="2.27106">
        <ele>357</ele>
        <time>2018-06-07T16:28:47Z</time>
      </trkpt>
      <trkpt lat="44.54891" lon="2.27109">
        <ele>357</ele>
        <time>2018-06-07T16:28:48Z</time>
      </trkpt>
      <trkpt lat="44.54894" lon="2.27113">
        <ele>357</ele>
        <time>2018-06-07T16:28:50Z</time>
      </trkpt>
      <trkpt lat="44.54897" lon="2.2711">
        <ele>357</ele>
        <time>2018-06-07T16:28:53Z</time>
      </trkpt>
      <trkpt lat="44.54903" lon="2.27108">
        <ele>356</ele>
        <time>2018-06-07T16:28:55Z</time>
      </trkpt>
      <trkpt lat="44.54907" lon="2.27112">
        <ele>357</ele>
        <time>2018-06-07T16:28:58Z</time>
      </trkpt>
      <trkpt lat="44.54909" lon="2.27117">
        <ele>357</ele>
        <time>2018-06-07T16:28:59Z</time>
      </trkpt>
      <trkpt lat="44.54912" lon="2.27119">
        <ele>358</ele>
        <time>2018-06-07T16:29:00Z</time>
      </trkpt>
      <trkpt lat="44.54916" lon="2.27125">
        <ele>359</ele>
        <time>2018-06-07T16:29:02Z</time>
      </trkpt>
      <trkpt lat="44.54918" lon="2.27128">
        <ele>357</ele>
        <time>2018-06-07T16:29:04Z</time>
      </trkpt>
      <trkpt lat="44.54921" lon="2.27136">
        <ele>358</ele>
        <time>2018-06-07T16:29:06Z</time>
      </trkpt>
      <trkpt lat="44.54924" lon="2.27137">
        <ele>358</ele>
        <time>2018-06-07T16:29:07Z</time>
      </trkpt>
      <trkpt lat="44.54928" lon="2.27141">
        <ele>359</ele>
        <time>2018-06-07T16:29:08Z</time>
      </trkpt>
      <trkpt lat="44.54932" lon="2.27146">
        <ele>359</ele>
        <time>2018-06-07T16:29:10Z</time>
      </trkpt>
      <trkpt lat="44.54935" lon="2.27147">
        <ele>359</ele>
        <time>2018-06-07T16:29:12Z</time>
      </trkpt>
      <trkpt lat="44.54956" lon="2.27171">
        <ele>366</ele>
        <time>2018-06-07T16:29:34Z</time>
      </trkpt>
      <trkpt lat="44.54958" lon="2.27172">
        <ele>366</ele>
        <time>2018-06-07T16:29:36Z</time>
      </trkpt>
      <trkpt lat="44.54961" lon="2.27174">
        <ele>366</ele>
        <time>2018-06-07T16:29:39Z</time>
      </trkpt>
      <trkpt lat="44.54963" lon="2.27179">
        <ele>366</ele>
        <time>2018-06-07T16:29:41Z</time>
      </trkpt>
      <trkpt lat="44.54962" lon="2.27186">
        <ele>366</ele>
        <time>2018-06-07T16:29:43Z</time>
      </trkpt>
      <trkpt lat="44.5496" lon="2.27189">
        <ele>366</ele>
        <time>2018-06-07T16:29:44Z</time>
      </trkpt>
      <trkpt lat="44.5496" lon="2.27194">
        <ele>366</ele>
        <time>2018-06-07T16:29:45Z</time>
      </trkpt>
      <trkpt lat="44.54958" lon="2.27198">
        <ele>366</ele>
        <time>2018-06-07T16:29:46Z</time>
      </trkpt>
      <trkpt lat="44.54955" lon="2.27204">
        <ele>367</ele>
        <time>2018-06-07T16:29:48Z</time>
      </trkpt>
      <trkpt lat="44.54953" lon="2.27207">
        <ele>367</ele>
        <time>2018-06-07T16:29:50Z</time>
      </trkpt>
      <trkpt lat="44.54951" lon="2.27209">
        <ele>367</ele>
        <time>2018-06-07T16:29:52Z</time>
      </trkpt>
      <trkpt lat="44.54947" lon="2.27209">
        <ele>367</ele>
        <time>2018-06-07T16:29:55Z</time>
      </trkpt>
      <trkpt lat="44.54944" lon="2.2721">
        <ele>367</ele>
        <time>2018-06-07T16:29:57Z</time>
      </trkpt>
      <trkpt lat="44.54941" lon="2.27211">
        <ele>367</ele>
        <time>2018-06-07T16:29:58Z</time>
      </trkpt>
      <trkpt lat="44.54938" lon="2.27212">
        <ele>367</ele>
        <time>2018-06-07T16:30:00Z</time>
      </trkpt>
      <trkpt lat="44.54934" lon="2.27214">
        <ele>367</ele>
        <time>2018-06-07T16:30:04Z</time>
      </trkpt>
      <trkpt lat="44.54931" lon="2.27216">
        <ele>367</ele>
        <time>2018-06-07T16:30:06Z</time>
      </trkpt>
      <trkpt lat="44.54928" lon="2.27218">
        <ele>367</ele>
        <time>2018-06-07T16:30:08Z</time>
      </trkpt>
      <trkpt lat="44.54924" lon="2.27219">
        <ele>368</ele>
        <time>2018-06-07T16:30:09Z</time>
      </trkpt>
      <trkpt lat="44.5492" lon="2.27221">
        <ele>368</ele>
        <time>2018-06-07T16:30:11Z</time>
      </trkpt>
      <trkpt lat="44.54917" lon="2.27223">
        <ele>368</ele>
        <time>2018-06-07T16:30:12Z</time>
      </trkpt>
      <trkpt lat="44.54914" lon="2.27224">
        <ele>369</ele>
        <time>2018-06-07T16:30:13Z</time>
      </trkpt>
      <trkpt lat="44.5491" lon="2.27228">
        <ele>369</ele>
        <time>2018-06-07T16:30:14Z</time>
      </trkpt>
      <trkpt lat="44.54907" lon="2.27231">
        <ele>369</ele>
        <time>2018-06-07T16:30:15Z</time>
      </trkpt>
      <trkpt lat="44.54903" lon="2.27236">
        <ele>369</ele>
        <time>2018-06-07T16:30:17Z</time>
      </trkpt>
      <trkpt lat="44.54901" lon="2.27239">
        <ele>369</ele>
        <time>2018-06-07T16:30:18Z</time>
      </trkpt>
      <trkpt lat="44.54898" lon="2.27244">
        <ele>369</ele>
        <time>2018-06-07T16:30:20Z</time>
      </trkpt>
      <trkpt lat="44.54895" lon="2.2725">
        <ele>369</ele>
        <time>2018-06-07T16:30:22Z</time>
      </trkpt>
      <trkpt lat="44.54892" lon="2.27252">
        <ele>371</ele>
        <time>2018-06-07T16:30:23Z</time>
      </trkpt>
      <trkpt lat="44.54888" lon="2.27255">
        <ele>371</ele>
        <time>2018-06-07T16:30:25Z</time>
      </trkpt>
      <trkpt lat="44.54885" lon="2.27257">
        <ele>371</ele>
        <time>2018-06-07T16:30:27Z</time>
      </trkpt>
      <trkpt lat="44.54883" lon="2.27263">
        <ele>371</ele>
        <time>2018-06-07T16:30:30Z</time>
      </trkpt>
      <trkpt lat="44.54878" lon="2.27266">
        <ele>371</ele>
        <time>2018-06-07T16:30:32Z</time>
      </trkpt>
      <trkpt lat="44.54875" lon="2.27263">
        <ele>371</ele>
        <time>2018-06-07T16:30:34Z</time>
      </trkpt>
      <trkpt lat="44.54872" lon="2.27266">
        <ele>371</ele>
        <time>2018-06-07T16:30:38Z</time>
      </trkpt>
      <trkpt lat="44.54868" lon="2.27265">
        <ele>371</ele>
        <time>2018-06-07T16:30:39Z</time>
      </trkpt>
      <trkpt lat="44.54865" lon="2.27265">
        <ele>371</ele>
        <time>2018-06-07T16:30:40Z</time>
      </trkpt>
      <trkpt lat="44.54861" lon="2.27266">
        <ele>371</ele>
        <time>2018-06-07T16:30:42Z</time>
      </trkpt>
      <trkpt lat="44.54858" lon="2.27266">
        <ele>371</ele>
        <time>2018-06-07T16:30:43Z</time>
      </trkpt>
      <trkpt lat="44.54856" lon="2.27272">
        <ele>371</ele>
        <time>2018-06-07T16:30:45Z</time>
      </trkpt>
      <trkpt lat="44.54853" lon="2.27274">
        <ele>371</ele>
        <time>2018-06-07T16:30:46Z</time>
      </trkpt>
      <trkpt lat="44.54849" lon="2.27276">
        <ele>372</ele>
        <time>2018-06-07T16:30:47Z</time>
      </trkpt>
      <trkpt lat="44.5485" lon="2.27281">
        <ele>372</ele>
        <time>2018-06-07T16:30:48Z</time>
      </trkpt>
      <trkpt lat="44.5484" lon="2.27282">
        <ele>372</ele>
        <time>2018-06-07T16:30:50Z</time>
      </trkpt>
      <trkpt lat="44.54842" lon="2.27285">
        <ele>372</ele>
        <time>2018-06-07T16:30:51Z</time>
      </trkpt>
      <trkpt lat="44.54843" lon="2.27289">
        <ele>372</ele>
        <time>2018-06-07T16:30:53Z</time>
      </trkpt>
      <trkpt lat="44.54841" lon="2.27294">
        <ele>373</ele>
        <time>2018-06-07T16:30:55Z</time>
      </trkpt>
      <trkpt lat="44.54838" lon="2.27297">
        <ele>373</ele>
        <time>2018-06-07T16:30:56Z</time>
      </trkpt>
      <trkpt lat="44.54833" lon="2.27299">
        <ele>373</ele>
        <time>2018-06-07T16:30:58Z</time>
      </trkpt>
      <trkpt lat="44.54832" lon="2.27305">
        <ele>373</ele>
        <time>2018-06-07T16:31:00Z</time>
      </trkpt>
      <trkpt lat="44.54827" lon="2.27309">
        <ele>373</ele>
        <time>2018-06-07T16:31:02Z</time>
      </trkpt>
      <trkpt lat="44.54831" lon="2.27318">
        <ele>374</ele>
        <time>2018-06-07T16:31:03Z</time>
      </trkpt>
      <trkpt lat="44.54824" lon="2.27317">
        <ele>374</ele>
        <time>2018-06-07T16:31:04Z</time>
      </trkpt>
      <trkpt lat="44.54816" lon="2.2732">
        <ele>373</ele>
        <time>2018-06-07T16:31:06Z</time>
      </trkpt>
      <trkpt lat="44.54812" lon="2.27323">
        <ele>373</ele>
        <time>2018-06-07T16:31:07Z</time>
      </trkpt>
      <trkpt lat="44.54808" lon="2.27326">
        <ele>373</ele>
        <time>2018-06-07T16:31:09Z</time>
      </trkpt>
      <trkpt lat="44.54806" lon="2.27328">
        <ele>373</ele>
        <time>2018-06-07T16:31:10Z</time>
      </trkpt>
      <trkpt lat="44.54803" lon="2.27335">
        <ele>379</ele>
        <time>2018-06-07T16:31:12Z</time>
      </trkpt>
      <trkpt lat="44.54796" lon="2.27338">
        <ele>379</ele>
        <time>2018-06-07T16:31:14Z</time>
      </trkpt>
      <trkpt lat="44.54794" lon="2.27342">
        <ele>379</ele>
        <time>2018-06-07T16:31:16Z</time>
      </trkpt>
      <trkpt lat="44.5479" lon="2.27342">
        <ele>378</ele>
        <time>2018-06-07T16:31:17Z</time>
      </trkpt>
      <trkpt lat="44.54787" lon="2.27344">
        <ele>378</ele>
        <time>2018-06-07T16:31:18Z</time>
      </trkpt>
      <trkpt lat="44.54783" lon="2.27345">
        <ele>378</ele>
        <time>2018-06-07T16:31:20Z</time>
      </trkpt>
      <trkpt lat="44.54781" lon="2.27348">
        <ele>378</ele>
        <time>2018-06-07T16:31:23Z</time>
      </trkpt>
      <trkpt lat="44.54778" lon="2.27347">
        <ele>378</ele>
        <time>2018-06-07T16:31:24Z</time>
      </trkpt>
      <trkpt lat="44.54774" lon="2.27347">
        <ele>378</ele>
        <time>2018-06-07T16:31:25Z</time>
      </trkpt>
      <trkpt lat="44.54768" lon="2.27348">
        <ele>377</ele>
        <time>2018-06-07T16:31:28Z</time>
      </trkpt>
      <trkpt lat="44.54766" lon="2.27351">
        <ele>377</ele>
        <time>2018-06-07T16:31:30Z</time>
      </trkpt>
      <trkpt lat="44.54761" lon="2.27354">
        <ele>377</ele>
        <time>2018-06-07T16:31:34Z</time>
      </trkpt>
      <trkpt lat="44.54758" lon="2.27355">
        <ele>377</ele>
        <time>2018-06-07T16:31:35Z</time>
      </trkpt>
      <trkpt lat="44.54755" lon="2.27357">
        <ele>378</ele>
        <time>2018-06-07T16:31:37Z</time>
      </trkpt>
      <trkpt lat="44.54751" lon="2.27358">
        <ele>378</ele>
        <time>2018-06-07T16:31:39Z</time>
      </trkpt>
      <trkpt lat="44.54749" lon="2.27359">
        <ele>377</ele>
        <time>2018-06-07T16:31:41Z</time>
      </trkpt>
      <trkpt lat="44.54746" lon="2.27358">
        <ele>377</ele>
        <time>2018-06-07T16:31:42Z</time>
      </trkpt>
      <trkpt lat="44.54742" lon="2.27358">
        <ele>376</ele>
        <time>2018-06-07T16:31:44Z</time>
      </trkpt>
      <trkpt lat="44.54739" lon="2.27358">
        <ele>377</ele>
        <time>2018-06-07T16:31:45Z</time>
      </trkpt>
      <trkpt lat="44.54736" lon="2.27358">
        <ele>377</ele>
        <time>2018-06-07T16:31:46Z</time>
      </trkpt>
      <trkpt lat="44.54732" lon="2.27359">
        <ele>377</ele>
        <time>2018-06-07T16:31:48Z</time>
      </trkpt>
      <trkpt lat="44.54729" lon="2.27359">
        <ele>377</ele>
        <time>2018-06-07T16:31:49Z</time>
      </trkpt>
      <trkpt lat="44.54724" lon="2.27361">
        <ele>377</ele>
        <time>2018-06-07T16:31:52Z</time>
      </trkpt>
      <trkpt lat="44.5472" lon="2.2736">
        <ele>377</ele>
        <time>2018-06-07T16:31:53Z</time>
      </trkpt>
      <trkpt lat="44.54713" lon="2.27357">
        <ele>377</ele>
        <time>2018-06-07T16:31:54Z</time>
      </trkpt>
      <trkpt lat="44.54708" lon="2.2736">
        <ele>377</ele>
        <time>2018-06-07T16:31:56Z</time>
      </trkpt>
      <trkpt lat="44.54705" lon="2.2736">
        <ele>377</ele>
        <time>2018-06-07T16:31:57Z</time>
      </trkpt>
      <trkpt lat="44.547" lon="2.2736">
        <ele>377</ele>
        <time>2018-06-07T16:31:59Z</time>
      </trkpt>
      <trkpt lat="44.54696" lon="2.27359">
        <ele>377</ele>
        <time>2018-06-07T16:32:00Z</time>
      </trkpt>
      <trkpt lat="44.54692" lon="2.27359">
        <ele>377</ele>
        <time>2018-06-07T16:32:02Z</time>
      </trkpt>
      <trkpt lat="44.54688" lon="2.27359">
        <ele>377</ele>
        <time>2018-06-07T16:32:04Z</time>
      </trkpt>
      <trkpt lat="44.54684" lon="2.27359">
        <ele>376</ele>
        <time>2018-06-07T16:32:06Z</time>
      </trkpt>
      <trkpt lat="44.5468" lon="2.27359">
        <ele>376</ele>
        <time>2018-06-07T16:32:08Z</time>
      </trkpt>
      <trkpt lat="44.54676" lon="2.27359">
        <ele>376</ele>
        <time>2018-06-07T16:32:09Z</time>
      </trkpt>
      <trkpt lat="44.54672" lon="2.27357">
        <ele>376</ele>
        <time>2018-06-07T16:32:11Z</time>
      </trkpt>
      <trkpt lat="44.54668" lon="2.27357">
        <ele>376</ele>
        <time>2018-06-07T16:32:12Z</time>
      </trkpt>
      <trkpt lat="44.54663" lon="2.27356">
        <ele>375</ele>
        <time>2018-06-07T16:32:14Z</time>
      </trkpt>
      <trkpt lat="44.54659" lon="2.27355">
        <ele>375</ele>
        <time>2018-06-07T16:32:15Z</time>
      </trkpt>
      <trkpt lat="44.54655" lon="2.27355">
        <ele>375</ele>
        <time>2018-06-07T16:32:16Z</time>
      </trkpt>
      <trkpt lat="44.54651" lon="2.27355">
        <ele>375</ele>
        <time>2018-06-07T16:32:18Z</time>
      </trkpt>
      <trkpt lat="44.54649" lon="2.27355">
        <ele>375</ele>
        <time>2018-06-07T16:32:19Z</time>
      </trkpt>
      <trkpt lat="44.54644" lon="2.27355">
        <ele>375</ele>
        <time>2018-06-07T16:32:21Z</time>
      </trkpt>
      <trkpt lat="44.5464" lon="2.27354">
        <ele>375</ele>
        <time>2018-06-07T16:32:23Z</time>
      </trkpt>
      <trkpt lat="44.54637" lon="2.27353">
        <ele>375</ele>
        <time>2018-06-07T16:32:25Z</time>
      </trkpt>
      <trkpt lat="44.54634" lon="2.27353">
        <ele>375</ele>
        <time>2018-06-07T16:32:27Z</time>
      </trkpt>
      <trkpt lat="44.54628" lon="2.27353">
        <ele>375</ele>
        <time>2018-06-07T16:32:29Z</time>
      </trkpt>
      <trkpt lat="44.54622" lon="2.27353">
        <ele>375</ele>
        <time>2018-06-07T16:32:31Z</time>
      </trkpt>
      <trkpt lat="44.54617" lon="2.27354">
        <ele>374</ele>
        <time>2018-06-07T16:32:32Z</time>
      </trkpt>
      <trkpt lat="44.54611" lon="2.27358">
        <ele>374</ele>
        <time>2018-06-07T16:32:34Z</time>
      </trkpt>
      <trkpt lat="44.54612" lon="2.27361">
        <ele>375</ele>
        <time>2018-06-07T16:32:35Z</time>
      </trkpt>
      <trkpt lat="44.54606" lon="2.27364">
        <ele>375</ele>
        <time>2018-06-07T16:32:36Z</time>
      </trkpt>
      <trkpt lat="44.54603" lon="2.27367">
        <ele>375</ele>
        <time>2018-06-07T16:32:37Z</time>
      </trkpt>
      <trkpt lat="44.546" lon="2.27372">
        <ele>375</ele>
        <time>2018-06-07T16:32:39Z</time>
      </trkpt>
      <trkpt lat="44.54597" lon="2.27375">
        <ele>375</ele>
        <time>2018-06-07T16:32:40Z</time>
      </trkpt>
      <trkpt lat="44.54597" lon="2.27381">
        <ele>375</ele>
        <time>2018-06-07T16:32:42Z</time>
      </trkpt>
      <trkpt lat="44.54597" lon="2.27386">
        <ele>375</ele>
        <time>2018-06-07T16:32:44Z</time>
      </trkpt>
      <trkpt lat="44.54598" lon="2.27393">
        <ele>375</ele>
        <time>2018-06-07T16:32:46Z</time>
      </trkpt>
      <trkpt lat="44.54599" lon="2.27398">
        <ele>376</ele>
        <time>2018-06-07T16:32:48Z</time>
      </trkpt>
      <trkpt lat="44.54601" lon="2.27401">
        <ele>376</ele>
        <time>2018-06-07T16:32:49Z</time>
      </trkpt>
      <trkpt lat="44.54603" lon="2.27408">
        <ele>376</ele>
        <time>2018-06-07T16:32:51Z</time>
      </trkpt>
      <trkpt lat="44.54605" lon="2.27414">
        <ele>376</ele>
        <time>2018-06-07T16:32:53Z</time>
      </trkpt>
      <trkpt lat="44.54608" lon="2.27419">
        <ele>376</ele>
        <time>2018-06-07T16:32:55Z</time>
      </trkpt>
      <trkpt lat="44.54611" lon="2.27425">
        <ele>376</ele>
        <time>2018-06-07T16:32:57Z</time>
      </trkpt>
      <trkpt lat="44.54613" lon="2.27432">
        <ele>376</ele>
        <time>2018-06-07T16:32:59Z</time>
      </trkpt>
      <trkpt lat="44.54614" lon="2.27436">
        <ele>376</ele>
        <time>2018-06-07T16:33:00Z</time>
      </trkpt>
      <trkpt lat="44.54615" lon="2.2744">
        <ele>376</ele>
        <time>2018-06-07T16:33:01Z</time>
      </trkpt>
      <trkpt lat="44.54616" lon="2.27445">
        <ele>376</ele>
        <time>2018-06-07T16:33:02Z</time>
      </trkpt>
      <trkpt lat="44.54618" lon="2.27447">
        <ele>376</ele>
        <time>2018-06-07T16:33:04Z</time>
      </trkpt>
      <trkpt lat="44.54618" lon="2.27451">
        <ele>376</ele>
        <time>2018-06-07T16:33:05Z</time>
      </trkpt>
      <trkpt lat="44.54619" lon="2.27457">
        <ele>376</ele>
        <time>2018-06-07T16:33:06Z</time>
      </trkpt>
      <trkpt lat="44.54619" lon="2.27462">
        <ele>376</ele>
        <time>2018-06-07T16:33:08Z</time>
      </trkpt>
      <trkpt lat="44.54621" lon="2.27468">
        <ele>376</ele>
        <time>2018-06-07T16:33:10Z</time>
      </trkpt>
      <trkpt lat="44.54623" lon="2.27475">
        <ele>376</ele>
        <time>2018-06-07T16:33:12Z</time>
      </trkpt>
      <trkpt lat="44.54623" lon="2.27479">
        <ele>376</ele>
        <time>2018-06-07T16:33:13Z</time>
      </trkpt>
      <trkpt lat="44.54625" lon="2.27483">
        <ele>376</ele>
        <time>2018-06-07T16:33:15Z</time>
      </trkpt>
      <trkpt lat="44.54627" lon="2.27489">
        <ele>376</ele>
        <time>2018-06-07T16:33:18Z</time>
      </trkpt>
      <trkpt lat="44.54628" lon="2.27493">
        <ele>376</ele>
        <time>2018-06-07T16:33:19Z</time>
      </trkpt>
      <trkpt lat="44.5463" lon="2.27498">
        <ele>377</ele>
        <time>2018-06-07T16:33:20Z</time>
      </trkpt>
      <trkpt lat="44.54632" lon="2.27503">
        <ele>375</ele>
        <time>2018-06-07T16:33:22Z</time>
      </trkpt>
      <trkpt lat="44.54629" lon="2.27506">
        <ele>375</ele>
        <time>2018-06-07T16:33:23Z</time>
      </trkpt>
      <trkpt lat="44.54629" lon="2.27515">
        <ele>375</ele>
        <time>2018-06-07T16:33:25Z</time>
      </trkpt>
      <trkpt lat="44.54631" lon="2.27519">
        <ele>375</ele>
        <time>2018-06-07T16:33:27Z</time>
      </trkpt>
      <trkpt lat="44.54635" lon="2.27524">
        <ele>375</ele>
        <time>2018-06-07T16:33:29Z</time>
      </trkpt>
      <trkpt lat="44.54632" lon="2.27529">
        <ele>375</ele>
        <time>2018-06-07T16:33:30Z</time>
      </trkpt>
      <trkpt lat="44.54632" lon="2.27538">
        <ele>375</ele>
        <time>2018-06-07T16:33:32Z</time>
      </trkpt>
      <trkpt lat="44.54633" lon="2.27542">
        <ele>375</ele>
        <time>2018-06-07T16:33:33Z</time>
      </trkpt>
      <trkpt lat="44.54635" lon="2.27546">
        <ele>375</ele>
        <time>2018-06-07T16:33:34Z</time>
      </trkpt>
      <trkpt lat="44.54636" lon="2.27555">
        <ele>375</ele>
        <time>2018-06-07T16:33:37Z</time>
      </trkpt>
      <trkpt lat="44.54635" lon="2.27562">
        <ele>375</ele>
        <time>2018-06-07T16:33:39Z</time>
      </trkpt>
      <trkpt lat="44.54637" lon="2.27566">
        <ele>375</ele>
        <time>2018-06-07T16:33:41Z</time>
      </trkpt>
      <trkpt lat="44.54638" lon="2.2757">
        <ele>376</ele>
        <time>2018-06-07T16:33:42Z</time>
      </trkpt>
      <trkpt lat="44.54639" lon="2.27575">
        <ele>376</ele>
        <time>2018-06-07T16:33:43Z</time>
      </trkpt>
      <trkpt lat="44.5464" lon="2.27579">
        <ele>376</ele>
        <time>2018-06-07T16:33:44Z</time>
      </trkpt>
      <trkpt lat="44.54642" lon="2.27582">
        <ele>377</ele>
        <time>2018-06-07T16:33:46Z</time>
      </trkpt>
      <trkpt lat="44.54642" lon="2.27586">
        <ele>376</ele>
        <time>2018-06-07T16:33:49Z</time>
      </trkpt>
      <trkpt lat="44.54642" lon="2.27592">
        <ele>375</ele>
        <time>2018-06-07T16:33:51Z</time>
      </trkpt>
      <trkpt lat="44.54641" lon="2.27596">
        <ele>375</ele>
        <time>2018-06-07T16:33:53Z</time>
      </trkpt>
      <trkpt lat="44.54641" lon="2.276">
        <ele>375</ele>
        <time>2018-06-07T16:33:55Z</time>
      </trkpt>
      <trkpt lat="44.54643" lon="2.27608">
        <ele>375</ele>
        <time>2018-06-07T16:33:58Z</time>
      </trkpt>
      <trkpt lat="44.54644" lon="2.27612">
        <ele>375</ele>
        <time>2018-06-07T16:34:00Z</time>
      </trkpt>
      <trkpt lat="44.54646" lon="2.27616">
        <ele>375</ele>
        <time>2018-06-07T16:34:01Z</time>
      </trkpt>
      <trkpt lat="44.54649" lon="2.27618">
        <ele>375</ele>
        <time>2018-06-07T16:34:02Z</time>
      </trkpt>
      <trkpt lat="44.5465" lon="2.27625">
        <ele>375</ele>
        <time>2018-06-07T16:34:03Z</time>
      </trkpt>
      <trkpt lat="44.5465" lon="2.27634">
        <ele>375</ele>
        <time>2018-06-07T16:34:04Z</time>
      </trkpt>
      <trkpt lat="44.5465" lon="2.27641">
        <ele>375</ele>
        <time>2018-06-07T16:34:05Z</time>
      </trkpt>
      <trkpt lat="44.54651" lon="2.2765">
        <ele>375</ele>
        <time>2018-06-07T16:34:07Z</time>
      </trkpt>
      <trkpt lat="44.54652" lon="2.27654">
        <ele>376</ele>
        <time>2018-06-07T16:34:08Z</time>
      </trkpt>
      <trkpt lat="44.54652" lon="2.27664">
        <ele>376</ele>
        <time>2018-06-07T16:34:10Z</time>
      </trkpt>
      <trkpt lat="44.54651" lon="2.27668">
        <ele>376</ele>
        <time>2018-06-07T16:34:12Z</time>
      </trkpt>
      <trkpt lat="44.54646" lon="2.27674">
        <ele>375</ele>
        <time>2018-06-07T16:34:14Z</time>
      </trkpt>
      <trkpt lat="44.54642" lon="2.27681">
        <ele>374</ele>
        <time>2018-06-07T16:34:17Z</time>
      </trkpt>
      <trkpt lat="44.54643" lon="2.27688">
        <ele>374</ele>
        <time>2018-06-07T16:34:18Z</time>
      </trkpt>
      <trkpt lat="44.54642" lon="2.27694">
        <ele>374</ele>
        <time>2018-06-07T16:34:19Z</time>
      </trkpt>
      <trkpt lat="44.54642" lon="2.27698">
        <ele>374</ele>
        <time>2018-06-07T16:34:20Z</time>
      </trkpt>
      <trkpt lat="44.54641" lon="2.27706">
        <ele>374</ele>
        <time>2018-06-07T16:34:22Z</time>
      </trkpt>
      <trkpt lat="44.5464" lon="2.27713">
        <ele>374</ele>
        <time>2018-06-07T16:34:23Z</time>
      </trkpt>
      <trkpt lat="44.54641" lon="2.27719">
        <ele>374</ele>
        <time>2018-06-07T16:34:24Z</time>
      </trkpt>
      <trkpt lat="44.5464" lon="2.27724">
        <ele>374</ele>
        <time>2018-06-07T16:34:25Z</time>
      </trkpt>
      <trkpt lat="44.54638" lon="2.27729">
        <ele>374</ele>
        <time>2018-06-07T16:34:26Z</time>
      </trkpt>
      <trkpt lat="44.54639" lon="2.27735">
        <ele>375</ele>
        <time>2018-06-07T16:34:28Z</time>
      </trkpt>
      <trkpt lat="44.5464" lon="2.2774">
        <ele>375</ele>
        <time>2018-06-07T16:34:29Z</time>
      </trkpt>
      <trkpt lat="44.54636" lon="2.2774">
        <ele>374</ele>
        <time>2018-06-07T16:34:30Z</time>
      </trkpt>
      <trkpt lat="44.54633" lon="2.27745">
        <ele>374</ele>
        <time>2018-06-07T16:34:32Z</time>
      </trkpt>
      <trkpt lat="44.54631" lon="2.27752">
        <ele>376</ele>
        <time>2018-06-07T16:34:34Z</time>
      </trkpt>
      <trkpt lat="44.54629" lon="2.27755">
        <ele>376</ele>
        <time>2018-06-07T16:34:35Z</time>
      </trkpt>
      <trkpt lat="44.54624" lon="2.2776">
        <ele>376</ele>
        <time>2018-06-07T16:34:37Z</time>
      </trkpt>
      <trkpt lat="44.54623" lon="2.27768">
        <ele>376</ele>
        <time>2018-06-07T16:34:39Z</time>
      </trkpt>
      <trkpt lat="44.54622" lon="2.27775">
        <ele>376</ele>
        <time>2018-06-07T16:34:41Z</time>
      </trkpt>
      <trkpt lat="44.54621" lon="2.27779">
        <ele>376</ele>
        <time>2018-06-07T16:34:42Z</time>
      </trkpt>
      <trkpt lat="44.54619" lon="2.27782">
        <ele>376</ele>
        <time>2018-06-07T16:34:43Z</time>
      </trkpt>
      <trkpt lat="44.54617" lon="2.27787">
        <ele>376</ele>
        <time>2018-06-07T16:34:44Z</time>
      </trkpt>
      <trkpt lat="44.54614" lon="2.27788">
        <ele>376</ele>
        <time>2018-06-07T16:34:45Z</time>
      </trkpt>
      <trkpt lat="44.54615" lon="2.27792">
        <ele>376</ele>
        <time>2018-06-07T16:34:46Z</time>
      </trkpt>
      <trkpt lat="44.54614" lon="2.27795">
        <ele>376</ele>
        <time>2018-06-07T16:34:47Z</time>
      </trkpt>
      <trkpt lat="44.54612" lon="2.27801">
        <ele>376</ele>
        <time>2018-06-07T16:34:49Z</time>
      </trkpt>
      <trkpt lat="44.54611" lon="2.27808">
        <ele>377</ele>
        <time>2018-06-07T16:34:52Z</time>
      </trkpt>
      <trkpt lat="44.5461" lon="2.27814">
        <ele>377</ele>
        <time>2018-06-07T16:34:54Z</time>
      </trkpt>
      <trkpt lat="44.54609" lon="2.27819">
        <ele>377</ele>
        <time>2018-06-07T16:34:55Z</time>
      </trkpt>
      <trkpt lat="44.54612" lon="2.27828">
        <ele>377</ele>
        <time>2018-06-07T16:34:57Z</time>
      </trkpt>
      <trkpt lat="44.54612" lon="2.27835">
        <ele>380</ele>
        <time>2018-06-07T16:34:59Z</time>
      </trkpt>
      <trkpt lat="44.54613" lon="2.27848">
        <ele>380</ele>
        <time>2018-06-07T16:35:00Z</time>
      </trkpt>
      <trkpt lat="44.54605" lon="2.27851">
        <ele>380</ele>
        <time>2018-06-07T16:35:01Z</time>
      </trkpt>
      <trkpt lat="44.54599" lon="2.27852">
        <ele>379</ele>
        <time>2018-06-07T16:35:03Z</time>
      </trkpt>
      <trkpt lat="44.54596" lon="2.27857">
        <ele>380</ele>
        <time>2018-06-07T16:35:05Z</time>
      </trkpt>
      <trkpt lat="44.54594" lon="2.27861">
        <ele>380</ele>
        <time>2018-06-07T16:35:06Z</time>
      </trkpt>
      <trkpt lat="44.54589" lon="2.2786">
        <ele>380</ele>
        <time>2018-06-07T16:35:08Z</time>
      </trkpt>
      <trkpt lat="44.54588" lon="2.27867">
        <ele>380</ele>
        <time>2018-06-07T16:35:09Z</time>
      </trkpt>
      <trkpt lat="44.54589" lon="2.2787">
        <ele>380</ele>
        <time>2018-06-07T16:35:10Z</time>
      </trkpt>
      <trkpt lat="44.54586" lon="2.27875">
        <ele>381</ele>
        <time>2018-06-07T16:35:12Z</time>
      </trkpt>
      <trkpt lat="44.54585" lon="2.27878">
        <ele>381</ele>
        <time>2018-06-07T16:35:13Z</time>
      </trkpt>
      <trkpt lat="44.54583" lon="2.27889">
        <ele>375</ele>
        <time>2018-06-07T16:35:15Z</time>
      </trkpt>
      <trkpt lat="44.54574" lon="2.27895">
        <ele>375</ele>
        <time>2018-06-07T16:35:17Z</time>
      </trkpt>
      <trkpt lat="44.54572" lon="2.27901">
        <ele>376</ele>
        <time>2018-06-07T16:35:20Z</time>
      </trkpt>
      <trkpt lat="44.54567" lon="2.27906">
        <ele>376</ele>
        <time>2018-06-07T16:35:23Z</time>
      </trkpt>
      <trkpt lat="44.54565" lon="2.27912">
        <ele>376</ele>
        <time>2018-06-07T16:35:24Z</time>
      </trkpt>
      <trkpt lat="44.54566" lon="2.27918">
        <ele>379</ele>
        <time>2018-06-07T16:35:26Z</time>
      </trkpt>
      <trkpt lat="44.54566" lon="2.27924">
        <ele>379</ele>
        <time>2018-06-07T16:35:27Z</time>
      </trkpt>
      <trkpt lat="44.54564" lon="2.27927">
        <ele>378</ele>
        <time>2018-06-07T16:35:29Z</time>
      </trkpt>
      <trkpt lat="44.54562" lon="2.27931">
        <ele>378</ele>
        <time>2018-06-07T16:35:30Z</time>
      </trkpt>
      <trkpt lat="44.54561" lon="2.27935">
        <ele>377</ele>
        <time>2018-06-07T16:35:31Z</time>
      </trkpt>
      <trkpt lat="44.54559" lon="2.27941">
        <ele>377</ele>
        <time>2018-06-07T16:35:33Z</time>
      </trkpt>
      <trkpt lat="44.54561" lon="2.27951">
        <ele>377</ele>
        <time>2018-06-07T16:35:35Z</time>
      </trkpt>
      <trkpt lat="44.54564" lon="2.27951">
        <ele>377</ele>
        <time>2018-06-07T16:35:37Z</time>
      </trkpt>
      <trkpt lat="44.54565" lon="2.27957">
        <ele>377</ele>
        <time>2018-06-07T16:35:39Z</time>
      </trkpt>
      <trkpt lat="44.54567" lon="2.2796">
        <ele>377</ele>
        <time>2018-06-07T16:35:40Z</time>
      </trkpt>
      <trkpt lat="44.54569" lon="2.27963">
        <ele>377</ele>
        <time>2018-06-07T16:35:42Z</time>
      </trkpt>
      <trkpt lat="44.54573" lon="2.27961">
        <ele>378</ele>
        <time>2018-06-07T16:35:45Z</time>
      </trkpt>
      <trkpt lat="44.54576" lon="2.27956">
        <ele>378</ele>
        <time>2018-06-07T16:35:49Z</time>
      </trkpt>
      <trkpt lat="44.5458" lon="2.27956">
        <ele>378</ele>
        <time>2018-06-07T16:35:51Z</time>
      </trkpt>
      <trkpt lat="44.54588" lon="2.27954">
        <ele>381</ele>
        <time>2018-06-07T16:35:53Z</time>
      </trkpt>
      <trkpt lat="44.54588" lon="2.2795">
        <ele>381</ele>
        <time>2018-06-07T16:35:55Z</time>
      </trkpt>
      <trkpt lat="44.5459" lon="2.27947">
        <ele>381</ele>
        <time>2018-06-07T16:35:57Z</time>
      </trkpt>
      <trkpt lat="44.54594" lon="2.27942">
        <ele>381</ele>
        <time>2018-06-07T16:35:59Z</time>
      </trkpt>
      <trkpt lat="44.54598" lon="2.27937">
        <ele>381</ele>
        <time>2018-06-07T16:36:01Z</time>
      </trkpt>
      <trkpt lat="44.54598" lon="2.2793">
        <ele>382</ele>
        <time>2018-06-07T16:36:03Z</time>
      </trkpt>
      <trkpt lat="44.54609" lon="2.27933">
        <ele>381</ele>
        <time>2018-06-07T16:36:05Z</time>
      </trkpt>
      <trkpt lat="44.54603" lon="2.27929">
        <ele>381</ele>
        <time>2018-06-07T16:36:07Z</time>
      </trkpt>
      <trkpt lat="44.54605" lon="2.27928">
        <ele>381</ele>
        <time>2018-06-07T16:36:08Z</time>
      </trkpt>
      <trkpt lat="44.54607" lon="2.27924">
        <ele>381</ele>
        <time>2018-06-07T16:36:09Z</time>
      </trkpt>
      <trkpt lat="44.54608" lon="2.27919">
        <ele>381</ele>
        <time>2018-06-07T16:36:10Z</time>
      </trkpt>
      <trkpt lat="44.5461" lon="2.27909">
        <ele>382</ele>
        <time>2018-06-07T16:36:12Z</time>
      </trkpt>
      <trkpt lat="44.5461" lon="2.27902">
        <ele>381</ele>
        <time>2018-06-07T16:36:13Z</time>
      </trkpt>
      <trkpt lat="44.54616" lon="2.27902">
        <ele>381</ele>
        <time>2018-06-07T16:36:14Z</time>
      </trkpt>
      <trkpt lat="44.54617" lon="2.27894">
        <ele>381</ele>
        <time>2018-06-07T16:36:15Z</time>
      </trkpt>
      <trkpt lat="44.54622" lon="2.27892">
        <ele>381</ele>
        <time>2018-06-07T16:36:17Z</time>
      </trkpt>
      <trkpt lat="44.54621" lon="2.27887">
        <ele>381</ele>
        <time>2018-06-07T16:36:19Z</time>
      </trkpt>
      <trkpt lat="44.54622" lon="2.27881">
        <ele>381</ele>
        <time>2018-06-07T16:36:20Z</time>
      </trkpt>
      <trkpt lat="44.54626" lon="2.27874">
        <ele>380</ele>
        <time>2018-06-07T16:36:21Z</time>
      </trkpt>
      <trkpt lat="44.54627" lon="2.2787">
        <ele>380</ele>
        <time>2018-06-07T16:36:22Z</time>
      </trkpt>
      <trkpt lat="44.54632" lon="2.27867">
        <ele>380</ele>
        <time>2018-06-07T16:36:24Z</time>
      </trkpt>
      <trkpt lat="44.54631" lon="2.27862">
        <ele>380</ele>
        <time>2018-06-07T16:36:25Z</time>
      </trkpt>
      <trkpt lat="44.54634" lon="2.2786">
        <ele>380</ele>
        <time>2018-06-07T16:36:26Z</time>
      </trkpt>
      <trkpt lat="44.54637" lon="2.27855">
        <ele>380</ele>
        <time>2018-06-07T16:36:27Z</time>
      </trkpt>
      <trkpt lat="44.5464" lon="2.27851">
        <ele>381</ele>
        <time>2018-06-07T16:36:28Z</time>
      </trkpt>
      <trkpt lat="44.54643" lon="2.27847">
        <ele>381</ele>
        <time>2018-06-07T16:36:29Z</time>
      </trkpt>
      <trkpt lat="44.54645" lon="2.27843">
        <ele>381</ele>
        <time>2018-06-07T16:36:30Z</time>
      </trkpt>
      <trkpt lat="44.54651" lon="2.27841">
        <ele>381</ele>
        <time>2018-06-07T16:36:31Z</time>
      </trkpt>
      <trkpt lat="44.54654" lon="2.27835">
        <ele>381</ele>
        <time>2018-06-07T16:36:32Z</time>
      </trkpt>
      <trkpt lat="44.54652" lon="2.27825">
        <ele>380</ele>
        <time>2018-06-07T16:36:33Z</time>
      </trkpt>
      <trkpt lat="44.54649" lon="2.27817">
        <ele>379</ele>
        <time>2018-06-07T16:36:34Z</time>
      </trkpt>
      <trkpt lat="44.54648" lon="2.27812">
        <ele>379</ele>
        <time>2018-06-07T16:36:35Z</time>
      </trkpt>
      <trkpt lat="44.54647" lon="2.27805">
        <ele>378</ele>
        <time>2018-06-07T16:36:36Z</time>
      </trkpt>
      <trkpt lat="44.5465" lon="2.27807">
        <ele>379</ele>
        <time>2018-06-07T16:36:37Z</time>
      </trkpt>
      <trkpt lat="44.54655" lon="2.27803">
        <ele>379</ele>
        <time>2018-06-07T16:36:39Z</time>
      </trkpt>
      <trkpt lat="44.54655" lon="2.27797">
        <ele>378</ele>
        <time>2018-06-07T16:36:40Z</time>
      </trkpt>
      <trkpt lat="44.54655" lon="2.27792">
        <ele>378</ele>
        <time>2018-06-07T16:36:41Z</time>
      </trkpt>
      <trkpt lat="44.54659" lon="2.27791">
        <ele>378</ele>
        <time>2018-06-07T16:36:42Z</time>
      </trkpt>
      <trkpt lat="44.54661" lon="2.27787">
        <ele>378</ele>
        <time>2018-06-07T16:36:45Z</time>
      </trkpt>
      <trkpt lat="44.54665" lon="2.27783">
        <ele>378</ele>
        <time>2018-06-07T16:36:46Z</time>
      </trkpt>
      <trkpt lat="44.54667" lon="2.2778">
        <ele>377</ele>
        <time>2018-06-07T16:36:48Z</time>
      </trkpt>
      <trkpt lat="44.5467" lon="2.27778">
        <ele>377</ele>
        <time>2018-06-07T16:36:49Z</time>
      </trkpt>
      <trkpt lat="44.54674" lon="2.27774">
        <ele>377</ele>
        <time>2018-06-07T16:36:50Z</time>
      </trkpt>
      <trkpt lat="44.54679" lon="2.27772">
        <ele>377</ele>
        <time>2018-06-07T16:36:52Z</time>
      </trkpt>
      <trkpt lat="44.54681" lon="2.27769">
        <ele>377</ele>
        <time>2018-06-07T16:36:53Z</time>
      </trkpt>
      <trkpt lat="44.54682" lon="2.27765">
        <ele>377</ele>
        <time>2018-06-07T16:36:55Z</time>
      </trkpt>
      <trkpt lat="44.54686" lon="2.27763">
        <ele>377</ele>
        <time>2018-06-07T16:36:57Z</time>
      </trkpt>
      <trkpt lat="44.5469" lon="2.2776">
        <ele>376</ele>
        <time>2018-06-07T16:36:58Z</time>
      </trkpt>
      <trkpt lat="44.54692" lon="2.27755">
        <ele>376</ele>
        <time>2018-06-07T16:36:59Z</time>
      </trkpt>
      <trkpt lat="44.54698" lon="2.27745">
        <ele>377</ele>
        <time>2018-06-07T16:37:00Z</time>
      </trkpt>
      <trkpt lat="44.54696" lon="2.2774">
        <ele>377</ele>
        <time>2018-06-07T16:37:01Z</time>
      </trkpt>
      <trkpt lat="44.547" lon="2.27738">
        <ele>377</ele>
        <time>2018-06-07T16:37:02Z</time>
      </trkpt>
      <trkpt lat="44.54701" lon="2.27733">
        <ele>377</ele>
        <time>2018-06-07T16:37:03Z</time>
      </trkpt>
      <trkpt lat="44.54705" lon="2.27728">
        <ele>377</ele>
        <time>2018-06-07T16:37:04Z</time>
      </trkpt>
      <trkpt lat="44.54709" lon="2.27725">
        <ele>377</ele>
        <time>2018-06-07T16:37:05Z</time>
      </trkpt>
      <trkpt lat="44.5471" lon="2.27713">
        <ele>377</ele>
        <time>2018-06-07T16:37:06Z</time>
      </trkpt>
      <trkpt lat="44.54718" lon="2.27705">
        <ele>377</ele>
        <time>2018-06-07T16:37:08Z</time>
      </trkpt>
      <trkpt lat="44.5472" lon="2.27701">
        <ele>377</ele>
        <time>2018-06-07T16:37:10Z</time>
      </trkpt>
      <trkpt lat="44.54722" lon="2.27697">
        <ele>377</ele>
        <time>2018-06-07T16:37:11Z</time>
      </trkpt>
      <trkpt lat="44.54723" lon="2.27694">
        <ele>377</ele>
        <time>2018-06-07T16:37:12Z</time>
      </trkpt>
      <trkpt lat="44.54722" lon="2.27689">
        <ele>377</ele>
        <time>2018-06-07T16:37:13Z</time>
      </trkpt>
      <trkpt lat="44.54725" lon="2.27685">
        <ele>377</ele>
        <time>2018-06-07T16:37:14Z</time>
      </trkpt>
      <trkpt lat="44.54727" lon="2.27681">
        <ele>378</ele>
        <time>2018-06-07T16:37:15Z</time>
      </trkpt>
      <trkpt lat="44.5473" lon="2.27679">
        <ele>378</ele>
        <time>2018-06-07T16:37:16Z</time>
      </trkpt>
      <trkpt lat="44.54727" lon="2.27679">
        <ele>378</ele>
        <time>2018-06-07T16:37:17Z</time>
      </trkpt>
      <trkpt lat="44.54727" lon="2.27674">
        <ele>378</ele>
        <time>2018-06-07T16:37:18Z</time>
      </trkpt>
      <trkpt lat="44.5473" lon="2.27671">
        <ele>378</ele>
        <time>2018-06-07T16:37:19Z</time>
      </trkpt>
      <trkpt lat="44.54734" lon="2.27667">
        <ele>378</ele>
        <time>2018-06-07T16:37:21Z</time>
      </trkpt>
      <trkpt lat="44.5474" lon="2.27661">
        <ele>380</ele>
        <time>2018-06-07T16:37:24Z</time>
      </trkpt>
      <trkpt lat="44.54741" lon="2.27657">
        <ele>380</ele>
        <time>2018-06-07T16:37:25Z</time>
      </trkpt>
      <trkpt lat="44.54745" lon="2.27654">
        <ele>380</ele>
        <time>2018-06-07T16:37:26Z</time>
      </trkpt>
      <trkpt lat="44.54749" lon="2.2765">
        <ele>380</ele>
        <time>2018-06-07T16:37:28Z</time>
      </trkpt>
      <trkpt lat="44.54747" lon="2.27647">
        <ele>380</ele>
        <time>2018-06-07T16:37:29Z</time>
      </trkpt>
      <trkpt lat="44.54749" lon="2.27641">
        <ele>381</ele>
        <time>2018-06-07T16:37:30Z</time>
      </trkpt>
      <trkpt lat="44.54751" lon="2.27639">
        <ele>376</ele>
        <time>2018-06-07T16:37:32Z</time>
      </trkpt>
      <trkpt lat="44.54753" lon="2.27635">
        <ele>376</ele>
        <time>2018-06-07T16:37:33Z</time>
      </trkpt>
      <trkpt lat="44.54758" lon="2.27632">
        <ele>376</ele>
        <time>2018-06-07T16:37:35Z</time>
      </trkpt>
      <trkpt lat="44.54763" lon="2.2763">
        <ele>376</ele>
        <time>2018-06-07T16:37:36Z</time>
      </trkpt>
      <trkpt lat="44.54765" lon="2.27626">
        <ele>376</ele>
        <time>2018-06-07T16:37:37Z</time>
      </trkpt>
      <trkpt lat="44.54764" lon="2.27622">
        <ele>376</ele>
        <time>2018-06-07T16:37:38Z</time>
      </trkpt>
      <trkpt lat="44.54764" lon="2.27615">
        <ele>376</ele>
        <time>2018-06-07T16:37:39Z</time>
      </trkpt>
      <trkpt lat="44.54766" lon="2.27612">
        <ele>376</ele>
        <time>2018-06-07T16:37:41Z</time>
      </trkpt>
      <trkpt lat="44.54766" lon="2.27604">
        <ele>377</ele>
        <time>2018-06-07T16:37:44Z</time>
      </trkpt>
      <trkpt lat="44.54766" lon="2.27595">
        <ele>378</ele>
        <time>2018-06-07T16:37:46Z</time>
      </trkpt>
      <trkpt lat="44.54765" lon="2.27588">
        <ele>379</ele>
        <time>2018-06-07T16:37:48Z</time>
      </trkpt>
      <trkpt lat="44.54763" lon="2.27582">
        <ele>381</ele>
        <time>2018-06-07T16:37:49Z</time>
      </trkpt>
      <trkpt lat="44.54763" lon="2.27578">
        <ele>381</ele>
        <time>2018-06-07T16:37:50Z</time>
      </trkpt>
      <trkpt lat="44.54762" lon="2.27573">
        <ele>381</ele>
        <time>2018-06-07T16:37:51Z</time>
      </trkpt>
      <trkpt lat="44.54762" lon="2.27567">
        <ele>381</ele>
        <time>2018-06-07T16:37:52Z</time>
      </trkpt>
      <trkpt lat="44.54761" lon="2.27563">
        <ele>381</ele>
        <time>2018-06-07T16:37:54Z</time>
      </trkpt>
      <trkpt lat="44.54759" lon="2.27559">
        <ele>381</ele>
        <time>2018-06-07T16:37:56Z</time>
      </trkpt>
      <trkpt lat="44.54755" lon="2.27556">
        <ele>381</ele>
        <time>2018-06-07T16:37:58Z</time>
      </trkpt>
      <trkpt lat="44.54755" lon="2.27551">
        <ele>381</ele>
        <time>2018-06-07T16:38:00Z</time>
      </trkpt>
      <trkpt lat="44.54753" lon="2.27546">
        <ele>381</ele>
        <time>2018-06-07T16:38:02Z</time>
      </trkpt>
      <trkpt lat="44.5475" lon="2.27545">
        <ele>383</ele>
        <time>2018-06-07T16:38:03Z</time>
      </trkpt>
      <trkpt lat="44.54748" lon="2.27539">
        <ele>383</ele>
        <time>2018-06-07T16:38:05Z</time>
      </trkpt>
      <trkpt lat="44.54746" lon="2.27535">
        <ele>383</ele>
        <time>2018-06-07T16:38:06Z</time>
      </trkpt>
      <trkpt lat="44.54746" lon="2.27528">
        <ele>383</ele>
        <time>2018-06-07T16:38:09Z</time>
      </trkpt>
      <trkpt lat="44.54746" lon="2.27522">
        <ele>383</ele>
        <time>2018-06-07T16:38:11Z</time>
      </trkpt>
      <trkpt lat="44.54744" lon="2.27516">
        <ele>383</ele>
        <time>2018-06-07T16:38:13Z</time>
      </trkpt>
      <trkpt lat="44.54742" lon="2.2751">
        <ele>383</ele>
        <time>2018-06-07T16:38:15Z</time>
      </trkpt>
      <trkpt lat="44.54741" lon="2.27507">
        <ele>383</ele>
        <time>2018-06-07T16:38:16Z</time>
      </trkpt>
      <trkpt lat="44.54743" lon="2.27503">
        <ele>383</ele>
        <time>2018-06-07T16:38:17Z</time>
      </trkpt>
      <trkpt lat="44.54743" lon="2.27498">
        <ele>383</ele>
        <time>2018-06-07T16:38:18Z</time>
      </trkpt>
      <trkpt lat="44.54743" lon="2.27494">
        <ele>383</ele>
        <time>2018-06-07T16:38:20Z</time>
      </trkpt>
      <trkpt lat="44.54742" lon="2.27487">
        <ele>383</ele>
        <time>2018-06-07T16:38:22Z</time>
      </trkpt>
      <trkpt lat="44.54741" lon="2.27484">
        <ele>383</ele>
        <time>2018-06-07T16:38:23Z</time>
      </trkpt>
      <trkpt lat="44.54742" lon="2.27479">
        <ele>383</ele>
        <time>2018-06-07T16:38:24Z</time>
      </trkpt>
      <trkpt lat="44.5474" lon="2.27471">
        <ele>383</ele>
        <time>2018-06-07T16:38:27Z</time>
      </trkpt>
      <trkpt lat="44.54736" lon="2.27463">
        <ele>383</ele>
        <time>2018-06-07T16:38:29Z</time>
      </trkpt>
      <trkpt lat="44.54732" lon="2.27458">
        <ele>383</ele>
        <time>2018-06-07T16:38:30Z</time>
      </trkpt>
      <trkpt lat="44.54729" lon="2.27453">
        <ele>383</ele>
        <time>2018-06-07T16:38:31Z</time>
      </trkpt>
      <trkpt lat="44.54724" lon="2.27448">
        <ele>383</ele>
        <time>2018-06-07T16:38:33Z</time>
      </trkpt>
      <trkpt lat="44.54721" lon="2.27444">
        <ele>383</ele>
        <time>2018-06-07T16:38:35Z</time>
      </trkpt>
      <trkpt lat="44.54718" lon="2.27441">
        <ele>383</ele>
        <time>2018-06-07T16:38:38Z</time>
      </trkpt>
      <trkpt lat="44.54716" lon="2.2744">
        <ele>383</ele>
        <time>2018-06-07T16:38:39Z</time>
      </trkpt>
      <trkpt lat="44.54712" lon="2.27438">
        <ele>383</ele>
        <time>2018-06-07T16:38:40Z</time>
      </trkpt>
      <trkpt lat="44.5471" lon="2.27435">
        <ele>383</ele>
        <time>2018-06-07T16:38:42Z</time>
      </trkpt>
      <trkpt lat="44.54707" lon="2.27438">
        <ele>382</ele>
        <time>2018-06-07T16:38:45Z</time>
      </trkpt>
      <trkpt lat="44.54702" lon="2.27435">
        <ele>382</ele>
        <time>2018-06-07T16:38:47Z</time>
      </trkpt>
      <trkpt lat="44.54699" lon="2.27434">
        <ele>382</ele>
        <time>2018-06-07T16:38:48Z</time>
      </trkpt>
      <trkpt lat="44.54698" lon="2.27437">
        <ele>382</ele>
        <time>2018-06-07T16:38:49Z</time>
      </trkpt>
      <trkpt lat="44.54692" lon="2.27437">
        <ele>382</ele>
        <time>2018-06-07T16:38:50Z</time>
      </trkpt>
      <trkpt lat="44.54687" lon="2.27438">
        <ele>382</ele>
        <time>2018-06-07T16:38:51Z</time>
      </trkpt>
      <trkpt lat="44.54683" lon="2.2744">
        <ele>382</ele>
        <time>2018-06-07T16:38:52Z</time>
      </trkpt>
      <trkpt lat="44.54678" lon="2.27441">
        <ele>382</ele>
        <time>2018-06-07T16:38:53Z</time>
      </trkpt>
      <trkpt lat="44.54674" lon="2.27442">
        <ele>382</ele>
        <time>2018-06-07T16:38:54Z</time>
      </trkpt>
      <trkpt lat="44.54671" lon="2.2744">
        <ele>382</ele>
        <time>2018-06-07T16:38:55Z</time>
      </trkpt>
      <trkpt lat="44.54664" lon="2.27442">
        <ele>378</ele>
        <time>2018-06-07T16:38:56Z</time>
      </trkpt>
      <trkpt lat="44.54661" lon="2.27444">
        <ele>378</ele>
        <time>2018-06-07T16:38:57Z</time>
      </trkpt>
      <trkpt lat="44.54658" lon="2.27445">
        <ele>378</ele>
        <time>2018-06-07T16:38:58Z</time>
      </trkpt>
      <trkpt lat="44.54653" lon="2.27448">
        <ele>378</ele>
        <time>2018-06-07T16:39:05Z</time>
      </trkpt>
      <trkpt lat="44.54651" lon="2.27449">
        <ele>378</ele>
        <time>2018-06-07T16:39:06Z</time>
      </trkpt>
      <trkpt lat="44.54645" lon="2.27447">
        <ele>378</ele>
        <time>2018-06-07T16:39:07Z</time>
      </trkpt>
      <trkpt lat="44.54641" lon="2.27446">
        <ele>377</ele>
        <time>2018-06-07T16:39:08Z</time>
      </trkpt>
      <trkpt lat="44.54634" lon="2.27444">
        <ele>377</ele>
        <time>2018-06-07T16:39:10Z</time>
      </trkpt>
      <trkpt lat="44.54631" lon="2.27438">
        <ele>377</ele>
        <time>2018-06-07T16:39:12Z</time>
      </trkpt>
      <trkpt lat="44.5463" lon="2.27433">
        <ele>377</ele>
        <time>2018-06-07T16:39:14Z</time>
      </trkpt>
      <trkpt lat="44.54625" lon="2.2743">
        <ele>377</ele>
        <time>2018-06-07T16:39:15Z</time>
      </trkpt>
      <trkpt lat="44.5462" lon="2.27428">
        <ele>377</ele>
        <time>2018-06-07T16:39:17Z</time>
      </trkpt>
      <trkpt lat="44.54615" lon="2.27425">
        <ele>377</ele>
        <time>2018-06-07T16:39:19Z</time>
      </trkpt>
      <trkpt lat="44.54613" lon="2.27423">
        <ele>377</ele>
        <time>2018-06-07T16:39:20Z</time>
      </trkpt>
      <trkpt lat="44.54609" lon="2.27422">
        <ele>376</ele>
        <time>2018-06-07T16:39:21Z</time>
      </trkpt>
      <trkpt lat="44.54608" lon="2.27418">
        <ele>376</ele>
        <time>2018-06-07T16:39:24Z</time>
      </trkpt>
      <trkpt lat="44.54611" lon="2.27411">
        <ele>376</ele>
        <time>2018-06-07T16:39:26Z</time>
      </trkpt>
      <trkpt lat="44.54611" lon="2.27402">
        <ele>376</ele>
        <time>2018-06-07T16:39:27Z</time>
      </trkpt>
      <trkpt lat="44.5461" lon="2.27397">
        <ele>376</ele>
        <time>2018-06-07T16:39:29Z</time>
      </trkpt>
      <trkpt lat="44.54608" lon="2.2739">
        <ele>375</ele>
        <time>2018-06-07T16:39:30Z</time>
      </trkpt>
      <trkpt lat="44.54604" lon="2.27384">
        <ele>375</ele>
        <time>2018-06-07T16:39:31Z</time>
      </trkpt>
      <trkpt lat="44.54599" lon="2.27375">
        <ele>375</ele>
        <time>2018-06-07T16:39:32Z</time>
      </trkpt>
      <trkpt lat="44.54598" lon="2.27368">
        <ele>375</ele>
        <time>2018-06-07T16:39:33Z</time>
      </trkpt>
      <trkpt lat="44.54595" lon="2.27363">
        <ele>374</ele>
        <time>2018-06-07T16:39:35Z</time>
      </trkpt>
      <trkpt lat="44.54599" lon="2.27366">
        <ele>375</ele>
        <time>2018-06-07T16:39:36Z</time>
      </trkpt>
      <trkpt lat="44.54603" lon="2.27365">
        <ele>375</ele>
        <time>2018-06-07T16:39:37Z</time>
      </trkpt>
      <trkpt lat="44.54605" lon="2.27359">
        <ele>374</ele>
        <time>2018-06-07T16:39:38Z</time>
      </trkpt>
      <trkpt lat="44.54609" lon="2.27356">
        <ele>374</ele>
        <time>2018-06-07T16:39:39Z</time>
      </trkpt>
      <trkpt lat="44.54613" lon="2.27357">
        <ele>374</ele>
        <time>2018-06-07T16:39:41Z</time>
      </trkpt>
      <trkpt lat="44.54614" lon="2.27361">
        <ele>375</ele>
        <time>2018-06-07T16:39:42Z</time>
      </trkpt>
      <trkpt lat="44.54617" lon="2.27367">
        <ele>375</ele>
        <time>2018-06-07T16:39:44Z</time>
      </trkpt>
      <trkpt lat="44.5462" lon="2.27367">
        <ele>375</ele>
        <time>2018-06-07T16:39:45Z</time>
      </trkpt>
      <trkpt lat="44.54625" lon="2.27366">
        <ele>375</ele>
        <time>2018-06-07T16:39:46Z</time>
      </trkpt>
      <trkpt lat="44.54629" lon="2.27365">
        <ele>375</ele>
        <time>2018-06-07T16:39:47Z</time>
      </trkpt>
      <trkpt lat="44.54632" lon="2.27363">
        <ele>375</ele>
        <time>2018-06-07T16:39:48Z</time>
      </trkpt>
      <trkpt lat="44.54636" lon="2.27358">
        <ele>375</ele>
        <time>2018-06-07T16:39:49Z</time>
      </trkpt>
      <trkpt lat="44.5464" lon="2.27354">
        <ele>375</ele>
        <time>2018-06-07T16:39:50Z</time>
      </trkpt>
      <trkpt lat="44.54644" lon="2.27354">
        <ele>375</ele>
        <time>2018-06-07T16:39:51Z</time>
      </trkpt>
      <trkpt lat="44.54646" lon="2.27353">
        <ele>375</ele>
        <time>2018-06-07T16:39:52Z</time>
      </trkpt>
      <trkpt lat="44.54649" lon="2.27352">
        <ele>375</ele>
        <time>2018-06-07T16:39:53Z</time>
      </trkpt>
      <trkpt lat="44.54652" lon="2.27352">
        <ele>375</ele>
        <time>2018-06-07T16:39:54Z</time>
      </trkpt>
      <trkpt lat="44.54656" lon="2.27353">
        <ele>375</ele>
        <time>2018-06-07T16:39:55Z</time>
      </trkpt>
      <trkpt lat="44.54659" lon="2.27353">
        <ele>374</ele>
        <time>2018-06-07T16:39:56Z</time>
      </trkpt>
      <trkpt lat="44.54662" lon="2.27354">
        <ele>374</ele>
        <time>2018-06-07T16:39:57Z</time>
      </trkpt>
      <trkpt lat="44.54665" lon="2.27354">
        <ele>375</ele>
        <time>2018-06-07T16:39:58Z</time>
      </trkpt>
      <trkpt lat="44.54668" lon="2.27354">
        <ele>376</ele>
        <time>2018-06-07T16:39:59Z</time>
      </trkpt>
      <trkpt lat="44.54672" lon="2.27355">
        <ele>376</ele>
        <time>2018-06-07T16:40:00Z</time>
      </trkpt>
      <trkpt lat="44.54675" lon="2.27354">
        <ele>376</ele>
        <time>2018-06-07T16:40:01Z</time>
      </trkpt>
      <trkpt lat="44.5468" lon="2.27354">
        <ele>376</ele>
        <time>2018-06-07T16:40:03Z</time>
      </trkpt>
      <trkpt lat="44.54685" lon="2.27354">
        <ele>376</ele>
        <time>2018-06-07T16:40:04Z</time>
      </trkpt>
      <trkpt lat="44.5469" lon="2.27355">
        <ele>376</ele>
        <time>2018-06-07T16:40:06Z</time>
      </trkpt>
      <trkpt lat="44.54692" lon="2.27358">
        <ele>377</ele>
        <time>2018-06-07T16:40:07Z</time>
      </trkpt>
      <trkpt lat="44.54695" lon="2.27359">
        <ele>377</ele>
        <time>2018-06-07T16:40:08Z</time>
      </trkpt>
      <trkpt lat="44.54699" lon="2.2736">
        <ele>377</ele>
        <time>2018-06-07T16:40:09Z</time>
      </trkpt>
      <trkpt lat="44.54703" lon="2.27362">
        <ele>377</ele>
        <time>2018-06-07T16:40:11Z</time>
      </trkpt>
      <trkpt lat="44.54707" lon="2.27361">
        <ele>377</ele>
        <time>2018-06-07T16:40:12Z</time>
      </trkpt>
      <trkpt lat="44.5471" lon="2.27358">
        <ele>377</ele>
        <time>2018-06-07T16:40:13Z</time>
      </trkpt>
      <trkpt lat="44.54714" lon="2.27356">
        <ele>377</ele>
        <time>2018-06-07T16:40:14Z</time>
      </trkpt>
      <trkpt lat="44.54717" lon="2.27363">
        <ele>377</ele>
        <time>2018-06-07T16:40:16Z</time>
      </trkpt>
      <trkpt lat="44.54718" lon="2.27368">
        <ele>377</ele>
        <time>2018-06-07T16:40:18Z</time>
      </trkpt>
      <trkpt lat="44.54723" lon="2.27368">
        <ele>377</ele>
        <time>2018-06-07T16:40:19Z</time>
      </trkpt>
      <trkpt lat="44.54727" lon="2.27368">
        <ele>377</ele>
        <time>2018-06-07T16:40:20Z</time>
      </trkpt>
      <trkpt lat="44.5473" lon="2.27368">
        <ele>377</ele>
        <time>2018-06-07T16:40:21Z</time>
      </trkpt>
      <trkpt lat="44.54733" lon="2.27366">
        <ele>377</ele>
        <time>2018-06-07T16:40:22Z</time>
      </trkpt>
      <trkpt lat="44.54736" lon="2.27365">
        <ele>377</ele>
        <time>2018-06-07T16:40:23Z</time>
      </trkpt>
      <trkpt lat="44.54742" lon="2.27364">
        <ele>377</ele>
        <time>2018-06-07T16:40:25Z</time>
      </trkpt>
      <trkpt lat="44.54746" lon="2.27365">
        <ele>377</ele>
        <time>2018-06-07T16:40:27Z</time>
      </trkpt>
      <trkpt lat="44.54748" lon="2.27363">
        <ele>377</ele>
        <time>2018-06-07T16:40:28Z</time>
      </trkpt>
      <trkpt lat="44.54751" lon="2.27361">
        <ele>378</ele>
        <time>2018-06-07T16:40:29Z</time>
      </trkpt>
      <trkpt lat="44.54757" lon="2.27361">
        <ele>378</ele>
        <time>2018-06-07T16:40:31Z</time>
      </trkpt>
      <trkpt lat="44.54764" lon="2.27359">
        <ele>378</ele>
        <time>2018-06-07T16:40:33Z</time>
      </trkpt>
      <trkpt lat="44.54767" lon="2.27356">
        <ele>378</ele>
        <time>2018-06-07T16:40:34Z</time>
      </trkpt>
      <trkpt lat="44.54772" lon="2.27354">
        <ele>378</ele>
        <time>2018-06-07T16:40:37Z</time>
      </trkpt>
      <trkpt lat="44.54775" lon="2.2735">
        <ele>378</ele>
        <time>2018-06-07T16:40:38Z</time>
      </trkpt>
      <trkpt lat="44.54779" lon="2.2735">
        <ele>378</ele>
        <time>2018-06-07T16:40:40Z</time>
      </trkpt>
      <trkpt lat="44.54781" lon="2.27348">
        <ele>378</ele>
        <time>2018-06-07T16:40:41Z</time>
      </trkpt>
      <trkpt lat="44.54786" lon="2.27344">
        <ele>378</ele>
        <time>2018-06-07T16:40:42Z</time>
      </trkpt>
      <trkpt lat="44.5479" lon="2.27342">
        <ele>378</ele>
        <time>2018-06-07T16:40:44Z</time>
      </trkpt>
      <trkpt lat="44.54793" lon="2.2734">
        <ele>378</ele>
        <time>2018-06-07T16:40:46Z</time>
      </trkpt>
      <trkpt lat="44.54796" lon="2.27339">
        <ele>379</ele>
        <time>2018-06-07T16:40:47Z</time>
      </trkpt>
      <trkpt lat="44.548" lon="2.27335">
        <ele>379</ele>
        <time>2018-06-07T16:40:48Z</time>
      </trkpt>
      <trkpt lat="44.54805" lon="2.27329">
        <ele>373</ele>
        <time>2018-06-07T16:40:50Z</time>
      </trkpt>
      <trkpt lat="44.54805" lon="2.27325">
        <ele>373</ele>
        <time>2018-06-07T16:40:51Z</time>
      </trkpt>
      <trkpt lat="44.5481" lon="2.27324">
        <ele>373</ele>
        <time>2018-06-07T16:40:54Z</time>
      </trkpt>
      <trkpt lat="44.54813" lon="2.27322">
        <ele>373</ele>
        <time>2018-06-07T16:40:55Z</time>
      </trkpt>
      <trkpt lat="44.54818" lon="2.2732">
        <ele>374</ele>
        <time>2018-06-07T16:40:56Z</time>
      </trkpt>
      <trkpt lat="44.54818" lon="2.27315">
        <ele>373</ele>
        <time>2018-06-07T16:40:57Z</time>
      </trkpt>
      <trkpt lat="44.54821" lon="2.27315">
        <ele>373</ele>
        <time>2018-06-07T16:40:58Z</time>
      </trkpt>
      <trkpt lat="44.54819" lon="2.2731">
        <ele>373</ele>
        <time>2018-06-07T16:40:59Z</time>
      </trkpt>
      <trkpt lat="44.54824" lon="2.27308">
        <ele>373</ele>
        <time>2018-06-07T16:41:00Z</time>
      </trkpt>
      <trkpt lat="44.54827" lon="2.27308">
        <ele>373</ele>
        <time>2018-06-07T16:41:04Z</time>
      </trkpt>
      <trkpt lat="44.54829" lon="2.27303">
        <ele>372</ele>
        <time>2018-06-07T16:41:06Z</time>
      </trkpt>
      <trkpt lat="44.54833" lon="2.27301">
        <ele>372</ele>
        <time>2018-06-07T16:41:08Z</time>
      </trkpt>
      <trkpt lat="44.54838" lon="2.27301">
        <ele>373</ele>
        <time>2018-06-07T16:41:10Z</time>
      </trkpt>
      <trkpt lat="44.54843" lon="2.27299">
        <ele>373</ele>
        <time>2018-06-07T16:41:12Z</time>
      </trkpt>
      <trkpt lat="44.54847" lon="2.27297">
        <ele>373</ele>
        <time>2018-06-07T16:41:13Z</time>
      </trkpt>
      <trkpt lat="44.54851" lon="2.27288">
        <ele>372</ele>
        <time>2018-06-07T16:41:14Z</time>
      </trkpt>
      <trkpt lat="44.54855" lon="2.2728">
        <ele>372</ele>
        <time>2018-06-07T16:41:15Z</time>
      </trkpt>
      <trkpt lat="44.54858" lon="2.27279">
        <ele>372</ele>
        <time>2018-06-07T16:41:16Z</time>
      </trkpt>
      <trkpt lat="44.54862" lon="2.27276">
        <ele>372</ele>
        <time>2018-06-07T16:41:17Z</time>
      </trkpt>
      <trkpt lat="44.54866" lon="2.27275">
        <ele>372</ele>
        <time>2018-06-07T16:41:18Z</time>
      </trkpt>
      <trkpt lat="44.54868" lon="2.27273">
        <ele>371</ele>
        <time>2018-06-07T16:41:19Z</time>
      </trkpt>
      <trkpt lat="44.54871" lon="2.27268">
        <ele>371</ele>
        <time>2018-06-07T16:41:20Z</time>
      </trkpt>
      <trkpt lat="44.54876" lon="2.27271">
        <ele>371</ele>
        <time>2018-06-07T16:41:21Z</time>
      </trkpt>
      <trkpt lat="44.54881" lon="2.27272">
        <ele>371</ele>
        <time>2018-06-07T16:41:22Z</time>
      </trkpt>
      <trkpt lat="44.54885" lon="2.27269">
        <ele>371</ele>
        <time>2018-06-07T16:41:23Z</time>
      </trkpt>
      <trkpt lat="44.5489" lon="2.27267">
        <ele>371</ele>
        <time>2018-06-07T16:41:24Z</time>
      </trkpt>
      <trkpt lat="44.54892" lon="2.27261">
        <ele>371</ele>
        <time>2018-06-07T16:41:26Z</time>
      </trkpt>
      <trkpt lat="44.54893" lon="2.27257">
        <ele>371</ele>
        <time>2018-06-07T16:41:27Z</time>
      </trkpt>
      <trkpt lat="44.54894" lon="2.27252">
        <ele>371</ele>
        <time>2018-06-07T16:41:28Z</time>
      </trkpt>
      <trkpt lat="44.54895" lon="2.27248">
        <ele>369</ele>
        <time>2018-06-07T16:41:29Z</time>
      </trkpt>
      <trkpt lat="44.54898" lon="2.27243">
        <ele>369</ele>
        <time>2018-06-07T16:41:31Z</time>
      </trkpt>
      <trkpt lat="44.54903" lon="2.27241">
        <ele>369</ele>
        <time>2018-06-07T16:41:33Z</time>
      </trkpt>
      <trkpt lat="44.54908" lon="2.27235">
        <ele>369</ele>
        <time>2018-06-07T16:41:34Z</time>
      </trkpt>
      <trkpt lat="44.54911" lon="2.27233">
        <ele>369</ele>
        <time>2018-06-07T16:41:35Z</time>
      </trkpt>
      <trkpt lat="44.54913" lon="2.27232">
        <ele>369</ele>
        <time>2018-06-07T16:41:36Z</time>
      </trkpt>
      <trkpt lat="44.5492" lon="2.27231">
        <ele>368</ele>
        <time>2018-06-07T16:41:38Z</time>
      </trkpt>
      <trkpt lat="44.54923" lon="2.2723">
        <ele>368</ele>
        <time>2018-06-07T16:41:39Z</time>
      </trkpt>
      <trkpt lat="44.54927" lon="2.27229">
        <ele>368</ele>
        <time>2018-06-07T16:41:40Z</time>
      </trkpt>
      <trkpt lat="44.5493" lon="2.27229">
        <ele>368</ele>
        <time>2018-06-07T16:41:41Z</time>
      </trkpt>
      <trkpt lat="44.54933" lon="2.27228">
        <ele>368</ele>
        <time>2018-06-07T16:41:42Z</time>
      </trkpt>
      <trkpt lat="44.54936" lon="2.27227">
        <ele>368</ele>
        <time>2018-06-07T16:41:43Z</time>
      </trkpt>
      <trkpt lat="44.54941" lon="2.27227">
        <ele>367</ele>
        <time>2018-06-07T16:41:45Z</time>
      </trkpt>
      <trkpt lat="44.54944" lon="2.27225">
        <ele>367</ele>
        <time>2018-06-07T16:41:46Z</time>
      </trkpt>
      <trkpt lat="44.54951" lon="2.27221">
        <ele>367</ele>
        <time>2018-06-07T16:41:48Z</time>
      </trkpt>
      <trkpt lat="44.54953" lon="2.27217">
        <ele>367</ele>
        <time>2018-06-07T16:41:49Z</time>
      </trkpt>
      <trkpt lat="44.54955" lon="2.27215">
        <ele>367</ele>
        <time>2018-06-07T16:41:51Z</time>
      </trkpt>
      <trkpt lat="44.54958" lon="2.27208">
        <ele>367</ele>
        <time>2018-06-07T16:41:53Z</time>
      </trkpt>
      <trkpt lat="44.54961" lon="2.27202">
        <ele>366</ele>
        <time>2018-06-07T16:41:55Z</time>
      </trkpt>
      <trkpt lat="44.54962" lon="2.27197">
        <ele>366</ele>
        <time>2018-06-07T16:41:57Z</time>
      </trkpt>
      <trkpt lat="44.54965" lon="2.27194">
        <ele>366</ele>
        <time>2018-06-07T16:41:58Z</time>
      </trkpt>
      <trkpt lat="44.54969" lon="2.27192">
        <ele>366</ele>
        <time>2018-06-07T16:42:00Z</time>
      </trkpt>
      <trkpt lat="44.54972" lon="2.27189">
        <ele>366</ele>
        <time>2018-06-07T16:42:01Z</time>
      </trkpt>
      <trkpt lat="44.54975" lon="2.27185">
        <ele>366</ele>
        <time>2018-06-07T16:42:02Z</time>
      </trkpt>
      <trkpt lat="44.54978" lon="2.27183">
        <ele>365</ele>
        <time>2018-06-07T16:42:03Z</time>
      </trkpt>
      <trkpt lat="44.54982" lon="2.27181">
        <ele>365</ele>
        <time>2018-06-07T16:42:05Z</time>
      </trkpt>
      <trkpt lat="44.54984" lon="2.27186">
        <ele>365</ele>
        <time>2018-06-07T16:42:06Z</time>
      </trkpt>
      <trkpt lat="44.54987" lon="2.2719">
        <ele>365</ele>
        <time>2018-06-07T16:42:08Z</time>
      </trkpt>
      <trkpt lat="44.54993" lon="2.27188">
        <ele>365</ele>
        <time>2018-06-07T16:42:09Z</time>
      </trkpt>
      <trkpt lat="44.54997" lon="2.27183">
        <ele>365</ele>
        <time>2018-06-07T16:42:10Z</time>
      </trkpt>
      <trkpt lat="44.55" lon="2.27181">
        <ele>364</ele>
        <time>2018-06-07T16:42:11Z</time>
      </trkpt>
      <trkpt lat="44.55004" lon="2.2718">
        <ele>363</ele>
        <time>2018-06-07T16:42:13Z</time>
      </trkpt>
      <trkpt lat="44.55006" lon="2.27177">
        <ele>363</ele>
        <time>2018-06-07T16:42:14Z</time>
      </trkpt>
      <trkpt lat="44.55011" lon="2.27173">
        <ele>363</ele>
        <time>2018-06-07T16:42:16Z</time>
      </trkpt>
      <trkpt lat="44.55011" lon="2.27179">
        <ele>363</ele>
        <time>2018-06-07T16:42:17Z</time>
      </trkpt>
      <trkpt lat="44.55012" lon="2.27182">
        <ele>363</ele>
        <time>2018-06-07T16:42:18Z</time>
      </trkpt>
      <trkpt lat="44.55016" lon="2.27188">
        <ele>363</ele>
        <time>2018-06-07T16:42:20Z</time>
      </trkpt>
      <trkpt lat="44.55019" lon="2.27192">
        <ele>363</ele>
        <time>2018-06-07T16:42:22Z</time>
      </trkpt>
      <trkpt lat="44.55021" lon="2.27196">
        <ele>363</ele>
        <time>2018-06-07T16:42:23Z</time>
      </trkpt>
      <trkpt lat="44.55023" lon="2.272">
        <ele>363</ele>
        <time>2018-06-07T16:42:24Z</time>
      </trkpt>
      <trkpt lat="44.55025" lon="2.27203">
        <ele>363</ele>
        <time>2018-06-07T16:42:25Z</time>
      </trkpt>
      <trkpt lat="44.55027" lon="2.27209">
        <ele>363</ele>
        <time>2018-06-07T16:42:28Z</time>
      </trkpt>
      <trkpt lat="44.55033" lon="2.27211">
        <ele>363</ele>
        <time>2018-06-07T16:42:30Z</time>
      </trkpt>
      <trkpt lat="44.55036" lon="2.27211">
        <ele>363</ele>
        <time>2018-06-07T16:42:31Z</time>
      </trkpt>
      <trkpt lat="44.5504" lon="2.27212">
        <ele>363</ele>
        <time>2018-06-07T16:42:32Z</time>
      </trkpt>
      <trkpt lat="44.55043" lon="2.2721">
        <ele>363</ele>
        <time>2018-06-07T16:42:33Z</time>
      </trkpt>
      <trkpt lat="44.55048" lon="2.2721">
        <ele>363</ele>
        <time>2018-06-07T16:42:35Z</time>
      </trkpt>
      <trkpt lat="44.5505" lon="2.27213">
        <ele>363</ele>
        <time>2018-06-07T16:42:36Z</time>
      </trkpt>
      <trkpt lat="44.55055" lon="2.27211">
        <ele>363</ele>
        <time>2018-06-07T16:42:37Z</time>
      </trkpt>
      <trkpt lat="44.55061" lon="2.27211">
        <ele>362</ele>
        <time>2018-06-07T16:42:39Z</time>
      </trkpt>
      <trkpt lat="44.55066" lon="2.2721">
        <ele>362</ele>
        <time>2018-06-07T16:42:40Z</time>
      </trkpt>
      <trkpt lat="44.55068" lon="2.27206">
        <ele>362</ele>
        <time>2018-06-07T16:42:41Z</time>
      </trkpt>
      <trkpt lat="44.55072" lon="2.27207">
        <ele>362</ele>
        <time>2018-06-07T16:42:44Z</time>
      </trkpt>
      <trkpt lat="44.55076" lon="2.27204">
        <ele>362</ele>
        <time>2018-06-07T16:42:46Z</time>
      </trkpt>
      <trkpt lat="44.55079" lon="2.27201">
        <ele>362</ele>
        <time>2018-06-07T16:42:47Z</time>
      </trkpt>
      <trkpt lat="44.55083" lon="2.27196">
        <ele>362</ele>
        <time>2018-06-07T16:42:49Z</time>
      </trkpt>
      <trkpt lat="44.55088" lon="2.27192">
        <ele>358</ele>
        <time>2018-06-07T16:42:51Z</time>
      </trkpt>
      <trkpt lat="44.55092" lon="2.27188">
        <ele>358</ele>
        <time>2018-06-07T16:42:52Z</time>
      </trkpt>
      <trkpt lat="44.55094" lon="2.27185">
        <ele>358</ele>
        <time>2018-06-07T16:42:53Z</time>
      </trkpt>
      <trkpt lat="44.551" lon="2.27182">
        <ele>358</ele>
        <time>2018-06-07T16:42:54Z</time>
      </trkpt>
      <trkpt lat="44.55099" lon="2.27177">
        <ele>358</ele>
        <time>2018-06-07T16:42:56Z</time>
      </trkpt>
      <trkpt lat="44.55102" lon="2.27174">
        <ele>358</ele>
        <time>2018-06-07T16:42:57Z</time>
      </trkpt>
      <trkpt lat="44.55108" lon="2.27166">
        <ele>356</ele>
        <time>2018-06-07T16:43:00Z</time>
      </trkpt>
      <trkpt lat="44.55111" lon="2.27166">
        <ele>356</ele>
        <time>2018-06-07T16:43:01Z</time>
      </trkpt>
      <trkpt lat="44.55115" lon="2.27161">
        <ele>356</ele>
        <time>2018-06-07T16:43:02Z</time>
      </trkpt>
      <trkpt lat="44.55119" lon="2.27157">
        <ele>355</ele>
        <time>2018-06-07T16:43:04Z</time>
      </trkpt>
      <trkpt lat="44.55123" lon="2.27152">
        <ele>355</ele>
        <time>2018-06-07T16:43:06Z</time>
      </trkpt>
      <trkpt lat="44.55127" lon="2.27148">
        <ele>355</ele>
        <time>2018-06-07T16:43:08Z</time>
      </trkpt>
      <trkpt lat="44.5513" lon="2.27145">
        <ele>355</ele>
        <time>2018-06-07T16:43:10Z</time>
      </trkpt>
      <trkpt lat="44.55135" lon="2.2714">
        <ele>354</ele>
        <time>2018-06-07T16:43:12Z</time>
      </trkpt>
      <trkpt lat="44.55137" lon="2.27137">
        <ele>354</ele>
        <time>2018-06-07T16:43:13Z</time>
      </trkpt>
      <trkpt lat="44.55139" lon="2.27133">
        <ele>354</ele>
        <time>2018-06-07T16:43:14Z</time>
      </trkpt>
      <trkpt lat="44.55141" lon="2.27131">
        <ele>354</ele>
        <time>2018-06-07T16:43:15Z</time>
      </trkpt>
      <trkpt lat="44.55143" lon="2.27126">
        <ele>354</ele>
        <time>2018-06-07T16:43:16Z</time>
      </trkpt>
      <trkpt lat="44.55146" lon="2.27122">
        <ele>354</ele>
        <time>2018-06-07T16:43:17Z</time>
      </trkpt>
      <trkpt lat="44.55148" lon="2.27118">
        <ele>354</ele>
        <time>2018-06-07T16:43:18Z</time>
      </trkpt>
      <trkpt lat="44.55151" lon="2.27112">
        <ele>354</ele>
        <time>2018-06-07T16:43:20Z</time>
      </trkpt>
      <trkpt lat="44.55154" lon="2.27106">
        <ele>353</ele>
        <time>2018-06-07T16:43:22Z</time>
      </trkpt>
      <trkpt lat="44.55157" lon="2.27103">
        <ele>353</ele>
        <time>2018-06-07T16:43:23Z</time>
      </trkpt>
      <trkpt lat="44.55158" lon="2.27098">
        <ele>353</ele>
        <time>2018-06-07T16:43:24Z</time>
      </trkpt>
      <trkpt lat="44.5516" lon="2.27094">
        <ele>353</ele>
        <time>2018-06-07T16:43:25Z</time>
      </trkpt>
      <trkpt lat="44.55164" lon="2.27087">
        <ele>352</ele>
        <time>2018-06-07T16:43:27Z</time>
      </trkpt>
      <trkpt lat="44.55167" lon="2.27082">
        <ele>351</ele>
        <time>2018-06-07T16:43:29Z</time>
      </trkpt>
      <trkpt lat="44.55168" lon="2.27079">
        <ele>349</ele>
        <time>2018-06-07T16:43:30Z</time>
      </trkpt>
      <trkpt lat="44.55172" lon="2.27074">
        <ele>346</ele>
        <time>2018-06-07T16:43:32Z</time>
      </trkpt>
      <trkpt lat="44.55175" lon="2.2707">
        <ele>343</ele>
        <time>2018-06-07T16:43:34Z</time>
      </trkpt>
      <trkpt lat="44.55177" lon="2.27064">
        <ele>341</ele>
        <time>2018-06-07T16:43:36Z</time>
      </trkpt>
      <trkpt lat="44.55173" lon="2.27065">
        <ele>342</ele>
        <time>2018-06-07T16:44:08Z</time>
      </trkpt>
      <trkpt lat="44.55172" lon="2.27068">
        <ele>343</ele>
        <time>2018-06-07T16:44:09Z</time>
      </trkpt>
      <trkpt lat="44.55169" lon="2.27075">
        <ele>346</ele>
        <time>2018-06-07T16:44:11Z</time>
      </trkpt>
      <trkpt lat="44.55167" lon="2.27078">
        <ele>348</ele>
        <time>2018-06-07T16:44:12Z</time>
      </trkpt>
      <trkpt lat="44.55165" lon="2.27082">
        <ele>351</ele>
        <time>2018-06-07T16:44:13Z</time>
      </trkpt>
      <trkpt lat="44.55162" lon="2.27088">
        <ele>353</ele>
        <time>2018-06-07T16:44:15Z</time>
      </trkpt>
      <trkpt lat="44.5516" lon="2.27091">
        <ele>353</ele>
        <time>2018-06-07T16:44:16Z</time>
      </trkpt>
      <trkpt lat="44.55158" lon="2.27094">
        <ele>353</ele>
        <time>2018-06-07T16:44:17Z</time>
      </trkpt>
      <trkpt lat="44.55155" lon="2.271">
        <ele>353</ele>
        <time>2018-06-07T16:44:19Z</time>
      </trkpt>
      <trkpt lat="44.55152" lon="2.27105">
        <ele>354</ele>
        <time>2018-06-07T16:44:21Z</time>
      </trkpt>
      <trkpt lat="44.5515" lon="2.27109">
        <ele>354</ele>
        <time>2018-06-07T16:44:22Z</time>
      </trkpt>
      <trkpt lat="44.55148" lon="2.27112">
        <ele>354</ele>
        <time>2018-06-07T16:44:23Z</time>
      </trkpt>
      <trkpt lat="44.55147" lon="2.27115">
        <ele>354</ele>
        <time>2018-06-07T16:44:24Z</time>
      </trkpt>
      <trkpt lat="44.55145" lon="2.27119">
        <ele>354</ele>
        <time>2018-06-07T16:44:25Z</time>
      </trkpt>
      <trkpt lat="44.55143" lon="2.27122">
        <ele>354</ele>
        <time>2018-06-07T16:44:26Z</time>
      </trkpt>
      <trkpt lat="44.55142" lon="2.27125">
        <ele>354</ele>
        <time>2018-06-07T16:44:27Z</time>
      </trkpt>
      <trkpt lat="44.5514" lon="2.27129">
        <ele>354</ele>
        <time>2018-06-07T16:44:28Z</time>
      </trkpt>
      <trkpt lat="44.55138" lon="2.27132">
        <ele>354</ele>
        <time>2018-06-07T16:44:29Z</time>
      </trkpt>
      <trkpt lat="44.55135" lon="2.27134">
        <ele>354</ele>
        <time>2018-06-07T16:44:30Z</time>
      </trkpt>
      <trkpt lat="44.55133" lon="2.27137">
        <ele>354</ele>
        <time>2018-06-07T16:44:31Z</time>
      </trkpt>
      <trkpt lat="44.55131" lon="2.2714">
        <ele>355</ele>
        <time>2018-06-07T16:44:32Z</time>
      </trkpt>
      <trkpt lat="44.55126" lon="2.27146">
        <ele>355</ele>
        <time>2018-06-07T16:44:34Z</time>
      </trkpt>
      <trkpt lat="44.55124" lon="2.27149">
        <ele>355</ele>
        <time>2018-06-07T16:44:35Z</time>
      </trkpt>
      <trkpt lat="44.55121" lon="2.27154">
        <ele>355</ele>
        <time>2018-06-07T16:44:37Z</time>
      </trkpt>
      <trkpt lat="44.55117" lon="2.27159">
        <ele>355</ele>
        <time>2018-06-07T16:44:39Z</time>
      </trkpt>
      <trkpt lat="44.55114" lon="2.27161">
        <ele>356</ele>
        <time>2018-06-07T16:44:40Z</time>
      </trkpt>
      <trkpt lat="44.55111" lon="2.27165">
        <ele>356</ele>
        <time>2018-06-07T16:44:42Z</time>
      </trkpt>
      <trkpt lat="44.55108" lon="2.27169">
        <ele>358</ele>
        <time>2018-06-07T16:44:44Z</time>
      </trkpt>
      <trkpt lat="44.55106" lon="2.27173">
        <ele>358</ele>
        <time>2018-06-07T16:44:46Z</time>
      </trkpt>
      <trkpt lat="44.55103" lon="2.27177">
        <ele>358</ele>
        <time>2018-06-07T16:44:48Z</time>
      </trkpt>
      <trkpt lat="44.55101" lon="2.27183">
        <ele>358</ele>
        <time>2018-06-07T16:44:50Z</time>
      </trkpt>
      <trkpt lat="44.551" lon="2.27187">
        <ele>358</ele>
        <time>2018-06-07T16:44:52Z</time>
      </trkpt>
      <trkpt lat="44.55101" lon="2.2719">
        <ele>358</ele>
        <time>2018-06-07T16:44:58Z</time>
      </trkpt>
      <trkpt lat="44.55105" lon="2.27193">
        <ele>358</ele>
        <time>2018-06-07T16:44:59Z</time>
      </trkpt>
      <trkpt lat="44.55109" lon="2.27191">
        <ele>358</ele>
        <time>2018-06-07T16:45:00Z</time>
      </trkpt>
      <trkpt lat="44.55113" lon="2.27187">
        <ele>358</ele>
        <time>2018-06-07T16:45:01Z</time>
      </trkpt>
      <trkpt lat="44.55117" lon="2.27187">
        <ele>357</ele>
        <time>2018-06-07T16:45:03Z</time>
      </trkpt>
      <trkpt lat="44.5512" lon="2.2719">
        <ele>357</ele>
        <time>2018-06-07T16:45:04Z</time>
      </trkpt>
      <trkpt lat="44.55123" lon="2.27192">
        <ele>357</ele>
        <time>2018-06-07T16:45:05Z</time>
      </trkpt>
      <trkpt lat="44.55125" lon="2.27194">
        <ele>357</ele>
        <time>2018-06-07T16:45:06Z</time>
      </trkpt>
      <trkpt lat="44.55129" lon="2.27197">
        <ele>357</ele>
        <time>2018-06-07T16:45:08Z</time>
      </trkpt>
      <trkpt lat="44.55134" lon="2.27202">
        <ele>357</ele>
        <time>2018-06-07T16:45:10Z</time>
      </trkpt>
      <trkpt lat="44.55139" lon="2.27205">
        <ele>357</ele>
        <time>2018-06-07T16:45:12Z</time>
      </trkpt>
      <trkpt lat="44.55142" lon="2.27207">
        <ele>357</ele>
        <time>2018-06-07T16:45:13Z</time>
      </trkpt>
      <trkpt lat="44.55145" lon="2.2721">
        <ele>357</ele>
        <time>2018-06-07T16:45:14Z</time>
      </trkpt>
      <trkpt lat="44.55148" lon="2.27212">
        <ele>357</ele>
        <time>2018-06-07T16:45:15Z</time>
      </trkpt>
      <trkpt lat="44.55151" lon="2.27213">
        <ele>357</ele>
        <time>2018-06-07T16:45:17Z</time>
      </trkpt>
      <trkpt lat="44.55156" lon="2.27214">
        <ele>356</ele>
        <time>2018-06-07T16:45:19Z</time>
      </trkpt>
      <trkpt lat="44.5516" lon="2.27218">
        <ele>356</ele>
        <time>2018-06-07T16:45:21Z</time>
      </trkpt>
      <trkpt lat="44.55163" lon="2.27219">
        <ele>356</ele>
        <time>2018-06-07T16:45:22Z</time>
      </trkpt>
      <trkpt lat="44.55165" lon="2.27215">
        <ele>356</ele>
        <time>2018-06-07T16:45:23Z</time>
      </trkpt>
      <trkpt lat="44.55172" lon="2.27216">
        <ele>346</ele>
        <time>2018-06-07T16:45:25Z</time>
      </trkpt>
      <trkpt lat="44.55174" lon="2.27212">
        <ele>346</ele>
        <time>2018-06-07T16:45:26Z</time>
      </trkpt>
      <trkpt lat="44.55179" lon="2.27208">
        <ele>345</ele>
        <time>2018-06-07T16:45:27Z</time>
      </trkpt>
      <trkpt lat="44.55182" lon="2.27209">
        <ele>345</ele>
        <time>2018-06-07T16:45:29Z</time>
      </trkpt>
      <trkpt lat="44.55186" lon="2.27206">
        <ele>344</ele>
        <time>2018-06-07T16:45:31Z</time>
      </trkpt>
      <trkpt lat="44.55189" lon="2.27204">
        <ele>344</ele>
        <time>2018-06-07T16:45:32Z</time>
      </trkpt>
      <trkpt lat="44.55194" lon="2.27199">
        <ele>343</ele>
        <time>2018-06-07T16:45:34Z</time>
      </trkpt>
      <trkpt lat="44.55197" lon="2.27193">
        <ele>343</ele>
        <time>2018-06-07T16:45:37Z</time>
      </trkpt>
      <trkpt lat="44.552" lon="2.27186">
        <ele>343</ele>
        <time>2018-06-07T16:45:38Z</time>
      </trkpt>
      <trkpt lat="44.55205" lon="2.27183">
        <ele>342</ele>
        <time>2018-06-07T16:45:39Z</time>
      </trkpt>
      <trkpt lat="44.55208" lon="2.2718">
        <ele>341</ele>
        <time>2018-06-07T16:45:40Z</time>
      </trkpt>
      <trkpt lat="44.55212" lon="2.27175">
        <ele>340</ele>
        <time>2018-06-07T16:45:42Z</time>
      </trkpt>
      <trkpt lat="44.55217" lon="2.27167">
        <ele>339</ele>
        <time>2018-06-07T16:45:44Z</time>
      </trkpt>
      <trkpt lat="44.55219" lon="2.27163">
        <ele>339</ele>
        <time>2018-06-07T16:45:45Z</time>
      </trkpt>
      <trkpt lat="44.55222" lon="2.27156">
        <ele>338</ele>
        <time>2018-06-07T16:45:47Z</time>
      </trkpt>
      <trkpt lat="44.55224" lon="2.2715">
        <ele>338</ele>
        <time>2018-06-07T16:45:49Z</time>
      </trkpt>
      <trkpt lat="44.55226" lon="2.27153">
        <ele>338</ele>
        <time>2018-06-07T16:45:51Z</time>
      </trkpt>
      <trkpt lat="44.55228" lon="2.27149">
        <ele>337</ele>
        <time>2018-06-07T16:45:53Z</time>
      </trkpt>
      <trkpt lat="44.55231" lon="2.27145">
        <ele>337</ele>
        <time>2018-06-07T16:45:54Z</time>
      </trkpt>
      <trkpt lat="44.55232" lon="2.27141">
        <ele>337</ele>
        <time>2018-06-07T16:45:55Z</time>
      </trkpt>
      <trkpt lat="44.55231" lon="2.27137">
        <ele>338</ele>
        <time>2018-06-07T16:45:56Z</time>
      </trkpt>
      <trkpt lat="44.55237" lon="2.27133">
        <ele>337</ele>
        <time>2018-06-07T16:45:57Z</time>
      </trkpt>
      <trkpt lat="44.5524" lon="2.2713">
        <ele>337</ele>
        <time>2018-06-07T16:45:58Z</time>
      </trkpt>
      <trkpt lat="44.55251" lon="2.27128">
        <ele>318</ele>
        <time>2018-06-07T16:45:59Z</time>
      </trkpt>
      <trkpt lat="44.55253" lon="2.27124">
        <ele>318</ele>
        <time>2018-06-07T16:46:00Z</time>
      </trkpt>
      <trkpt lat="44.55255" lon="2.2712">
        <ele>318</ele>
        <time>2018-06-07T16:46:01Z</time>
      </trkpt>
      <trkpt lat="44.55258" lon="2.27117">
        <ele>318</ele>
        <time>2018-06-07T16:46:02Z</time>
      </trkpt>
      <trkpt lat="44.55256" lon="2.27113">
        <ele>318</ele>
        <time>2018-06-07T16:46:03Z</time>
      </trkpt>
      <trkpt lat="44.55256" lon="2.27107">
        <ele>319</ele>
        <time>2018-06-07T16:46:04Z</time>
      </trkpt>
      <trkpt lat="44.55257" lon="2.27102">
        <ele>320</ele>
        <time>2018-06-07T16:46:05Z</time>
      </trkpt>
      <trkpt lat="44.55257" lon="2.27098">
        <ele>321</ele>
        <time>2018-06-07T16:46:06Z</time>
      </trkpt>
      <trkpt lat="44.55251" lon="2.27089">
        <ele>326</ele>
        <time>2018-06-07T16:46:07Z</time>
      </trkpt>
      <trkpt lat="44.55257" lon="2.27087">
        <ele>325</ele>
        <time>2018-06-07T16:46:08Z</time>
      </trkpt>
      <trkpt lat="44.55257" lon="2.27081">
        <ele>325</ele>
        <time>2018-06-07T16:46:09Z</time>
      </trkpt>
      <trkpt lat="44.55262" lon="2.27079">
        <ele>322</ele>
        <time>2018-06-07T16:46:10Z</time>
      </trkpt>
      <trkpt lat="44.55259" lon="2.27073">
        <ele>321</ele>
        <time>2018-06-07T16:46:11Z</time>
      </trkpt>
      <trkpt lat="44.55259" lon="2.27067">
        <ele>319</ele>
        <time>2018-06-07T16:46:12Z</time>
      </trkpt>
      <trkpt lat="44.55263" lon="2.27064">
        <ele>318</ele>
        <time>2018-06-07T16:46:13Z</time>
      </trkpt>
      <trkpt lat="44.55265" lon="2.2706">
        <ele>316</ele>
        <time>2018-06-07T16:46:14Z</time>
      </trkpt>
      <trkpt lat="44.55264" lon="2.27054">
        <ele>315</ele>
        <time>2018-06-07T16:46:15Z</time>
      </trkpt>
      <trkpt lat="44.55265" lon="2.27046">
        <ele>314</ele>
        <time>2018-06-07T16:46:17Z</time>
      </trkpt>
      <trkpt lat="44.55266" lon="2.27042">
        <ele>314</ele>
        <time>2018-06-07T16:46:18Z</time>
      </trkpt>
      <trkpt lat="44.55268" lon="2.27038">
        <ele>313</ele>
        <time>2018-06-07T16:46:19Z</time>
      </trkpt>
      <trkpt lat="44.55272" lon="2.27029">
        <ele>313</ele>
        <time>2018-06-07T16:46:23Z</time>
      </trkpt>
      <trkpt lat="44.55274" lon="2.27026">
        <ele>312</ele>
        <time>2018-06-07T16:46:24Z</time>
      </trkpt>
      <trkpt lat="44.55277" lon="2.27024">
        <ele>312</ele>
        <time>2018-06-07T16:46:26Z</time>
      </trkpt>
      <trkpt lat="44.55275" lon="2.27014">
        <ele>312</ele>
        <time>2018-06-07T16:46:28Z</time>
      </trkpt>
      <trkpt lat="44.5528" lon="2.27007">
        <ele>311</ele>
        <time>2018-06-07T16:46:29Z</time>
      </trkpt>
      <trkpt lat="44.5528" lon="2.27002">
        <ele>311</ele>
        <time>2018-06-07T16:46:30Z</time>
      </trkpt>
      <trkpt lat="44.55282" lon="2.26997">
        <ele>307</ele>
        <time>2018-06-07T16:46:31Z</time>
      </trkpt>
      <trkpt lat="44.55284" lon="2.26991">
        <ele>306</ele>
        <time>2018-06-07T16:46:34Z</time>
      </trkpt>
      <trkpt lat="44.55285" lon="2.26988">
        <ele>306</ele>
        <time>2018-06-07T16:46:35Z</time>
      </trkpt>
      <trkpt lat="44.55286" lon="2.26983">
        <ele>306</ele>
        <time>2018-06-07T16:46:36Z</time>
      </trkpt>
      <trkpt lat="44.55286" lon="2.26977">
        <ele>305</ele>
        <time>2018-06-07T16:46:38Z</time>
      </trkpt>
      <trkpt lat="44.55288" lon="2.26969">
        <ele>304</ele>
        <time>2018-06-07T16:46:40Z</time>
      </trkpt>
      <trkpt lat="44.55287" lon="2.26964">
        <ele>304</ele>
        <time>2018-06-07T16:46:42Z</time>
      </trkpt>
      <trkpt lat="44.55287" lon="2.26959">
        <ele>304</ele>
        <time>2018-06-07T16:46:43Z</time>
      </trkpt>
      <trkpt lat="44.55286" lon="2.26951">
        <ele>303</ele>
        <time>2018-06-07T16:46:44Z</time>
      </trkpt>
      <trkpt lat="44.55288" lon="2.26942">
        <ele>303</ele>
        <time>2018-06-07T16:46:46Z</time>
      </trkpt>
      <trkpt lat="44.55287" lon="2.26936">
        <ele>303</ele>
        <time>2018-06-07T16:46:48Z</time>
      </trkpt>
      <trkpt lat="44.55287" lon="2.26931">
        <ele>302</ele>
        <time>2018-06-07T16:46:49Z</time>
      </trkpt>
      <trkpt lat="44.55287" lon="2.26927">
        <ele>302</ele>
        <time>2018-06-07T16:46:50Z</time>
      </trkpt>
      <trkpt lat="44.55287" lon="2.26922">
        <ele>302</ele>
        <time>2018-06-07T16:46:51Z</time>
      </trkpt>
      <trkpt lat="44.55289" lon="2.26919">
        <ele>302</ele>
        <time>2018-06-07T16:46:52Z</time>
      </trkpt>
      <trkpt lat="44.55289" lon="2.26912">
        <ele>297</ele>
        <time>2018-06-07T16:46:54Z</time>
      </trkpt>
      <trkpt lat="44.55289" lon="2.26905">
        <ele>297</ele>
        <time>2018-06-07T16:46:56Z</time>
      </trkpt>
      <trkpt lat="44.55291" lon="2.269">
        <ele>297</ele>
        <time>2018-06-07T16:46:57Z</time>
      </trkpt>
      <trkpt lat="44.55294" lon="2.26893">
        <ele>297</ele>
        <time>2018-06-07T16:46:58Z</time>
      </trkpt>
      <trkpt lat="44.55296" lon="2.2689">
        <ele>296</ele>
        <time>2018-06-07T16:46:59Z</time>
      </trkpt>
      <trkpt lat="44.55299" lon="2.26884">
        <ele>296</ele>
        <time>2018-06-07T16:47:00Z</time>
      </trkpt>
      <trkpt lat="44.55301" lon="2.26878">
        <ele>296</ele>
        <time>2018-06-07T16:47:02Z</time>
      </trkpt>
      <trkpt lat="44.55302" lon="2.26874">
        <ele>296</ele>
        <time>2018-06-07T16:47:03Z</time>
      </trkpt>
      <trkpt lat="44.55301" lon="2.26869">
        <ele>295</ele>
        <time>2018-06-07T16:47:04Z</time>
      </trkpt>
      <trkpt lat="44.55302" lon="2.26863">
        <ele>295</ele>
        <time>2018-06-07T16:47:05Z</time>
      </trkpt>
      <trkpt lat="44.55299" lon="2.26857">
        <ele>295</ele>
        <time>2018-06-07T16:47:06Z</time>
      </trkpt>
      <trkpt lat="44.55301" lon="2.26852">
        <ele>295</ele>
        <time>2018-06-07T16:47:07Z</time>
      </trkpt>
      <trkpt lat="44.55302" lon="2.26845">
        <ele>294</ele>
        <time>2018-06-07T16:47:08Z</time>
      </trkpt>
      <trkpt lat="44.55303" lon="2.2684">
        <ele>294</ele>
        <time>2018-06-07T16:47:10Z</time>
      </trkpt>
      <trkpt lat="44.55304" lon="2.26834">
        <ele>294</ele>
        <time>2018-06-07T16:47:12Z</time>
      </trkpt>
      <trkpt lat="44.55305" lon="2.26828">
        <ele>289</ele>
        <time>2018-06-07T16:47:14Z</time>
      </trkpt>
      <trkpt lat="44.55304" lon="2.26823">
        <ele>289</ele>
        <time>2018-06-07T16:47:15Z</time>
      </trkpt>
      <trkpt lat="44.55305" lon="2.26819">
        <ele>288</ele>
        <time>2018-06-07T16:47:16Z</time>
      </trkpt>
      <trkpt lat="44.55307" lon="2.26813">
        <ele>288</ele>
        <time>2018-06-07T16:47:17Z</time>
      </trkpt>
      <trkpt lat="44.55309" lon="2.26807">
        <ele>288</ele>
        <time>2018-06-07T16:47:18Z</time>
      </trkpt>
      <trkpt lat="44.55309" lon="2.26803">
        <ele>288</ele>
        <time>2018-06-07T16:47:19Z</time>
      </trkpt>
      <trkpt lat="44.55312" lon="2.26798">
        <ele>287</ele>
        <time>2018-06-07T16:47:20Z</time>
      </trkpt>
      <trkpt lat="44.55314" lon="2.26793">
        <ele>287</ele>
        <time>2018-06-07T16:47:21Z</time>
      </trkpt>
      <trkpt lat="44.55315" lon="2.26787">
        <ele>287</ele>
        <time>2018-06-07T16:47:22Z</time>
      </trkpt>
      <trkpt lat="44.55316" lon="2.26782">
        <ele>286</ele>
        <time>2018-06-07T16:47:23Z</time>
      </trkpt>
      <trkpt lat="44.55317" lon="2.26775">
        <ele>286</ele>
        <time>2018-06-07T16:47:24Z</time>
      </trkpt>
      <trkpt lat="44.55316" lon="2.26771">
        <ele>286</ele>
        <time>2018-06-07T16:47:26Z</time>
      </trkpt>
      <trkpt lat="44.55315" lon="2.26766">
        <ele>285</ele>
        <time>2018-06-07T16:47:27Z</time>
      </trkpt>
      <trkpt lat="44.55317" lon="2.2676">
        <ele>285</ele>
        <time>2018-06-07T16:47:29Z</time>
      </trkpt>
      <trkpt lat="44.55317" lon="2.26755">
        <ele>285</ele>
        <time>2018-06-07T16:47:30Z</time>
      </trkpt>
      <trkpt lat="44.55319" lon="2.26749">
        <ele>281</ele>
        <time>2018-06-07T16:47:31Z</time>
      </trkpt>
      <trkpt lat="44.55318" lon="2.26744">
        <ele>281</ele>
        <time>2018-06-07T16:47:32Z</time>
      </trkpt>
      <trkpt lat="44.55318" lon="2.26737">
        <ele>280</ele>
        <time>2018-06-07T16:47:33Z</time>
      </trkpt>
      <trkpt lat="44.55322" lon="2.26729">
        <ele>280</ele>
        <time>2018-06-07T16:47:35Z</time>
      </trkpt>
      <trkpt lat="44.55324" lon="2.26726">
        <ele>279</ele>
        <time>2018-06-07T16:47:36Z</time>
      </trkpt>
      <trkpt lat="44.55328" lon="2.2672">
        <ele>279</ele>
        <time>2018-06-07T16:47:39Z</time>
      </trkpt>
      <trkpt lat="44.55329" lon="2.26712">
        <ele>278</ele>
        <time>2018-06-07T16:47:41Z</time>
      </trkpt>
      <trkpt lat="44.5533" lon="2.26703">
        <ele>278</ele>
        <time>2018-06-07T16:47:43Z</time>
      </trkpt>
      <trkpt lat="44.55331" lon="2.26698">
        <ele>277</ele>
        <time>2018-06-07T16:47:44Z</time>
      </trkpt>
      <trkpt lat="44.55331" lon="2.26689">
        <ele>277</ele>
        <time>2018-06-07T16:47:45Z</time>
      </trkpt>
      <trkpt lat="44.5533" lon="2.26685">
        <ele>277</ele>
        <time>2018-06-07T16:47:46Z</time>
      </trkpt>
      <trkpt lat="44.55327" lon="2.26677">
        <ele>276</ele>
        <time>2018-06-07T16:47:48Z</time>
      </trkpt>
      <trkpt lat="44.55326" lon="2.26672">
        <ele>276</ele>
        <time>2018-06-07T16:47:50Z</time>
      </trkpt>
      <trkpt lat="44.55324" lon="2.26668">
        <ele>276</ele>
        <time>2018-06-07T16:47:52Z</time>
      </trkpt>
      <trkpt lat="44.55321" lon="2.26661">
        <ele>273</ele>
        <time>2018-06-07T16:47:54Z</time>
      </trkpt>
      <trkpt lat="44.5532" lon="2.26652">
        <ele>272</ele>
        <time>2018-06-07T16:47:56Z</time>
      </trkpt>
      <trkpt lat="44.55318" lon="2.26646">
        <ele>271</ele>
        <time>2018-06-07T16:47:58Z</time>
      </trkpt>
      <trkpt lat="44.55319" lon="2.2664">
        <ele>271</ele>
        <time>2018-06-07T16:47:59Z</time>
      </trkpt>
      <trkpt lat="44.55316" lon="2.26631">
        <ele>270</ele>
        <time>2018-06-07T16:48:01Z</time>
      </trkpt>
      <trkpt lat="44.55316" lon="2.26626">
        <ele>270</ele>
        <time>2018-06-07T16:48:03Z</time>
      </trkpt>
      <trkpt lat="44.55315" lon="2.26619">
        <ele>269</ele>
        <time>2018-06-07T16:48:05Z</time>
      </trkpt>
      <trkpt lat="44.55317" lon="2.26615">
        <ele>269</ele>
        <time>2018-06-07T16:48:06Z</time>
      </trkpt>
      <trkpt lat="44.55319" lon="2.2661">
        <ele>269</ele>
        <time>2018-06-07T16:48:07Z</time>
      </trkpt>
      <trkpt lat="44.55321" lon="2.26605">
        <ele>269</ele>
        <time>2018-06-07T16:48:08Z</time>
      </trkpt>
      <trkpt lat="44.55324" lon="2.26601">
        <ele>269</ele>
        <time>2018-06-07T16:48:10Z</time>
      </trkpt>
      <trkpt lat="44.55325" lon="2.26596">
        <ele>268</ele>
        <time>2018-06-07T16:48:11Z</time>
      </trkpt>
      <trkpt lat="44.55327" lon="2.26592">
        <ele>268</ele>
        <time>2018-06-07T16:48:12Z</time>
      </trkpt>
      <trkpt lat="44.55328" lon="2.26587">
        <ele>268</ele>
        <time>2018-06-07T16:48:14Z</time>
      </trkpt>
      <trkpt lat="44.55328" lon="2.26583">
        <ele>266</ele>
        <time>2018-06-07T16:48:15Z</time>
      </trkpt>
      <trkpt lat="44.55329" lon="2.26578">
        <ele>266</ele>
        <time>2018-06-07T16:48:16Z</time>
      </trkpt>
      <trkpt lat="44.55331" lon="2.26575">
        <ele>265</ele>
        <time>2018-06-07T16:48:17Z</time>
      </trkpt>
      <trkpt lat="44.55333" lon="2.2657">
        <ele>263</ele>
        <time>2018-06-07T16:48:18Z</time>
      </trkpt>
      <trkpt lat="44.55336" lon="2.26567">
        <ele>262</ele>
        <time>2018-06-07T16:48:19Z</time>
      </trkpt>
      <trkpt lat="44.55337" lon="2.26563">
        <ele>261</ele>
        <time>2018-06-07T16:48:20Z</time>
      </trkpt>
      <trkpt lat="44.55339" lon="2.2656">
        <ele>260</ele>
        <time>2018-06-07T16:48:21Z</time>
      </trkpt>
      <trkpt lat="44.55342" lon="2.26552">
        <ele>259</ele>
        <time>2018-06-07T16:48:24Z</time>
      </trkpt>
      <trkpt lat="44.55343" lon="2.26546">
        <ele>258</ele>
        <time>2018-06-07T16:48:26Z</time>
      </trkpt>
      <trkpt lat="44.55345" lon="2.26541">
        <ele>257</ele>
        <time>2018-06-07T16:48:28Z</time>
      </trkpt>
      <trkpt lat="44.55348" lon="2.26537">
        <ele>257</ele>
        <time>2018-06-07T16:48:29Z</time>
      </trkpt>
      <trkpt lat="44.55351" lon="2.26532">
        <ele>257</ele>
        <time>2018-06-07T16:48:30Z</time>
      </trkpt>
      <trkpt lat="44.55354" lon="2.26529">
        <ele>256</ele>
        <time>2018-06-07T16:48:31Z</time>
      </trkpt>
      <trkpt lat="44.55355" lon="2.26519">
        <ele>256</ele>
        <time>2018-06-07T16:48:33Z</time>
      </trkpt>
      <trkpt lat="44.55357" lon="2.26513">
        <ele>256</ele>
        <time>2018-06-07T16:48:35Z</time>
      </trkpt>
      <trkpt lat="44.55355" lon="2.26508">
        <ele>256</ele>
        <time>2018-06-07T16:48:37Z</time>
      </trkpt>
      <trkpt lat="44.55358" lon="2.26504">
        <ele>256</ele>
        <time>2018-06-07T16:48:38Z</time>
      </trkpt>
      <trkpt lat="44.55361" lon="2.26499">
        <ele>250</ele>
        <time>2018-06-07T16:48:40Z</time>
      </trkpt>
      <trkpt lat="44.5536" lon="2.26495">
        <ele>250</ele>
        <time>2018-06-07T16:48:41Z</time>
      </trkpt>
      <trkpt lat="44.55364" lon="2.26491">
        <ele>249</ele>
        <time>2018-06-07T16:48:42Z</time>
      </trkpt>
      <trkpt lat="44.55367" lon="2.26485">
        <ele>249</ele>
        <time>2018-06-07T16:48:44Z</time>
      </trkpt>
      <trkpt lat="44.55366" lon="2.2648">
        <ele>249</ele>
        <time>2018-06-07T16:48:46Z</time>
      </trkpt>
      <trkpt lat="44.55368" lon="2.26474">
        <ele>248</ele>
        <time>2018-06-07T16:48:47Z</time>
      </trkpt>
      <trkpt lat="44.55367" lon="2.2647">
        <ele>248</ele>
        <time>2018-06-07T16:48:50Z</time>
      </trkpt>
      <trkpt lat="44.55367" lon="2.26464">
        <ele>247</ele>
        <time>2018-06-07T16:48:53Z</time>
      </trkpt>
      <trkpt lat="44.55367" lon="2.26459">
        <ele>247</ele>
        <time>2018-06-07T16:48:54Z</time>
      </trkpt>
      <trkpt lat="44.5537" lon="2.26449">
        <ele>246</ele>
        <time>2018-06-07T16:48:56Z</time>
      </trkpt>
      <trkpt lat="44.55373" lon="2.26441">
        <ele>245</ele>
        <time>2018-06-07T16:48:57Z</time>
      </trkpt>
      <trkpt lat="44.55376" lon="2.26434">
        <ele>245</ele>
        <time>2018-06-07T16:48:59Z</time>
      </trkpt>
      <trkpt lat="44.55377" lon="2.2643">
        <ele>245</ele>
        <time>2018-06-07T16:49:00Z</time>
      </trkpt>
      <trkpt lat="44.55382" lon="2.26426">
        <ele>244</ele>
        <time>2018-06-07T16:49:01Z</time>
      </trkpt>
      <trkpt lat="44.55384" lon="2.26421">
        <ele>244</ele>
        <time>2018-06-07T16:49:02Z</time>
      </trkpt>
      <trkpt lat="44.55384" lon="2.26416">
        <ele>237</ele>
        <time>2018-06-07T16:49:07Z</time>
      </trkpt>
      <trkpt lat="44.55381" lon="2.26415">
        <ele>237</ele>
        <time>2018-06-07T16:49:09Z</time>
      </trkpt>
      <trkpt lat="44.55379" lon="2.26409">
        <ele>237</ele>
        <time>2018-06-07T16:49:11Z</time>
      </trkpt>
      <trkpt lat="44.55378" lon="2.26405">
        <ele>237</ele>
        <time>2018-06-07T16:49:13Z</time>
      </trkpt>
      <trkpt lat="44.55374" lon="2.26399">
        <ele>236</ele>
        <time>2018-06-07T16:49:15Z</time>
      </trkpt>
      <trkpt lat="44.55373" lon="2.26392">
        <ele>236</ele>
        <time>2018-06-07T16:49:17Z</time>
      </trkpt>
      <trkpt lat="44.55366" lon="2.26392">
        <ele>236</ele>
        <time>2018-06-07T16:49:20Z</time>
      </trkpt>
      <trkpt lat="44.55364" lon="2.26396">
        <ele>236</ele>
        <time>2018-06-07T16:49:22Z</time>
      </trkpt>
      <trkpt lat="44.55361" lon="2.26397">
        <ele>236</ele>
        <time>2018-06-07T16:49:23Z</time>
      </trkpt>
      <trkpt lat="44.55357" lon="2.26401">
        <ele>237</ele>
        <time>2018-06-07T16:49:25Z</time>
      </trkpt>
      <trkpt lat="44.55353" lon="2.26399">
        <ele>237</ele>
        <time>2018-06-07T16:49:27Z</time>
      </trkpt>
      <trkpt lat="44.55351" lon="2.26393">
        <ele>236</ele>
        <time>2018-06-07T16:49:28Z</time>
      </trkpt>
      <trkpt lat="44.55351" lon="2.26388">
        <ele>236</ele>
        <time>2018-06-07T16:49:31Z</time>
      </trkpt>
      <trkpt lat="44.5535" lon="2.26383">
        <ele>235</ele>
        <time>2018-06-07T16:49:33Z</time>
      </trkpt>
      <trkpt lat="44.55354" lon="2.26382">
        <ele>235</ele>
        <time>2018-06-07T16:49:34Z</time>
      </trkpt>
      <trkpt lat="44.55356" lon="2.2638">
        <ele>235</ele>
        <time>2018-06-07T16:49:36Z</time>
      </trkpt>
      <trkpt lat="44.55356" lon="2.26375">
        <ele>234</ele>
        <time>2018-06-07T16:49:38Z</time>
      </trkpt>
      <trkpt lat="44.55357" lon="2.26371">
        <ele>234</ele>
        <time>2018-06-07T16:49:39Z</time>
      </trkpt>
      <trkpt lat="44.5536" lon="2.26367">
        <ele>234</ele>
        <time>2018-06-07T16:49:41Z</time>
      </trkpt>
      <trkpt lat="44.55364" lon="2.26365">
        <ele>234</ele>
        <time>2018-06-07T16:49:44Z</time>
      </trkpt>
      <trkpt lat="44.5537" lon="2.2636">
        <ele>233</ele>
        <time>2018-06-07T16:49:46Z</time>
      </trkpt>
      <trkpt lat="44.55375" lon="2.26355">
        <ele>233</ele>
        <time>2018-06-07T16:49:47Z</time>
      </trkpt>
      <trkpt lat="44.55378" lon="2.26353">
        <ele>233</ele>
        <time>2018-06-07T16:49:49Z</time>
      </trkpt>
      <trkpt lat="44.55381" lon="2.26357">
        <ele>233</ele>
        <time>2018-06-07T16:49:51Z</time>
      </trkpt>
      <trkpt lat="44.55384" lon="2.26359">
        <ele>233</ele>
        <time>2018-06-07T16:49:53Z</time>
      </trkpt>
      <trkpt lat="44.55386" lon="2.26355">
        <ele>233</ele>
        <time>2018-06-07T16:49:54Z</time>
      </trkpt>
      <trkpt lat="44.55389" lon="2.26354">
        <ele>233</ele>
        <time>2018-06-07T16:49:56Z</time>
      </trkpt>
      <trkpt lat="44.55391" lon="2.2635">
        <ele>233</ele>
        <time>2018-06-07T16:49:57Z</time>
      </trkpt>
      <trkpt lat="44.55394" lon="2.26341">
        <ele>232</ele>
        <time>2018-06-07T16:49:58Z</time>
      </trkpt>
      <trkpt lat="44.55397" lon="2.26338">
        <ele>232</ele>
        <time>2018-06-07T16:49:59Z</time>
      </trkpt>
      <trkpt lat="44.55403" lon="2.26336">
        <ele>232</ele>
        <time>2018-06-07T16:50:00Z</time>
      </trkpt>
      <trkpt lat="44.55407" lon="2.26331">
        <ele>229</ele>
        <time>2018-06-07T16:50:01Z</time>
      </trkpt>
      <trkpt lat="44.55413" lon="2.26325">
        <ele>229</ele>
        <time>2018-06-07T16:50:04Z</time>
      </trkpt>
      <trkpt lat="44.55417" lon="2.26327">
        <ele>229</ele>
        <time>2018-06-07T16:50:05Z</time>
      </trkpt>
      <trkpt lat="44.55421" lon="2.26327">
        <ele>228</ele>
        <time>2018-06-07T16:50:07Z</time>
      </trkpt>
      <trkpt lat="44.55425" lon="2.26326">
        <ele>228</ele>
        <time>2018-06-07T16:50:09Z</time>
      </trkpt>
      <trkpt lat="44.55429" lon="2.26316">
        <ele>227</ele>
        <time>2018-06-07T16:50:11Z</time>
      </trkpt>
      <trkpt lat="44.55432" lon="2.26314">
        <ele>226</ele>
        <time>2018-06-07T16:50:13Z</time>
      </trkpt>
      <trkpt lat="44.55434" lon="2.26311">
        <ele>226</ele>
        <time>2018-06-07T16:50:14Z</time>
      </trkpt>
      <trkpt lat="44.55439" lon="2.26307">
        <ele>225</ele>
        <time>2018-06-07T16:50:16Z</time>
      </trkpt>
      <trkpt lat="44.55441" lon="2.26302">
        <ele>225</ele>
        <time>2018-06-07T16:50:17Z</time>
      </trkpt>
      <trkpt lat="44.55443" lon="2.26298">
        <ele>225</ele>
        <time>2018-06-07T16:50:18Z</time>
      </trkpt>
      <trkpt lat="44.55444" lon="2.26294">
        <ele>225</ele>
        <time>2018-06-07T16:50:19Z</time>
      </trkpt>
      <trkpt lat="44.55445" lon="2.2629">
        <ele>224</ele>
        <time>2018-06-07T16:50:20Z</time>
      </trkpt>
      <trkpt lat="44.55438" lon="2.26288">
        <ele>224</ele>
        <time>2018-06-07T16:50:21Z</time>
      </trkpt>
      <trkpt lat="44.55435" lon="2.26288">
        <ele>225</ele>
        <time>2018-06-07T16:50:23Z</time>
      </trkpt>
      <trkpt lat="44.55432" lon="2.26287">
        <ele>225</ele>
        <time>2018-06-07T16:50:24Z</time>
      </trkpt>
      <trkpt lat="44.55424" lon="2.26289">
        <ele>225</ele>
        <time>2018-06-07T16:50:26Z</time>
      </trkpt>
      <trkpt lat="44.55419" lon="2.26291">
        <ele>225</ele>
        <time>2018-06-07T16:50:28Z</time>
      </trkpt>
      <trkpt lat="44.55413" lon="2.26295">
        <ele>226</ele>
        <time>2018-06-07T16:50:30Z</time>
      </trkpt>
      <trkpt lat="44.55409" lon="2.26294">
        <ele>226</ele>
        <time>2018-06-07T16:50:31Z</time>
      </trkpt>
      <trkpt lat="44.55406" lon="2.26294">
        <ele>226</ele>
        <time>2018-06-07T16:50:32Z</time>
      </trkpt>
      <trkpt lat="44.55401" lon="2.26296">
        <ele>226</ele>
        <time>2018-06-07T16:50:34Z</time>
      </trkpt>
      <trkpt lat="44.55395" lon="2.26299">
        <ele>226</ele>
        <time>2018-06-07T16:50:36Z</time>
      </trkpt>
      <trkpt lat="44.55391" lon="2.26302">
        <ele>226</ele>
        <time>2018-06-07T16:50:37Z</time>
      </trkpt>
      <trkpt lat="44.55388" lon="2.26302">
        <ele>226</ele>
        <time>2018-06-07T16:50:38Z</time>
      </trkpt>
      <trkpt lat="44.55384" lon="2.26305">
        <ele>226</ele>
        <time>2018-06-07T16:50:40Z</time>
      </trkpt>
      <trkpt lat="44.5538" lon="2.26305">
        <ele>226</ele>
        <time>2018-06-07T16:50:41Z</time>
      </trkpt>
      <trkpt lat="44.55377" lon="2.26307">
        <ele>226</ele>
        <time>2018-06-07T16:50:42Z</time>
      </trkpt>
      <trkpt lat="44.55375" lon="2.26308">
        <ele>226</ele>
        <time>2018-06-07T16:50:43Z</time>
      </trkpt>
      <trkpt lat="44.55371" lon="2.2631">
        <ele>226</ele>
        <time>2018-06-07T16:50:44Z</time>
      </trkpt>
      <trkpt lat="44.55368" lon="2.26311">
        <ele>226</ele>
        <time>2018-06-07T16:50:45Z</time>
      </trkpt>
      <trkpt lat="44.55365" lon="2.26312">
        <ele>226</ele>
        <time>2018-06-07T16:50:46Z</time>
      </trkpt>
      <trkpt lat="44.55361" lon="2.26315">
        <ele>226</ele>
        <time>2018-06-07T16:50:48Z</time>
      </trkpt>
      <trkpt lat="44.55357" lon="2.26316">
        <ele>226</ele>
        <time>2018-06-07T16:50:50Z</time>
      </trkpt>
      <trkpt lat="44.55353" lon="2.26317">
        <ele>226</ele>
        <time>2018-06-07T16:50:52Z</time>
      </trkpt>
      <trkpt lat="44.55348" lon="2.2632">
        <ele>226</ele>
        <time>2018-06-07T16:50:54Z</time>
      </trkpt>
      <trkpt lat="44.55344" lon="2.26323">
        <ele>226</ele>
        <time>2018-06-07T16:50:56Z</time>
      </trkpt>
      <trkpt lat="44.55339" lon="2.26327">
        <ele>226</ele>
        <time>2018-06-07T16:50:58Z</time>
      </trkpt>
      <trkpt lat="44.55335" lon="2.26326">
        <ele>226</ele>
        <time>2018-06-07T16:51:00Z</time>
      </trkpt>
      <trkpt lat="44.55332" lon="2.26328">
        <ele>226</ele>
        <time>2018-06-07T16:51:01Z</time>
      </trkpt>
      <trkpt lat="44.55325" lon="2.26333">
        <ele>226</ele>
        <time>2018-06-07T16:51:03Z</time>
      </trkpt>
      <trkpt lat="44.55321" lon="2.26332">
        <ele>226</ele>
        <time>2018-06-07T16:51:05Z</time>
      </trkpt>
      <trkpt lat="44.55318" lon="2.26333">
        <ele>226</ele>
        <time>2018-06-07T16:51:07Z</time>
      </trkpt>
      <trkpt lat="44.55315" lon="2.26334">
        <ele>230</ele>
        <time>2018-06-07T16:51:08Z</time>
      </trkpt>
      <trkpt lat="44.55312" lon="2.26336">
        <ele>230</ele>
        <time>2018-06-07T16:51:09Z</time>
      </trkpt>
      <trkpt lat="44.55307" lon="2.26339">
        <ele>231</ele>
        <time>2018-06-07T16:51:11Z</time>
      </trkpt>
      <trkpt lat="44.55304" lon="2.26343">
        <ele>231</ele>
        <time>2018-06-07T16:51:12Z</time>
      </trkpt>
      <trkpt lat="44.55301" lon="2.26346">
        <ele>231</ele>
        <time>2018-06-07T16:51:13Z</time>
      </trkpt>
      <trkpt lat="44.55298" lon="2.26348">
        <ele>231</ele>
        <time>2018-06-07T16:51:14Z</time>
      </trkpt>
      <trkpt lat="44.55294" lon="2.2635">
        <ele>232</ele>
        <time>2018-06-07T16:51:16Z</time>
      </trkpt>
      <trkpt lat="44.55288" lon="2.26354">
        <ele>232</ele>
        <time>2018-06-07T16:51:18Z</time>
      </trkpt>
      <trkpt lat="44.55284" lon="2.26356">
        <ele>232</ele>
        <time>2018-06-07T16:51:20Z</time>
      </trkpt>
      <trkpt lat="44.55281" lon="2.26357">
        <ele>232</ele>
        <time>2018-06-07T16:51:21Z</time>
      </trkpt>
      <trkpt lat="44.55279" lon="2.26359">
        <ele>232</ele>
        <time>2018-06-07T16:51:22Z</time>
      </trkpt>
      <trkpt lat="44.55276" lon="2.26361">
        <ele>232</ele>
        <time>2018-06-07T16:51:23Z</time>
      </trkpt>
      <trkpt lat="44.55272" lon="2.26361">
        <ele>232</ele>
        <time>2018-06-07T16:51:25Z</time>
      </trkpt>
      <trkpt lat="44.55268" lon="2.26362">
        <ele>232</ele>
        <time>2018-06-07T16:51:27Z</time>
      </trkpt>
      <trkpt lat="44.55265" lon="2.26359">
        <ele>232</ele>
        <time>2018-06-07T16:51:29Z</time>
      </trkpt>
      <trkpt lat="44.55262" lon="2.26359">
        <ele>232</ele>
        <time>2018-06-07T16:51:31Z</time>
      </trkpt>
      <trkpt lat="44.55259" lon="2.26362">
        <ele>232</ele>
        <time>2018-06-07T16:51:32Z</time>
      </trkpt>
      <trkpt lat="44.55257" lon="2.26364">
        <ele>232</ele>
        <time>2018-06-07T16:51:33Z</time>
      </trkpt>
      <trkpt lat="44.55254" lon="2.26367">
        <ele>232</ele>
        <time>2018-06-07T16:51:34Z</time>
      </trkpt>
      <trkpt lat="44.5525" lon="2.2637">
        <ele>233</ele>
        <time>2018-06-07T16:51:35Z</time>
      </trkpt>
      <trkpt lat="44.55247" lon="2.26372">
        <ele>228</ele>
        <time>2018-06-07T16:51:36Z</time>
      </trkpt>
      <trkpt lat="44.55244" lon="2.26373">
        <ele>228</ele>
        <time>2018-06-07T16:51:38Z</time>
      </trkpt>
      <trkpt lat="44.5524" lon="2.26375">
        <ele>228</ele>
        <time>2018-06-07T16:51:40Z</time>
      </trkpt>
      <trkpt lat="44.55236" lon="2.26379">
        <ele>228</ele>
        <time>2018-06-07T16:51:42Z</time>
      </trkpt>
      <trkpt lat="44.55234" lon="2.26382">
        <ele>228</ele>
        <time>2018-06-07T16:51:43Z</time>
      </trkpt>
      <trkpt lat="44.55231" lon="2.26384">
        <ele>228</ele>
        <time>2018-06-07T16:51:44Z</time>
      </trkpt>
      <trkpt lat="44.55228" lon="2.26386">
        <ele>228</ele>
        <time>2018-06-07T16:51:45Z</time>
      </trkpt>
      <trkpt lat="44.5522" lon="2.26391">
        <ele>228</ele>
        <time>2018-06-07T16:51:47Z</time>
      </trkpt>
      <trkpt lat="44.55217" lon="2.26392">
        <ele>227</ele>
        <time>2018-06-07T16:51:48Z</time>
      </trkpt>
      <trkpt lat="44.55214" lon="2.26395">
        <ele>227</ele>
        <time>2018-06-07T16:51:49Z</time>
      </trkpt>
      <trkpt lat="44.55211" lon="2.26395">
        <ele>227</ele>
        <time>2018-06-07T16:51:50Z</time>
      </trkpt>
      <trkpt lat="44.55209" lon="2.26397">
        <ele>227</ele>
        <time>2018-06-07T16:51:51Z</time>
      </trkpt>
      <trkpt lat="44.55205" lon="2.26398">
        <ele>227</ele>
        <time>2018-06-07T16:51:54Z</time>
      </trkpt>
      <trkpt lat="44.55202" lon="2.26399">
        <ele>226</ele>
        <time>2018-06-07T16:51:55Z</time>
      </trkpt>
      <trkpt lat="44.55198" lon="2.264">
        <ele>226</ele>
        <time>2018-06-07T16:51:56Z</time>
      </trkpt>
      <trkpt lat="44.55194" lon="2.26405">
        <ele>226</ele>
        <time>2018-06-07T16:51:58Z</time>
      </trkpt>
      <trkpt lat="44.55188" lon="2.26408">
        <ele>226</ele>
        <time>2018-06-07T16:52:00Z</time>
      </trkpt>
      <trkpt lat="44.55185" lon="2.2641">
        <ele>226</ele>
        <time>2018-06-07T16:52:01Z</time>
      </trkpt>
      <trkpt lat="44.55182" lon="2.26413">
        <ele>225</ele>
        <time>2018-06-07T16:52:02Z</time>
      </trkpt>
      <trkpt lat="44.55179" lon="2.26415">
        <ele>225</ele>
        <time>2018-06-07T16:52:03Z</time>
      </trkpt>
      <trkpt lat="44.55175" lon="2.26417">
        <ele>228</ele>
        <time>2018-06-07T16:52:04Z</time>
      </trkpt>
      <trkpt lat="44.55171" lon="2.2642">
        <ele>227</ele>
        <time>2018-06-07T16:52:06Z</time>
      </trkpt>
      <trkpt lat="44.55168" lon="2.26423">
        <ele>227</ele>
        <time>2018-06-07T16:52:07Z</time>
      </trkpt>
      <trkpt lat="44.55165" lon="2.26426">
        <ele>224</ele>
        <time>2018-06-07T16:52:09Z</time>
      </trkpt>
      <trkpt lat="44.55163" lon="2.26429">
        <ele>224</ele>
        <time>2018-06-07T16:52:10Z</time>
      </trkpt>
      <trkpt lat="44.5516" lon="2.26433">
        <ele>224</ele>
        <time>2018-06-07T16:52:12Z</time>
      </trkpt>
      <trkpt lat="44.55157" lon="2.26438">
        <ele>223</ele>
        <time>2018-06-07T16:52:14Z</time>
      </trkpt>
      <trkpt lat="44.55154" lon="2.2644">
        <ele>223</ele>
        <time>2018-06-07T16:52:15Z</time>
      </trkpt>
      <trkpt lat="44.55152" lon="2.26442">
        <ele>223</ele>
        <time>2018-06-07T16:52:16Z</time>
      </trkpt>
      <trkpt lat="44.55148" lon="2.26443">
        <ele>223</ele>
        <time>2018-06-07T16:52:18Z</time>
      </trkpt>
      <trkpt lat="44.55145" lon="2.26445">
        <ele>223</ele>
        <time>2018-06-07T16:52:20Z</time>
      </trkpt>
      <trkpt lat="44.5514" lon="2.26449">
        <ele>223</ele>
        <time>2018-06-07T16:52:22Z</time>
      </trkpt>
      <trkpt lat="44.55139" lon="2.26454">
        <ele>223</ele>
        <time>2018-06-07T16:52:23Z</time>
      </trkpt>
      <trkpt lat="44.55137" lon="2.26449">
        <ele>222</ele>
        <time>2018-06-07T16:52:25Z</time>
      </trkpt>
      <trkpt lat="44.55137" lon="2.26444">
        <ele>222</ele>
        <time>2018-06-07T16:52:28Z</time>
      </trkpt>
      <trkpt lat="44.55138" lon="2.26439">
        <ele>222</ele>
        <time>2018-06-07T16:53:42Z</time>
      </trkpt>
      <trkpt lat="44.55143" lon="2.26435">
        <ele>222</ele>
        <time>2018-06-07T16:53:44Z</time>
      </trkpt>
      <trkpt lat="44.55147" lon="2.2643">
        <ele>223</ele>
        <time>2018-06-07T16:53:46Z</time>
      </trkpt>
      <trkpt lat="44.55149" lon="2.26428">
        <ele>223</ele>
        <time>2018-06-07T16:53:47Z</time>
      </trkpt>
      <trkpt lat="44.55153" lon="2.26421">
        <ele>223</ele>
        <time>2018-06-07T16:53:49Z</time>
      </trkpt>
      <trkpt lat="44.55157" lon="2.26418">
        <ele>224</ele>
        <time>2018-06-07T16:53:52Z</time>
      </trkpt>
      <trkpt lat="44.55159" lon="2.26414">
        <ele>220</ele>
        <time>2018-06-07T16:53:53Z</time>
      </trkpt>
      <trkpt lat="44.55162" lon="2.26409">
        <ele>220</ele>
        <time>2018-06-07T16:53:54Z</time>
      </trkpt>
      <trkpt lat="44.55164" lon="2.26403">
        <ele>218</ele>
        <time>2018-06-07T16:53:56Z</time>
      </trkpt>
      <trkpt lat="44.55166" lon="2.264">
        <ele>217</ele>
        <time>2018-06-07T16:53:57Z</time>
      </trkpt>
      <trkpt lat="44.55169" lon="2.26395">
        <ele>225</ele>
        <time>2018-06-07T16:53:58Z</time>
      </trkpt>
      <trkpt lat="44.55172" lon="2.26388">
        <ele>224</ele>
        <time>2018-06-07T16:54:01Z</time>
      </trkpt>
      <trkpt lat="44.55175" lon="2.26385">
        <ele>224</ele>
        <time>2018-06-07T16:54:02Z</time>
      </trkpt>
      <trkpt lat="44.55178" lon="2.26382">
        <ele>224</ele>
        <time>2018-06-07T16:54:04Z</time>
      </trkpt>
      <trkpt lat="44.5518" lon="2.26378">
        <ele>224</ele>
        <time>2018-06-07T16:54:05Z</time>
      </trkpt>
      <trkpt lat="44.55182" lon="2.26372">
        <ele>224</ele>
        <time>2018-06-07T16:54:07Z</time>
      </trkpt>
      <trkpt lat="44.55184" lon="2.26367">
        <ele>223</ele>
        <time>2018-06-07T16:54:09Z</time>
      </trkpt>
      <trkpt lat="44.55186" lon="2.26364">
        <ele>223</ele>
        <time>2018-06-07T16:54:11Z</time>
      </trkpt>
      <trkpt lat="44.55188" lon="2.26359">
        <ele>223</ele>
        <time>2018-06-07T16:54:13Z</time>
      </trkpt>
      <trkpt lat="44.55191" lon="2.26354">
        <ele>222</ele>
        <time>2018-06-07T16:54:14Z</time>
      </trkpt>
      <trkpt lat="44.55194" lon="2.26349">
        <ele>222</ele>
        <time>2018-06-07T16:54:16Z</time>
      </trkpt>
      <trkpt lat="44.55195" lon="2.26345">
        <ele>222</ele>
        <time>2018-06-07T16:54:18Z</time>
      </trkpt>
      <trkpt lat="44.55197" lon="2.26342">
        <ele>222</ele>
        <time>2018-06-07T16:54:19Z</time>
      </trkpt>
      <trkpt lat="44.55199" lon="2.26338">
        <ele>223</ele>
        <time>2018-06-07T16:54:20Z</time>
      </trkpt>
      <trkpt lat="44.55201" lon="2.26334">
        <ele>223</ele>
        <time>2018-06-07T16:54:22Z</time>
      </trkpt>
      <trkpt lat="44.55205" lon="2.26325">
        <ele>218</ele>
        <time>2018-06-07T16:54:24Z</time>
      </trkpt>
      <trkpt lat="44.55207" lon="2.26321">
        <ele>218</ele>
        <time>2018-06-07T16:54:25Z</time>
      </trkpt>
      <trkpt lat="44.55209" lon="2.26317">
        <ele>218</ele>
        <time>2018-06-07T16:54:26Z</time>
      </trkpt>
      <trkpt lat="44.5521" lon="2.26314">
        <ele>218</ele>
        <time>2018-06-07T16:54:27Z</time>
      </trkpt>
      <trkpt lat="44.55212" lon="2.2631">
        <ele>218</ele>
        <time>2018-06-07T16:54:29Z</time>
      </trkpt>
      <trkpt lat="44.55214" lon="2.26305">
        <ele>218</ele>
        <time>2018-06-07T16:54:30Z</time>
      </trkpt>
      <trkpt lat="44.55217" lon="2.26299">
        <ele>218</ele>
        <time>2018-06-07T16:54:32Z</time>
      </trkpt>
      <trkpt lat="44.55219" lon="2.26295">
        <ele>218</ele>
        <time>2018-06-07T16:54:33Z</time>
      </trkpt>
      <trkpt lat="44.55221" lon="2.26292">
        <ele>219</ele>
        <time>2018-06-07T16:54:34Z</time>
      </trkpt>
      <trkpt lat="44.55223" lon="2.26286">
        <ele>219</ele>
        <time>2018-06-07T16:54:36Z</time>
      </trkpt>
      <trkpt lat="44.55224" lon="2.26281">
        <ele>218</ele>
        <time>2018-06-07T16:54:38Z</time>
      </trkpt>
      <trkpt lat="44.55226" lon="2.26277">
        <ele>219</ele>
        <time>2018-06-07T16:54:39Z</time>
      </trkpt>
      <trkpt lat="44.55227" lon="2.26273">
        <ele>219</ele>
        <time>2018-06-07T16:54:41Z</time>
      </trkpt>
      <trkpt lat="44.55228" lon="2.2627">
        <ele>219</ele>
        <time>2018-06-07T16:54:42Z</time>
      </trkpt>
      <trkpt lat="44.5523" lon="2.26263">
        <ele>220</ele>
        <time>2018-06-07T16:54:44Z</time>
      </trkpt>
      <trkpt lat="44.55233" lon="2.26256">
        <ele>220</ele>
        <time>2018-06-07T16:54:46Z</time>
      </trkpt>
      <trkpt lat="44.55235" lon="2.26252">
        <ele>221</ele>
        <time>2018-06-07T16:54:48Z</time>
      </trkpt>
      <trkpt lat="44.55236" lon="2.26247">
        <ele>218</ele>
        <time>2018-06-07T16:54:49Z</time>
      </trkpt>
      <trkpt lat="44.55237" lon="2.26243">
        <ele>218</ele>
        <time>2018-06-07T16:54:50Z</time>
      </trkpt>
      <trkpt lat="44.55239" lon="2.2624">
        <ele>218</ele>
        <time>2018-06-07T16:54:51Z</time>
      </trkpt>
      <trkpt lat="44.55238" lon="2.26234">
        <ele>217</ele>
        <time>2018-06-07T16:54:53Z</time>
      </trkpt>
      <trkpt lat="44.55241" lon="2.26232">
        <ele>217</ele>
        <time>2018-06-07T16:54:54Z</time>
      </trkpt>
      <trkpt lat="44.55244" lon="2.26229">
        <ele>217</ele>
        <time>2018-06-07T16:54:55Z</time>
      </trkpt>
      <trkpt lat="44.55246" lon="2.26228">
        <ele>216</ele>
        <time>2018-06-07T16:54:56Z</time>
      </trkpt>
      <trkpt lat="44.5525" lon="2.26229">
        <ele>217</ele>
        <time>2018-06-07T16:54:58Z</time>
      </trkpt>
      <trkpt lat="44.55252" lon="2.26225">
        <ele>226</ele>
        <time>2018-06-07T16:55:00Z</time>
      </trkpt>
      <trkpt lat="44.55256" lon="2.26218">
        <ele>226</ele>
        <time>2018-06-07T16:55:01Z</time>
      </trkpt>
      <trkpt lat="44.55257" lon="2.26212">
        <ele>226</ele>
        <time>2018-06-07T16:55:03Z</time>
      </trkpt>
      <trkpt lat="44.55259" lon="2.26205">
        <ele>226</ele>
        <time>2018-06-07T16:55:05Z</time>
      </trkpt>
      <trkpt lat="44.5526" lon="2.26196">
        <ele>226</ele>
        <time>2018-06-07T16:55:07Z</time>
      </trkpt>
      <trkpt lat="44.55262" lon="2.26192">
        <ele>226</ele>
        <time>2018-06-07T16:55:08Z</time>
      </trkpt>
      <trkpt lat="44.55263" lon="2.26188">
        <ele>226</ele>
        <time>2018-06-07T16:55:09Z</time>
      </trkpt>
      <trkpt lat="44.55265" lon="2.26183">
        <ele>225</ele>
        <time>2018-06-07T16:55:10Z</time>
      </trkpt>
      <trkpt lat="44.55266" lon="2.26176">
        <ele>225</ele>
        <time>2018-06-07T16:55:12Z</time>
      </trkpt>
      <trkpt lat="44.55267" lon="2.26173">
        <ele>225</ele>
        <time>2018-06-07T16:55:13Z</time>
      </trkpt>
      <trkpt lat="44.55268" lon="2.26166">
        <ele>226</ele>
        <time>2018-06-07T16:55:15Z</time>
      </trkpt>
      <trkpt lat="44.5527" lon="2.26161">
        <ele>226</ele>
        <time>2018-06-07T16:55:16Z</time>
      </trkpt>
      <trkpt lat="44.55271" lon="2.26155">
        <ele>226</ele>
        <time>2018-06-07T16:55:18Z</time>
      </trkpt>
      <trkpt lat="44.55271" lon="2.26151">
        <ele>227</ele>
        <time>2018-06-07T16:55:19Z</time>
      </trkpt>
      <trkpt lat="44.55273" lon="2.26144">
        <ele>227</ele>
        <time>2018-06-07T16:55:21Z</time>
      </trkpt>
      <trkpt lat="44.55274" lon="2.26137">
        <ele>227</ele>
        <time>2018-06-07T16:55:23Z</time>
      </trkpt>
      <trkpt lat="44.55275" lon="2.26132">
        <ele>227</ele>
        <time>2018-06-07T16:55:24Z</time>
      </trkpt>
      <trkpt lat="44.55276" lon="2.26128">
        <ele>227</ele>
        <time>2018-06-07T16:55:25Z</time>
      </trkpt>
      <trkpt lat="44.55277" lon="2.26121">
        <ele>227</ele>
        <time>2018-06-07T16:55:27Z</time>
      </trkpt>
      <trkpt lat="44.55277" lon="2.26116">
        <ele>227</ele>
        <time>2018-06-07T16:55:29Z</time>
      </trkpt>
      <trkpt lat="44.55278" lon="2.2611">
        <ele>227</ele>
        <time>2018-06-07T16:55:31Z</time>
      </trkpt>
      <trkpt lat="44.55279" lon="2.26105">
        <ele>227</ele>
        <time>2018-06-07T16:55:33Z</time>
      </trkpt>
      <trkpt lat="44.5528" lon="2.26101">
        <ele>227</ele>
        <time>2018-06-07T16:55:34Z</time>
      </trkpt>
      <trkpt lat="44.55282" lon="2.26094">
        <ele>228</ele>
        <time>2018-06-07T16:55:36Z</time>
      </trkpt>
      <trkpt lat="44.55283" lon="2.26088">
        <ele>228</ele>
        <time>2018-06-07T16:55:38Z</time>
      </trkpt>
      <trkpt lat="44.55284" lon="2.26081">
        <ele>227</ele>
        <time>2018-06-07T16:55:40Z</time>
      </trkpt>
      <trkpt lat="44.55285" lon="2.26077">
        <ele>227</ele>
        <time>2018-06-07T16:55:41Z</time>
      </trkpt>
      <trkpt lat="44.55285" lon="2.26071">
        <ele>227</ele>
        <time>2018-06-07T16:55:43Z</time>
      </trkpt>
      <trkpt lat="44.55286" lon="2.26067">
        <ele>227</ele>
        <time>2018-06-07T16:55:44Z</time>
      </trkpt>
      <trkpt lat="44.55286" lon="2.26063">
        <ele>227</ele>
        <time>2018-06-07T16:55:45Z</time>
      </trkpt>
      <trkpt lat="44.55287" lon="2.26055">
        <ele>227</ele>
        <time>2018-06-07T16:55:47Z</time>
      </trkpt>
      <trkpt lat="44.55287" lon="2.26051">
        <ele>227</ele>
        <time>2018-06-07T16:55:48Z</time>
      </trkpt>
      <trkpt lat="44.55287" lon="2.26047">
        <ele>227</ele>
        <time>2018-06-07T16:55:49Z</time>
      </trkpt>
      <trkpt lat="44.55287" lon="2.2604">
        <ele>227</ele>
        <time>2018-06-07T16:55:51Z</time>
      </trkpt>
      <trkpt lat="44.55288" lon="2.26033">
        <ele>227</ele>
        <time>2018-06-07T16:55:53Z</time>
      </trkpt>
      <trkpt lat="44.55289" lon="2.26029">
        <ele>227</ele>
        <time>2018-06-07T16:55:54Z</time>
      </trkpt>
      <trkpt lat="44.5529" lon="2.26022">
        <ele>227</ele>
        <time>2018-06-07T16:55:56Z</time>
      </trkpt>
      <trkpt lat="44.55289" lon="2.26017">
        <ele>226</ele>
        <time>2018-06-07T16:55:57Z</time>
      </trkpt>
      <trkpt lat="44.55289" lon="2.26012">
        <ele>226</ele>
        <time>2018-06-07T16:55:58Z</time>
      </trkpt>
      <trkpt lat="44.55289" lon="2.26007">
        <ele>226</ele>
        <time>2018-06-07T16:55:59Z</time>
      </trkpt>
      <trkpt lat="44.55289" lon="2.26">
        <ele>226</ele>
        <time>2018-06-07T16:56:01Z</time>
      </trkpt>
      <trkpt lat="44.5529" lon="2.25996">
        <ele>223</ele>
        <time>2018-06-07T16:56:02Z</time>
      </trkpt>
      <trkpt lat="44.5529" lon="2.25992">
        <ele>223</ele>
        <time>2018-06-07T16:56:03Z</time>
      </trkpt>
      <trkpt lat="44.5529" lon="2.25988">
        <ele>223</ele>
        <time>2018-06-07T16:56:04Z</time>
      </trkpt>
      <trkpt lat="44.55291" lon="2.25981">
        <ele>223</ele>
        <time>2018-06-07T16:56:06Z</time>
      </trkpt>
      <trkpt lat="44.55291" lon="2.25978">
        <ele>223</ele>
        <time>2018-06-07T16:56:07Z</time>
      </trkpt>
      <trkpt lat="44.55292" lon="2.25974">
        <ele>223</ele>
        <time>2018-06-07T16:56:08Z</time>
      </trkpt>
      <trkpt lat="44.55292" lon="2.25966">
        <ele>222</ele>
        <time>2018-06-07T16:56:10Z</time>
      </trkpt>
      <trkpt lat="44.55291" lon="2.25962">
        <ele>222</ele>
        <time>2018-06-07T16:56:11Z</time>
      </trkpt>
      <trkpt lat="44.55292" lon="2.25956">
        <ele>222</ele>
        <time>2018-06-07T16:56:13Z</time>
      </trkpt>
      <trkpt lat="44.55291" lon="2.25951">
        <ele>222</ele>
        <time>2018-06-07T16:56:14Z</time>
      </trkpt>
      <trkpt lat="44.55291" lon="2.25945">
        <ele>221</ele>
        <time>2018-06-07T16:56:16Z</time>
      </trkpt>
      <trkpt lat="44.55292" lon="2.25941">
        <ele>221</ele>
        <time>2018-06-07T16:56:17Z</time>
      </trkpt>
      <trkpt lat="44.55293" lon="2.25934">
        <ele>221</ele>
        <time>2018-06-07T16:56:19Z</time>
      </trkpt>
      <trkpt lat="44.55293" lon="2.25928">
        <ele>221</ele>
        <time>2018-06-07T16:56:21Z</time>
      </trkpt>
      <trkpt lat="44.55293" lon="2.2592">
        <ele>221</ele>
        <time>2018-06-07T16:56:23Z</time>
      </trkpt>
      <trkpt lat="44.55293" lon="2.25915">
        <ele>213</ele>
        <time>2018-06-07T16:56:24Z</time>
      </trkpt>
      <trkpt lat="44.55294" lon="2.25911">
        <ele>213</ele>
        <time>2018-06-07T16:56:25Z</time>
      </trkpt>
      <trkpt lat="44.55293" lon="2.25907">
        <ele>213</ele>
        <time>2018-06-07T16:56:26Z</time>
      </trkpt>
      <trkpt lat="44.55293" lon="2.259">
        <ele>212</ele>
        <time>2018-06-07T16:56:28Z</time>
      </trkpt>
      <trkpt lat="44.55292" lon="2.25893">
        <ele>211</ele>
        <time>2018-06-07T16:56:30Z</time>
      </trkpt>
      <trkpt lat="44.5529" lon="2.25888">
        <ele>211</ele>
        <time>2018-06-07T16:56:32Z</time>
      </trkpt>
      <trkpt lat="44.55289" lon="2.25881">
        <ele>210</ele>
        <time>2018-06-07T16:56:34Z</time>
      </trkpt>
      <trkpt lat="44.55287" lon="2.25873">
        <ele>209</ele>
        <time>2018-06-07T16:56:36Z</time>
      </trkpt>
      <trkpt lat="44.55285" lon="2.25868">
        <ele>208</ele>
        <time>2018-06-07T16:56:38Z</time>
      </trkpt>
      <trkpt lat="44.55283" lon="2.25864">
        <ele>207</ele>
        <time>2018-06-07T16:56:39Z</time>
      </trkpt>
      <trkpt lat="44.55282" lon="2.2586">
        <ele>207</ele>
        <time>2018-06-07T16:56:40Z</time>
      </trkpt>
      <trkpt lat="44.55281" lon="2.25856">
        <ele>206</ele>
        <time>2018-06-07T16:56:41Z</time>
      </trkpt>
      <trkpt lat="44.55278" lon="2.25848">
        <ele>205</ele>
        <time>2018-06-07T16:56:43Z</time>
      </trkpt>
      <trkpt lat="44.55277" lon="2.25845">
        <ele>204</ele>
        <time>2018-06-07T16:56:44Z</time>
      </trkpt>
      <trkpt lat="44.55275" lon="2.25842">
        <ele>203</ele>
        <time>2018-06-07T16:56:45Z</time>
      </trkpt>
      <trkpt lat="44.55273" lon="2.25837">
        <ele>202</ele>
        <time>2018-06-07T16:56:47Z</time>
      </trkpt>
      <trkpt lat="44.55271" lon="2.25834">
        <ele>201</ele>
        <time>2018-06-07T16:56:48Z</time>
      </trkpt>
      <trkpt lat="44.55267" lon="2.25831">
        <ele>197</ele>
        <time>2018-06-07T16:56:50Z</time>
      </trkpt>
      <trkpt lat="44.55265" lon="2.25826">
        <ele>197</ele>
        <time>2018-06-07T16:56:52Z</time>
      </trkpt>
      <trkpt lat="44.55263" lon="2.25821">
        <ele>197</ele>
        <time>2018-06-07T16:56:53Z</time>
      </trkpt>
      <trkpt lat="44.5526" lon="2.25816">
        <ele>197</ele>
        <time>2018-06-07T16:56:55Z</time>
      </trkpt>
      <trkpt lat="44.55256" lon="2.25809">
        <ele>198</ele>
        <time>2018-06-07T16:56:57Z</time>
      </trkpt>
      <trkpt lat="44.55255" lon="2.25805">
        <ele>198</ele>
        <time>2018-06-07T16:56:58Z</time>
      </trkpt>
      <trkpt lat="44.5525" lon="2.25798">
        <ele>199</ele>
        <time>2018-06-07T16:57:00Z</time>
      </trkpt>
      <trkpt lat="44.55248" lon="2.25794">
        <ele>196</ele>
        <time>2018-06-07T16:57:01Z</time>
      </trkpt>
      <trkpt lat="44.55246" lon="2.25789">
        <ele>196</ele>
        <time>2018-06-07T16:57:03Z</time>
      </trkpt>
      <trkpt lat="44.55244" lon="2.25784">
        <ele>197</ele>
        <time>2018-06-07T16:57:05Z</time>
      </trkpt>
      <trkpt lat="44.55242" lon="2.25781">
        <ele>197</ele>
        <time>2018-06-07T16:57:06Z</time>
      </trkpt>
      <trkpt lat="44.55238" lon="2.25775">
        <ele>197</ele>
        <time>2018-06-07T16:57:08Z</time>
      </trkpt>
      <trkpt lat="44.55233" lon="2.2577">
        <ele>198</ele>
        <time>2018-06-07T16:57:10Z</time>
      </trkpt>
      <trkpt lat="44.55228" lon="2.25767">
        <ele>198</ele>
        <time>2018-06-07T16:57:12Z</time>
      </trkpt>
      <trkpt lat="44.55226" lon="2.25764">
        <ele>198</ele>
        <time>2018-06-07T16:57:13Z</time>
      </trkpt>
      <trkpt lat="44.55222" lon="2.25762">
        <ele>199</ele>
        <time>2018-06-07T16:57:15Z</time>
      </trkpt>
      <trkpt lat="44.5522" lon="2.25759">
        <ele>199</ele>
        <time>2018-06-07T16:57:16Z</time>
      </trkpt>
      <trkpt lat="44.55217" lon="2.25757">
        <ele>199</ele>
        <time>2018-06-07T16:57:17Z</time>
      </trkpt>
      <trkpt lat="44.55212" lon="2.25755">
        <ele>200</ele>
        <time>2018-06-07T16:57:19Z</time>
      </trkpt>
      <trkpt lat="44.55208" lon="2.25753">
        <ele>201</ele>
        <time>2018-06-07T16:57:20Z</time>
      </trkpt>
      <trkpt lat="44.55206" lon="2.25752">
        <ele>201</ele>
        <time>2018-06-07T16:57:21Z</time>
      </trkpt>
      <trkpt lat="44.55202" lon="2.25752">
        <ele>202</ele>
        <time>2018-06-07T16:57:22Z</time>
      </trkpt>
      <trkpt lat="44.55199" lon="2.25752">
        <ele>202</ele>
        <time>2018-06-07T16:57:24Z</time>
      </trkpt>
      <trkpt lat="44.55196" lon="2.25751">
        <ele>203</ele>
        <time>2018-06-07T16:57:25Z</time>
      </trkpt>
      <trkpt lat="44.55192" lon="2.2575">
        <ele>204</ele>
        <time>2018-06-07T16:57:26Z</time>
      </trkpt>
      <trkpt lat="44.55186" lon="2.2575">
        <ele>206</ele>
        <time>2018-06-07T16:57:28Z</time>
      </trkpt>
      <trkpt lat="44.55182" lon="2.2575">
        <ele>222</ele>
        <time>2018-06-07T16:57:29Z</time>
      </trkpt>
      <trkpt lat="44.55179" lon="2.2575">
        <ele>221</ele>
        <time>2018-06-07T16:57:30Z</time>
      </trkpt>
      <trkpt lat="44.55177" lon="2.25751">
        <ele>210</ele>
        <time>2018-06-07T16:57:31Z</time>
      </trkpt>
      <trkpt lat="44.55172" lon="2.25752">
        <ele>212</ele>
        <time>2018-06-07T16:57:33Z</time>
      </trkpt>
      <trkpt lat="44.55169" lon="2.25755">
        <ele>212</ele>
        <time>2018-06-07T16:57:35Z</time>
      </trkpt>
      <trkpt lat="44.55166" lon="2.25758">
        <ele>215</ele>
        <time>2018-06-07T16:57:37Z</time>
      </trkpt>
      <trkpt lat="44.55162" lon="2.2576">
        <ele>214</ele>
        <time>2018-06-07T16:57:39Z</time>
      </trkpt>
      <trkpt lat="44.55159" lon="2.25763">
        <ele>214</ele>
        <time>2018-06-07T16:57:40Z</time>
      </trkpt>
      <trkpt lat="44.55157" lon="2.25765">
        <ele>214</ele>
        <time>2018-06-07T16:57:41Z</time>
      </trkpt>
      <trkpt lat="44.55154" lon="2.2577">
        <ele>213</ele>
        <time>2018-06-07T16:57:43Z</time>
      </trkpt>
      <trkpt lat="44.55152" lon="2.25775">
        <ele>212</ele>
        <time>2018-06-07T16:57:45Z</time>
      </trkpt>
      <trkpt lat="44.55149" lon="2.2578">
        <ele>211</ele>
        <time>2018-06-07T16:57:47Z</time>
      </trkpt>
      <trkpt lat="44.55143" lon="2.25783">
        <ele>211</ele>
        <time>2018-06-07T16:57:48Z</time>
      </trkpt>
      <trkpt lat="44.55136" lon="2.25787">
        <ele>211</ele>
        <time>2018-06-07T16:57:50Z</time>
      </trkpt>
      <trkpt lat="44.55132" lon="2.25787">
        <ele>212</ele>
        <time>2018-06-07T16:57:51Z</time>
      </trkpt>
      <trkpt lat="44.5513" lon="2.25792">
        <ele>211</ele>
        <time>2018-06-07T16:57:53Z</time>
      </trkpt>
      <trkpt lat="44.55127" lon="2.25794">
        <ele>211</ele>
        <time>2018-06-07T16:57:54Z</time>
      </trkpt>
      <trkpt lat="44.55125" lon="2.25796">
        <ele>211</ele>
        <time>2018-06-07T16:57:56Z</time>
      </trkpt>
      <trkpt lat="44.55122" lon="2.25798">
        <ele>211</ele>
        <time>2018-06-07T16:57:57Z</time>
      </trkpt>
      <trkpt lat="44.55119" lon="2.25799">
        <ele>211</ele>
        <time>2018-06-07T16:57:58Z</time>
      </trkpt>
      <trkpt lat="44.55117" lon="2.25802">
        <ele>211</ele>
        <time>2018-06-07T16:57:59Z</time>
      </trkpt>
      <trkpt lat="44.55112" lon="2.25803">
        <ele>211</ele>
        <time>2018-06-07T16:58:01Z</time>
      </trkpt>
      <trkpt lat="44.55109" lon="2.25804">
        <ele>211</ele>
        <time>2018-06-07T16:58:02Z</time>
      </trkpt>
      <trkpt lat="44.55106" lon="2.25808">
        <ele>210</ele>
        <time>2018-06-07T16:58:03Z</time>
      </trkpt>
      <trkpt lat="44.55102" lon="2.25806">
        <ele>211</ele>
        <time>2018-06-07T16:58:05Z</time>
      </trkpt>
      <trkpt lat="44.55098" lon="2.25807">
        <ele>211</ele>
        <time>2018-06-07T16:58:07Z</time>
      </trkpt>
      <trkpt lat="44.55094" lon="2.25808">
        <ele>211</ele>
        <time>2018-06-07T16:58:08Z</time>
      </trkpt>
      <trkpt lat="44.5509" lon="2.25811">
        <ele>210</ele>
        <time>2018-06-07T16:58:11Z</time>
      </trkpt>
      <trkpt lat="44.55087" lon="2.25811">
        <ele>210</ele>
        <time>2018-06-07T16:58:12Z</time>
      </trkpt>
      <trkpt lat="44.55081" lon="2.25811">
        <ele>221</ele>
        <time>2018-06-07T16:58:14Z</time>
      </trkpt>
      <trkpt lat="44.55078" lon="2.25809">
        <ele>222</ele>
        <time>2018-06-07T16:58:16Z</time>
      </trkpt>
      <trkpt lat="44.55072" lon="2.2581">
        <ele>222</ele>
        <time>2018-06-07T16:58:19Z</time>
      </trkpt>
      <trkpt lat="44.55068" lon="2.2581">
        <ele>223</ele>
        <time>2018-06-07T16:58:20Z</time>
      </trkpt>
      <trkpt lat="44.55066" lon="2.25812">
        <ele>223</ele>
        <time>2018-06-07T16:58:21Z</time>
      </trkpt>
      <trkpt lat="44.55062" lon="2.25812">
        <ele>224</ele>
        <time>2018-06-07T16:58:22Z</time>
      </trkpt>
      <trkpt lat="44.55059" lon="2.25813">
        <ele>224</ele>
        <time>2018-06-07T16:58:23Z</time>
      </trkpt>
      <trkpt lat="44.55054" lon="2.25816">
        <ele>224</ele>
        <time>2018-06-07T16:58:25Z</time>
      </trkpt>
      <trkpt lat="44.5505" lon="2.25818">
        <ele>224</ele>
        <time>2018-06-07T16:58:27Z</time>
      </trkpt>
      <trkpt lat="44.55046" lon="2.25817">
        <ele>225</ele>
        <time>2018-06-07T16:58:28Z</time>
      </trkpt>
      <trkpt lat="44.55042" lon="2.2582">
        <ele>225</ele>
        <time>2018-06-07T16:58:29Z</time>
      </trkpt>
      <trkpt lat="44.55038" lon="2.25822">
        <ele>225</ele>
        <time>2018-06-07T16:58:31Z</time>
      </trkpt>
      <trkpt lat="44.5503" lon="2.25823">
        <ele>226</ele>
        <time>2018-06-07T16:58:33Z</time>
      </trkpt>
      <trkpt lat="44.55027" lon="2.25821">
        <ele>226</ele>
        <time>2018-06-07T16:58:34Z</time>
      </trkpt>
      <trkpt lat="44.55024" lon="2.25827">
        <ele>224</ele>
        <time>2018-06-07T16:58:35Z</time>
      </trkpt>
      <trkpt lat="44.55016" lon="2.2583">
        <ele>223</ele>
        <time>2018-06-07T16:58:36Z</time>
      </trkpt>
      <trkpt lat="44.55013" lon="2.2583">
        <ele>222</ele>
        <time>2018-06-07T16:58:37Z</time>
      </trkpt>
      <trkpt lat="44.55014" lon="2.25834">
        <ele>207</ele>
        <time>2018-06-07T16:58:38Z</time>
      </trkpt>
      <trkpt lat="44.55012" lon="2.25837">
        <ele>208</ele>
        <time>2018-06-07T16:58:40Z</time>
      </trkpt>
      <trkpt lat="44.55008" lon="2.25838">
        <ele>210</ele>
        <time>2018-06-07T16:58:42Z</time>
      </trkpt>
      <trkpt lat="44.55001" lon="2.2584">
        <ele>211</ele>
        <time>2018-06-07T16:58:44Z</time>
      </trkpt>
      <trkpt lat="44.54998" lon="2.25841">
        <ele>215</ele>
        <time>2018-06-07T16:58:45Z</time>
      </trkpt>
      <trkpt lat="44.54994" lon="2.25842">
        <ele>215</ele>
        <time>2018-06-07T16:58:46Z</time>
      </trkpt>
      <trkpt lat="44.54986" lon="2.25845">
        <ele>216</ele>
        <time>2018-06-07T16:58:48Z</time>
      </trkpt>
      <trkpt lat="44.54985" lon="2.2585">
        <ele>215</ele>
        <time>2018-06-07T16:58:50Z</time>
      </trkpt>
      <trkpt lat="44.54982" lon="2.25848">
        <ele>216</ele>
        <time>2018-06-07T16:58:52Z</time>
      </trkpt>
      <trkpt lat="44.54977" lon="2.25854">
        <ele>216</ele>
        <time>2018-06-07T16:58:53Z</time>
      </trkpt>
      <trkpt lat="44.54979" lon="2.2586">
        <ele>215</ele>
        <time>2018-06-07T16:58:54Z</time>
      </trkpt>
      <trkpt lat="44.5497" lon="2.2586">
        <ele>216</ele>
        <time>2018-06-07T16:58:57Z</time>
      </trkpt>
      <trkpt lat="44.54967" lon="2.2586">
        <ele>216</ele>
        <time>2018-06-07T16:58:59Z</time>
      </trkpt>
      <trkpt lat="44.54965" lon="2.25862">
        <ele>217</ele>
        <time>2018-06-07T16:59:00Z</time>
      </trkpt>
      <trkpt lat="44.54957" lon="2.25861">
        <ele>218</ele>
        <time>2018-06-07T16:59:03Z</time>
      </trkpt>
      <trkpt lat="44.5495" lon="2.25864">
        <ele>219</ele>
        <time>2018-06-07T16:59:05Z</time>
      </trkpt>
      <trkpt lat="44.54945" lon="2.25863">
        <ele>221</ele>
        <time>2018-06-07T16:59:06Z</time>
      </trkpt>
      <trkpt lat="44.54937" lon="2.25863">
        <ele>223</ele>
        <time>2018-06-07T16:59:08Z</time>
      </trkpt>
      <trkpt lat="44.54934" lon="2.25866">
        <ele>222</ele>
        <time>2018-06-07T16:59:11Z</time>
      </trkpt>
      <trkpt lat="44.54929" lon="2.25867">
        <ele>223</ele>
        <time>2018-06-07T16:59:13Z</time>
      </trkpt>
      <trkpt lat="44.54926" lon="2.25867">
        <ele>223</ele>
        <time>2018-06-07T16:59:14Z</time>
      </trkpt>
      <trkpt lat="44.54924" lon="2.25868">
        <ele>223</ele>
        <time>2018-06-07T16:59:15Z</time>
      </trkpt>
      <trkpt lat="44.5492" lon="2.25872">
        <ele>222</ele>
        <time>2018-06-07T16:59:17Z</time>
      </trkpt>
      <trkpt lat="44.54918" lon="2.25875">
        <ele>221</ele>
        <time>2018-06-07T16:59:19Z</time>
      </trkpt>
      <trkpt lat="44.54914" lon="2.25879">
        <ele>234</ele>
        <time>2018-06-07T16:59:22Z</time>
      </trkpt>
      <trkpt lat="44.54911" lon="2.2588">
        <ele>234</ele>
        <time>2018-06-07T16:59:24Z</time>
      </trkpt>
      <trkpt lat="44.54907" lon="2.2588">
        <ele>234</ele>
        <time>2018-06-07T16:59:25Z</time>
      </trkpt>
      <trkpt lat="44.54904" lon="2.2588">
        <ele>234</ele>
        <time>2018-06-07T16:59:26Z</time>
      </trkpt>
      <trkpt lat="44.54898" lon="2.25881">
        <ele>234</ele>
        <time>2018-06-07T16:59:27Z</time>
      </trkpt>
      <trkpt lat="44.54895" lon="2.25882">
        <ele>234</ele>
        <time>2018-06-07T16:59:28Z</time>
      </trkpt>
      <trkpt lat="44.54892" lon="2.25883">
        <ele>234</ele>
        <time>2018-06-07T16:59:29Z</time>
      </trkpt>
      <trkpt lat="44.54887" lon="2.25884">
        <ele>235</ele>
        <time>2018-06-07T16:59:31Z</time>
      </trkpt>
      <trkpt lat="44.54884" lon="2.25884">
        <ele>235</ele>
        <time>2018-06-07T16:59:32Z</time>
      </trkpt>
      <trkpt lat="44.54878" lon="2.25885">
        <ele>235</ele>
        <time>2018-06-07T16:59:33Z</time>
      </trkpt>
      <trkpt lat="44.54874" lon="2.25885">
        <ele>236</ele>
        <time>2018-06-07T16:59:34Z</time>
      </trkpt>
      <trkpt lat="44.54871" lon="2.25884">
        <ele>236</ele>
        <time>2018-06-07T16:59:35Z</time>
      </trkpt>
      <trkpt lat="44.54866" lon="2.25885">
        <ele>236</ele>
        <time>2018-06-07T16:59:37Z</time>
      </trkpt>
      <trkpt lat="44.54863" lon="2.25886">
        <ele>237</ele>
        <time>2018-06-07T16:59:38Z</time>
      </trkpt>
      <trkpt lat="44.5486" lon="2.25887">
        <ele>236</ele>
        <time>2018-06-07T16:59:40Z</time>
      </trkpt>
      <trkpt lat="44.54856" lon="2.25887">
        <ele>237</ele>
        <time>2018-06-07T16:59:41Z</time>
      </trkpt>
      <trkpt lat="44.54851" lon="2.25889">
        <ele>236</ele>
        <time>2018-06-07T16:59:43Z</time>
      </trkpt>
      <trkpt lat="44.54843" lon="2.2589">
        <ele>236</ele>
        <time>2018-06-07T16:59:46Z</time>
      </trkpt>
      <trkpt lat="44.54838" lon="2.25889">
        <ele>236</ele>
        <time>2018-06-07T16:59:48Z</time>
      </trkpt>
      <trkpt lat="44.54831" lon="2.25889">
        <ele>245</ele>
        <time>2018-06-07T16:59:50Z</time>
      </trkpt>
      <trkpt lat="44.54828" lon="2.25888">
        <ele>246</ele>
        <time>2018-06-07T16:59:51Z</time>
      </trkpt>
      <trkpt lat="44.54821" lon="2.25889">
        <ele>246</ele>
        <time>2018-06-07T16:59:53Z</time>
      </trkpt>
      <trkpt lat="44.54814" lon="2.25889">
        <ele>247</ele>
        <time>2018-06-07T16:59:54Z</time>
      </trkpt>
      <trkpt lat="44.5481" lon="2.25888">
        <ele>248</ele>
        <time>2018-06-07T16:59:56Z</time>
      </trkpt>
      <trkpt lat="44.54806" lon="2.2589">
        <ele>248</ele>
        <time>2018-06-07T16:59:58Z</time>
      </trkpt>
      <trkpt lat="44.54799" lon="2.2589">
        <ele>249</ele>
        <time>2018-06-07T17:00:03Z</time>
      </trkpt>
      <trkpt lat="44.5479" lon="2.25889">
        <ele>251</ele>
        <time>2018-06-07T17:00:05Z</time>
      </trkpt>
      <trkpt lat="44.54787" lon="2.25889">
        <ele>251</ele>
        <time>2018-06-07T17:00:07Z</time>
      </trkpt>
      <trkpt lat="44.54782" lon="2.2589">
        <ele>251</ele>
        <time>2018-06-07T17:00:09Z</time>
      </trkpt>
      <trkpt lat="44.54778" lon="2.25891">
        <ele>251</ele>
        <time>2018-06-07T17:00:10Z</time>
      </trkpt>
      <trkpt lat="44.54774" lon="2.25892">
        <ele>251</ele>
        <time>2018-06-07T17:00:12Z</time>
      </trkpt>
      <trkpt lat="44.54771" lon="2.25894">
        <ele>251</ele>
        <time>2018-06-07T17:00:14Z</time>
      </trkpt>
      <trkpt lat="44.54768" lon="2.25896">
        <ele>251</ele>
        <time>2018-06-07T17:00:17Z</time>
      </trkpt>
      <trkpt lat="44.54764" lon="2.25899">
        <ele>251</ele>
        <time>2018-06-07T17:00:19Z</time>
      </trkpt>
      <trkpt lat="44.54761" lon="2.25898">
        <ele>251</ele>
        <time>2018-06-07T17:00:20Z</time>
      </trkpt>
      <trkpt lat="44.54757" lon="2.25899">
        <ele>251</ele>
        <time>2018-06-07T17:00:21Z</time>
      </trkpt>
      <trkpt lat="44.54754" lon="2.25899">
        <ele>251</ele>
        <time>2018-06-07T17:00:23Z</time>
      </trkpt>
      <trkpt lat="44.54747" lon="2.25901">
        <ele>256</ele>
        <time>2018-06-07T17:00:28Z</time>
      </trkpt>
      <trkpt lat="44.54742" lon="2.25904">
        <ele>256</ele>
        <time>2018-06-07T17:00:30Z</time>
      </trkpt>
      <trkpt lat="44.54735" lon="2.25904">
        <ele>258</ele>
        <time>2018-06-07T17:00:33Z</time>
      </trkpt>
      <trkpt lat="44.54732" lon="2.25904">
        <ele>259</ele>
        <time>2018-06-07T17:00:34Z</time>
      </trkpt>
      <trkpt lat="44.54728" lon="2.25902">
        <ele>260</ele>
        <time>2018-06-07T17:00:35Z</time>
      </trkpt>
      <trkpt lat="44.54723" lon="2.25902">
        <ele>261</ele>
        <time>2018-06-07T17:00:36Z</time>
      </trkpt>
      <trkpt lat="44.54718" lon="2.25903">
        <ele>262</ele>
        <time>2018-06-07T17:00:37Z</time>
      </trkpt>
      <trkpt lat="44.54713" lon="2.25901">
        <ele>263</ele>
        <time>2018-06-07T17:00:39Z</time>
      </trkpt>
      <trkpt lat="44.54706" lon="2.259">
        <ele>264</ele>
        <time>2018-06-07T17:00:41Z</time>
      </trkpt>
      <trkpt lat="44.54692" lon="2.259">
        <ele>265</ele>
        <time>2018-06-07T17:00:53Z</time>
      </trkpt>
      <trkpt lat="44.54691" lon="2.25896">
        <ele>265</ele>
        <time>2018-06-07T17:00:58Z</time>
      </trkpt>
      <trkpt lat="44.54688" lon="2.25898">
        <ele>265</ele>
        <time>2018-06-07T17:01:04Z</time>
      </trkpt>
      <trkpt lat="44.54684" lon="2.25898">
        <ele>265</ele>
        <time>2018-06-07T17:01:07Z</time>
      </trkpt>
      <trkpt lat="44.54674" lon="2.25895">
        <ele>266</ele>
        <time>2018-06-07T17:01:16Z</time>
      </trkpt>
      <trkpt lat="44.54675" lon="2.25899">
        <ele>265</ele>
        <time>2018-06-07T17:01:19Z</time>
      </trkpt>
      <trkpt lat="44.54671" lon="2.25898">
        <ele>265</ele>
        <time>2018-06-07T17:01:21Z</time>
      </trkpt>
      <trkpt lat="44.54667" lon="2.25896">
        <ele>266</ele>
        <time>2018-06-07T17:01:23Z</time>
      </trkpt>
      <trkpt lat="44.54664" lon="2.25895">
        <ele>275</ele>
        <time>2018-06-07T17:01:25Z</time>
      </trkpt>
      <trkpt lat="44.54661" lon="2.25896">
        <ele>275</ele>
        <time>2018-06-07T17:01:27Z</time>
      </trkpt>
      <trkpt lat="44.54658" lon="2.25894">
        <ele>276</ele>
        <time>2018-06-07T17:01:31Z</time>
      </trkpt>
      <trkpt lat="44.54656" lon="2.25893">
        <ele>277</ele>
        <time>2018-06-07T17:01:33Z</time>
      </trkpt>
      <trkpt lat="44.54652" lon="2.25891">
        <ele>278</ele>
        <time>2018-06-07T17:01:36Z</time>
      </trkpt>
      <trkpt lat="44.54649" lon="2.2589">
        <ele>279</ele>
        <time>2018-06-07T17:01:38Z</time>
      </trkpt>
      <trkpt lat="44.54646" lon="2.2589">
        <ele>280</ele>
        <time>2018-06-07T17:01:40Z</time>
      </trkpt>
      <trkpt lat="44.54642" lon="2.25889">
        <ele>280</ele>
        <time>2018-06-07T17:01:43Z</time>
      </trkpt>
      <trkpt lat="44.54638" lon="2.25889">
        <ele>281</ele>
        <time>2018-06-07T17:01:46Z</time>
      </trkpt>
      <trkpt lat="44.54635" lon="2.2589">
        <ele>281</ele>
        <time>2018-06-07T17:01:48Z</time>
      </trkpt>
      <trkpt lat="44.54631" lon="2.2589">
        <ele>282</ele>
        <time>2018-06-07T17:01:52Z</time>
      </trkpt>
      <trkpt lat="44.54628" lon="2.25891">
        <ele>283</ele>
        <time>2018-06-07T17:01:53Z</time>
      </trkpt>
      <trkpt lat="44.54624" lon="2.25892">
        <ele>283</ele>
        <time>2018-06-07T17:01:54Z</time>
      </trkpt>
      <trkpt lat="44.5462" lon="2.25891">
        <ele>284</ele>
        <time>2018-06-07T17:01:55Z</time>
      </trkpt>
      <trkpt lat="44.54616" lon="2.2589">
        <ele>284</ele>
        <time>2018-06-07T17:01:56Z</time>
      </trkpt>
      <trkpt lat="44.54629" lon="2.25906">
        <ele>281</ele>
        <time>2018-06-07T17:01:58Z</time>
      </trkpt>
      <trkpt lat="44.54632" lon="2.25906">
        <ele>280</ele>
        <time>2018-06-07T17:01:59Z</time>
      </trkpt>
      <trkpt lat="44.54623" lon="2.25899">
        <ele>282</ele>
        <time>2018-06-07T17:02:00Z</time>
      </trkpt>
      <trkpt lat="44.54628" lon="2.25904">
        <ele>281</ele>
        <time>2018-06-07T17:02:01Z</time>
      </trkpt>
      <trkpt lat="44.54629" lon="2.25911">
        <ele>280</ele>
        <time>2018-06-07T17:02:02Z</time>
      </trkpt>
      <trkpt lat="44.54629" lon="2.25915">
        <ele>280</ele>
        <time>2018-06-07T17:02:04Z</time>
      </trkpt>
      <trkpt lat="44.54626" lon="2.2591">
        <ele>281</ele>
        <time>2018-06-07T17:02:05Z</time>
      </trkpt>
      <trkpt lat="44.54624" lon="2.25906">
        <ele>282</ele>
        <time>2018-06-07T17:02:06Z</time>
      </trkpt>
      <trkpt lat="44.54623" lon="2.25902">
        <ele>282</ele>
        <time>2018-06-07T17:02:07Z</time>
      </trkpt>
      <trkpt lat="44.5462" lon="2.25905">
        <ele>282</ele>
        <time>2018-06-07T17:02:08Z</time>
      </trkpt>
      <trkpt lat="44.54614" lon="2.2591">
        <ele>283</ele>
        <time>2018-06-07T17:02:11Z</time>
      </trkpt>
      <trkpt lat="44.5461" lon="2.25917">
        <ele>275</ele>
        <time>2018-06-07T17:02:13Z</time>
      </trkpt>
      <trkpt lat="44.54613" lon="2.25918">
        <ele>275</ele>
        <time>2018-06-07T17:02:14Z</time>
      </trkpt>
      <trkpt lat="44.54611" lon="2.25924">
        <ele>275</ele>
        <time>2018-06-07T17:02:16Z</time>
      </trkpt>
      <trkpt lat="44.54609" lon="2.2593">
        <ele>275</ele>
        <time>2018-06-07T17:02:17Z</time>
      </trkpt>
      <trkpt lat="44.54606" lon="2.25938">
        <ele>275</ele>
        <time>2018-06-07T17:02:19Z</time>
      </trkpt>
      <trkpt lat="44.54607" lon="2.25944">
        <ele>275</ele>
        <time>2018-06-07T17:02:20Z</time>
      </trkpt>
      <trkpt lat="44.54607" lon="2.2595">
        <ele>274</ele>
        <time>2018-06-07T17:02:22Z</time>
      </trkpt>
      <trkpt lat="44.54607" lon="2.25954">
        <ele>274</ele>
        <time>2018-06-07T17:02:23Z</time>
      </trkpt>
      <trkpt lat="44.54605" lon="2.25957">
        <ele>274</ele>
        <time>2018-06-07T17:02:24Z</time>
      </trkpt>
      <trkpt lat="44.54608" lon="2.2596">
        <ele>274</ele>
        <time>2018-06-07T17:02:26Z</time>
      </trkpt>
      <trkpt lat="44.54606" lon="2.25966">
        <ele>274</ele>
        <time>2018-06-07T17:02:27Z</time>
      </trkpt>
      <trkpt lat="44.54605" lon="2.25975">
        <ele>275</ele>
        <time>2018-06-07T17:02:29Z</time>
      </trkpt>
      <trkpt lat="44.54605" lon="2.2598">
        <ele>275</ele>
        <time>2018-06-07T17:02:31Z</time>
      </trkpt>
      <trkpt lat="44.54604" lon="2.25986">
        <ele>276</ele>
        <time>2018-06-07T17:02:32Z</time>
      </trkpt>
      <trkpt lat="44.54607" lon="2.2599">
        <ele>275</ele>
        <time>2018-06-07T17:02:34Z</time>
      </trkpt>
      <trkpt lat="44.54606" lon="2.25995">
        <ele>276</ele>
        <time>2018-06-07T17:02:36Z</time>
      </trkpt>
      <trkpt lat="44.54606" lon="2.26001">
        <ele>276</ele>
        <time>2018-06-07T17:02:37Z</time>
      </trkpt>
      <trkpt lat="44.54605" lon="2.26006">
        <ele>276</ele>
        <time>2018-06-07T17:02:38Z</time>
      </trkpt>
      <trkpt lat="44.54605" lon="2.26011">
        <ele>276</ele>
        <time>2018-06-07T17:02:40Z</time>
      </trkpt>
      <trkpt lat="44.54604" lon="2.26016">
        <ele>276</ele>
        <time>2018-06-07T17:02:41Z</time>
      </trkpt>
      <trkpt lat="44.54604" lon="2.26021">
        <ele>276</ele>
        <time>2018-06-07T17:02:42Z</time>
      </trkpt>
      <trkpt lat="44.54604" lon="2.26027">
        <ele>276</ele>
        <time>2018-06-07T17:02:43Z</time>
      </trkpt>
      <trkpt lat="44.54606" lon="2.26031">
        <ele>275</ele>
        <time>2018-06-07T17:02:45Z</time>
      </trkpt>
      <trkpt lat="44.54606" lon="2.26035">
        <ele>275</ele>
        <time>2018-06-07T17:02:46Z</time>
      </trkpt>
      <trkpt lat="44.54606" lon="2.26041">
        <ele>275</ele>
        <time>2018-06-07T17:02:47Z</time>
      </trkpt>
      <trkpt lat="44.54606" lon="2.26045">
        <ele>276</ele>
        <time>2018-06-07T17:02:48Z</time>
      </trkpt>
      <trkpt lat="44.54606" lon="2.26049">
        <ele>276</ele>
        <time>2018-06-07T17:02:49Z</time>
      </trkpt>
      <trkpt lat="44.54606" lon="2.26054">
        <ele>276</ele>
        <time>2018-06-07T17:02:50Z</time>
      </trkpt>
      <trkpt lat="44.54607" lon="2.26058">
        <ele>276</ele>
        <time>2018-06-07T17:02:51Z</time>
      </trkpt>
      <trkpt lat="44.54607" lon="2.26063">
        <ele>277</ele>
        <time>2018-06-07T17:02:53Z</time>
      </trkpt>
      <trkpt lat="44.54607" lon="2.26067">
        <ele>277</ele>
        <time>2018-06-07T17:02:54Z</time>
      </trkpt>
      <trkpt lat="44.54609" lon="2.26072">
        <ele>277</ele>
        <time>2018-06-07T17:02:55Z</time>
      </trkpt>
      <trkpt lat="44.54609" lon="2.26078">
        <ele>278</ele>
        <time>2018-06-07T17:02:57Z</time>
      </trkpt>
      <trkpt lat="44.5461" lon="2.26083">
        <ele>277</ele>
        <time>2018-06-07T17:02:59Z</time>
      </trkpt>
      <trkpt lat="44.54611" lon="2.2609">
        <ele>280</ele>
        <time>2018-06-07T17:03:01Z</time>
      </trkpt>
      <trkpt lat="44.54612" lon="2.26094">
        <ele>279</ele>
        <time>2018-06-07T17:03:02Z</time>
      </trkpt>
      <trkpt lat="44.54611" lon="2.26104">
        <ele>279</ele>
        <time>2018-06-07T17:03:04Z</time>
      </trkpt>
      <trkpt lat="44.54613" lon="2.26111">
        <ele>279</ele>
        <time>2018-06-07T17:03:06Z</time>
      </trkpt>
      <trkpt lat="44.54613" lon="2.26115">
        <ele>279</ele>
        <time>2018-06-07T17:03:07Z</time>
      </trkpt>
      <trkpt lat="44.54613" lon="2.26119">
        <ele>279</ele>
        <time>2018-06-07T17:03:08Z</time>
      </trkpt>
      <trkpt lat="44.54614" lon="2.26125">
        <ele>279</ele>
        <time>2018-06-07T17:03:09Z</time>
      </trkpt>
      <trkpt lat="44.54615" lon="2.26129">
        <ele>279</ele>
        <time>2018-06-07T17:03:10Z</time>
      </trkpt>
      <trkpt lat="44.54615" lon="2.26133">
        <ele>279</ele>
        <time>2018-06-07T17:03:11Z</time>
      </trkpt>
      <trkpt lat="44.54615" lon="2.26137">
        <ele>279</ele>
        <time>2018-06-07T17:03:12Z</time>
      </trkpt>
      <trkpt lat="44.54615" lon="2.26144">
        <ele>280</ele>
        <time>2018-06-07T17:03:14Z</time>
      </trkpt>
      <trkpt lat="44.54617" lon="2.26151">
        <ele>280</ele>
        <time>2018-06-07T17:03:16Z</time>
      </trkpt>
      <trkpt lat="44.54618" lon="2.26159">
        <ele>280</ele>
        <time>2018-06-07T17:03:18Z</time>
      </trkpt>
      <trkpt lat="44.54619" lon="2.26166">
        <ele>280</ele>
        <time>2018-06-07T17:03:20Z</time>
      </trkpt>
      <trkpt lat="44.54621" lon="2.26173">
        <ele>283</ele>
        <time>2018-06-07T17:03:22Z</time>
      </trkpt>
      <trkpt lat="44.5462" lon="2.26177">
        <ele>283</ele>
        <time>2018-06-07T17:03:24Z</time>
      </trkpt>
      <trkpt lat="44.54621" lon="2.26181">
        <ele>283</ele>
        <time>2018-06-07T17:03:25Z</time>
      </trkpt>
      <trkpt lat="44.54622" lon="2.26187">
        <ele>283</ele>
        <time>2018-06-07T17:03:27Z</time>
      </trkpt>
      <trkpt lat="44.54622" lon="2.26191">
        <ele>283</ele>
        <time>2018-06-07T17:03:28Z</time>
      </trkpt>
      <trkpt lat="44.54622" lon="2.26198">
        <ele>283</ele>
        <time>2018-06-07T17:03:30Z</time>
      </trkpt>
      <trkpt lat="44.54621" lon="2.26205">
        <ele>283</ele>
        <time>2018-06-07T17:03:32Z</time>
      </trkpt>
      <trkpt lat="44.54622" lon="2.2621">
        <ele>284</ele>
        <time>2018-06-07T17:03:34Z</time>
      </trkpt>
      <trkpt lat="44.54622" lon="2.26216">
        <ele>284</ele>
        <time>2018-06-07T17:03:36Z</time>
      </trkpt>
      <trkpt lat="44.54621" lon="2.26224">
        <ele>284</ele>
        <time>2018-06-07T17:03:37Z</time>
      </trkpt>
      <trkpt lat="44.54621" lon="2.26231">
        <ele>285</ele>
        <time>2018-06-07T17:03:39Z</time>
      </trkpt>
      <trkpt lat="44.54621" lon="2.26235">
        <ele>285</ele>
        <time>2018-06-07T17:03:40Z</time>
      </trkpt>
      <trkpt lat="44.54622" lon="2.26241">
        <ele>285</ele>
        <time>2018-06-07T17:03:42Z</time>
      </trkpt>
      <trkpt lat="44.54622" lon="2.26246">
        <ele>285</ele>
        <time>2018-06-07T17:03:44Z</time>
      </trkpt>
      <trkpt lat="44.54622" lon="2.26274">
        <ele>292</ele>
        <time>2018-06-07T17:03:57Z</time>
      </trkpt>
      <trkpt lat="44.54622" lon="2.26278">
        <ele>293</ele>
        <time>2018-06-07T17:03:59Z</time>
      </trkpt>
      <trkpt lat="44.54621" lon="2.26285">
        <ele>293</ele>
        <time>2018-06-07T17:04:01Z</time>
      </trkpt>
      <trkpt lat="44.54621" lon="2.26291">
        <ele>294</ele>
        <time>2018-06-07T17:04:03Z</time>
      </trkpt>
      <trkpt lat="44.54622" lon="2.26296">
        <ele>294</ele>
        <time>2018-06-07T17:04:05Z</time>
      </trkpt>
      <trkpt lat="44.54622" lon="2.26301">
        <ele>294</ele>
        <time>2018-06-07T17:04:07Z</time>
      </trkpt>
      <trkpt lat="44.54622" lon="2.26306">
        <ele>295</ele>
        <time>2018-06-07T17:04:09Z</time>
      </trkpt>
      <trkpt lat="44.54622" lon="2.2631">
        <ele>295</ele>
        <time>2018-06-07T17:04:11Z</time>
      </trkpt>
      <trkpt lat="44.54622" lon="2.26315">
        <ele>295</ele>
        <time>2018-06-07T17:04:13Z</time>
      </trkpt>
      <trkpt lat="44.54622" lon="2.26321">
        <ele>296</ele>
        <time>2018-06-07T17:04:16Z</time>
      </trkpt>
      <trkpt lat="44.54623" lon="2.26325">
        <ele>296</ele>
        <time>2018-06-07T17:04:18Z</time>
      </trkpt>
      <trkpt lat="44.54623" lon="2.2633">
        <ele>296</ele>
        <time>2018-06-07T17:04:20Z</time>
      </trkpt>
      <trkpt lat="44.54623" lon="2.26335">
        <ele>303</ele>
        <time>2018-06-07T17:04:23Z</time>
      </trkpt>
      <trkpt lat="44.54623" lon="2.2634">
        <ele>303</ele>
        <time>2018-06-07T17:04:25Z</time>
      </trkpt>
      <trkpt lat="44.54622" lon="2.26344">
        <ele>303</ele>
        <time>2018-06-07T17:04:27Z</time>
      </trkpt>
      <trkpt lat="44.54622" lon="2.26349">
        <ele>304</ele>
        <time>2018-06-07T17:04:29Z</time>
      </trkpt>
      <trkpt lat="44.54622" lon="2.26354">
        <ele>304</ele>
        <time>2018-06-07T17:04:31Z</time>
      </trkpt>
      <trkpt lat="44.54622" lon="2.26358">
        <ele>304</ele>
        <time>2018-06-07T17:04:33Z</time>
      </trkpt>
      <trkpt lat="44.54622" lon="2.26363">
        <ele>304</ele>
        <time>2018-06-07T17:04:35Z</time>
      </trkpt>
      <trkpt lat="44.54622" lon="2.26367">
        <ele>304</ele>
        <time>2018-06-07T17:04:37Z</time>
      </trkpt>
      <trkpt lat="44.54622" lon="2.26372">
        <ele>305</ele>
        <time>2018-06-07T17:04:39Z</time>
      </trkpt>
      <trkpt lat="44.54623" lon="2.26377">
        <ele>305</ele>
        <time>2018-06-07T17:04:42Z</time>
      </trkpt>
      <trkpt lat="44.54624" lon="2.26381">
        <ele>305</ele>
        <time>2018-06-07T17:04:44Z</time>
      </trkpt>
      <trkpt lat="44.54625" lon="2.26385">
        <ele>305</ele>
        <time>2018-06-07T17:04:46Z</time>
      </trkpt>
      <trkpt lat="44.54626" lon="2.2639">
        <ele>305</ele>
        <time>2018-06-07T17:04:48Z</time>
      </trkpt>
      <trkpt lat="44.54626" lon="2.26395">
        <ele>305</ele>
        <time>2018-06-07T17:04:50Z</time>
      </trkpt>
      <trkpt lat="44.54626" lon="2.264">
        <ele>306</ele>
        <time>2018-06-07T17:04:52Z</time>
      </trkpt>
      <trkpt lat="44.54626" lon="2.26406">
        <ele>306</ele>
        <time>2018-06-07T17:04:54Z</time>
      </trkpt>
      <trkpt lat="44.54627" lon="2.26412">
        <ele>306</ele>
        <time>2018-06-07T17:04:57Z</time>
      </trkpt>
      <trkpt lat="44.54627" lon="2.26417">
        <ele>311</ele>
        <time>2018-06-07T17:04:59Z</time>
      </trkpt>
      <trkpt lat="44.54626" lon="2.26422">
        <ele>312</ele>
        <time>2018-06-07T17:05:01Z</time>
      </trkpt>
      <trkpt lat="44.54627" lon="2.26426">
        <ele>312</ele>
        <time>2018-06-07T17:05:03Z</time>
      </trkpt>
      <trkpt lat="44.54626" lon="2.2643">
        <ele>312</ele>
        <time>2018-06-07T17:05:05Z</time>
      </trkpt>
      <trkpt lat="44.54627" lon="2.26435">
        <ele>312</ele>
        <time>2018-06-07T17:05:06Z</time>
      </trkpt>
      <trkpt lat="44.54626" lon="2.26439">
        <ele>312</ele>
        <time>2018-06-07T17:05:08Z</time>
      </trkpt>
      <trkpt lat="44.54627" lon="2.26443">
        <ele>312</ele>
        <time>2018-06-07T17:05:11Z</time>
      </trkpt>
      <trkpt lat="44.54627" lon="2.26448">
        <ele>313</ele>
        <time>2018-06-07T17:05:13Z</time>
      </trkpt>
      <trkpt lat="44.54628" lon="2.26454">
        <ele>313</ele>
        <time>2018-06-07T17:05:16Z</time>
      </trkpt>
      <trkpt lat="44.54627" lon="2.26459">
        <ele>313</ele>
        <time>2018-06-07T17:05:17Z</time>
      </trkpt>
      <trkpt lat="44.54629" lon="2.26464">
        <ele>313</ele>
        <time>2018-06-07T17:05:20Z</time>
      </trkpt>
      <trkpt lat="44.5463" lon="2.26469">
        <ele>313</ele>
        <time>2018-06-07T17:05:22Z</time>
      </trkpt>
      <trkpt lat="44.54631" lon="2.26472">
        <ele>313</ele>
        <time>2018-06-07T17:05:24Z</time>
      </trkpt>
      <trkpt lat="44.54631" lon="2.26477">
        <ele>314</ele>
        <time>2018-06-07T17:05:26Z</time>
      </trkpt>
      <trkpt lat="44.54632" lon="2.26481">
        <ele>313</ele>
        <time>2018-06-07T17:05:28Z</time>
      </trkpt>
      <trkpt lat="44.54633" lon="2.26486">
        <ele>314</ele>
        <time>2018-06-07T17:05:30Z</time>
      </trkpt>
      <trkpt lat="44.54633" lon="2.26492">
        <ele>314</ele>
        <time>2018-06-07T17:05:32Z</time>
      </trkpt>
      <trkpt lat="44.54635" lon="2.26497">
        <ele>313</ele>
        <time>2018-06-07T17:05:34Z</time>
      </trkpt>
      <trkpt lat="44.54635" lon="2.26501">
        <ele>318</ele>
        <time>2018-06-07T17:05:36Z</time>
      </trkpt>
      <trkpt lat="44.54635" lon="2.26507">
        <ele>318</ele>
        <time>2018-06-07T17:05:38Z</time>
      </trkpt>
      <trkpt lat="44.54635" lon="2.26511">
        <ele>318</ele>
        <time>2018-06-07T17:05:40Z</time>
      </trkpt>
      <trkpt lat="44.54636" lon="2.26516">
        <ele>318</ele>
        <time>2018-06-07T17:05:42Z</time>
      </trkpt>
      <trkpt lat="44.54637" lon="2.26521">
        <ele>318</ele>
        <time>2018-06-07T17:05:44Z</time>
      </trkpt>
      <trkpt lat="44.54638" lon="2.26526">
        <ele>318</ele>
        <time>2018-06-07T17:05:47Z</time>
      </trkpt>
      <trkpt lat="44.54637" lon="2.26531">
        <ele>319</ele>
        <time>2018-06-07T17:05:49Z</time>
      </trkpt>
      <trkpt lat="44.54639" lon="2.26537">
        <ele>319</ele>
        <time>2018-06-07T17:05:51Z</time>
      </trkpt>
      <trkpt lat="44.54639" lon="2.26541">
        <ele>319</ele>
        <time>2018-06-07T17:05:52Z</time>
      </trkpt>
      <trkpt lat="44.54639" lon="2.26548">
        <ele>319</ele>
        <time>2018-06-07T17:05:54Z</time>
      </trkpt>
      <trkpt lat="44.54642" lon="2.26554">
        <ele>319</ele>
        <time>2018-06-07T17:05:56Z</time>
      </trkpt>
      <trkpt lat="44.54642" lon="2.2656">
        <ele>319</ele>
        <time>2018-06-07T17:05:58Z</time>
      </trkpt>
      <trkpt lat="44.54642" lon="2.26565">
        <ele>319</ele>
        <time>2018-06-07T17:05:59Z</time>
      </trkpt>
      <trkpt lat="44.54642" lon="2.26569">
        <ele>318</ele>
        <time>2018-06-07T17:06:00Z</time>
      </trkpt>
      <trkpt lat="44.54643" lon="2.26573">
        <ele>318</ele>
        <time>2018-06-07T17:06:01Z</time>
      </trkpt>
      <trkpt lat="44.54645" lon="2.26579">
        <ele>318</ele>
        <time>2018-06-07T17:06:03Z</time>
      </trkpt>
      <trkpt lat="44.54646" lon="2.26583">
        <ele>318</ele>
        <time>2018-06-07T17:06:04Z</time>
      </trkpt>
      <trkpt lat="44.54647" lon="2.2659">
        <ele>319</ele>
        <time>2018-06-07T17:06:06Z</time>
      </trkpt>
      <trkpt lat="44.54648" lon="2.26597">
        <ele>320</ele>
        <time>2018-06-07T17:06:08Z</time>
      </trkpt>
      <trkpt lat="44.54649" lon="2.26604">
        <ele>320</ele>
        <time>2018-06-07T17:06:10Z</time>
      </trkpt>
      <trkpt lat="44.54652" lon="2.26611">
        <ele>321</ele>
        <time>2018-06-07T17:06:12Z</time>
      </trkpt>
      <trkpt lat="44.54654" lon="2.26617">
        <ele>321</ele>
        <time>2018-06-07T17:06:14Z</time>
      </trkpt>
      <trkpt lat="44.54656" lon="2.26623">
        <ele>321</ele>
        <time>2018-06-07T17:06:16Z</time>
      </trkpt>
      <trkpt lat="44.54657" lon="2.26627">
        <ele>321</ele>
        <time>2018-06-07T17:06:17Z</time>
      </trkpt>
      <trkpt lat="44.54658" lon="2.26634">
        <ele>322</ele>
        <time>2018-06-07T17:06:19Z</time>
      </trkpt>
      <trkpt lat="44.54659" lon="2.26639">
        <ele>321</ele>
        <time>2018-06-07T17:06:20Z</time>
      </trkpt>
      <trkpt lat="44.54662" lon="2.26644">
        <ele>321</ele>
        <time>2018-06-07T17:06:22Z</time>
      </trkpt>
      <trkpt lat="44.54664" lon="2.26648">
        <ele>321</ele>
        <time>2018-06-07T17:06:23Z</time>
      </trkpt>
      <trkpt lat="44.54665" lon="2.26654">
        <ele>320</ele>
        <time>2018-06-07T17:06:25Z</time>
      </trkpt>
      <trkpt lat="44.54668" lon="2.26659">
        <ele>315</ele>
        <time>2018-06-07T17:06:27Z</time>
      </trkpt>
      <trkpt lat="44.54669" lon="2.26663">
        <ele>316</ele>
        <time>2018-06-07T17:06:28Z</time>
      </trkpt>
      <trkpt lat="44.54671" lon="2.26668">
        <ele>318</ele>
        <time>2018-06-07T17:06:30Z</time>
      </trkpt>
      <trkpt lat="44.54672" lon="2.26674">
        <ele>318</ele>
        <time>2018-06-07T17:06:32Z</time>
      </trkpt>
      <trkpt lat="44.54673" lon="2.26681">
        <ele>318</ele>
        <time>2018-06-07T17:06:34Z</time>
      </trkpt>
      <trkpt lat="44.54674" lon="2.26685">
        <ele>318</ele>
        <time>2018-06-07T17:06:36Z</time>
      </trkpt>
      <trkpt lat="44.54675" lon="2.2669">
        <ele>318</ele>
        <time>2018-06-07T17:06:38Z</time>
      </trkpt>
      <trkpt lat="44.54677" lon="2.26696">
        <ele>318</ele>
        <time>2018-06-07T17:06:40Z</time>
      </trkpt>
      <trkpt lat="44.5468" lon="2.26702">
        <ele>319</ele>
        <time>2018-06-07T17:06:42Z</time>
      </trkpt>
      <trkpt lat="44.54681" lon="2.26707">
        <ele>319</ele>
        <time>2018-06-07T17:06:44Z</time>
      </trkpt>
      <trkpt lat="44.54682" lon="2.26711">
        <ele>319</ele>
        <time>2018-06-07T17:06:45Z</time>
      </trkpt>
      <trkpt lat="44.54684" lon="2.26715">
        <ele>319</ele>
        <time>2018-06-07T17:06:46Z</time>
      </trkpt>
      <trkpt lat="44.54686" lon="2.2672">
        <ele>320</ele>
        <time>2018-06-07T17:06:48Z</time>
      </trkpt>
      <trkpt lat="44.54687" lon="2.26726">
        <ele>320</ele>
        <time>2018-06-07T17:06:50Z</time>
      </trkpt>
      <trkpt lat="44.54689" lon="2.26732">
        <ele>320</ele>
        <time>2018-06-07T17:06:52Z</time>
      </trkpt>
      <trkpt lat="44.5469" lon="2.26738">
        <ele>321</ele>
        <time>2018-06-07T17:06:54Z</time>
      </trkpt>
      <trkpt lat="44.54689" lon="2.26744">
        <ele>321</ele>
        <time>2018-06-07T17:06:57Z</time>
      </trkpt>
      <trkpt lat="44.54677" lon="2.26753">
        <ele>326</ele>
        <time>2018-06-07T17:07:04Z</time>
      </trkpt>
      <trkpt lat="44.54674" lon="2.26753">
        <ele>326</ele>
        <time>2018-06-07T17:07:05Z</time>
      </trkpt>
      <trkpt lat="44.54671" lon="2.26753">
        <ele>325</ele>
        <time>2018-06-07T17:07:06Z</time>
      </trkpt>
      <trkpt lat="44.54666" lon="2.26759">
        <ele>326</ele>
        <time>2018-06-07T17:07:08Z</time>
      </trkpt>
      <trkpt lat="44.54663" lon="2.26757">
        <ele>326</ele>
        <time>2018-06-07T17:07:09Z</time>
      </trkpt>
      <trkpt lat="44.54658" lon="2.2676">
        <ele>327</ele>
        <time>2018-06-07T17:07:11Z</time>
      </trkpt>
      <trkpt lat="44.54655" lon="2.26762">
        <ele>328</ele>
        <time>2018-06-07T17:07:13Z</time>
      </trkpt>
      <trkpt lat="44.5465" lon="2.26762">
        <ele>328</ele>
        <time>2018-06-07T17:07:15Z</time>
      </trkpt>
      <trkpt lat="44.54647" lon="2.26762">
        <ele>328</ele>
        <time>2018-06-07T17:07:16Z</time>
      </trkpt>
      <trkpt lat="44.54642" lon="2.26761">
        <ele>329</ele>
        <time>2018-06-07T17:07:18Z</time>
      </trkpt>
      <trkpt lat="44.54636" lon="2.26761">
        <ele>329</ele>
        <time>2018-06-07T17:07:20Z</time>
      </trkpt>
      <trkpt lat="44.54632" lon="2.26759">
        <ele>329</ele>
        <time>2018-06-07T17:07:22Z</time>
      </trkpt>
      <trkpt lat="44.54627" lon="2.26757">
        <ele>329</ele>
        <time>2018-06-07T17:07:24Z</time>
      </trkpt>
      <trkpt lat="44.54619" lon="2.26756">
        <ele>329</ele>
        <time>2018-06-07T17:07:28Z</time>
      </trkpt>
      <trkpt lat="44.54616" lon="2.26755">
        <ele>329</ele>
        <time>2018-06-07T17:07:29Z</time>
      </trkpt>
      <trkpt lat="44.54612" lon="2.26753">
        <ele>329</ele>
        <time>2018-06-07T17:07:31Z</time>
      </trkpt>
      <trkpt lat="44.54608" lon="2.2675">
        <ele>329</ele>
        <time>2018-06-07T17:07:33Z</time>
      </trkpt>
      <trkpt lat="44.546" lon="2.26748">
        <ele>326</ele>
        <time>2018-06-07T17:07:35Z</time>
      </trkpt>
      <trkpt lat="44.54597" lon="2.26745">
        <ele>326</ele>
        <time>2018-06-07T17:07:37Z</time>
      </trkpt>
      <trkpt lat="44.54591" lon="2.26744">
        <ele>327</ele>
        <time>2018-06-07T17:07:40Z</time>
      </trkpt>
      <trkpt lat="44.54589" lon="2.26742">
        <ele>327</ele>
        <time>2018-06-07T17:07:41Z</time>
      </trkpt>
      <trkpt lat="44.54589" lon="2.26735">
        <ele>327</ele>
        <time>2018-06-07T17:07:44Z</time>
      </trkpt>
      <trkpt lat="44.54584" lon="2.26735">
        <ele>327</ele>
        <time>2018-06-07T17:07:46Z</time>
      </trkpt>
      <trkpt lat="44.54581" lon="2.26731">
        <ele>330</ele>
        <time>2018-06-07T17:07:48Z</time>
      </trkpt>
      <trkpt lat="44.54576" lon="2.26729">
        <ele>331</ele>
        <time>2018-06-07T17:07:50Z</time>
      </trkpt>
      <trkpt lat="44.54571" lon="2.26727">
        <ele>331</ele>
        <time>2018-06-07T17:07:52Z</time>
      </trkpt>
      <trkpt lat="44.54567" lon="2.26727">
        <ele>331</ele>
        <time>2018-06-07T17:07:53Z</time>
      </trkpt>
      <trkpt lat="44.54564" lon="2.26726">
        <ele>332</ele>
        <time>2018-06-07T17:07:54Z</time>
      </trkpt>
      <trkpt lat="44.54561" lon="2.26724">
        <ele>332</ele>
        <time>2018-06-07T17:07:55Z</time>
      </trkpt>
      <trkpt lat="44.54556" lon="2.26723">
        <ele>332</ele>
        <time>2018-06-07T17:07:57Z</time>
      </trkpt>
      <trkpt lat="44.54552" lon="2.26723">
        <ele>332</ele>
        <time>2018-06-07T17:07:58Z</time>
      </trkpt>
      <trkpt lat="44.54546" lon="2.26724">
        <ele>333</ele>
        <time>2018-06-07T17:07:59Z</time>
      </trkpt>
      <trkpt lat="44.54545" lon="2.2672">
        <ele>333</ele>
        <time>2018-06-07T17:08:01Z</time>
      </trkpt>
      <trkpt lat="44.54542" lon="2.26716">
        <ele>333</ele>
        <time>2018-06-07T17:08:03Z</time>
      </trkpt>
      <trkpt lat="44.54537" lon="2.26714">
        <ele>333</ele>
        <time>2018-06-07T17:08:05Z</time>
      </trkpt>
      <trkpt lat="44.54534" lon="2.2671">
        <ele>334</ele>
        <time>2018-06-07T17:08:08Z</time>
      </trkpt>
      <trkpt lat="44.54532" lon="2.26708">
        <ele>334</ele>
        <time>2018-06-07T17:08:09Z</time>
      </trkpt>
      <trkpt lat="44.54528" lon="2.26708">
        <ele>334</ele>
        <time>2018-06-07T17:08:11Z</time>
      </trkpt>
      <trkpt lat="44.54524" lon="2.26707">
        <ele>334</ele>
        <time>2018-06-07T17:08:12Z</time>
      </trkpt>
      <trkpt lat="44.54521" lon="2.26707">
        <ele>334</ele>
        <time>2018-06-07T17:08:13Z</time>
      </trkpt>
      <trkpt lat="44.54517" lon="2.26705">
        <ele>334</ele>
        <time>2018-06-07T17:08:15Z</time>
      </trkpt>
      <trkpt lat="44.54513" lon="2.26705">
        <ele>334</ele>
        <time>2018-06-07T17:08:18Z</time>
      </trkpt>
      <trkpt lat="44.54506" lon="2.26703">
        <ele>334</ele>
        <time>2018-06-07T17:08:20Z</time>
      </trkpt>
      <trkpt lat="44.54502" lon="2.26703">
        <ele>334</ele>
        <time>2018-06-07T17:08:21Z</time>
      </trkpt>
      <trkpt lat="44.54499" lon="2.26701">
        <ele>337</ele>
        <time>2018-06-07T17:08:22Z</time>
      </trkpt>
      <trkpt lat="44.54495" lon="2.26698">
        <ele>337</ele>
        <time>2018-06-07T17:08:24Z</time>
      </trkpt>
      <trkpt lat="44.54489" lon="2.26696">
        <ele>337</ele>
        <time>2018-06-07T17:08:26Z</time>
      </trkpt>
      <trkpt lat="44.54485" lon="2.26695">
        <ele>337</ele>
        <time>2018-06-07T17:08:27Z</time>
      </trkpt>
      <trkpt lat="44.54483" lon="2.26694">
        <ele>337</ele>
        <time>2018-06-07T17:08:28Z</time>
      </trkpt>
      <trkpt lat="44.5448" lon="2.26691">
        <ele>337</ele>
        <time>2018-06-07T17:08:30Z</time>
      </trkpt>
      <trkpt lat="44.54477" lon="2.26689">
        <ele>337</ele>
        <time>2018-06-07T17:08:33Z</time>
      </trkpt>
      <trkpt lat="44.54473" lon="2.26688">
        <ele>337</ele>
        <time>2018-06-07T17:08:35Z</time>
      </trkpt>
      <trkpt lat="44.5447" lon="2.26687">
        <ele>338</ele>
        <time>2018-06-07T17:08:37Z</time>
      </trkpt>
      <trkpt lat="44.54464" lon="2.26686">
        <ele>338</ele>
        <time>2018-06-07T17:08:39Z</time>
      </trkpt>
      <trkpt lat="44.54461" lon="2.26684">
        <ele>338</ele>
        <time>2018-06-07T17:08:40Z</time>
      </trkpt>
      <trkpt lat="44.54457" lon="2.26683">
        <ele>338</ele>
        <time>2018-06-07T17:08:42Z</time>
      </trkpt>
      <trkpt lat="44.54429" lon="2.26679">
        <ele>338</ele>
        <time>2018-06-07T17:09:00Z</time>
      </trkpt>
      <trkpt lat="44.54427" lon="2.26679">
        <ele>338</ele>
        <time>2018-06-07T17:09:01Z</time>
      </trkpt>
      <trkpt lat="44.54423" lon="2.26679">
        <ele>338</ele>
        <time>2018-06-07T17:09:02Z</time>
      </trkpt>
      <trkpt lat="44.54424" lon="2.26676">
        <ele>338</ele>
        <time>2018-06-07T17:09:04Z</time>
      </trkpt>
      <trkpt lat="44.5442" lon="2.26676">
        <ele>338</ele>
        <time>2018-06-07T17:09:06Z</time>
      </trkpt>
      <trkpt lat="44.54416" lon="2.26676">
        <ele>338</ele>
        <time>2018-06-07T17:09:09Z</time>
      </trkpt>
      <trkpt lat="44.54414" lon="2.26673">
        <ele>338</ele>
        <time>2018-06-07T17:09:11Z</time>
      </trkpt>
      <trkpt lat="44.54411" lon="2.26672">
        <ele>338</ele>
        <time>2018-06-07T17:09:13Z</time>
      </trkpt>
      <trkpt lat="44.54407" lon="2.2667">
        <ele>338</ele>
        <time>2018-06-07T17:09:17Z</time>
      </trkpt>
      <trkpt lat="44.54403" lon="2.26667">
        <ele>338</ele>
        <time>2018-06-07T17:09:20Z</time>
      </trkpt>
      <trkpt lat="44.54399" lon="2.26663">
        <ele>338</ele>
        <time>2018-06-07T17:09:22Z</time>
      </trkpt>
      <trkpt lat="44.54389" lon="2.26662">
        <ele>338</ele>
        <time>2018-06-07T17:09:24Z</time>
      </trkpt>
      <trkpt lat="44.54383" lon="2.26662">
        <ele>338</ele>
        <time>2018-06-07T17:09:25Z</time>
      </trkpt>
      <trkpt lat="44.5438" lon="2.26659">
        <ele>338</ele>
        <time>2018-06-07T17:09:26Z</time>
      </trkpt>
      <trkpt lat="44.5438" lon="2.26657">
        <ele>338</ele>
        <time>2018-06-07T17:09:28Z</time>
      </trkpt>
      <trkpt lat="44.54377" lon="2.26657">
        <ele>338</ele>
        <time>2018-06-07T17:09:29Z</time>
      </trkpt>
      <trkpt lat="44.54371" lon="2.26659">
        <ele>337</ele>
        <time>2018-06-07T17:09:31Z</time>
      </trkpt>
      <trkpt lat="44.54369" lon="2.26656">
        <ele>337</ele>
        <time>2018-06-07T17:09:32Z</time>
      </trkpt>
      <trkpt lat="44.54364" lon="2.26657">
        <ele>337</ele>
        <time>2018-06-07T17:09:34Z</time>
      </trkpt>
      <trkpt lat="44.54364" lon="2.26652">
        <ele>337</ele>
        <time>2018-06-07T17:09:37Z</time>
      </trkpt>
      <trkpt lat="44.5436" lon="2.26653">
        <ele>337</ele>
        <time>2018-06-07T17:09:38Z</time>
      </trkpt>
      <trkpt lat="44.54358" lon="2.26653">
        <ele>337</ele>
        <time>2018-06-07T17:09:39Z</time>
      </trkpt>
      <trkpt lat="44.54354" lon="2.26651">
        <ele>337</ele>
        <time>2018-06-07T17:09:40Z</time>
      </trkpt>
      <trkpt lat="44.5435" lon="2.26652">
        <ele>337</ele>
        <time>2018-06-07T17:09:41Z</time>
      </trkpt>
      <trkpt lat="44.5433" lon="2.26652">
        <ele>333</ele>
        <time>2018-06-07T17:09:44Z</time>
      </trkpt>
      <trkpt lat="44.54328" lon="2.26646">
        <ele>333</ele>
        <time>2018-06-07T17:09:48Z</time>
      </trkpt>
      <trkpt lat="44.54324" lon="2.26644">
        <ele>333</ele>
        <time>2018-06-07T17:09:50Z</time>
      </trkpt>
      <trkpt lat="44.54318" lon="2.26643">
        <ele>333</ele>
        <time>2018-06-07T17:09:51Z</time>
      </trkpt>
      <trkpt lat="44.54315" lon="2.26639">
        <ele>333</ele>
        <time>2018-06-07T17:09:53Z</time>
      </trkpt>
      <trkpt lat="44.54313" lon="2.26634">
        <ele>333</ele>
        <time>2018-06-07T17:09:55Z</time>
      </trkpt>
      <trkpt lat="44.54313" lon="2.2663">
        <ele>333</ele>
        <time>2018-06-07T17:09:56Z</time>
      </trkpt>
      <trkpt lat="44.54308" lon="2.26624">
        <ele>333</ele>
        <time>2018-06-07T17:09:58Z</time>
      </trkpt>
      <trkpt lat="44.54305" lon="2.26621">
        <ele>333</ele>
        <time>2018-06-07T17:09:59Z</time>
      </trkpt>
      <trkpt lat="44.54302" lon="2.26616">
        <ele>333</ele>
        <time>2018-06-07T17:10:01Z</time>
      </trkpt>
      <trkpt lat="44.54299" lon="2.26615">
        <ele>333</ele>
        <time>2018-06-07T17:10:02Z</time>
      </trkpt>
      <trkpt lat="44.543" lon="2.26612">
        <ele>333</ele>
        <time>2018-06-07T17:10:03Z</time>
      </trkpt>
      <trkpt lat="44.54297" lon="2.26608">
        <ele>333</ele>
        <time>2018-06-07T17:10:04Z</time>
      </trkpt>
      <trkpt lat="44.54295" lon="2.26604">
        <ele>333</ele>
        <time>2018-06-07T17:10:05Z</time>
      </trkpt>
      <trkpt lat="44.54292" lon="2.26602">
        <ele>333</ele>
        <time>2018-06-07T17:10:06Z</time>
      </trkpt>
      <trkpt lat="44.54288" lon="2.26595">
        <ele>332</ele>
        <time>2018-06-07T17:10:08Z</time>
      </trkpt>
      <trkpt lat="44.54286" lon="2.2659">
        <ele>332</ele>
        <time>2018-06-07T17:10:10Z</time>
      </trkpt>
      <trkpt lat="44.54283" lon="2.26584">
        <ele>332</ele>
        <time>2018-06-07T17:10:12Z</time>
      </trkpt>
      <trkpt lat="44.54282" lon="2.2658">
        <ele>334</ele>
        <time>2018-06-07T17:10:13Z</time>
      </trkpt>
      <trkpt lat="44.5428" lon="2.26576">
        <ele>334</ele>
        <time>2018-06-07T17:10:15Z</time>
      </trkpt>
      <trkpt lat="44.54279" lon="2.26571">
        <ele>334</ele>
        <time>2018-06-07T17:10:17Z</time>
      </trkpt>
      <trkpt lat="44.54274" lon="2.26564">
        <ele>334</ele>
        <time>2018-06-07T17:10:19Z</time>
      </trkpt>
      <trkpt lat="44.54272" lon="2.26558">
        <ele>334</ele>
        <time>2018-06-07T17:10:21Z</time>
      </trkpt>
      <trkpt lat="44.5427" lon="2.2655">
        <ele>335</ele>
        <time>2018-06-07T17:10:23Z</time>
      </trkpt>
      <trkpt lat="44.54269" lon="2.26546">
        <ele>335</ele>
        <time>2018-06-07T17:10:24Z</time>
      </trkpt>
      <trkpt lat="44.54267" lon="2.26541">
        <ele>335</ele>
        <time>2018-06-07T17:10:25Z</time>
      </trkpt>
      <trkpt lat="44.54264" lon="2.26534">
        <ele>335</ele>
        <time>2018-06-07T17:10:27Z</time>
      </trkpt>
      <trkpt lat="44.54262" lon="2.26528">
        <ele>334</ele>
        <time>2018-06-07T17:10:29Z</time>
      </trkpt>
      <trkpt lat="44.54261" lon="2.26524">
        <ele>334</ele>
        <time>2018-06-07T17:10:31Z</time>
      </trkpt>
      <trkpt lat="44.54261" lon="2.26519">
        <ele>334</ele>
        <time>2018-06-07T17:10:32Z</time>
      </trkpt>
      <trkpt lat="44.54258" lon="2.26511">
        <ele>333</ele>
        <time>2018-06-07T17:10:35Z</time>
      </trkpt>
      <trkpt lat="44.54257" lon="2.26505">
        <ele>333</ele>
        <time>2018-06-07T17:10:37Z</time>
      </trkpt>
      <trkpt lat="44.54255" lon="2.26501">
        <ele>332</ele>
        <time>2018-06-07T17:10:39Z</time>
      </trkpt>
      <trkpt lat="44.54254" lon="2.26496">
        <ele>332</ele>
        <time>2018-06-07T17:10:41Z</time>
      </trkpt>
      <trkpt lat="44.54252" lon="2.26492">
        <ele>333</ele>
        <time>2018-06-07T17:10:42Z</time>
      </trkpt>
      <trkpt lat="44.5425" lon="2.26483">
        <ele>334</ele>
        <time>2018-06-07T17:10:44Z</time>
      </trkpt>
      <trkpt lat="44.54249" lon="2.26476">
        <ele>322</ele>
        <time>2018-06-07T17:10:46Z</time>
      </trkpt>
      <trkpt lat="44.54248" lon="2.2647">
        <ele>321</ele>
        <time>2018-06-07T17:10:47Z</time>
      </trkpt>
      <trkpt lat="44.54247" lon="2.26464">
        <ele>320</ele>
        <time>2018-06-07T17:10:49Z</time>
      </trkpt>
      <trkpt lat="44.54247" lon="2.2646">
        <ele>320</ele>
        <time>2018-06-07T17:10:50Z</time>
      </trkpt>
      <trkpt lat="44.54246" lon="2.26452">
        <ele>319</ele>
        <time>2018-06-07T17:10:52Z</time>
      </trkpt>
      <trkpt lat="44.54244" lon="2.26444">
        <ele>319</ele>
        <time>2018-06-07T17:10:54Z</time>
      </trkpt>
      <trkpt lat="44.54244" lon="2.2644">
        <ele>320</ele>
        <time>2018-06-07T17:10:55Z</time>
      </trkpt>
      <trkpt lat="44.54243" lon="2.26434">
        <ele>320</ele>
        <time>2018-06-07T17:10:56Z</time>
      </trkpt>
      <trkpt lat="44.54244" lon="2.26429">
        <ele>321</ele>
        <time>2018-06-07T17:10:57Z</time>
      </trkpt>
      <trkpt lat="44.54243" lon="2.26425">
        <ele>322</ele>
        <time>2018-06-07T17:10:58Z</time>
      </trkpt>
      <trkpt lat="44.54243" lon="2.26419">
        <ele>323</ele>
        <time>2018-06-07T17:10:59Z</time>
      </trkpt>
      <trkpt lat="44.54243" lon="2.26414">
        <ele>319</ele>
        <time>2018-06-07T17:11:00Z</time>
      </trkpt>
      <trkpt lat="44.54243" lon="2.26409">
        <ele>317</ele>
        <time>2018-06-07T17:11:01Z</time>
      </trkpt>
      <trkpt lat="44.54244" lon="2.26402">
        <ele>313</ele>
        <time>2018-06-07T17:11:03Z</time>
      </trkpt>
      <trkpt lat="44.54245" lon="2.26392">
        <ele>309</ele>
        <time>2018-06-07T17:11:05Z</time>
      </trkpt>
      <trkpt lat="44.54246" lon="2.26387">
        <ele>308</ele>
        <time>2018-06-07T17:11:06Z</time>
      </trkpt>
      <trkpt lat="44.54247" lon="2.26382">
        <ele>307</ele>
        <time>2018-06-07T17:11:07Z</time>
      </trkpt>
      <trkpt lat="44.54248" lon="2.26377">
        <ele>306</ele>
        <time>2018-06-07T17:11:08Z</time>
      </trkpt>
      <trkpt lat="44.5425" lon="2.26372">
        <ele>327</ele>
        <time>2018-06-07T17:11:09Z</time>
      </trkpt>
      <trkpt lat="44.54251" lon="2.26366">
        <ele>326</ele>
        <time>2018-06-07T17:11:10Z</time>
      </trkpt>
      <trkpt lat="44.54252" lon="2.26362">
        <ele>325</ele>
        <time>2018-06-07T17:11:11Z</time>
      </trkpt>
      <trkpt lat="44.54253" lon="2.26356">
        <ele>323</ele>
        <time>2018-06-07T17:11:12Z</time>
      </trkpt>
      <trkpt lat="44.54251" lon="2.26354">
        <ele>322</ele>
        <time>2018-06-07T17:11:13Z</time>
      </trkpt>
      <trkpt lat="44.54252" lon="2.26349">
        <ele>321</ele>
        <time>2018-06-07T17:11:14Z</time>
      </trkpt>
      <trkpt lat="44.54252" lon="2.26345">
        <ele>319</ele>
        <time>2018-06-07T17:11:15Z</time>
      </trkpt>
      <trkpt lat="44.54251" lon="2.2634">
        <ele>316</ele>
        <time>2018-06-07T17:11:16Z</time>
      </trkpt>
      <trkpt lat="44.54252" lon="2.26331">
        <ele>312</ele>
        <time>2018-06-07T17:11:18Z</time>
      </trkpt>
      <trkpt lat="44.54253" lon="2.26325">
        <ele>315</ele>
        <time>2018-06-07T17:11:19Z</time>
      </trkpt>
      <trkpt lat="44.54253" lon="2.26321">
        <ele>317</ele>
        <time>2018-06-07T17:11:20Z</time>
      </trkpt>
      <trkpt lat="44.54252" lon="2.26315">
        <ele>318</ele>
        <time>2018-06-07T17:11:22Z</time>
      </trkpt>
      <trkpt lat="44.54252" lon="2.26309">
        <ele>319</ele>
        <time>2018-06-07T17:11:23Z</time>
      </trkpt>
      <trkpt lat="44.54252" lon="2.26304">
        <ele>319</ele>
        <time>2018-06-07T17:11:24Z</time>
      </trkpt>
      <trkpt lat="44.54252" lon="2.26296">
        <ele>320</ele>
        <time>2018-06-07T17:11:26Z</time>
      </trkpt>
      <trkpt lat="44.54251" lon="2.26292">
        <ele>320</ele>
        <time>2018-06-07T17:11:27Z</time>
      </trkpt>
      <trkpt lat="44.54251" lon="2.26286">
        <ele>319</ele>
        <time>2018-06-07T17:11:28Z</time>
      </trkpt>
      <trkpt lat="44.54252" lon="2.2628">
        <ele>319</ele>
        <time>2018-06-07T17:11:29Z</time>
      </trkpt>
      <trkpt lat="44.54252" lon="2.26275">
        <ele>318</ele>
        <time>2018-06-07T17:11:30Z</time>
      </trkpt>
      <trkpt lat="44.54252" lon="2.26267">
        <ele>316</ele>
        <time>2018-06-07T17:11:32Z</time>
      </trkpt>
      <trkpt lat="44.54251" lon="2.2626">
        <ele>313</ele>
        <time>2018-06-07T17:11:34Z</time>
      </trkpt>
      <trkpt lat="44.54251" lon="2.26256">
        <ele>312</ele>
        <time>2018-06-07T17:11:35Z</time>
      </trkpt>
      <trkpt lat="44.5425" lon="2.2625">
        <ele>308</ele>
        <time>2018-06-07T17:11:37Z</time>
      </trkpt>
      <trkpt lat="44.54249" lon="2.26247">
        <ele>306</ele>
        <time>2018-06-07T17:11:38Z</time>
      </trkpt>
      <trkpt lat="44.54247" lon="2.26243">
        <ele>303</ele>
        <time>2018-06-07T17:11:39Z</time>
      </trkpt>
      <trkpt lat="44.54247" lon="2.26238">
        <ele>301</ele>
        <time>2018-06-07T17:11:40Z</time>
      </trkpt>
      <trkpt lat="44.54245" lon="2.26232">
        <ele>299</ele>
        <time>2018-06-07T17:11:42Z</time>
      </trkpt>
      <trkpt lat="44.54243" lon="2.26228">
        <ele>298</ele>
        <time>2018-06-07T17:11:44Z</time>
      </trkpt>
      <trkpt lat="44.54242" lon="2.26223">
        <ele>297</ele>
        <time>2018-06-07T17:11:45Z</time>
      </trkpt>
      <trkpt lat="44.54242" lon="2.26219">
        <ele>296</ele>
        <time>2018-06-07T17:11:46Z</time>
      </trkpt>
      <trkpt lat="44.54239" lon="2.26212">
        <ele>296</ele>
        <time>2018-06-07T17:11:48Z</time>
      </trkpt>
      <trkpt lat="44.54237" lon="2.26208">
        <ele>296</ele>
        <time>2018-06-07T17:11:50Z</time>
      </trkpt>
      <trkpt lat="44.54234" lon="2.26202">
        <ele>296</ele>
        <time>2018-06-07T17:11:52Z</time>
      </trkpt>
      <trkpt lat="44.54232" lon="2.26196">
        <ele>297</ele>
        <time>2018-06-07T17:11:54Z</time>
      </trkpt>
      <trkpt lat="44.5423" lon="2.26193">
        <ele>297</ele>
        <time>2018-06-07T17:11:55Z</time>
      </trkpt>
      <trkpt lat="44.54228" lon="2.26189">
        <ele>297</ele>
        <time>2018-06-07T17:11:56Z</time>
      </trkpt>
      <trkpt lat="44.54226" lon="2.26186">
        <ele>296</ele>
        <time>2018-06-07T17:11:57Z</time>
      </trkpt>
      <trkpt lat="44.54222" lon="2.26181">
        <ele>296</ele>
        <time>2018-06-07T17:11:58Z</time>
      </trkpt>
      <trkpt lat="44.54221" lon="2.26178">
        <ele>295</ele>
        <time>2018-06-07T17:11:59Z</time>
      </trkpt>
      <trkpt lat="44.54219" lon="2.26175">
        <ele>295</ele>
        <time>2018-06-07T17:12:00Z</time>
      </trkpt>
      <trkpt lat="44.54215" lon="2.26171">
        <ele>293</ele>
        <time>2018-06-07T17:12:01Z</time>
      </trkpt>
      <trkpt lat="44.54212" lon="2.26164">
        <ele>301</ele>
        <time>2018-06-07T17:12:03Z</time>
      </trkpt>
      <trkpt lat="44.54211" lon="2.26159">
        <ele>301</ele>
        <time>2018-06-07T17:12:05Z</time>
      </trkpt>
      <trkpt lat="44.54208" lon="2.26154">
        <ele>300</ele>
        <time>2018-06-07T17:12:07Z</time>
      </trkpt>
      <trkpt lat="44.54206" lon="2.26151">
        <ele>300</ele>
        <time>2018-06-07T17:12:08Z</time>
      </trkpt>
      <trkpt lat="44.54204" lon="2.26147">
        <ele>299</ele>
        <time>2018-06-07T17:12:09Z</time>
      </trkpt>
      <trkpt lat="44.54203" lon="2.26142">
        <ele>300</ele>
        <time>2018-06-07T17:12:10Z</time>
      </trkpt>
      <trkpt lat="44.54202" lon="2.26137">
        <ele>300</ele>
        <time>2018-06-07T17:12:12Z</time>
      </trkpt>
      <trkpt lat="44.54201" lon="2.26133">
        <ele>300</ele>
        <time>2018-06-07T17:12:13Z</time>
      </trkpt>
      <trkpt lat="44.54198" lon="2.26131">
        <ele>300</ele>
        <time>2018-06-07T17:12:14Z</time>
      </trkpt>
      <trkpt lat="44.54194" lon="2.26125">
        <ele>299</ele>
        <time>2018-06-07T17:12:16Z</time>
      </trkpt>
      <trkpt lat="44.54192" lon="2.26118">
        <ele>300</ele>
        <time>2018-06-07T17:12:18Z</time>
      </trkpt>
      <trkpt lat="44.54188" lon="2.26112">
        <ele>299</ele>
        <time>2018-06-07T17:12:20Z</time>
      </trkpt>
      <trkpt lat="44.54186" lon="2.2611">
        <ele>299</ele>
        <time>2018-06-07T17:12:21Z</time>
      </trkpt>
      <trkpt lat="44.54182" lon="2.26104">
        <ele>298</ele>
        <time>2018-06-07T17:12:23Z</time>
      </trkpt>
      <trkpt lat="44.5418" lon="2.26098">
        <ele>297</ele>
        <time>2018-06-07T17:12:25Z</time>
      </trkpt>
      <trkpt lat="44.54176" lon="2.26095">
        <ele>296</ele>
        <time>2018-06-07T17:12:26Z</time>
      </trkpt>
      <trkpt lat="44.54173" lon="2.2609">
        <ele>295</ele>
        <time>2018-06-07T17:12:28Z</time>
      </trkpt>
      <trkpt lat="44.54171" lon="2.26088">
        <ele>294</ele>
        <time>2018-06-07T17:12:29Z</time>
      </trkpt>
      <trkpt lat="44.54167" lon="2.26083">
        <ele>291</ele>
        <time>2018-06-07T17:12:31Z</time>
      </trkpt>
      <trkpt lat="44.54164" lon="2.26078">
        <ele>290</ele>
        <time>2018-06-07T17:12:33Z</time>
      </trkpt>
      <trkpt lat="44.54161" lon="2.26074">
        <ele>289</ele>
        <time>2018-06-07T17:12:35Z</time>
      </trkpt>
      <trkpt lat="44.54156" lon="2.2607">
        <ele>288</ele>
        <time>2018-06-07T17:12:37Z</time>
      </trkpt>
      <trkpt lat="44.54155" lon="2.26066">
        <ele>288</ele>
        <time>2018-06-07T17:12:39Z</time>
      </trkpt>
      <trkpt lat="44.54151" lon="2.26064">
        <ele>288</ele>
        <time>2018-06-07T17:12:40Z</time>
      </trkpt>
      <trkpt lat="44.5415" lon="2.2606">
        <ele>288</ele>
        <time>2018-06-07T17:12:41Z</time>
      </trkpt>
      <trkpt lat="44.54145" lon="2.26059">
        <ele>287</ele>
        <time>2018-06-07T17:12:43Z</time>
      </trkpt>
      <trkpt lat="44.5414" lon="2.26054">
        <ele>287</ele>
        <time>2018-06-07T17:12:46Z</time>
      </trkpt>
      <trkpt lat="44.54138" lon="2.2605">
        <ele>287</ele>
        <time>2018-06-07T17:12:47Z</time>
      </trkpt>
      <trkpt lat="44.54135" lon="2.26047">
        <ele>287</ele>
        <time>2018-06-07T17:12:48Z</time>
      </trkpt>
      <trkpt lat="44.54132" lon="2.26041">
        <ele>287</ele>
        <time>2018-06-07T17:12:50Z</time>
      </trkpt>
      <trkpt lat="44.54129" lon="2.26035">
        <ele>287</ele>
        <time>2018-06-07T17:12:52Z</time>
      </trkpt>
      <trkpt lat="44.54128" lon="2.2603">
        <ele>288</ele>
        <time>2018-06-07T17:12:54Z</time>
      </trkpt>
      <trkpt lat="44.54125" lon="2.26024">
        <ele>288</ele>
        <time>2018-06-07T17:12:56Z</time>
      </trkpt>
      <trkpt lat="44.54121" lon="2.26022">
        <ele>287</ele>
        <time>2018-06-07T17:12:57Z</time>
      </trkpt>
      <trkpt lat="44.5412" lon="2.26016">
        <ele>288</ele>
        <time>2018-06-07T17:13:00Z</time>
      </trkpt>
      <trkpt lat="44.5412" lon="2.2601">
        <ele>288</ele>
        <time>2018-06-07T17:13:01Z</time>
      </trkpt>
      <trkpt lat="44.5412" lon="2.26006">
        <ele>288</ele>
        <time>2018-06-07T17:13:02Z</time>
      </trkpt>
      <trkpt lat="44.54121" lon="2.26">
        <ele>289</ele>
        <time>2018-06-07T17:13:04Z</time>
      </trkpt>
      <trkpt lat="44.54112" lon="2.25994">
        <ele>293</ele>
        <time>2018-06-07T17:13:07Z</time>
      </trkpt>
      <trkpt lat="44.54109" lon="2.25987">
        <ele>293</ele>
        <time>2018-06-07T17:13:09Z</time>
      </trkpt>
      <trkpt lat="44.54106" lon="2.25985">
        <ele>292</ele>
        <time>2018-06-07T17:13:10Z</time>
      </trkpt>
      <trkpt lat="44.54103" lon="2.25983">
        <ele>292</ele>
        <time>2018-06-07T17:13:11Z</time>
      </trkpt>
      <trkpt lat="44.541" lon="2.2598">
        <ele>292</ele>
        <time>2018-06-07T17:13:12Z</time>
      </trkpt>
      <trkpt lat="44.54097" lon="2.25977">
        <ele>291</ele>
        <time>2018-06-07T17:13:13Z</time>
      </trkpt>
      <trkpt lat="44.54093" lon="2.25977">
        <ele>291</ele>
        <time>2018-06-07T17:13:14Z</time>
      </trkpt>
      <trkpt lat="44.54092" lon="2.25971">
        <ele>292</ele>
        <time>2018-06-07T17:13:15Z</time>
      </trkpt>
      <trkpt lat="44.5409" lon="2.25967">
        <ele>292</ele>
        <time>2018-06-07T17:13:16Z</time>
      </trkpt>
      <trkpt lat="44.5409" lon="2.25958">
        <ele>292</ele>
        <time>2018-06-07T17:13:18Z</time>
      </trkpt>
      <trkpt lat="44.54089" lon="2.25953">
        <ele>292</ele>
        <time>2018-06-07T17:13:20Z</time>
      </trkpt>
      <trkpt lat="44.54089" lon="2.25946">
        <ele>292</ele>
        <time>2018-06-07T17:13:22Z</time>
      </trkpt>
      <trkpt lat="44.54088" lon="2.25942">
        <ele>292</ele>
        <time>2018-06-07T17:13:23Z</time>
      </trkpt>
      <trkpt lat="44.54087" lon="2.25937">
        <ele>291</ele>
        <time>2018-06-07T17:13:24Z</time>
      </trkpt>
      <trkpt lat="44.54085" lon="2.25927">
        <ele>289</ele>
        <time>2018-06-07T17:13:26Z</time>
      </trkpt>
      <trkpt lat="44.54084" lon="2.25923">
        <ele>288</ele>
        <time>2018-06-07T17:13:27Z</time>
      </trkpt>
      <trkpt lat="44.54083" lon="2.25916">
        <ele>284</ele>
        <time>2018-06-07T17:13:29Z</time>
      </trkpt>
      <trkpt lat="44.54081" lon="2.25912">
        <ele>282</ele>
        <time>2018-06-07T17:13:30Z</time>
      </trkpt>
      <trkpt lat="44.5408" lon="2.25909">
        <ele>280</ele>
        <time>2018-06-07T17:13:31Z</time>
      </trkpt>
      <trkpt lat="44.54078" lon="2.25903">
        <ele>278</ele>
        <time>2018-06-07T17:13:33Z</time>
      </trkpt>
      <trkpt lat="44.54079" lon="2.25898">
        <ele>277</ele>
        <time>2018-06-07T17:13:34Z</time>
      </trkpt>
      <trkpt lat="44.54077" lon="2.25893">
        <ele>275</ele>
        <time>2018-06-07T17:13:36Z</time>
      </trkpt>
      <trkpt lat="44.54076" lon="2.25889">
        <ele>275</ele>
        <time>2018-06-07T17:13:37Z</time>
      </trkpt>
      <trkpt lat="44.54074" lon="2.25884">
        <ele>274</ele>
        <time>2018-06-07T17:13:39Z</time>
      </trkpt>
      <trkpt lat="44.54074" lon="2.2588">
        <ele>273</ele>
        <time>2018-06-07T17:13:40Z</time>
      </trkpt>
      <trkpt lat="44.54071" lon="2.25874">
        <ele>273</ele>
        <time>2018-06-07T17:13:42Z</time>
      </trkpt>
      <trkpt lat="44.54069" lon="2.2587">
        <ele>272</ele>
        <time>2018-06-07T17:13:44Z</time>
      </trkpt>
      <trkpt lat="44.54069" lon="2.25864">
        <ele>272</ele>
        <time>2018-06-07T17:13:46Z</time>
      </trkpt>
      <trkpt lat="44.54067" lon="2.25859">
        <ele>272</ele>
        <time>2018-06-07T17:13:48Z</time>
      </trkpt>
      <trkpt lat="44.54066" lon="2.25853">
        <ele>272</ele>
        <time>2018-06-07T17:13:49Z</time>
      </trkpt>
      <trkpt lat="44.54066" lon="2.25847">
        <ele>272</ele>
        <time>2018-06-07T17:13:51Z</time>
      </trkpt>
      <trkpt lat="44.54064" lon="2.25841">
        <ele>272</ele>
        <time>2018-06-07T17:13:53Z</time>
      </trkpt>
      <trkpt lat="44.54063" lon="2.25836">
        <ele>272</ele>
        <time>2018-06-07T17:13:54Z</time>
      </trkpt>
      <trkpt lat="44.54063" lon="2.25832">
        <ele>269</ele>
        <time>2018-06-07T17:13:55Z</time>
      </trkpt>
      <trkpt lat="44.54064" lon="2.25826">
        <ele>269</ele>
        <time>2018-06-07T17:13:56Z</time>
      </trkpt>
      <trkpt lat="44.54066" lon="2.25823">
        <ele>269</ele>
        <time>2018-06-07T17:13:58Z</time>
      </trkpt>
      <trkpt lat="44.54066" lon="2.25818">
        <ele>268</ele>
        <time>2018-06-07T17:13:59Z</time>
      </trkpt>
      <trkpt lat="44.54069" lon="2.25804">
        <ele>267</ele>
        <time>2018-06-07T17:14:01Z</time>
      </trkpt>
      <trkpt lat="44.5407" lon="2.25799">
        <ele>267</ele>
        <time>2018-06-07T17:14:02Z</time>
      </trkpt>
      <trkpt lat="44.54072" lon="2.25794">
        <ele>267</ele>
        <time>2018-06-07T17:14:03Z</time>
      </trkpt>
      <trkpt lat="44.54073" lon="2.25787">
        <ele>266</ele>
        <time>2018-06-07T17:14:04Z</time>
      </trkpt>
      <trkpt lat="44.54074" lon="2.25783">
        <ele>266</ele>
        <time>2018-06-07T17:14:05Z</time>
      </trkpt>
      <trkpt lat="44.54077" lon="2.25778">
        <ele>266</ele>
        <time>2018-06-07T17:14:07Z</time>
      </trkpt>
      <trkpt lat="44.5408" lon="2.25772">
        <ele>266</ele>
        <time>2018-06-07T17:14:09Z</time>
      </trkpt>
      <trkpt lat="44.54083" lon="2.25767">
        <ele>271</ele>
        <time>2018-06-07T17:14:11Z</time>
      </trkpt>
      <trkpt lat="44.54086" lon="2.25765">
        <ele>271</ele>
        <time>2018-06-07T17:14:13Z</time>
      </trkpt>
      <trkpt lat="44.54089" lon="2.25757">
        <ele>270</ele>
        <time>2018-06-07T17:14:15Z</time>
      </trkpt>
      <trkpt lat="44.5409" lon="2.25753">
        <ele>269</ele>
        <time>2018-06-07T17:14:16Z</time>
      </trkpt>
      <trkpt lat="44.54093" lon="2.25745">
        <ele>268</ele>
        <time>2018-06-07T17:14:18Z</time>
      </trkpt>
      <trkpt lat="44.54094" lon="2.25742">
        <ele>269</ele>
        <time>2018-06-07T17:14:19Z</time>
      </trkpt>
      <trkpt lat="44.54095" lon="2.25738">
        <ele>269</ele>
        <time>2018-06-07T17:14:20Z</time>
      </trkpt>
      <trkpt lat="44.54097" lon="2.25735">
        <ele>269</ele>
        <time>2018-06-07T17:14:21Z</time>
      </trkpt>
      <trkpt lat="44.54096" lon="2.25729">
        <ele>270</ele>
        <time>2018-06-07T17:14:22Z</time>
      </trkpt>
      <trkpt lat="44.54096" lon="2.25724">
        <ele>270</ele>
        <time>2018-06-07T17:14:24Z</time>
      </trkpt>
      <trkpt lat="44.54096" lon="2.25717">
        <ele>270</ele>
        <time>2018-06-07T17:14:25Z</time>
      </trkpt>
      <trkpt lat="44.54094" lon="2.25711">
        <ele>270</ele>
        <time>2018-06-07T17:14:27Z</time>
      </trkpt>
      <trkpt lat="44.54092" lon="2.25707">
        <ele>270</ele>
        <time>2018-06-07T17:14:28Z</time>
      </trkpt>
      <trkpt lat="44.5409" lon="2.25704">
        <ele>270</ele>
        <time>2018-06-07T17:14:29Z</time>
      </trkpt>
      <trkpt lat="44.54088" lon="2.25701">
        <ele>269</ele>
        <time>2018-06-07T17:14:30Z</time>
      </trkpt>
      <trkpt lat="44.54085" lon="2.25697">
        <ele>269</ele>
        <time>2018-06-07T17:14:32Z</time>
      </trkpt>
      <trkpt lat="44.54082" lon="2.25691">
        <ele>265</ele>
        <time>2018-06-07T17:14:33Z</time>
      </trkpt>
      <trkpt lat="44.54078" lon="2.25687">
        <ele>265</ele>
        <time>2018-06-07T17:14:35Z</time>
      </trkpt>
      <trkpt lat="44.54073" lon="2.25686">
        <ele>265</ele>
        <time>2018-06-07T17:14:37Z</time>
      </trkpt>
      <trkpt lat="44.5407" lon="2.25685">
        <ele>265</ele>
        <time>2018-06-07T17:14:38Z</time>
      </trkpt>
      <trkpt lat="44.54063" lon="2.25687">
        <ele>264</ele>
        <time>2018-06-07T17:14:41Z</time>
      </trkpt>
      <trkpt lat="44.54059" lon="2.2569">
        <ele>264</ele>
        <time>2018-06-07T17:14:43Z</time>
      </trkpt>
      <trkpt lat="44.54056" lon="2.25691">
        <ele>264</ele>
        <time>2018-06-07T17:14:44Z</time>
      </trkpt>
      <trkpt lat="44.54052" lon="2.25692">
        <ele>264</ele>
        <time>2018-06-07T17:14:46Z</time>
      </trkpt>
      <trkpt lat="44.54048" lon="2.25693">
        <ele>264</ele>
        <time>2018-06-07T17:14:47Z</time>
      </trkpt>
      <trkpt lat="44.54044" lon="2.25695">
        <ele>264</ele>
        <time>2018-06-07T17:14:48Z</time>
      </trkpt>
      <trkpt lat="44.54041" lon="2.25697">
        <ele>264</ele>
        <time>2018-06-07T17:14:49Z</time>
      </trkpt>
      <trkpt lat="44.54037" lon="2.25699">
        <ele>264</ele>
        <time>2018-06-07T17:14:51Z</time>
      </trkpt>
      <trkpt lat="44.54033" lon="2.25702">
        <ele>264</ele>
        <time>2018-06-07T17:14:52Z</time>
      </trkpt>
      <trkpt lat="44.54026" lon="2.25701">
        <ele>264</ele>
        <time>2018-06-07T17:14:55Z</time>
      </trkpt>
      <trkpt lat="44.5402" lon="2.25708">
        <ele>264</ele>
        <time>2018-06-07T17:14:57Z</time>
      </trkpt>
      <trkpt lat="44.54017" lon="2.25704">
        <ele>264</ele>
        <time>2018-06-07T17:14:58Z</time>
      </trkpt>
      <trkpt lat="44.54014" lon="2.25704">
        <ele>264</ele>
        <time>2018-06-07T17:14:59Z</time>
      </trkpt>
      <trkpt lat="44.54013" lon="2.25701">
        <ele>264</ele>
        <time>2018-06-07T17:15:01Z</time>
      </trkpt>
      <trkpt lat="44.5401" lon="2.25702">
        <ele>264</ele>
        <time>2018-06-07T17:15:02Z</time>
      </trkpt>
      <trkpt lat="44.54011" lon="2.25699">
        <ele>264</ele>
        <time>2018-06-07T17:15:03Z</time>
      </trkpt>
      <trkpt lat="44.54007" lon="2.25698">
        <ele>264</ele>
        <time>2018-06-07T17:15:04Z</time>
      </trkpt>
      <trkpt lat="44.54012" lon="2.25679">
        <ele>264</ele>
        <time>2018-06-07T17:15:19Z</time>
      </trkpt>
      <trkpt lat="44.54013" lon="2.25675">
        <ele>264</ele>
        <time>2018-06-07T17:15:20Z</time>
      </trkpt>
      <trkpt lat="44.54015" lon="2.25672">
        <ele>264</ele>
        <time>2018-06-07T17:15:22Z</time>
      </trkpt>
      <trkpt lat="44.54017" lon="2.25664">
        <ele>265</ele>
        <time>2018-06-07T17:15:24Z</time>
      </trkpt>
      <trkpt lat="44.5402" lon="2.25661">
        <ele>265</ele>
        <time>2018-06-07T17:15:25Z</time>
      </trkpt>
      <trkpt lat="44.54021" lon="2.25657">
        <ele>265</ele>
        <time>2018-06-07T17:15:26Z</time>
      </trkpt>
      <trkpt lat="44.54023" lon="2.2565">
        <ele>266</ele>
        <time>2018-06-07T17:15:28Z</time>
      </trkpt>
      <trkpt lat="44.54024" lon="2.25646">
        <ele>266</ele>
        <time>2018-06-07T17:15:29Z</time>
      </trkpt>
      <trkpt lat="44.54027" lon="2.25641">
        <ele>266</ele>
        <time>2018-06-07T17:15:31Z</time>
      </trkpt>
      <trkpt lat="44.54029" lon="2.25635">
        <ele>266</ele>
        <time>2018-06-07T17:15:33Z</time>
      </trkpt>
      <trkpt lat="44.5403" lon="2.25632">
        <ele>266</ele>
        <time>2018-06-07T17:15:34Z</time>
      </trkpt>
      <trkpt lat="44.54032" lon="2.25628">
        <ele>266</ele>
        <time>2018-06-07T17:15:35Z</time>
      </trkpt>
      <trkpt lat="44.54033" lon="2.25622">
        <ele>266</ele>
        <time>2018-06-07T17:15:36Z</time>
      </trkpt>
      <trkpt lat="44.54035" lon="2.25618">
        <ele>266</ele>
        <time>2018-06-07T17:15:37Z</time>
      </trkpt>
      <trkpt lat="44.54036" lon="2.25613">
        <ele>266</ele>
        <time>2018-06-07T17:15:39Z</time>
      </trkpt>
      <trkpt lat="44.54037" lon="2.25609">
        <ele>266</ele>
        <time>2018-06-07T17:15:40Z</time>
      </trkpt>
      <trkpt lat="44.54039" lon="2.256">
        <ele>266</ele>
        <time>2018-06-07T17:15:42Z</time>
      </trkpt>
      <trkpt lat="44.5404" lon="2.25596">
        <ele>266</ele>
        <time>2018-06-07T17:15:45Z</time>
      </trkpt>
      <trkpt lat="44.54041" lon="2.25591">
        <ele>266</ele>
        <time>2018-06-07T17:15:46Z</time>
      </trkpt>
      <trkpt lat="44.54043" lon="2.25587">
        <ele>266</ele>
        <time>2018-06-07T17:15:47Z</time>
      </trkpt>
      <trkpt lat="44.54045" lon="2.25583">
        <ele>268</ele>
        <time>2018-06-07T17:15:49Z</time>
      </trkpt>
      <trkpt lat="44.54046" lon="2.25578">
        <ele>268</ele>
        <time>2018-06-07T17:15:51Z</time>
      </trkpt>
      <trkpt lat="44.54047" lon="2.25574">
        <ele>269</ele>
        <time>2018-06-07T17:15:52Z</time>
      </trkpt>
      <trkpt lat="44.54048" lon="2.2557">
        <ele>269</ele>
        <time>2018-06-07T17:15:53Z</time>
      </trkpt>
      <trkpt lat="44.5405" lon="2.25562">
        <ele>269</ele>
        <time>2018-06-07T17:15:55Z</time>
      </trkpt>
      <trkpt lat="44.54053" lon="2.25555">
        <ele>269</ele>
        <time>2018-06-07T17:15:57Z</time>
      </trkpt>
      <trkpt lat="44.54053" lon="2.2555">
        <ele>269</ele>
        <time>2018-06-07T17:15:58Z</time>
      </trkpt>
      <trkpt lat="44.54055" lon="2.25544">
        <ele>270</ele>
        <time>2018-06-07T17:16:01Z</time>
      </trkpt>
      <trkpt lat="44.54056" lon="2.25539">
        <ele>270</ele>
        <time>2018-06-07T17:16:02Z</time>
      </trkpt>
      <trkpt lat="44.54058" lon="2.25533">
        <ele>270</ele>
        <time>2018-06-07T17:16:04Z</time>
      </trkpt>
      <trkpt lat="44.54061" lon="2.25529">
        <ele>270</ele>
        <time>2018-06-07T17:16:07Z</time>
      </trkpt>
      <trkpt lat="44.54063" lon="2.25523">
        <ele>271</ele>
        <time>2018-06-07T17:16:08Z</time>
      </trkpt>
      <trkpt lat="44.54064" lon="2.25519">
        <ele>271</ele>
        <time>2018-06-07T17:16:09Z</time>
      </trkpt>
      <trkpt lat="44.54087" lon="2.25476">
        <ele>276</ele>
        <time>2018-06-07T17:17:31Z</time>
      </trkpt>
      <trkpt lat="44.54092" lon="2.25475">
        <ele>276</ele>
        <time>2018-06-07T17:17:33Z</time>
      </trkpt>
      <trkpt lat="44.54094" lon="2.25472">
        <ele>276</ele>
        <time>2018-06-07T17:17:35Z</time>
      </trkpt>
      <trkpt lat="44.54096" lon="2.25466">
        <ele>276</ele>
        <time>2018-06-07T17:17:37Z</time>
      </trkpt>
      <trkpt lat="44.541" lon="2.25465">
        <ele>277</ele>
        <time>2018-06-07T17:17:41Z</time>
      </trkpt>
      <trkpt lat="44.541" lon="2.25461">
        <ele>277</ele>
        <time>2018-06-07T17:17:43Z</time>
      </trkpt>
      <trkpt lat="44.54099" lon="2.25457">
        <ele>277</ele>
        <time>2018-06-07T17:17:45Z</time>
      </trkpt>
      <trkpt lat="44.54101" lon="2.2545">
        <ele>277</ele>
        <time>2018-06-07T17:17:47Z</time>
      </trkpt>
      <trkpt lat="44.54101" lon="2.25442">
        <ele>277</ele>
        <time>2018-06-07T17:17:49Z</time>
      </trkpt>
      <trkpt lat="44.541" lon="2.25446">
        <ele>277</ele>
        <time>2018-06-07T17:17:50Z</time>
      </trkpt>
      <trkpt lat="44.54101" lon="2.25451">
        <ele>277</ele>
        <time>2018-06-07T17:17:51Z</time>
      </trkpt>
      <trkpt lat="44.54102" lon="2.25446">
        <ele>277</ele>
        <time>2018-06-07T17:17:52Z</time>
      </trkpt>
      <trkpt lat="44.54104" lon="2.25442">
        <ele>277</ele>
        <time>2018-06-07T17:17:54Z</time>
      </trkpt>
      <trkpt lat="44.54112" lon="2.25444">
        <ele>277</ele>
        <time>2018-06-07T17:18:41Z</time>
      </trkpt>
      <trkpt lat="44.54118" lon="2.25443">
        <ele>278</ele>
        <time>2018-06-07T17:18:43Z</time>
      </trkpt>
      <trkpt lat="44.54121" lon="2.25442">
        <ele>278</ele>
        <time>2018-06-07T17:18:44Z</time>
      </trkpt>
      <trkpt lat="44.5413" lon="2.25431">
        <ele>278</ele>
        <time>2018-06-07T17:18:46Z</time>
      </trkpt>
      <trkpt lat="44.54134" lon="2.25424">
        <ele>279</ele>
        <time>2018-06-07T17:18:48Z</time>
      </trkpt>
      <trkpt lat="44.54137" lon="2.2542">
        <ele>279</ele>
        <time>2018-06-07T17:18:49Z</time>
      </trkpt>
      <trkpt lat="44.54142" lon="2.25416">
        <ele>279</ele>
        <time>2018-06-07T17:18:50Z</time>
      </trkpt>
      <trkpt lat="44.54147" lon="2.2541">
        <ele>279</ele>
        <time>2018-06-07T17:18:51Z</time>
      </trkpt>
      <trkpt lat="44.54153" lon="2.25408">
        <ele>280</ele>
        <time>2018-06-07T17:18:52Z</time>
      </trkpt>
      <trkpt lat="44.54157" lon="2.25404">
        <ele>280</ele>
        <time>2018-06-07T17:18:54Z</time>
      </trkpt>
      <trkpt lat="44.54162" lon="2.25398">
        <ele>280</ele>
        <time>2018-06-07T17:18:57Z</time>
      </trkpt>
      <trkpt lat="44.54168" lon="2.25395">
        <ele>283</ele>
        <time>2018-06-07T17:18:59Z</time>
      </trkpt>
      <trkpt lat="44.54172" lon="2.25389">
        <ele>283</ele>
        <time>2018-06-07T17:19:00Z</time>
      </trkpt>
      <trkpt lat="44.54172" lon="2.25393">
        <ele>283</ele>
        <time>2018-06-07T17:19:01Z</time>
      </trkpt>
      <trkpt lat="44.54176" lon="2.25391">
        <ele>284</ele>
        <time>2018-06-07T17:19:02Z</time>
      </trkpt>
      <trkpt lat="44.5418" lon="2.25387">
        <ele>284</ele>
        <time>2018-06-07T17:19:03Z</time>
      </trkpt>
      <trkpt lat="44.54184" lon="2.25387">
        <ele>284</ele>
        <time>2018-06-07T17:19:04Z</time>
      </trkpt>
      <trkpt lat="44.54187" lon="2.25392">
        <ele>284</ele>
        <time>2018-06-07T17:19:06Z</time>
      </trkpt>
      <trkpt lat="44.5419" lon="2.25394">
        <ele>284</ele>
        <time>2018-06-07T17:19:08Z</time>
      </trkpt>
      <trkpt lat="44.54195" lon="2.25391">
        <ele>285</ele>
        <time>2018-06-07T17:19:10Z</time>
      </trkpt>
      <trkpt lat="44.54199" lon="2.25388">
        <ele>285</ele>
        <time>2018-06-07T17:19:12Z</time>
      </trkpt>
      <trkpt lat="44.54203" lon="2.25382">
        <ele>285</ele>
        <time>2018-06-07T17:19:13Z</time>
      </trkpt>
      <trkpt lat="44.54206" lon="2.25381">
        <ele>285</ele>
        <time>2018-06-07T17:19:15Z</time>
      </trkpt>
      <trkpt lat="44.5421" lon="2.25377">
        <ele>285</ele>
        <time>2018-06-07T17:19:16Z</time>
      </trkpt>
      <trkpt lat="44.54215" lon="2.25374">
        <ele>285</ele>
        <time>2018-06-07T17:19:19Z</time>
      </trkpt>
      <trkpt lat="44.5422" lon="2.25372">
        <ele>286</ele>
        <time>2018-06-07T17:19:21Z</time>
      </trkpt>
      <trkpt lat="44.54224" lon="2.25371">
        <ele>286</ele>
        <time>2018-06-07T17:19:23Z</time>
      </trkpt>
      <trkpt lat="44.54227" lon="2.25368">
        <ele>286</ele>
        <time>2018-06-07T17:19:24Z</time>
      </trkpt>
      <trkpt lat="44.5423" lon="2.25368">
        <ele>286</ele>
        <time>2018-06-07T17:19:26Z</time>
      </trkpt>
      <trkpt lat="44.54235" lon="2.25366">
        <ele>286</ele>
        <time>2018-06-07T17:19:28Z</time>
      </trkpt>
      <trkpt lat="44.54238" lon="2.25365">
        <ele>286</ele>
        <time>2018-06-07T17:19:29Z</time>
      </trkpt>
      <trkpt lat="44.54241" lon="2.25362">
        <ele>286</ele>
        <time>2018-06-07T17:19:31Z</time>
      </trkpt>
      <trkpt lat="44.54245" lon="2.2536">
        <ele>287</ele>
        <time>2018-06-07T17:19:33Z</time>
      </trkpt>
      <trkpt lat="44.54255" lon="2.25351">
        <ele>294</ele>
        <time>2018-06-07T17:19:37Z</time>
      </trkpt>
      <trkpt lat="44.54259" lon="2.25353">
        <ele>294</ele>
        <time>2018-06-07T17:19:39Z</time>
      </trkpt>
      <trkpt lat="44.54263" lon="2.25352">
        <ele>295</ele>
        <time>2018-06-07T17:19:41Z</time>
      </trkpt>
      <trkpt lat="44.54266" lon="2.2535">
        <ele>295</ele>
        <time>2018-06-07T17:19:43Z</time>
      </trkpt>
      <trkpt lat="44.54283" lon="2.25334">
        <ele>297</ele>
        <time>2018-06-07T17:19:51Z</time>
      </trkpt>
      <trkpt lat="44.54287" lon="2.25333">
        <ele>292</ele>
        <time>2018-06-07T17:19:53Z</time>
      </trkpt>
      <trkpt lat="44.54288" lon="2.2533">
        <ele>292</ele>
        <time>2018-06-07T17:19:58Z</time>
      </trkpt>
      <trkpt lat="44.54291" lon="2.25337">
        <ele>299</ele>
        <time>2018-06-07T17:20:00Z</time>
      </trkpt>
      <trkpt lat="44.54292" lon="2.25341">
        <ele>299</ele>
        <time>2018-06-07T17:20:02Z</time>
      </trkpt>
      <trkpt lat="44.54295" lon="2.25338">
        <ele>299</ele>
        <time>2018-06-07T17:20:03Z</time>
      </trkpt>
      <trkpt lat="44.54296" lon="2.25343">
        <ele>299</ele>
        <time>2018-06-07T17:20:04Z</time>
      </trkpt>
      <trkpt lat="44.54299" lon="2.25343">
        <ele>300</ele>
        <time>2018-06-07T17:20:06Z</time>
      </trkpt>
      <trkpt lat="44.54303" lon="2.25339">
        <ele>301</ele>
        <time>2018-06-07T17:20:07Z</time>
      </trkpt>
      <trkpt lat="44.54306" lon="2.25336">
        <ele>301</ele>
        <time>2018-06-07T17:20:08Z</time>
      </trkpt>
      <trkpt lat="44.54308" lon="2.25338">
        <ele>302</ele>
        <time>2018-06-07T17:20:09Z</time>
      </trkpt>
      <trkpt lat="44.5431" lon="2.25348">
        <ele>302</ele>
        <time>2018-06-07T17:20:10Z</time>
      </trkpt>
      <trkpt lat="44.54315" lon="2.25345">
        <ele>302</ele>
        <time>2018-06-07T17:20:12Z</time>
      </trkpt>
      <trkpt lat="44.54318" lon="2.25337">
        <ele>303</ele>
        <time>2018-06-07T17:20:13Z</time>
      </trkpt>
      <trkpt lat="44.54319" lon="2.25341">
        <ele>303</ele>
        <time>2018-06-07T17:20:15Z</time>
      </trkpt>
      <trkpt lat="44.54322" lon="2.25337">
        <ele>304</ele>
        <time>2018-06-07T17:20:17Z</time>
      </trkpt>
      <trkpt lat="44.54326" lon="2.25334">
        <ele>305</ele>
        <time>2018-06-07T17:20:19Z</time>
      </trkpt>
      <trkpt lat="44.5433" lon="2.25334">
        <ele>306</ele>
        <time>2018-06-07T17:20:21Z</time>
      </trkpt>
      <trkpt lat="44.54329" lon="2.25339">
        <ele>305</ele>
        <time>2018-06-07T17:20:23Z</time>
      </trkpt>
      <trkpt lat="44.54332" lon="2.25341">
        <ele>305</ele>
        <time>2018-06-07T17:20:25Z</time>
      </trkpt>
      <trkpt lat="44.54331" lon="2.25347">
        <ele>304</ele>
        <time>2018-06-07T17:20:28Z</time>
      </trkpt>
      <trkpt lat="44.54333" lon="2.2535">
        <ele>304</ele>
        <time>2018-06-07T17:20:30Z</time>
      </trkpt>
      <trkpt lat="44.54334" lon="2.25356">
        <ele>312</ele>
        <time>2018-06-07T17:20:32Z</time>
      </trkpt>
      <trkpt lat="44.54335" lon="2.25362">
        <ele>313</ele>
        <time>2018-06-07T17:20:35Z</time>
      </trkpt>
      <trkpt lat="44.54336" lon="2.25367">
        <ele>313</ele>
        <time>2018-06-07T17:20:38Z</time>
      </trkpt>
      <trkpt lat="44.54337" lon="2.25371">
        <ele>314</ele>
        <time>2018-06-07T17:20:39Z</time>
      </trkpt>
      <trkpt lat="44.54335" lon="2.25376">
        <ele>314</ele>
        <time>2018-06-07T17:20:42Z</time>
      </trkpt>
      <trkpt lat="44.54334" lon="2.25381">
        <ele>314</ele>
        <time>2018-06-07T17:20:45Z</time>
      </trkpt>
      <trkpt lat="44.54334" lon="2.25385">
        <ele>314</ele>
        <time>2018-06-07T17:20:48Z</time>
      </trkpt>
      <trkpt lat="44.54334" lon="2.25389">
        <ele>314</ele>
        <time>2018-06-07T17:20:50Z</time>
      </trkpt>
      <trkpt lat="44.54331" lon="2.25394">
        <ele>305</ele>
        <time>2018-06-07T17:20:53Z</time>
      </trkpt>
      <trkpt lat="44.54331" lon="2.25402">
        <ele>306</ele>
        <time>2018-06-07T17:20:55Z</time>
      </trkpt>
      <trkpt lat="44.5433" lon="2.25408">
        <ele>307</ele>
        <time>2018-06-07T17:20:57Z</time>
      </trkpt>
      <trkpt lat="44.5433" lon="2.25413">
        <ele>309</ele>
        <time>2018-06-07T17:20:59Z</time>
      </trkpt>
      <trkpt lat="44.54329" lon="2.25417">
        <ele>310</ele>
        <time>2018-06-07T17:21:00Z</time>
      </trkpt>
      <trkpt lat="44.54328" lon="2.25422">
        <ele>309</ele>
        <time>2018-06-07T17:21:02Z</time>
      </trkpt>
      <trkpt lat="44.54327" lon="2.25429">
        <ele>308</ele>
        <time>2018-06-07T17:21:04Z</time>
      </trkpt>
      <trkpt lat="44.54326" lon="2.25436">
        <ele>307</ele>
        <time>2018-06-07T17:21:06Z</time>
      </trkpt>
      <trkpt lat="44.54325" lon="2.25441">
        <ele>307</ele>
        <time>2018-06-07T17:21:07Z</time>
      </trkpt>
      <trkpt lat="44.54325" lon="2.25445">
        <ele>307</ele>
        <time>2018-06-07T17:21:08Z</time>
      </trkpt>
      <trkpt lat="44.54326" lon="2.25449">
        <ele>307</ele>
        <time>2018-06-07T17:21:09Z</time>
      </trkpt>
      <trkpt lat="44.54326" lon="2.25457">
        <ele>307</ele>
        <time>2018-06-07T17:21:11Z</time>
      </trkpt>
      <trkpt lat="44.54326" lon="2.25461">
        <ele>307</ele>
        <time>2018-06-07T17:21:12Z</time>
      </trkpt>
      <trkpt lat="44.54325" lon="2.25467">
        <ele>307</ele>
        <time>2018-06-07T17:21:14Z</time>
      </trkpt>
      <trkpt lat="44.54326" lon="2.25472">
        <ele>308</ele>
        <time>2018-06-07T17:21:15Z</time>
      </trkpt>
      <trkpt lat="44.54326" lon="2.25478">
        <ele>309</ele>
        <time>2018-06-07T17:21:17Z</time>
      </trkpt>
      <trkpt lat="44.54326" lon="2.25482">
        <ele>309</ele>
        <time>2018-06-07T17:21:18Z</time>
      </trkpt>
      <trkpt lat="44.54326" lon="2.25489">
        <ele>311</ele>
        <time>2018-06-07T17:21:20Z</time>
      </trkpt>
      <trkpt lat="44.54327" lon="2.25493">
        <ele>312</ele>
        <time>2018-06-07T17:21:21Z</time>
      </trkpt>
      <trkpt lat="44.54327" lon="2.25501">
        <ele>314</ele>
        <time>2018-06-07T17:21:23Z</time>
      </trkpt>
      <trkpt lat="44.54326" lon="2.25506">
        <ele>313</ele>
        <time>2018-06-07T17:21:25Z</time>
      </trkpt>
      <trkpt lat="44.54327" lon="2.25513">
        <ele>312</ele>
        <time>2018-06-07T17:21:27Z</time>
      </trkpt>
      <trkpt lat="44.54327" lon="2.25517">
        <ele>312</ele>
        <time>2018-06-07T17:21:29Z</time>
      </trkpt>
      <trkpt lat="44.54327" lon="2.25522">
        <ele>311</ele>
        <time>2018-06-07T17:21:30Z</time>
      </trkpt>
      <trkpt lat="44.54327" lon="2.25526">
        <ele>311</ele>
        <time>2018-06-07T17:21:31Z</time>
      </trkpt>
      <trkpt lat="44.54327" lon="2.25531">
        <ele>311</ele>
        <time>2018-06-07T17:21:33Z</time>
      </trkpt>
      <trkpt lat="44.54326" lon="2.25536">
        <ele>311</ele>
        <time>2018-06-07T17:21:36Z</time>
      </trkpt>
      <trkpt lat="44.54326" lon="2.25549">
        <ele>311</ele>
        <time>2018-06-07T17:21:41Z</time>
      </trkpt>
      <trkpt lat="44.54325" lon="2.25555">
        <ele>311</ele>
        <time>2018-06-07T17:21:44Z</time>
      </trkpt>
      <trkpt lat="44.54325" lon="2.25559">
        <ele>312</ele>
        <time>2018-06-07T17:21:47Z</time>
      </trkpt>
      <trkpt lat="44.54325" lon="2.25563">
        <ele>313</ele>
        <time>2018-06-07T17:21:49Z</time>
      </trkpt>
      <trkpt lat="44.54325" lon="2.25569">
        <ele>314</ele>
        <time>2018-06-07T17:21:51Z</time>
      </trkpt>
      <trkpt lat="44.54326" lon="2.25572">
        <ele>315</ele>
        <time>2018-06-07T17:21:55Z</time>
      </trkpt>
      <trkpt lat="44.54327" lon="2.25577">
        <ele>316</ele>
        <time>2018-06-07T17:21:57Z</time>
      </trkpt>
      <trkpt lat="44.54326" lon="2.25581">
        <ele>317</ele>
        <time>2018-06-07T17:22:00Z</time>
      </trkpt>
      <trkpt lat="44.54327" lon="2.25586">
        <ele>318</ele>
        <time>2018-06-07T17:22:02Z</time>
      </trkpt>
      <trkpt lat="44.54327" lon="2.25592">
        <ele>317</ele>
        <time>2018-06-07T17:22:05Z</time>
      </trkpt>
      <trkpt lat="44.54326" lon="2.25598">
        <ele>316</ele>
        <time>2018-06-07T17:22:07Z</time>
      </trkpt>
      <trkpt lat="44.54326" lon="2.25602">
        <ele>315</ele>
        <time>2018-06-07T17:22:09Z</time>
      </trkpt>
      <trkpt lat="44.54327" lon="2.25608">
        <ele>315</ele>
        <time>2018-06-07T17:22:11Z</time>
      </trkpt>
      <trkpt lat="44.54326" lon="2.25612">
        <ele>315</ele>
        <time>2018-06-07T17:22:12Z</time>
      </trkpt>
      <trkpt lat="44.54327" lon="2.25616">
        <ele>315</ele>
        <time>2018-06-07T17:22:14Z</time>
      </trkpt>
      <trkpt lat="44.54327" lon="2.25621">
        <ele>315</ele>
        <time>2018-06-07T17:22:17Z</time>
      </trkpt>
      <trkpt lat="44.54327" lon="2.25625">
        <ele>315</ele>
        <time>2018-06-07T17:22:19Z</time>
      </trkpt>
      <trkpt lat="44.54326" lon="2.2563">
        <ele>315</ele>
        <time>2018-06-07T17:22:21Z</time>
      </trkpt>
      <trkpt lat="44.54326" lon="2.25634">
        <ele>315</ele>
        <time>2018-06-07T17:22:24Z</time>
      </trkpt>
      <trkpt lat="44.54326" lon="2.25639">
        <ele>316</ele>
        <time>2018-06-07T17:22:26Z</time>
      </trkpt>
      <trkpt lat="44.54326" lon="2.25643">
        <ele>317</ele>
        <time>2018-06-07T17:22:29Z</time>
      </trkpt>
      <trkpt lat="44.54324" lon="2.25647">
        <ele>317</ele>
        <time>2018-06-07T17:22:31Z</time>
      </trkpt>
      <trkpt lat="44.54324" lon="2.25652">
        <ele>318</ele>
        <time>2018-06-07T17:22:34Z</time>
      </trkpt>
      <trkpt lat="44.54324" lon="2.25658">
        <ele>320</ele>
        <time>2018-06-07T17:22:36Z</time>
      </trkpt>
      <trkpt lat="44.54324" lon="2.25664">
        <ele>321</ele>
        <time>2018-06-07T17:22:38Z</time>
      </trkpt>
      <trkpt lat="44.54323" lon="2.2567">
        <ele>322</ele>
        <time>2018-06-07T17:22:40Z</time>
      </trkpt>
      <trkpt lat="44.54322" lon="2.25673">
        <ele>321</ele>
        <time>2018-06-07T17:22:43Z</time>
      </trkpt>
      <trkpt lat="44.54322" lon="2.25678">
        <ele>321</ele>
        <time>2018-06-07T17:22:45Z</time>
      </trkpt>
      <trkpt lat="44.54321" lon="2.25682">
        <ele>320</ele>
        <time>2018-06-07T17:22:48Z</time>
      </trkpt>
      <trkpt lat="44.54321" lon="2.25687">
        <ele>320</ele>
        <time>2018-06-07T17:22:50Z</time>
      </trkpt>
      <trkpt lat="44.5432" lon="2.2569">
        <ele>319</ele>
        <time>2018-06-07T17:22:52Z</time>
      </trkpt>
      <trkpt lat="44.5432" lon="2.25696">
        <ele>319</ele>
        <time>2018-06-07T17:22:55Z</time>
      </trkpt>
      <trkpt lat="44.54319" lon="2.25701">
        <ele>319</ele>
        <time>2018-06-07T17:22:57Z</time>
      </trkpt>
      <trkpt lat="44.54318" lon="2.25706">
        <ele>319</ele>
        <time>2018-06-07T17:23:00Z</time>
      </trkpt>
      <trkpt lat="44.54318" lon="2.25711">
        <ele>319</ele>
        <time>2018-06-07T17:23:02Z</time>
      </trkpt>
      <trkpt lat="44.54317" lon="2.25716">
        <ele>319</ele>
        <time>2018-06-07T17:23:04Z</time>
      </trkpt>
      <trkpt lat="44.54316" lon="2.2572">
        <ele>320</ele>
        <time>2018-06-07T17:23:06Z</time>
      </trkpt>
      <trkpt lat="44.54316" lon="2.25724">
        <ele>320</ele>
        <time>2018-06-07T17:23:08Z</time>
      </trkpt>
      <trkpt lat="44.54315" lon="2.25728">
        <ele>321</ele>
        <time>2018-06-07T17:23:10Z</time>
      </trkpt>
      <trkpt lat="44.54314" lon="2.25732">
        <ele>321</ele>
        <time>2018-06-07T17:23:12Z</time>
      </trkpt>
      <trkpt lat="44.54313" lon="2.25736">
        <ele>321</ele>
        <time>2018-06-07T17:23:14Z</time>
      </trkpt>
      <trkpt lat="44.54312" lon="2.2574">
        <ele>321</ele>
        <time>2018-06-07T17:23:16Z</time>
      </trkpt>
      <trkpt lat="44.54311" lon="2.25745">
        <ele>322</ele>
        <time>2018-06-07T17:23:18Z</time>
      </trkpt>
      <trkpt lat="44.5431" lon="2.2575">
        <ele>326</ele>
        <time>2018-06-07T17:23:21Z</time>
      </trkpt>
      <trkpt lat="44.54309" lon="2.25754">
        <ele>326</ele>
        <time>2018-06-07T17:23:23Z</time>
      </trkpt>
      <trkpt lat="44.54309" lon="2.25758">
        <ele>326</ele>
        <time>2018-06-07T17:23:25Z</time>
      </trkpt>
      <trkpt lat="44.54308" lon="2.25762">
        <ele>326</ele>
        <time>2018-06-07T17:23:27Z</time>
      </trkpt>
      <trkpt lat="44.54308" lon="2.25767">
        <ele>326</ele>
        <time>2018-06-07T17:23:29Z</time>
      </trkpt>
      <trkpt lat="44.54307" lon="2.25771">
        <ele>326</ele>
        <time>2018-06-07T17:23:31Z</time>
      </trkpt>
      <trkpt lat="44.54306" lon="2.25775">
        <ele>326</ele>
        <time>2018-06-07T17:23:33Z</time>
      </trkpt>
      <trkpt lat="44.54305" lon="2.25779">
        <ele>326</ele>
        <time>2018-06-07T17:23:35Z</time>
      </trkpt>
      <trkpt lat="44.54305" lon="2.25783">
        <ele>326</ele>
        <time>2018-06-07T17:23:37Z</time>
      </trkpt>
      <trkpt lat="44.54304" lon="2.25788">
        <ele>326</ele>
        <time>2018-06-07T17:23:40Z</time>
      </trkpt>
      <trkpt lat="44.54303" lon="2.25792">
        <ele>326</ele>
        <time>2018-06-07T17:23:42Z</time>
      </trkpt>
      <trkpt lat="44.54302" lon="2.25796">
        <ele>326</ele>
        <time>2018-06-07T17:23:44Z</time>
      </trkpt>
      <trkpt lat="44.54302" lon="2.25801">
        <ele>327</ele>
        <time>2018-06-07T17:23:47Z</time>
      </trkpt>
      <trkpt lat="44.54301" lon="2.25806">
        <ele>327</ele>
        <time>2018-06-07T17:23:50Z</time>
      </trkpt>
      <trkpt lat="44.543" lon="2.2581">
        <ele>327</ele>
        <time>2018-06-07T17:23:52Z</time>
      </trkpt>
      <trkpt lat="44.54299" lon="2.25816">
        <ele>328</ele>
        <time>2018-06-07T17:23:55Z</time>
      </trkpt>
      <trkpt lat="44.54298" lon="2.25828">
        <ele>328</ele>
        <time>2018-06-07T17:24:00Z</time>
      </trkpt>
      <trkpt lat="44.54297" lon="2.25832">
        <ele>328</ele>
        <time>2018-06-07T17:24:02Z</time>
      </trkpt>
      <trkpt lat="44.54297" lon="2.25836">
        <ele>336</ele>
        <time>2018-06-07T17:24:04Z</time>
      </trkpt>
      <trkpt lat="44.54297" lon="2.25843">
        <ele>336</ele>
        <time>2018-06-07T17:24:06Z</time>
      </trkpt>
      <trkpt lat="44.54297" lon="2.25848">
        <ele>336</ele>
        <time>2018-06-07T17:24:08Z</time>
      </trkpt>
      <trkpt lat="44.54296" lon="2.25855">
        <ele>336</ele>
        <time>2018-06-07T17:24:10Z</time>
      </trkpt>
      <trkpt lat="44.54295" lon="2.25861">
        <ele>336</ele>
        <time>2018-06-07T17:24:12Z</time>
      </trkpt>
      <trkpt lat="44.54294" lon="2.25866">
        <ele>337</ele>
        <time>2018-06-07T17:24:13Z</time>
      </trkpt>
      <trkpt lat="44.54294" lon="2.25871">
        <ele>337</ele>
        <time>2018-06-07T17:24:15Z</time>
      </trkpt>
      <trkpt lat="44.54293" lon="2.25878">
        <ele>337</ele>
        <time>2018-06-07T17:24:17Z</time>
      </trkpt>
      <trkpt lat="44.54292" lon="2.25884">
        <ele>338</ele>
        <time>2018-06-07T17:24:19Z</time>
      </trkpt>
      <trkpt lat="44.54292" lon="2.25891">
        <ele>338</ele>
        <time>2018-06-07T17:24:21Z</time>
      </trkpt>
      <trkpt lat="44.54291" lon="2.25897">
        <ele>338</ele>
        <time>2018-06-07T17:24:23Z</time>
      </trkpt>
      <trkpt lat="44.54291" lon="2.25903">
        <ele>339</ele>
        <time>2018-06-07T17:24:25Z</time>
      </trkpt>
      <trkpt lat="44.5429" lon="2.2591">
        <ele>339</ele>
        <time>2018-06-07T17:24:27Z</time>
      </trkpt>
      <trkpt lat="44.5429" lon="2.25916">
        <ele>339</ele>
        <time>2018-06-07T17:24:29Z</time>
      </trkpt>
      <trkpt lat="44.5429" lon="2.25923">
        <ele>345</ele>
        <time>2018-06-07T17:24:31Z</time>
      </trkpt>
      <trkpt lat="44.5429" lon="2.2593">
        <ele>345</ele>
        <time>2018-06-07T17:24:33Z</time>
      </trkpt>
      <trkpt lat="44.5429" lon="2.25935">
        <ele>345</ele>
        <time>2018-06-07T17:24:35Z</time>
      </trkpt>
      <trkpt lat="44.5429" lon="2.25942">
        <ele>345</ele>
        <time>2018-06-07T17:24:37Z</time>
      </trkpt>
      <trkpt lat="44.54291" lon="2.25946">
        <ele>346</ele>
        <time>2018-06-07T17:24:39Z</time>
      </trkpt>
      <trkpt lat="44.54292" lon="2.25951">
        <ele>346</ele>
        <time>2018-06-07T17:24:41Z</time>
      </trkpt>
      <trkpt lat="44.54293" lon="2.25956">
        <ele>346</ele>
        <time>2018-06-07T17:24:43Z</time>
      </trkpt>
      <trkpt lat="44.54294" lon="2.2596">
        <ele>347</ele>
        <time>2018-06-07T17:24:45Z</time>
      </trkpt>
      <trkpt lat="44.54295" lon="2.25964">
        <ele>347</ele>
        <time>2018-06-07T17:24:47Z</time>
      </trkpt>
      <trkpt lat="44.54296" lon="2.25968">
        <ele>347</ele>
        <time>2018-06-07T17:24:49Z</time>
      </trkpt>
      <trkpt lat="44.54297" lon="2.25972">
        <ele>347</ele>
        <time>2018-06-07T17:24:51Z</time>
      </trkpt>
      <trkpt lat="44.54298" lon="2.25977">
        <ele>348</ele>
        <time>2018-06-07T17:24:54Z</time>
      </trkpt>
      <trkpt lat="44.54297" lon="2.25981">
        <ele>348</ele>
        <time>2018-06-07T17:24:56Z</time>
      </trkpt>
      <trkpt lat="44.54297" lon="2.25985">
        <ele>348</ele>
        <time>2018-06-07T17:24:58Z</time>
      </trkpt>
      <trkpt lat="44.543" lon="2.25989">
        <ele>348</ele>
        <time>2018-06-07T17:25:00Z</time>
      </trkpt>
      <trkpt lat="44.54302" lon="2.25994">
        <ele>349</ele>
        <time>2018-06-07T17:25:02Z</time>
      </trkpt>
      <trkpt lat="44.54304" lon="2.25998">
        <ele>349</ele>
        <time>2018-06-07T17:25:04Z</time>
      </trkpt>
      <trkpt lat="44.54307" lon="2.26002">
        <ele>350</ele>
        <time>2018-06-07T17:25:07Z</time>
      </trkpt>
      <trkpt lat="44.54309" lon="2.26007">
        <ele>350</ele>
        <time>2018-06-07T17:25:09Z</time>
      </trkpt>
      <trkpt lat="44.54311" lon="2.2601">
        <ele>351</ele>
        <time>2018-06-07T17:25:10Z</time>
      </trkpt>
      <trkpt lat="44.54313" lon="2.26012">
        <ele>351</ele>
        <time>2018-06-07T17:25:12Z</time>
      </trkpt>
      <trkpt lat="44.54315" lon="2.26017">
        <ele>351</ele>
        <time>2018-06-07T17:25:14Z</time>
      </trkpt>
      <trkpt lat="44.54317" lon="2.26022">
        <ele>350</ele>
        <time>2018-06-07T17:25:17Z</time>
      </trkpt>
      <trkpt lat="44.54319" lon="2.26025">
        <ele>350</ele>
        <time>2018-06-07T17:25:20Z</time>
      </trkpt>
      <trkpt lat="44.54323" lon="2.26026">
        <ele>351</ele>
        <time>2018-06-07T17:25:23Z</time>
      </trkpt>
      <trkpt lat="44.54326" lon="2.26031">
        <ele>351</ele>
        <time>2018-06-07T17:25:25Z</time>
      </trkpt>
      <trkpt lat="44.54331" lon="2.26035">
        <ele>351</ele>
        <time>2018-06-07T17:25:27Z</time>
      </trkpt>
      <trkpt lat="44.54334" lon="2.26037">
        <ele>353</ele>
        <time>2018-06-07T17:25:29Z</time>
      </trkpt>
      <trkpt lat="44.54337" lon="2.26041">
        <ele>353</ele>
        <time>2018-06-07T17:25:31Z</time>
      </trkpt>
      <trkpt lat="44.5434" lon="2.26044">
        <ele>353</ele>
        <time>2018-06-07T17:25:33Z</time>
      </trkpt>
      <trkpt lat="44.54344" lon="2.26048">
        <ele>353</ele>
        <time>2018-06-07T17:25:36Z</time>
      </trkpt>
      <trkpt lat="44.54346" lon="2.2605">
        <ele>352</ele>
        <time>2018-06-07T17:25:38Z</time>
      </trkpt>
      <trkpt lat="44.5435" lon="2.26053">
        <ele>352</ele>
        <time>2018-06-07T17:25:40Z</time>
      </trkpt>
      <trkpt lat="44.54354" lon="2.26053">
        <ele>352</ele>
        <time>2018-06-07T17:25:44Z</time>
      </trkpt>
      <trkpt lat="44.54358" lon="2.26058">
        <ele>352</ele>
        <time>2018-06-07T17:26:04Z</time>
      </trkpt>
      <trkpt lat="44.5436" lon="2.26062">
        <ele>352</ele>
        <time>2018-06-07T17:26:06Z</time>
      </trkpt>
      <trkpt lat="44.54362" lon="2.26068">
        <ele>352</ele>
        <time>2018-06-07T17:26:08Z</time>
      </trkpt>
      <trkpt lat="44.54363" lon="2.26074">
        <ele>352</ele>
        <time>2018-06-07T17:26:10Z</time>
      </trkpt>
      <trkpt lat="44.54365" lon="2.2608">
        <ele>352</ele>
        <time>2018-06-07T17:26:12Z</time>
      </trkpt>
      <trkpt lat="44.54367" lon="2.26086">
        <ele>349</ele>
        <time>2018-06-07T17:26:14Z</time>
      </trkpt>
      <trkpt lat="44.54369" lon="2.26089">
        <ele>349</ele>
        <time>2018-06-07T17:26:15Z</time>
      </trkpt>
      <trkpt lat="44.5437" lon="2.26092">
        <ele>348</ele>
        <time>2018-06-07T17:26:16Z</time>
      </trkpt>
      <trkpt lat="44.54372" lon="2.26098">
        <ele>348</ele>
        <time>2018-06-07T17:26:17Z</time>
      </trkpt>
      <trkpt lat="44.54373" lon="2.26102">
        <ele>348</ele>
        <time>2018-06-07T17:26:18Z</time>
      </trkpt>
      <trkpt lat="44.54375" lon="2.26109">
        <ele>348</ele>
        <time>2018-06-07T17:26:20Z</time>
      </trkpt>
      <trkpt lat="44.54378" lon="2.26118">
        <ele>347</ele>
        <time>2018-06-07T17:26:22Z</time>
      </trkpt>
      <trkpt lat="44.54379" lon="2.26122">
        <ele>347</ele>
        <time>2018-06-07T17:26:23Z</time>
      </trkpt>
      <trkpt lat="44.54381" lon="2.26126">
        <ele>347</ele>
        <time>2018-06-07T17:26:24Z</time>
      </trkpt>
      <trkpt lat="44.54382" lon="2.26131">
        <ele>347</ele>
        <time>2018-06-07T17:26:25Z</time>
      </trkpt>
      <trkpt lat="44.54384" lon="2.26136">
        <ele>346</ele>
        <time>2018-06-07T17:26:26Z</time>
      </trkpt>
      <trkpt lat="44.54385" lon="2.26141">
        <ele>346</ele>
        <time>2018-06-07T17:26:27Z</time>
      </trkpt>
      <trkpt lat="44.54387" lon="2.26146">
        <ele>346</ele>
        <time>2018-06-07T17:26:28Z</time>
      </trkpt>
      <trkpt lat="44.54388" lon="2.2615">
        <ele>346</ele>
        <time>2018-06-07T17:26:29Z</time>
      </trkpt>
      <trkpt lat="44.54389" lon="2.26154">
        <ele>346</ele>
        <time>2018-06-07T17:26:30Z</time>
      </trkpt>
      <trkpt lat="44.5439" lon="2.26158">
        <ele>345</ele>
        <time>2018-06-07T17:26:31Z</time>
      </trkpt>
      <trkpt lat="44.54391" lon="2.26162">
        <ele>345</ele>
        <time>2018-06-07T17:26:33Z</time>
      </trkpt>
      <trkpt lat="44.54392" lon="2.26166">
        <ele>345</ele>
        <time>2018-06-07T17:26:34Z</time>
      </trkpt>
      <trkpt lat="44.54393" lon="2.2617">
        <ele>343</ele>
        <time>2018-06-07T17:26:35Z</time>
      </trkpt>
      <trkpt lat="44.54395" lon="2.26174">
        <ele>343</ele>
        <time>2018-06-07T17:26:36Z</time>
      </trkpt>
      <trkpt lat="44.54395" lon="2.26178">
        <ele>343</ele>
        <time>2018-06-07T17:26:37Z</time>
      </trkpt>
      <trkpt lat="44.54396" lon="2.26183">
        <ele>343</ele>
        <time>2018-06-07T17:26:39Z</time>
      </trkpt>
      <trkpt lat="44.54399" lon="2.26189">
        <ele>344</ele>
        <time>2018-06-07T17:26:41Z</time>
      </trkpt>
      <trkpt lat="44.54401" lon="2.26195">
        <ele>344</ele>
        <time>2018-06-07T17:26:42Z</time>
      </trkpt>
      <trkpt lat="44.54403" lon="2.26201">
        <ele>344</ele>
        <time>2018-06-07T17:26:43Z</time>
      </trkpt>
      <trkpt lat="44.54404" lon="2.26205">
        <ele>344</ele>
        <time>2018-06-07T17:26:44Z</time>
      </trkpt>
      <trkpt lat="44.54406" lon="2.26212">
        <ele>344</ele>
        <time>2018-06-07T17:26:45Z</time>
      </trkpt>
      <trkpt lat="44.54408" lon="2.26221">
        <ele>344</ele>
        <time>2018-06-07T17:26:47Z</time>
      </trkpt>
      <trkpt lat="44.54409" lon="2.26226">
        <ele>345</ele>
        <time>2018-06-07T17:26:48Z</time>
      </trkpt>
      <trkpt lat="44.54411" lon="2.2623">
        <ele>345</ele>
        <time>2018-06-07T17:26:50Z</time>
      </trkpt>
      <trkpt lat="44.54413" lon="2.26234">
        <ele>345</ele>
        <time>2018-06-07T17:26:52Z</time>
      </trkpt>
      <trkpt lat="44.54414" lon="2.26239">
        <ele>345</ele>
        <time>2018-06-07T17:26:53Z</time>
      </trkpt>
      <trkpt lat="44.54417" lon="2.26247">
        <ele>346</ele>
        <time>2018-06-07T17:26:55Z</time>
      </trkpt>
      <trkpt lat="44.54418" lon="2.2625">
        <ele>346</ele>
        <time>2018-06-07T17:26:56Z</time>
      </trkpt>
      <trkpt lat="44.54419" lon="2.26255">
        <ele>344</ele>
        <time>2018-06-07T17:26:57Z</time>
      </trkpt>
      <trkpt lat="44.54421" lon="2.26261">
        <ele>341</ele>
        <time>2018-06-07T17:26:59Z</time>
      </trkpt>
      <trkpt lat="44.54423" lon="2.26267">
        <ele>340</ele>
        <time>2018-06-07T17:27:00Z</time>
      </trkpt>
      <trkpt lat="44.54423" lon="2.26272">
        <ele>339</ele>
        <time>2018-06-07T17:27:01Z</time>
      </trkpt>
      <trkpt lat="44.54425" lon="2.26281">
        <ele>338</ele>
        <time>2018-06-07T17:27:03Z</time>
      </trkpt>
      <trkpt lat="44.54426" lon="2.26288">
        <ele>338</ele>
        <time>2018-06-07T17:27:05Z</time>
      </trkpt>
      <trkpt lat="44.54427" lon="2.26295">
        <ele>338</ele>
        <time>2018-06-07T17:27:07Z</time>
      </trkpt>
      <trkpt lat="44.54428" lon="2.26299">
        <ele>338</ele>
        <time>2018-06-07T17:27:08Z</time>
      </trkpt>
      <trkpt lat="44.54431" lon="2.26306">
        <ele>338</ele>
        <time>2018-06-07T17:27:10Z</time>
      </trkpt>
      <trkpt lat="44.54432" lon="2.26311">
        <ele>339</ele>
        <time>2018-06-07T17:27:11Z</time>
      </trkpt>
      <trkpt lat="44.54433" lon="2.26318">
        <ele>339</ele>
        <time>2018-06-07T17:27:12Z</time>
      </trkpt>
      <trkpt lat="44.54435" lon="2.26324">
        <ele>339</ele>
        <time>2018-06-07T17:27:14Z</time>
      </trkpt>
      <trkpt lat="44.54436" lon="2.26328">
        <ele>339</ele>
        <time>2018-06-07T17:27:15Z</time>
      </trkpt>
      <trkpt lat="44.54438" lon="2.26334">
        <ele>342</ele>
        <time>2018-06-07T17:27:16Z</time>
      </trkpt>
      <trkpt lat="44.54439" lon="2.26339">
        <ele>341</ele>
        <time>2018-06-07T17:27:17Z</time>
      </trkpt>
      <trkpt lat="44.5444" lon="2.26345">
        <ele>341</ele>
        <time>2018-06-07T17:27:18Z</time>
      </trkpt>
      <trkpt lat="44.5444" lon="2.26349">
        <ele>341</ele>
        <time>2018-06-07T17:27:19Z</time>
      </trkpt>
      <trkpt lat="44.54441" lon="2.26356">
        <ele>340</ele>
        <time>2018-06-07T17:27:21Z</time>
      </trkpt>
      <trkpt lat="44.54442" lon="2.2636">
        <ele>340</ele>
        <time>2018-06-07T17:27:22Z</time>
      </trkpt>
      <trkpt lat="44.54442" lon="2.26367">
        <ele>340</ele>
        <time>2018-06-07T17:27:24Z</time>
      </trkpt>
      <trkpt lat="44.54442" lon="2.2637">
        <ele>340</ele>
        <time>2018-06-07T17:27:25Z</time>
      </trkpt>
      <trkpt lat="44.54442" lon="2.26375">
        <ele>340</ele>
        <time>2018-06-07T17:27:26Z</time>
      </trkpt>
      <trkpt lat="44.54443" lon="2.26379">
        <ele>340</ele>
        <time>2018-06-07T17:27:27Z</time>
      </trkpt>
      <trkpt lat="44.54445" lon="2.26385">
        <ele>340</ele>
        <time>2018-06-07T17:27:29Z</time>
      </trkpt>
      <trkpt lat="44.54445" lon="2.26389">
        <ele>340</ele>
        <time>2018-06-07T17:27:30Z</time>
      </trkpt>
      <trkpt lat="44.54446" lon="2.26393">
        <ele>340</ele>
        <time>2018-06-07T17:27:31Z</time>
      </trkpt>
      <trkpt lat="44.54446" lon="2.26397">
        <ele>340</ele>
        <time>2018-06-07T17:27:32Z</time>
      </trkpt>
      <trkpt lat="44.54449" lon="2.26405">
        <ele>340</ele>
        <time>2018-06-07T17:27:34Z</time>
      </trkpt>
      <trkpt lat="44.54449" lon="2.26411">
        <ele>340</ele>
        <time>2018-06-07T17:27:35Z</time>
      </trkpt>
      <trkpt lat="44.54452" lon="2.26415">
        <ele>340</ele>
        <time>2018-06-07T17:27:36Z</time>
      </trkpt>
      <trkpt lat="44.54453" lon="2.2642">
        <ele>341</ele>
        <time>2018-06-07T17:27:37Z</time>
      </trkpt>
      <trkpt lat="44.54453" lon="2.26426">
        <ele>341</ele>
        <time>2018-06-07T17:27:38Z</time>
      </trkpt>
      <trkpt lat="44.54453" lon="2.2643">
        <ele>341</ele>
        <time>2018-06-07T17:27:39Z</time>
      </trkpt>
      <trkpt lat="44.54454" lon="2.26439">
        <ele>341</ele>
        <time>2018-06-07T17:27:41Z</time>
      </trkpt>
      <trkpt lat="44.54455" lon="2.26444">
        <ele>341</ele>
        <time>2018-06-07T17:27:42Z</time>
      </trkpt>
      <trkpt lat="44.54458" lon="2.26452">
        <ele>341</ele>
        <time>2018-06-07T17:27:44Z</time>
      </trkpt>
      <trkpt lat="44.54459" lon="2.26456">
        <ele>341</ele>
        <time>2018-06-07T17:27:45Z</time>
      </trkpt>
      <trkpt lat="44.54459" lon="2.26461">
        <ele>341</ele>
        <time>2018-06-07T17:27:46Z</time>
      </trkpt>
      <trkpt lat="44.54459" lon="2.26466">
        <ele>341</ele>
        <time>2018-06-07T17:27:47Z</time>
      </trkpt>
      <trkpt lat="44.54459" lon="2.26471">
        <ele>341</ele>
        <time>2018-06-07T17:27:48Z</time>
      </trkpt>
      <trkpt lat="44.54461" lon="2.26476">
        <ele>341</ele>
        <time>2018-06-07T17:27:49Z</time>
      </trkpt>
      <trkpt lat="44.54462" lon="2.26483">
        <ele>341</ele>
        <time>2018-06-07T17:27:51Z</time>
      </trkpt>
      <trkpt lat="44.54463" lon="2.26487">
        <ele>341</ele>
        <time>2018-06-07T17:27:52Z</time>
      </trkpt>
      <trkpt lat="44.54464" lon="2.26494">
        <ele>341</ele>
        <time>2018-06-07T17:27:54Z</time>
      </trkpt>
      <trkpt lat="44.54466" lon="2.265">
        <ele>341</ele>
        <time>2018-06-07T17:27:55Z</time>
      </trkpt>
      <trkpt lat="44.54467" lon="2.26508">
        <ele>341</ele>
        <time>2018-06-07T17:27:57Z</time>
      </trkpt>
      <trkpt lat="44.54469" lon="2.26516">
        <ele>341</ele>
        <time>2018-06-07T17:27:59Z</time>
      </trkpt>
      <trkpt lat="44.54469" lon="2.26521">
        <ele>341</ele>
        <time>2018-06-07T17:28:00Z</time>
      </trkpt>
      <trkpt lat="44.54471" lon="2.26525">
        <ele>341</ele>
        <time>2018-06-07T17:28:01Z</time>
      </trkpt>
      <trkpt lat="44.54472" lon="2.26531">
        <ele>341</ele>
        <time>2018-06-07T17:28:02Z</time>
      </trkpt>
      <trkpt lat="44.54472" lon="2.26538">
        <ele>341</ele>
        <time>2018-06-07T17:28:04Z</time>
      </trkpt>
      <trkpt lat="44.54471" lon="2.26543">
        <ele>341</ele>
        <time>2018-06-07T17:28:05Z</time>
      </trkpt>
      <trkpt lat="44.54471" lon="2.26547">
        <ele>341</ele>
        <time>2018-06-07T17:28:06Z</time>
      </trkpt>
      <trkpt lat="44.5447" lon="2.26555">
        <ele>340</ele>
        <time>2018-06-07T17:28:08Z</time>
      </trkpt>
      <trkpt lat="44.5447" lon="2.26561">
        <ele>340</ele>
        <time>2018-06-07T17:28:09Z</time>
      </trkpt>
      <trkpt lat="44.54467" lon="2.26568">
        <ele>340</ele>
        <time>2018-06-07T17:28:11Z</time>
      </trkpt>
      <trkpt lat="44.54465" lon="2.26574">
        <ele>340</ele>
        <time>2018-06-07T17:28:13Z</time>
      </trkpt>
      <trkpt lat="44.54462" lon="2.26581">
        <ele>341</ele>
        <time>2018-06-07T17:28:15Z</time>
      </trkpt>
      <trkpt lat="44.5446" lon="2.26584">
        <ele>339</ele>
        <time>2018-06-07T17:28:16Z</time>
      </trkpt>
      <trkpt lat="44.54458" lon="2.26587">
        <ele>339</ele>
        <time>2018-06-07T17:28:17Z</time>
      </trkpt>
      <trkpt lat="44.54454" lon="2.2659">
        <ele>339</ele>
        <time>2018-06-07T17:28:18Z</time>
      </trkpt>
      <trkpt lat="44.54452" lon="2.26592">
        <ele>339</ele>
        <time>2018-06-07T17:28:19Z</time>
      </trkpt>
      <trkpt lat="44.54449" lon="2.26595">
        <ele>339</ele>
        <time>2018-06-07T17:28:20Z</time>
      </trkpt>
      <trkpt lat="44.54446" lon="2.26597">
        <ele>339</ele>
        <time>2018-06-07T17:28:21Z</time>
      </trkpt>
      <trkpt lat="44.54443" lon="2.26599">
        <ele>339</ele>
        <time>2018-06-07T17:28:22Z</time>
      </trkpt>
      <trkpt lat="44.5444" lon="2.26601">
        <ele>339</ele>
        <time>2018-06-07T17:28:23Z</time>
      </trkpt>
      <trkpt lat="44.54438" lon="2.26603">
        <ele>340</ele>
        <time>2018-06-07T17:28:24Z</time>
      </trkpt>
      <trkpt lat="44.54432" lon="2.26607">
        <ele>340</ele>
        <time>2018-06-07T17:28:26Z</time>
      </trkpt>
      <trkpt lat="44.54429" lon="2.26608">
        <ele>340</ele>
        <time>2018-06-07T17:28:27Z</time>
      </trkpt>
      <trkpt lat="44.54426" lon="2.2661">
        <ele>340</ele>
        <time>2018-06-07T17:28:28Z</time>
      </trkpt>
      <trkpt lat="44.54423" lon="2.26611">
        <ele>340</ele>
        <time>2018-06-07T17:28:29Z</time>
      </trkpt>
      <trkpt lat="44.54418" lon="2.26611">
        <ele>340</ele>
        <time>2018-06-07T17:28:31Z</time>
      </trkpt>
      <trkpt lat="44.54415" lon="2.26612">
        <ele>339</ele>
        <time>2018-06-07T17:28:32Z</time>
      </trkpt>
      <trkpt lat="44.54412" lon="2.26613">
        <ele>339</ele>
        <time>2018-06-07T17:28:33Z</time>
      </trkpt>
      <trkpt lat="44.54409" lon="2.26614">
        <ele>339</ele>
        <time>2018-06-07T17:28:34Z</time>
      </trkpt>
      <trkpt lat="44.54407" lon="2.26616">
        <ele>339</ele>
        <time>2018-06-07T17:28:35Z</time>
      </trkpt>
      <trkpt lat="44.54402" lon="2.26617">
        <ele>339</ele>
        <time>2018-06-07T17:28:37Z</time>
      </trkpt>
      <trkpt lat="44.54397" lon="2.26618">
        <ele>339</ele>
        <time>2018-06-07T17:28:38Z</time>
      </trkpt>
      <trkpt lat="44.54393" lon="2.2662">
        <ele>339</ele>
        <time>2018-06-07T17:28:39Z</time>
      </trkpt>
      <trkpt lat="44.54389" lon="2.2662">
        <ele>339</ele>
        <time>2018-06-07T17:28:40Z</time>
      </trkpt>
      <trkpt lat="44.54385" lon="2.2662">
        <ele>339</ele>
        <time>2018-06-07T17:28:42Z</time>
      </trkpt>
      <trkpt lat="44.54382" lon="2.26619">
        <ele>339</ele>
        <time>2018-06-07T17:28:43Z</time>
      </trkpt>
      <trkpt lat="44.54378" lon="2.26619">
        <ele>338</ele>
        <time>2018-06-07T17:28:44Z</time>
      </trkpt>
      <trkpt lat="44.54375" lon="2.2662">
        <ele>338</ele>
        <time>2018-06-07T17:28:46Z</time>
      </trkpt>
      <trkpt lat="44.5437" lon="2.26623">
        <ele>338</ele>
        <time>2018-06-07T17:28:47Z</time>
      </trkpt>
      <trkpt lat="44.54367" lon="2.26622">
        <ele>338</ele>
        <time>2018-06-07T17:28:48Z</time>
      </trkpt>
      <trkpt lat="44.54362" lon="2.26623">
        <ele>338</ele>
        <time>2018-06-07T17:28:50Z</time>
      </trkpt>
      <trkpt lat="44.54358" lon="2.26623">
        <ele>338</ele>
        <time>2018-06-07T17:28:52Z</time>
      </trkpt>
      <trkpt lat="44.54354" lon="2.26624">
        <ele>338</ele>
        <time>2018-06-07T17:28:54Z</time>
      </trkpt>
      <trkpt lat="44.54351" lon="2.26624">
        <ele>338</ele>
        <time>2018-06-07T17:28:55Z</time>
      </trkpt>
      <trkpt lat="44.54345" lon="2.26624">
        <ele>338</ele>
        <time>2018-06-07T17:28:57Z</time>
      </trkpt>
      <trkpt lat="44.54342" lon="2.26621">
        <ele>338</ele>
        <time>2018-06-07T17:28:58Z</time>
      </trkpt>
      <trkpt lat="44.54339" lon="2.2662">
        <ele>338</ele>
        <time>2018-06-07T17:28:59Z</time>
      </trkpt>
      <trkpt lat="44.54334" lon="2.26619">
        <ele>338</ele>
        <time>2018-06-07T17:29:01Z</time>
      </trkpt>
      <trkpt lat="44.54327" lon="2.26618">
        <ele>334</ele>
        <time>2018-06-07T17:29:03Z</time>
      </trkpt>
      <trkpt lat="44.54322" lon="2.26617">
        <ele>334</ele>
        <time>2018-06-07T17:29:05Z</time>
      </trkpt>
      <trkpt lat="44.54318" lon="2.26616">
        <ele>334</ele>
        <time>2018-06-07T17:29:07Z</time>
      </trkpt>
      <trkpt lat="44.54314" lon="2.26614">
        <ele>334</ele>
        <time>2018-06-07T17:29:09Z</time>
      </trkpt>
      <trkpt lat="44.54309" lon="2.26612">
        <ele>333</ele>
        <time>2018-06-07T17:29:11Z</time>
      </trkpt>
      <trkpt lat="44.54306" lon="2.26609">
        <ele>333</ele>
        <time>2018-06-07T17:29:12Z</time>
      </trkpt>
      <trkpt lat="44.54301" lon="2.26607">
        <ele>333</ele>
        <time>2018-06-07T17:29:13Z</time>
      </trkpt>
      <trkpt lat="44.54297" lon="2.26606">
        <ele>333</ele>
        <time>2018-06-07T17:29:14Z</time>
      </trkpt>
      <trkpt lat="44.54295" lon="2.26604">
        <ele>333</ele>
        <time>2018-06-07T17:29:15Z</time>
      </trkpt>
      <trkpt lat="44.54293" lon="2.26598">
        <ele>333</ele>
        <time>2018-06-07T17:29:17Z</time>
      </trkpt>
      <trkpt lat="44.54288" lon="2.26593">
        <ele>332</ele>
        <time>2018-06-07T17:29:19Z</time>
      </trkpt>
      <trkpt lat="44.54285" lon="2.2659">
        <ele>332</ele>
        <time>2018-06-07T17:29:20Z</time>
      </trkpt>
      <trkpt lat="44.54281" lon="2.26582">
        <ele>334</ele>
        <time>2018-06-07T17:29:22Z</time>
      </trkpt>
      <trkpt lat="44.54278" lon="2.26579">
        <ele>334</ele>
        <time>2018-06-07T17:29:23Z</time>
      </trkpt>
      <trkpt lat="44.54275" lon="2.26572">
        <ele>334</ele>
        <time>2018-06-07T17:29:25Z</time>
      </trkpt>
      <trkpt lat="44.54274" lon="2.26565">
        <ele>334</ele>
        <time>2018-06-07T17:29:27Z</time>
      </trkpt>
      <trkpt lat="44.54272" lon="2.26562">
        <ele>334</ele>
        <time>2018-06-07T17:29:28Z</time>
      </trkpt>
      <trkpt lat="44.5427" lon="2.26557">
        <ele>334</ele>
        <time>2018-06-07T17:29:29Z</time>
      </trkpt>
      <trkpt lat="44.54269" lon="2.2655">
        <ele>334</ele>
        <time>2018-06-07T17:29:31Z</time>
      </trkpt>
      <trkpt lat="44.54267" lon="2.26543">
        <ele>335</ele>
        <time>2018-06-07T17:29:33Z</time>
      </trkpt>
      <trkpt lat="44.54266" lon="2.26539">
        <ele>335</ele>
        <time>2018-06-07T17:29:34Z</time>
      </trkpt>
      <trkpt lat="44.54264" lon="2.26532">
        <ele>335</ele>
        <time>2018-06-07T17:29:36Z</time>
      </trkpt>
      <trkpt lat="44.54262" lon="2.26528">
        <ele>334</ele>
        <time>2018-06-07T17:29:37Z</time>
      </trkpt>
      <trkpt lat="44.54261" lon="2.26524">
        <ele>334</ele>
        <time>2018-06-07T17:29:38Z</time>
      </trkpt>
      <trkpt lat="44.5426" lon="2.2652">
        <ele>334</ele>
        <time>2018-06-07T17:29:39Z</time>
      </trkpt>
      <trkpt lat="44.54259" lon="2.26516">
        <ele>334</ele>
        <time>2018-06-07T17:29:40Z</time>
      </trkpt>
      <trkpt lat="44.54255" lon="2.26513">
        <ele>333</ele>
        <time>2018-06-07T17:29:41Z</time>
      </trkpt>
      <trkpt lat="44.54253" lon="2.26509">
        <ele>333</ele>
        <time>2018-06-07T17:29:42Z</time>
      </trkpt>
      <trkpt lat="44.54252" lon="2.26502">
        <ele>332</ele>
        <time>2018-06-07T17:29:44Z</time>
      </trkpt>
      <trkpt lat="44.54251" lon="2.26494">
        <ele>332</ele>
        <time>2018-06-07T17:29:46Z</time>
      </trkpt>
      <trkpt lat="44.5425" lon="2.26487">
        <ele>325</ele>
        <time>2018-06-07T17:29:48Z</time>
      </trkpt>
      <trkpt lat="44.5425" lon="2.26482">
        <ele>323</ele>
        <time>2018-06-07T17:29:49Z</time>
      </trkpt>
      <trkpt lat="44.54249" lon="2.26478">
        <ele>322</ele>
        <time>2018-06-07T17:29:50Z</time>
      </trkpt>
      <trkpt lat="44.54248" lon="2.26474">
        <ele>321</ele>
        <time>2018-06-07T17:29:51Z</time>
      </trkpt>
      <trkpt lat="44.54248" lon="2.26469">
        <ele>321</ele>
        <time>2018-06-07T17:29:52Z</time>
      </trkpt>
      <trkpt lat="44.54247" lon="2.26465">
        <ele>320</ele>
        <time>2018-06-07T17:29:53Z</time>
      </trkpt>
      <trkpt lat="44.54246" lon="2.26457">
        <ele>319</ele>
        <time>2018-06-07T17:29:55Z</time>
      </trkpt>
      <trkpt lat="44.54245" lon="2.26451">
        <ele>319</ele>
        <time>2018-06-07T17:29:56Z</time>
      </trkpt>
      <trkpt lat="44.54245" lon="2.26444">
        <ele>319</ele>
        <time>2018-06-07T17:29:58Z</time>
      </trkpt>
      <trkpt lat="44.54244" lon="2.2644">
        <ele>320</ele>
        <time>2018-06-07T17:29:59Z</time>
      </trkpt>
      <trkpt lat="44.54244" lon="2.26434">
        <ele>320</ele>
        <time>2018-06-07T17:30:00Z</time>
      </trkpt>
      <trkpt lat="44.54244" lon="2.26429">
        <ele>321</ele>
        <time>2018-06-07T17:30:01Z</time>
      </trkpt>
      <trkpt lat="44.54244" lon="2.26423">
        <ele>323</ele>
        <time>2018-06-07T17:30:03Z</time>
      </trkpt>
      <trkpt lat="44.54245" lon="2.26418">
        <ele>324</ele>
        <time>2018-06-07T17:30:05Z</time>
      </trkpt>
      <trkpt lat="44.54246" lon="2.26415">
        <ele>322</ele>
        <time>2018-06-07T17:30:06Z</time>
      </trkpt>
      <trkpt lat="44.54248" lon="2.26409">
        <ele>319</ele>
        <time>2018-06-07T17:30:08Z</time>
      </trkpt>
      <trkpt lat="44.54248" lon="2.26401">
        <ele>314</ele>
        <time>2018-06-07T17:30:09Z</time>
      </trkpt>
      <trkpt lat="44.54249" lon="2.26396">
        <ele>311</ele>
        <time>2018-06-07T17:30:10Z</time>
      </trkpt>
      <trkpt lat="44.54251" lon="2.26385">
        <ele>328</ele>
        <time>2018-06-07T17:30:12Z</time>
      </trkpt>
      <trkpt lat="44.5425" lon="2.26378">
        <ele>306</ele>
        <time>2018-06-07T17:30:13Z</time>
      </trkpt>
      <trkpt lat="44.5425" lon="2.26372">
        <ele>327</ele>
        <time>2018-06-07T17:30:14Z</time>
      </trkpt>
      <trkpt lat="44.54251" lon="2.26367">
        <ele>326</ele>
        <time>2018-06-07T17:30:15Z</time>
      </trkpt>
      <trkpt lat="44.54252" lon="2.26362">
        <ele>325</ele>
        <time>2018-06-07T17:30:16Z</time>
      </trkpt>
      <trkpt lat="44.54252" lon="2.26354">
        <ele>323</ele>
        <time>2018-06-07T17:30:17Z</time>
      </trkpt>
      <trkpt lat="44.54253" lon="2.2635">
        <ele>321</ele>
        <time>2018-06-07T17:30:18Z</time>
      </trkpt>
      <trkpt lat="44.54254" lon="2.26343">
        <ele>318</ele>
        <time>2018-06-07T17:30:19Z</time>
      </trkpt>
      <trkpt lat="44.54256" lon="2.26334">
        <ele>315</ele>
        <time>2018-06-07T17:30:21Z</time>
      </trkpt>
      <trkpt lat="44.54256" lon="2.26329">
        <ele>315</ele>
        <time>2018-06-07T17:30:22Z</time>
      </trkpt>
      <trkpt lat="44.54256" lon="2.26326">
        <ele>316</ele>
        <time>2018-06-07T17:30:24Z</time>
      </trkpt>
      <trkpt lat="44.54257" lon="2.26321">
        <ele>317</ele>
        <time>2018-06-07T17:30:26Z</time>
      </trkpt>
      <trkpt lat="44.54256" lon="2.26316">
        <ele>318</ele>
        <time>2018-06-07T17:30:27Z</time>
      </trkpt>
      <trkpt lat="44.54257" lon="2.26309">
        <ele>319</ele>
        <time>2018-06-07T17:30:29Z</time>
      </trkpt>
      <trkpt lat="44.54258" lon="2.26305">
        <ele>320</ele>
        <time>2018-06-07T17:30:30Z</time>
      </trkpt>
      <trkpt lat="44.54256" lon="2.263">
        <ele>320</ele>
        <time>2018-06-07T17:30:31Z</time>
      </trkpt>
      <trkpt lat="44.54254" lon="2.26294">
        <ele>320</ele>
        <time>2018-06-07T17:30:33Z</time>
      </trkpt>
      <trkpt lat="44.54254" lon="2.26287">
        <ele>320</ele>
        <time>2018-06-07T17:30:34Z</time>
      </trkpt>
      <trkpt lat="44.54255" lon="2.26283">
        <ele>319</ele>
        <time>2018-06-07T17:30:35Z</time>
      </trkpt>
      <trkpt lat="44.54256" lon="2.26277">
        <ele>319</ele>
        <time>2018-06-07T17:30:38Z</time>
      </trkpt>
      <trkpt lat="44.54255" lon="2.26273">
        <ele>318</ele>
        <time>2018-06-07T17:30:39Z</time>
      </trkpt>
      <trkpt lat="44.54254" lon="2.26266">
        <ele>316</ele>
        <time>2018-06-07T17:30:41Z</time>
      </trkpt>
      <trkpt lat="44.54252" lon="2.26262">
        <ele>315</ele>
        <time>2018-06-07T17:30:43Z</time>
      </trkpt>
      <trkpt lat="44.54252" lon="2.26258">
        <ele>313</ele>
        <time>2018-06-07T17:30:44Z</time>
      </trkpt>
      <trkpt lat="44.54251" lon="2.26254">
        <ele>311</ele>
        <time>2018-06-07T17:30:45Z</time>
      </trkpt>
      <trkpt lat="44.54248" lon="2.26248">
        <ele>306</ele>
        <time>2018-06-07T17:30:47Z</time>
      </trkpt>
      <trkpt lat="44.54246" lon="2.26242">
        <ele>302</ele>
        <time>2018-06-07T17:30:48Z</time>
      </trkpt>
      <trkpt lat="44.54245" lon="2.26237">
        <ele>300</ele>
        <time>2018-06-07T17:30:49Z</time>
      </trkpt>
      <trkpt lat="44.54245" lon="2.26233">
        <ele>299</ele>
        <time>2018-06-07T17:30:50Z</time>
      </trkpt>
      <trkpt lat="44.54241" lon="2.26225">
        <ele>297</ele>
        <time>2018-06-07T17:30:52Z</time>
      </trkpt>
      <trkpt lat="44.5424" lon="2.26221">
        <ele>296</ele>
        <time>2018-06-07T17:30:53Z</time>
      </trkpt>
      <trkpt lat="44.54237" lon="2.26216">
        <ele>296</ele>
        <time>2018-06-07T17:30:55Z</time>
      </trkpt>
      <trkpt lat="44.54236" lon="2.26213">
        <ele>295</ele>
        <time>2018-06-07T17:30:56Z</time>
      </trkpt>
      <trkpt lat="44.54232" lon="2.26205">
        <ele>295</ele>
        <time>2018-06-07T17:30:58Z</time>
      </trkpt>
      <trkpt lat="44.5423" lon="2.26198">
        <ele>296</ele>
        <time>2018-06-07T17:31:00Z</time>
      </trkpt>
      <trkpt lat="44.54227" lon="2.26192">
        <ele>296</ele>
        <time>2018-06-07T17:31:02Z</time>
      </trkpt>
      <trkpt lat="44.54224" lon="2.26188">
        <ele>295</ele>
        <time>2018-06-07T17:31:03Z</time>
      </trkpt>
      <trkpt lat="44.54221" lon="2.26184">
        <ele>295</ele>
        <time>2018-06-07T17:31:05Z</time>
      </trkpt>
      <trkpt lat="44.54218" lon="2.26178">
        <ele>294</ele>
        <time>2018-06-07T17:31:07Z</time>
      </trkpt>
      <trkpt lat="44.54215" lon="2.26174">
        <ele>293</ele>
        <time>2018-06-07T17:31:08Z</time>
      </trkpt>
      <trkpt lat="44.54213" lon="2.26168">
        <ele>293</ele>
        <time>2018-06-07T17:31:09Z</time>
      </trkpt>
      <trkpt lat="44.54212" lon="2.26164">
        <ele>301</ele>
        <time>2018-06-07T17:31:10Z</time>
      </trkpt>
      <trkpt lat="44.5421" lon="2.26158">
        <ele>301</ele>
        <time>2018-06-07T17:31:11Z</time>
      </trkpt>
      <trkpt lat="44.54207" lon="2.2615">
        <ele>300</ele>
        <time>2018-06-07T17:31:13Z</time>
      </trkpt>
      <trkpt lat="44.54205" lon="2.26146">
        <ele>300</ele>
        <time>2018-06-07T17:31:14Z</time>
      </trkpt>
      <trkpt lat="44.54204" lon="2.26141">
        <ele>300</ele>
        <time>2018-06-07T17:31:15Z</time>
      </trkpt>
      <trkpt lat="44.54201" lon="2.26137">
        <ele>300</ele>
        <time>2018-06-07T17:31:16Z</time>
      </trkpt>
      <trkpt lat="44.542" lon="2.26133">
        <ele>300</ele>
        <time>2018-06-07T17:31:17Z</time>
      </trkpt>
      <trkpt lat="44.54199" lon="2.26128">
        <ele>300</ele>
        <time>2018-06-07T17:31:18Z</time>
      </trkpt>
      <trkpt lat="44.54197" lon="2.2612">
        <ele>301</ele>
        <time>2018-06-07T17:31:20Z</time>
      </trkpt>
      <trkpt lat="44.54196" lon="2.26116">
        <ele>301</ele>
        <time>2018-06-07T17:31:21Z</time>
      </trkpt>
      <trkpt lat="44.54191" lon="2.2611">
        <ele>300</ele>
        <time>2018-06-07T17:31:23Z</time>
      </trkpt>
      <trkpt lat="44.54188" lon="2.26103">
        <ele>300</ele>
        <time>2018-06-07T17:31:25Z</time>
      </trkpt>
      <trkpt lat="44.54185" lon="2.26098">
        <ele>299</ele>
        <time>2018-06-07T17:31:26Z</time>
      </trkpt>
      <trkpt lat="44.54183" lon="2.26095">
        <ele>298</ele>
        <time>2018-06-07T17:31:27Z</time>
      </trkpt>
      <trkpt lat="44.54179" lon="2.26089">
        <ele>296</ele>
        <time>2018-06-07T17:31:29Z</time>
      </trkpt>
      <trkpt lat="44.5417" lon="2.26077">
        <ele>298</ele>
        <time>2018-06-07T17:31:33Z</time>
      </trkpt>
      <trkpt lat="44.54169" lon="2.26072">
        <ele>302</ele>
        <time>2018-06-07T17:31:34Z</time>
      </trkpt>
      <trkpt lat="44.54165" lon="2.26068">
        <ele>289</ele>
        <time>2018-06-07T17:31:36Z</time>
      </trkpt>
      <trkpt lat="44.54163" lon="2.2606">
        <ele>289</ele>
        <time>2018-06-07T17:31:38Z</time>
      </trkpt>
      <trkpt lat="44.54158" lon="2.26059">
        <ele>289</ele>
        <time>2018-06-07T17:31:40Z</time>
      </trkpt>
      <trkpt lat="44.54153" lon="2.26058">
        <ele>288</ele>
        <time>2018-06-07T17:31:42Z</time>
      </trkpt>
      <trkpt lat="44.54152" lon="2.26053">
        <ele>289</ele>
        <time>2018-06-07T17:31:43Z</time>
      </trkpt>
      <trkpt lat="44.54146" lon="2.26051">
        <ele>288</ele>
        <time>2018-06-07T17:31:44Z</time>
      </trkpt>
      <trkpt lat="44.54144" lon="2.26045">
        <ele>289</ele>
        <time>2018-06-07T17:31:45Z</time>
      </trkpt>
      <trkpt lat="44.54139" lon="2.26045">
        <ele>288</ele>
        <time>2018-06-07T17:31:46Z</time>
      </trkpt>
      <trkpt lat="44.5414" lon="2.2604">
        <ele>289</ele>
        <time>2018-06-07T17:31:47Z</time>
      </trkpt>
      <trkpt lat="44.54136" lon="2.26038">
        <ele>288</ele>
        <time>2018-06-07T17:31:48Z</time>
      </trkpt>
      <trkpt lat="44.5413" lon="2.26036">
        <ele>287</ele>
        <time>2018-06-07T17:31:50Z</time>
      </trkpt>
      <trkpt lat="44.54131" lon="2.26028">
        <ele>289</ele>
        <time>2018-06-07T17:31:52Z</time>
      </trkpt>
      <trkpt lat="44.54126" lon="2.26023">
        <ele>288</ele>
        <time>2018-06-07T17:31:55Z</time>
      </trkpt>
      <trkpt lat="44.54124" lon="2.26022">
        <ele>288</ele>
        <time>2018-06-07T17:31:56Z</time>
      </trkpt>
      <trkpt lat="44.54119" lon="2.26018">
        <ele>287</ele>
        <time>2018-06-07T17:31:57Z</time>
      </trkpt>
      <trkpt lat="44.54116" lon="2.26009">
        <ele>287</ele>
        <time>2018-06-07T17:31:59Z</time>
      </trkpt>
      <trkpt lat="44.54112" lon="2.26006">
        <ele>286</ele>
        <time>2018-06-07T17:32:00Z</time>
      </trkpt>
      <trkpt lat="44.54106" lon="2.26006">
        <ele>285</ele>
        <time>2018-06-07T17:32:01Z</time>
      </trkpt>
      <trkpt lat="44.54103" lon="2.26003">
        <ele>285</ele>
        <time>2018-06-07T17:32:02Z</time>
      </trkpt>
      <trkpt lat="44.541" lon="2.26001">
        <ele>284</ele>
        <time>2018-06-07T17:32:04Z</time>
      </trkpt>
      <trkpt lat="44.54102" lon="2.25995">
        <ele>290</ele>
        <time>2018-06-07T17:32:05Z</time>
      </trkpt>
      <trkpt lat="44.54102" lon="2.2599">
        <ele>291</ele>
        <time>2018-06-07T17:32:07Z</time>
      </trkpt>
      <trkpt lat="44.54096" lon="2.2599">
        <ele>289</ele>
        <time>2018-06-07T17:32:08Z</time>
      </trkpt>
      <trkpt lat="44.54094" lon="2.25986">
        <ele>289</ele>
        <time>2018-06-07T17:32:09Z</time>
      </trkpt>
      <trkpt lat="44.54086" lon="2.25977">
        <ele>290</ele>
        <time>2018-06-07T17:32:11Z</time>
      </trkpt>
      <trkpt lat="44.54082" lon="2.25969">
        <ele>275</ele>
        <time>2018-06-07T17:32:13Z</time>
      </trkpt>
      <trkpt lat="44.5408" lon="2.25964">
        <ele>275</ele>
        <time>2018-06-07T17:32:14Z</time>
      </trkpt>
      <trkpt lat="44.54081" lon="2.25959">
        <ele>275</ele>
        <time>2018-06-07T17:32:15Z</time>
      </trkpt>
      <trkpt lat="44.54081" lon="2.25954">
        <ele>275</ele>
        <time>2018-06-07T17:32:16Z</time>
      </trkpt>
      <trkpt lat="44.54079" lon="2.25946">
        <ele>276</ele>
        <time>2018-06-07T17:32:18Z</time>
      </trkpt>
      <trkpt lat="44.54079" lon="2.25942">
        <ele>276</ele>
        <time>2018-06-07T17:32:19Z</time>
      </trkpt>
      <trkpt lat="44.54076" lon="2.25934">
        <ele>277</ele>
        <time>2018-06-07T17:32:20Z</time>
      </trkpt>
      <trkpt lat="44.54077" lon="2.25929">
        <ele>279</ele>
        <time>2018-06-07T17:32:21Z</time>
      </trkpt>
      <trkpt lat="44.54076" lon="2.25923">
        <ele>280</ele>
        <time>2018-06-07T17:32:22Z</time>
      </trkpt>
      <trkpt lat="44.54075" lon="2.25917">
        <ele>281</ele>
        <time>2018-06-07T17:32:24Z</time>
      </trkpt>
      <trkpt lat="44.54075" lon="2.25908">
        <ele>279</ele>
        <time>2018-06-07T17:32:26Z</time>
      </trkpt>
      <trkpt lat="44.54074" lon="2.25902">
        <ele>277</ele>
        <time>2018-06-07T17:32:28Z</time>
      </trkpt>
      <trkpt lat="44.54073" lon="2.25898">
        <ele>276</ele>
        <time>2018-06-07T17:32:30Z</time>
      </trkpt>
      <trkpt lat="44.54073" lon="2.25893">
        <ele>275</ele>
        <time>2018-06-07T17:32:31Z</time>
      </trkpt>
      <trkpt lat="44.54072" lon="2.25885">
        <ele>274</ele>
        <time>2018-06-07T17:32:33Z</time>
      </trkpt>
      <trkpt lat="44.54072" lon="2.2588">
        <ele>273</ele>
        <time>2018-06-07T17:32:34Z</time>
      </trkpt>
      <trkpt lat="44.54072" lon="2.25876">
        <ele>273</ele>
        <time>2018-06-07T17:32:35Z</time>
      </trkpt>
      <trkpt lat="44.54071" lon="2.25869">
        <ele>272</ele>
        <time>2018-06-07T17:32:37Z</time>
      </trkpt>
      <trkpt lat="44.54071" lon="2.25863">
        <ele>272</ele>
        <time>2018-06-07T17:32:38Z</time>
      </trkpt>
      <trkpt lat="44.5407" lon="2.25858">
        <ele>272</ele>
        <time>2018-06-07T17:32:39Z</time>
      </trkpt>
      <trkpt lat="44.54069" lon="2.25855">
        <ele>272</ele>
        <time>2018-06-07T17:32:40Z</time>
      </trkpt>
      <trkpt lat="44.54069" lon="2.2585">
        <ele>272</ele>
        <time>2018-06-07T17:32:41Z</time>
      </trkpt>
      <trkpt lat="44.54068" lon="2.25846">
        <ele>272</ele>
        <time>2018-06-07T17:32:42Z</time>
      </trkpt>
      <trkpt lat="44.54068" lon="2.25841">
        <ele>272</ele>
        <time>2018-06-07T17:32:44Z</time>
      </trkpt>
      <trkpt lat="44.54069" lon="2.25831">
        <ele>270</ele>
        <time>2018-06-07T17:32:46Z</time>
      </trkpt>
      <trkpt lat="44.54069" lon="2.25827">
        <ele>270</ele>
        <time>2018-06-07T17:32:47Z</time>
      </trkpt>
      <trkpt lat="44.5407" lon="2.25822">
        <ele>270</ele>
        <time>2018-06-07T17:32:48Z</time>
      </trkpt>
      <trkpt lat="44.54072" lon="2.25818">
        <ele>269</ele>
        <time>2018-06-07T17:32:49Z</time>
      </trkpt>
      <trkpt lat="44.54071" lon="2.25814">
        <ele>269</ele>
        <time>2018-06-07T17:32:50Z</time>
      </trkpt>
      <trkpt lat="44.54073" lon="2.25808">
        <ele>268</ele>
        <time>2018-06-07T17:32:52Z</time>
      </trkpt>
      <trkpt lat="44.54074" lon="2.25804">
        <ele>268</ele>
        <time>2018-06-07T17:32:53Z</time>
      </trkpt>
      <trkpt lat="44.54075" lon="2.25795">
        <ele>267</ele>
        <time>2018-06-07T17:32:55Z</time>
      </trkpt>
      <trkpt lat="44.54078" lon="2.25789">
        <ele>267</ele>
        <time>2018-06-07T17:32:57Z</time>
      </trkpt>
      <trkpt lat="44.54081" lon="2.25784">
        <ele>266</ele>
        <time>2018-06-07T17:32:59Z</time>
      </trkpt>
      <trkpt lat="44.54083" lon="2.25778">
        <ele>266</ele>
        <time>2018-06-07T17:33:01Z</time>
      </trkpt>
      <trkpt lat="44.54084" lon="2.25774">
        <ele>273</ele>
        <time>2018-06-07T17:33:02Z</time>
      </trkpt>
      <trkpt lat="44.54086" lon="2.2577">
        <ele>272</ele>
        <time>2018-06-07T17:33:03Z</time>
      </trkpt>
      <trkpt lat="44.54089" lon="2.25764">
        <ele>271</ele>
        <time>2018-06-07T17:33:05Z</time>
      </trkpt>
      <trkpt lat="44.54092" lon="2.25762">
        <ele>271</ele>
        <time>2018-06-07T17:33:06Z</time>
      </trkpt>
      <trkpt lat="44.54093" lon="2.25758">
        <ele>271</ele>
        <time>2018-06-07T17:33:07Z</time>
      </trkpt>
      <trkpt lat="44.54095" lon="2.25752">
        <ele>270</ele>
        <time>2018-06-07T17:33:08Z</time>
      </trkpt>
      <trkpt lat="44.54098" lon="2.25745">
        <ele>269</ele>
        <time>2018-06-07T17:33:09Z</time>
      </trkpt>
      <trkpt lat="44.54099" lon="2.25741">
        <ele>269</ele>
        <time>2018-06-07T17:33:10Z</time>
      </trkpt>
      <trkpt lat="44.541" lon="2.25735">
        <ele>270</ele>
        <time>2018-06-07T17:33:12Z</time>
      </trkpt>
      <trkpt lat="44.54101" lon="2.25728">
        <ele>270</ele>
        <time>2018-06-07T17:33:14Z</time>
      </trkpt>
      <trkpt lat="44.54099" lon="2.25722">
        <ele>270</ele>
        <time>2018-06-07T17:33:16Z</time>
      </trkpt>
      <trkpt lat="44.54099" lon="2.25718">
        <ele>270</ele>
        <time>2018-06-07T17:33:17Z</time>
      </trkpt>
      <trkpt lat="44.54096" lon="2.25711">
        <ele>270</ele>
        <time>2018-06-07T17:33:19Z</time>
      </trkpt>
      <trkpt lat="44.54094" lon="2.25701">
        <ele>270</ele>
        <time>2018-06-07T17:33:21Z</time>
      </trkpt>
      <trkpt lat="44.54091" lon="2.25695">
        <ele>269</ele>
        <time>2018-06-07T17:33:23Z</time>
      </trkpt>
      <trkpt lat="44.54086" lon="2.25693">
        <ele>269</ele>
        <time>2018-06-07T17:33:24Z</time>
      </trkpt>
      <trkpt lat="44.54082" lon="2.25691">
        <ele>265</ele>
        <time>2018-06-07T17:33:25Z</time>
      </trkpt>
      <trkpt lat="44.54079" lon="2.25689">
        <ele>265</ele>
        <time>2018-06-07T17:33:26Z</time>
      </trkpt>
      <trkpt lat="44.54075" lon="2.25685">
        <ele>265</ele>
        <time>2018-06-07T17:33:27Z</time>
      </trkpt>
      <trkpt lat="44.54071" lon="2.25685">
        <ele>265</ele>
        <time>2018-06-07T17:33:29Z</time>
      </trkpt>
      <trkpt lat="44.54067" lon="2.25687">
        <ele>265</ele>
        <time>2018-06-07T17:33:30Z</time>
      </trkpt>
      <trkpt lat="44.54062" lon="2.25686">
        <ele>264</ele>
        <time>2018-06-07T17:33:31Z</time>
      </trkpt>
      <trkpt lat="44.54058" lon="2.25686">
        <ele>264</ele>
        <time>2018-06-07T17:33:32Z</time>
      </trkpt>
      <trkpt lat="44.54055" lon="2.25687">
        <ele>264</ele>
        <time>2018-06-07T17:33:33Z</time>
      </trkpt>
      <trkpt lat="44.54049" lon="2.25689">
        <ele>264</ele>
        <time>2018-06-07T17:33:35Z</time>
      </trkpt>
      <trkpt lat="44.54046" lon="2.25691">
        <ele>264</ele>
        <time>2018-06-07T17:33:36Z</time>
      </trkpt>
      <trkpt lat="44.54043" lon="2.25693">
        <ele>264</ele>
        <time>2018-06-07T17:33:37Z</time>
      </trkpt>
      <trkpt lat="44.54039" lon="2.25697">
        <ele>264</ele>
        <time>2018-06-07T17:33:39Z</time>
      </trkpt>
      <trkpt lat="44.54036" lon="2.25699">
        <ele>264</ele>
        <time>2018-06-07T17:33:40Z</time>
      </trkpt>
      <trkpt lat="44.54031" lon="2.25701">
        <ele>264</ele>
        <time>2018-06-07T17:33:42Z</time>
      </trkpt>
      <trkpt lat="44.54028" lon="2.25703">
        <ele>264</ele>
        <time>2018-06-07T17:33:43Z</time>
      </trkpt>
      <trkpt lat="44.54023" lon="2.25705">
        <ele>264</ele>
        <time>2018-06-07T17:33:45Z</time>
      </trkpt>
      <trkpt lat="44.5402" lon="2.25707">
        <ele>264</ele>
        <time>2018-06-07T17:33:46Z</time>
      </trkpt>
      <trkpt lat="44.54016" lon="2.25708">
        <ele>264</ele>
        <time>2018-06-07T17:33:48Z</time>
      </trkpt>
      <trkpt lat="44.54013" lon="2.25709">
        <ele>264</ele>
        <time>2018-06-07T17:33:49Z</time>
      </trkpt>
      <trkpt lat="44.54008" lon="2.25712">
        <ele>263</ele>
        <time>2018-06-07T17:33:51Z</time>
      </trkpt>
      <trkpt lat="44.54003" lon="2.25716">
        <ele>263</ele>
        <time>2018-06-07T17:33:53Z</time>
      </trkpt>
      <trkpt lat="44.54" lon="2.2572">
        <ele>263</ele>
        <time>2018-06-07T17:33:55Z</time>
      </trkpt>
      <trkpt lat="44.53998" lon="2.25725">
        <ele>261</ele>
        <time>2018-06-07T17:33:56Z</time>
      </trkpt>
      <trkpt lat="44.53996" lon="2.25728">
        <ele>261</ele>
        <time>2018-06-07T17:33:57Z</time>
      </trkpt>
      <trkpt lat="44.53995" lon="2.25732">
        <ele>261</ele>
        <time>2018-06-07T17:33:58Z</time>
      </trkpt>
      <trkpt lat="44.53994" lon="2.25736">
        <ele>261</ele>
        <time>2018-06-07T17:33:59Z</time>
      </trkpt>
      <trkpt lat="44.53992" lon="2.2574">
        <ele>260</ele>
        <time>2018-06-07T17:34:00Z</time>
      </trkpt>
      <trkpt lat="44.53989" lon="2.25746">
        <ele>260</ele>
        <time>2018-06-07T17:34:02Z</time>
      </trkpt>
      <trkpt lat="44.53989" lon="2.25753">
        <ele>259</ele>
        <time>2018-06-07T17:34:04Z</time>
      </trkpt>
      <trkpt lat="44.53987" lon="2.2576">
        <ele>259</ele>
        <time>2018-06-07T17:34:06Z</time>
      </trkpt>
      <trkpt lat="44.53985" lon="2.25766">
        <ele>259</ele>
        <time>2018-06-07T17:34:08Z</time>
      </trkpt>
      <trkpt lat="44.53984" lon="2.2577">
        <ele>259</ele>
        <time>2018-06-07T17:34:09Z</time>
      </trkpt>
      <trkpt lat="44.53982" lon="2.25776">
        <ele>259</ele>
        <time>2018-06-07T17:34:11Z</time>
      </trkpt>
      <trkpt lat="44.5398" lon="2.25783">
        <ele>259</ele>
        <time>2018-06-07T17:34:13Z</time>
      </trkpt>
      <trkpt lat="44.53979" lon="2.25787">
        <ele>259</ele>
        <time>2018-06-07T17:34:14Z</time>
      </trkpt>
      <trkpt lat="44.53978" lon="2.2579">
        <ele>259</ele>
        <time>2018-06-07T17:34:15Z</time>
      </trkpt>
      <trkpt lat="44.53977" lon="2.25794">
        <ele>259</ele>
        <time>2018-06-07T17:34:16Z</time>
      </trkpt>
      <trkpt lat="44.53976" lon="2.25799">
        <ele>259</ele>
        <time>2018-06-07T17:34:17Z</time>
      </trkpt>
      <trkpt lat="44.53975" lon="2.25802">
        <ele>258</ele>
        <time>2018-06-07T17:34:18Z</time>
      </trkpt>
      <trkpt lat="44.53974" lon="2.25809">
        <ele>258</ele>
        <time>2018-06-07T17:34:20Z</time>
      </trkpt>
      <trkpt lat="44.53973" lon="2.25813">
        <ele>258</ele>
        <time>2018-06-07T17:34:21Z</time>
      </trkpt>
      <trkpt lat="44.53973" lon="2.25818">
        <ele>258</ele>
        <time>2018-06-07T17:34:22Z</time>
      </trkpt>
      <trkpt lat="44.5397" lon="2.25824">
        <ele>258</ele>
        <time>2018-06-07T17:34:24Z</time>
      </trkpt>
      <trkpt lat="44.53968" lon="2.25831">
        <ele>258</ele>
        <time>2018-06-07T17:34:26Z</time>
      </trkpt>
      <trkpt lat="44.53967" lon="2.25835">
        <ele>258</ele>
        <time>2018-06-07T17:34:27Z</time>
      </trkpt>
      <trkpt lat="44.53966" lon="2.25839">
        <ele>258</ele>
        <time>2018-06-07T17:34:28Z</time>
      </trkpt>
      <trkpt lat="44.53964" lon="2.25845">
        <ele>258</ele>
        <time>2018-06-07T17:34:30Z</time>
      </trkpt>
      <trkpt lat="44.53962" lon="2.25852">
        <ele>258</ele>
        <time>2018-06-07T17:34:32Z</time>
      </trkpt>
      <trkpt lat="44.5396" lon="2.25858">
        <ele>258</ele>
        <time>2018-06-07T17:34:34Z</time>
      </trkpt>
      <trkpt lat="44.53959" lon="2.25862">
        <ele>258</ele>
        <time>2018-06-07T17:34:35Z</time>
      </trkpt>
      <trkpt lat="44.53956" lon="2.25866">
        <ele>257</ele>
        <time>2018-06-07T17:34:36Z</time>
      </trkpt>
      <trkpt lat="44.53956" lon="2.25871">
        <ele>257</ele>
        <time>2018-06-07T17:34:38Z</time>
      </trkpt>
      <trkpt lat="44.53956" lon="2.25875">
        <ele>257</ele>
        <time>2018-06-07T17:34:39Z</time>
      </trkpt>
      <trkpt lat="44.53955" lon="2.25879">
        <ele>257</ele>
        <time>2018-06-07T17:34:40Z</time>
      </trkpt>
      <trkpt lat="44.53954" lon="2.25884">
        <ele>257</ele>
        <time>2018-06-07T17:34:42Z</time>
      </trkpt>
      <trkpt lat="44.53952" lon="2.2589">
        <ele>257</ele>
        <time>2018-06-07T17:34:44Z</time>
      </trkpt>
      <trkpt lat="44.5395" lon="2.25897">
        <ele>257</ele>
        <time>2018-06-07T17:34:46Z</time>
      </trkpt>
      <trkpt lat="44.53949" lon="2.25901">
        <ele>257</ele>
        <time>2018-06-07T17:34:48Z</time>
      </trkpt>
      <trkpt lat="44.53947" lon="2.25908">
        <ele>257</ele>
        <time>2018-06-07T17:34:50Z</time>
      </trkpt>
      <trkpt lat="44.53945" lon="2.25913">
        <ele>257</ele>
        <time>2018-06-07T17:34:51Z</time>
      </trkpt>
      <trkpt lat="44.53944" lon="2.25918">
        <ele>257</ele>
        <time>2018-06-07T17:34:52Z</time>
      </trkpt>
      <trkpt lat="44.53944" lon="2.25922">
        <ele>257</ele>
        <time>2018-06-07T17:34:53Z</time>
      </trkpt>
      <trkpt lat="44.53943" lon="2.2593">
        <ele>257</ele>
        <time>2018-06-07T17:34:55Z</time>
      </trkpt>
      <trkpt lat="44.53943" lon="2.25934">
        <ele>257</ele>
        <time>2018-06-07T17:34:57Z</time>
      </trkpt>
      <trkpt lat="44.53942" lon="2.25941">
        <ele>257</ele>
        <time>2018-06-07T17:34:59Z</time>
      </trkpt>
      <trkpt lat="44.53943" lon="2.25947">
        <ele>257</ele>
        <time>2018-06-07T17:35:01Z</time>
      </trkpt>
      <trkpt lat="44.53943" lon="2.25953">
        <ele>257</ele>
        <time>2018-06-07T17:35:03Z</time>
      </trkpt>
      <trkpt lat="44.53942" lon="2.25961">
        <ele>257</ele>
        <time>2018-06-07T17:35:05Z</time>
      </trkpt>
      <trkpt lat="44.53941" lon="2.25966">
        <ele>257</ele>
        <time>2018-06-07T17:35:07Z</time>
      </trkpt>
      <trkpt lat="44.5394" lon="2.25972">
        <ele>257</ele>
        <time>2018-06-07T17:35:09Z</time>
      </trkpt>
      <trkpt lat="44.53939" lon="2.25975">
        <ele>257</ele>
        <time>2018-06-07T17:35:10Z</time>
      </trkpt>
      <trkpt lat="44.53938" lon="2.25979">
        <ele>257</ele>
        <time>2018-06-07T17:35:11Z</time>
      </trkpt>
      <trkpt lat="44.53936" lon="2.25985">
        <ele>257</ele>
        <time>2018-06-07T17:35:13Z</time>
      </trkpt>
      <trkpt lat="44.53934" lon="2.25989">
        <ele>257</ele>
        <time>2018-06-07T17:35:14Z</time>
      </trkpt>
      <trkpt lat="44.53931" lon="2.25989">
        <ele>257</ele>
        <time>2018-06-07T17:35:15Z</time>
      </trkpt>
      <trkpt lat="44.53929" lon="2.25991">
        <ele>257</ele>
        <time>2018-06-07T17:35:17Z</time>
      </trkpt>
      <trkpt lat="44.53925" lon="2.25993">
        <ele>257</ele>
        <time>2018-06-07T17:35:20Z</time>
      </trkpt>
      <trkpt lat="44.53924" lon="2.2599">
        <ele>257</ele>
        <time>2018-06-07T17:35:23Z</time>
      </trkpt>
      <trkpt lat="44.53909" lon="2.25923">
        <ele>257</ele>
        <time>2018-06-07T17:36:01Z</time>
      </trkpt>
      <trkpt lat="44.53909" lon="2.2592">
        <ele>257</ele>
        <time>2018-06-07T17:36:03Z</time>
      </trkpt>
      <trkpt lat="44.5391" lon="2.25915">
        <ele>257</ele>
        <time>2018-06-07T17:36:06Z</time>
      </trkpt>
      <trkpt lat="44.53911" lon="2.25908">
        <ele>257</ele>
        <time>2018-06-07T17:36:08Z</time>
      </trkpt>
      <trkpt lat="44.53912" lon="2.25905">
        <ele>257</ele>
        <time>2018-06-07T17:36:09Z</time>
      </trkpt>
      <trkpt lat="44.53912" lon="2.25899">
        <ele>257</ele>
        <time>2018-06-07T17:36:11Z</time>
      </trkpt>
      <trkpt lat="44.53915" lon="2.25894">
        <ele>258</ele>
        <time>2018-06-07T17:36:14Z</time>
      </trkpt>
      <trkpt lat="44.53918" lon="2.25887">
        <ele>257</ele>
        <time>2018-06-07T17:36:16Z</time>
      </trkpt>
      <trkpt lat="44.53921" lon="2.25883">
        <ele>257</ele>
        <time>2018-06-07T17:36:18Z</time>
      </trkpt>
      <trkpt lat="44.53924" lon="2.25877">
        <ele>257</ele>
        <time>2018-06-07T17:36:20Z</time>
      </trkpt>
      <trkpt lat="44.53925" lon="2.25873">
        <ele>257</ele>
        <time>2018-06-07T17:36:21Z</time>
      </trkpt>
      <trkpt lat="44.53925" lon="2.25867">
        <ele>257</ele>
        <time>2018-06-07T17:36:22Z</time>
      </trkpt>
      <trkpt lat="44.53926" lon="2.25861">
        <ele>257</ele>
        <time>2018-06-07T17:36:23Z</time>
      </trkpt>
      <trkpt lat="44.53926" lon="2.25857">
        <ele>257</ele>
        <time>2018-06-07T17:36:24Z</time>
      </trkpt>
      <trkpt lat="44.53927" lon="2.25852">
        <ele>257</ele>
        <time>2018-06-07T17:36:25Z</time>
      </trkpt>
      <trkpt lat="44.53929" lon="2.25847">
        <ele>257</ele>
        <time>2018-06-07T17:36:27Z</time>
      </trkpt>
      <trkpt lat="44.5393" lon="2.25843">
        <ele>257</ele>
        <time>2018-06-07T17:36:28Z</time>
      </trkpt>
      <trkpt lat="44.5393" lon="2.25838">
        <ele>257</ele>
        <time>2018-06-07T17:36:29Z</time>
      </trkpt>
      <trkpt lat="44.53931" lon="2.25833">
        <ele>258</ele>
        <time>2018-06-07T17:36:31Z</time>
      </trkpt>
      <trkpt lat="44.53932" lon="2.25827">
        <ele>258</ele>
        <time>2018-06-07T17:36:33Z</time>
      </trkpt>
      <trkpt lat="44.53933" lon="2.25823">
        <ele>258</ele>
        <time>2018-06-07T17:36:35Z</time>
      </trkpt>
      <trkpt lat="44.53934" lon="2.25818">
        <ele>258</ele>
        <time>2018-06-07T17:36:37Z</time>
      </trkpt>
      <trkpt lat="44.53934" lon="2.25812">
        <ele>258</ele>
        <time>2018-06-07T17:36:39Z</time>
      </trkpt>
      <trkpt lat="44.53934" lon="2.25807">
        <ele>258</ele>
        <time>2018-06-07T17:36:40Z</time>
      </trkpt>
      <trkpt lat="44.53935" lon="2.25801">
        <ele>258</ele>
        <time>2018-06-07T17:36:42Z</time>
      </trkpt>
      <trkpt lat="44.53936" lon="2.25795">
        <ele>258</ele>
        <time>2018-06-07T17:36:44Z</time>
      </trkpt>
      <trkpt lat="44.53937" lon="2.25788">
        <ele>258</ele>
        <time>2018-06-07T17:36:46Z</time>
      </trkpt>
      <trkpt lat="44.53937" lon="2.25781">
        <ele>259</ele>
        <time>2018-06-07T17:36:48Z</time>
      </trkpt>
      <trkpt lat="44.53938" lon="2.25774">
        <ele>259</ele>
        <time>2018-06-07T17:36:50Z</time>
      </trkpt>
      <trkpt lat="44.53938" lon="2.25769">
        <ele>259</ele>
        <time>2018-06-07T17:36:51Z</time>
      </trkpt>
      <trkpt lat="44.53939" lon="2.25762">
        <ele>259</ele>
        <time>2018-06-07T17:36:53Z</time>
      </trkpt>
      <trkpt lat="44.5394" lon="2.25758">
        <ele>259</ele>
        <time>2018-06-07T17:36:54Z</time>
      </trkpt>
      <trkpt lat="44.5394" lon="2.25754">
        <ele>259</ele>
        <time>2018-06-07T17:36:55Z</time>
      </trkpt>
      <trkpt lat="44.5394" lon="2.2575">
        <ele>260</ele>
        <time>2018-06-07T17:36:56Z</time>
      </trkpt>
      <trkpt lat="44.53939" lon="2.25745">
        <ele>260</ele>
        <time>2018-06-07T17:36:57Z</time>
      </trkpt>
      <trkpt lat="44.53939" lon="2.2574">
        <ele>260</ele>
        <time>2018-06-07T17:36:58Z</time>
      </trkpt>
      <trkpt lat="44.53939" lon="2.25736">
        <ele>260</ele>
        <time>2018-06-07T17:36:59Z</time>
      </trkpt>
      <trkpt lat="44.53938" lon="2.25732">
        <ele>260</ele>
        <time>2018-06-07T17:37:00Z</time>
      </trkpt>
      <trkpt lat="44.53938" lon="2.25726">
        <ele>260</ele>
        <time>2018-06-07T17:37:01Z</time>
      </trkpt>
      <trkpt lat="44.53938" lon="2.25718">
        <ele>261</ele>
        <time>2018-06-07T17:37:03Z</time>
      </trkpt>
      <trkpt lat="44.53938" lon="2.25713">
        <ele>261</ele>
        <time>2018-06-07T17:37:04Z</time>
      </trkpt>
      <trkpt lat="44.53938" lon="2.25708">
        <ele>261</ele>
        <time>2018-06-07T17:37:05Z</time>
      </trkpt>
      <trkpt lat="44.53936" lon="2.25702">
        <ele>261</ele>
        <time>2018-06-07T17:37:07Z</time>
      </trkpt>
      <trkpt lat="44.53936" lon="2.25697">
        <ele>261</ele>
        <time>2018-06-07T17:37:08Z</time>
      </trkpt>
      <trkpt lat="44.53936" lon="2.25692">
        <ele>261</ele>
        <time>2018-06-07T17:37:09Z</time>
      </trkpt>
      <trkpt lat="44.53935" lon="2.25686">
        <ele>261</ele>
        <time>2018-06-07T17:37:11Z</time>
      </trkpt>
      <trkpt lat="44.53932" lon="2.25679">
        <ele>261</ele>
        <time>2018-06-07T17:37:13Z</time>
      </trkpt>
      <trkpt lat="44.5393" lon="2.25672">
        <ele>261</ele>
        <time>2018-06-07T17:37:15Z</time>
      </trkpt>
      <trkpt lat="44.5393" lon="2.25667">
        <ele>261</ele>
        <time>2018-06-07T17:37:16Z</time>
      </trkpt>
      <trkpt lat="44.53928" lon="2.25663">
        <ele>261</ele>
        <time>2018-06-07T17:37:17Z</time>
      </trkpt>
      <trkpt lat="44.53927" lon="2.25658">
        <ele>261</ele>
        <time>2018-06-07T17:37:18Z</time>
      </trkpt>
      <trkpt lat="44.53926" lon="2.25655">
        <ele>261</ele>
        <time>2018-06-07T17:37:19Z</time>
      </trkpt>
      <trkpt lat="44.53926" lon="2.2565">
        <ele>261</ele>
        <time>2018-06-07T17:37:20Z</time>
      </trkpt>
      <trkpt lat="44.53923" lon="2.25644">
        <ele>262</ele>
        <time>2018-06-07T17:37:22Z</time>
      </trkpt>
      <trkpt lat="44.53921" lon="2.25641">
        <ele>262</ele>
        <time>2018-06-07T17:37:24Z</time>
      </trkpt>
      <trkpt lat="44.53921" lon="2.25635">
        <ele>262</ele>
        <time>2018-06-07T17:37:26Z</time>
      </trkpt>
      <trkpt lat="44.5392" lon="2.2563">
        <ele>262</ele>
        <time>2018-06-07T17:37:27Z</time>
      </trkpt>
      <trkpt lat="44.53918" lon="2.25628">
        <ele>262</ele>
        <time>2018-06-07T17:37:28Z</time>
      </trkpt>
      <trkpt lat="44.53918" lon="2.25621">
        <ele>262</ele>
        <time>2018-06-07T17:37:30Z</time>
      </trkpt>
      <trkpt lat="44.53918" lon="2.25615">
        <ele>262</ele>
        <time>2018-06-07T17:37:32Z</time>
      </trkpt>
      <trkpt lat="44.53919" lon="2.25611">
        <ele>261</ele>
        <time>2018-06-07T17:37:33Z</time>
      </trkpt>
      <trkpt lat="44.53918" lon="2.25607">
        <ele>261</ele>
        <time>2018-06-07T17:37:34Z</time>
      </trkpt>
      <trkpt lat="44.53917" lon="2.25599">
        <ele>261</ele>
        <time>2018-06-07T17:37:36Z</time>
      </trkpt>
      <trkpt lat="44.53917" lon="2.25594">
        <ele>261</ele>
        <time>2018-06-07T17:37:37Z</time>
      </trkpt>
      <trkpt lat="44.53917" lon="2.25583">
        <ele>259</ele>
        <time>2018-06-07T17:37:39Z</time>
      </trkpt>
      <trkpt lat="44.53917" lon="2.25578">
        <ele>261</ele>
        <time>2018-06-07T17:37:41Z</time>
      </trkpt>
      <trkpt lat="44.53917" lon="2.25572">
        <ele>262</ele>
        <time>2018-06-07T17:37:43Z</time>
      </trkpt>
      <trkpt lat="44.53917" lon="2.25563">
        <ele>264</ele>
        <time>2018-06-07T17:37:46Z</time>
      </trkpt>
      <trkpt lat="44.53916" lon="2.25557">
        <ele>265</ele>
        <time>2018-06-07T17:37:48Z</time>
      </trkpt>
      <trkpt lat="44.53917" lon="2.25549">
        <ele>264</ele>
        <time>2018-06-07T17:37:50Z</time>
      </trkpt>
      <trkpt lat="44.53917" lon="2.25545">
        <ele>265</ele>
        <time>2018-06-07T17:37:51Z</time>
      </trkpt>
      <trkpt lat="44.53917" lon="2.2554">
        <ele>265</ele>
        <time>2018-06-07T17:37:53Z</time>
      </trkpt>
      <trkpt lat="44.53918" lon="2.25534">
        <ele>265</ele>
        <time>2018-06-07T17:37:54Z</time>
      </trkpt>
      <trkpt lat="44.53919" lon="2.25528">
        <ele>266</ele>
        <time>2018-06-07T17:37:56Z</time>
      </trkpt>
      <trkpt lat="44.5392" lon="2.25523">
        <ele>266</ele>
        <time>2018-06-07T17:37:57Z</time>
      </trkpt>
      <trkpt lat="44.53921" lon="2.25516">
        <ele>266</ele>
        <time>2018-06-07T17:37:59Z</time>
      </trkpt>
      <trkpt lat="44.53921" lon="2.25512">
        <ele>266</ele>
        <time>2018-06-07T17:38:00Z</time>
      </trkpt>
      <trkpt lat="44.53922" lon="2.25508">
        <ele>266</ele>
        <time>2018-06-07T17:38:01Z</time>
      </trkpt>
      <trkpt lat="44.53923" lon="2.25502">
        <ele>266</ele>
        <time>2018-06-07T17:38:03Z</time>
      </trkpt>
      <trkpt lat="44.53923" lon="2.25498">
        <ele>267</ele>
        <time>2018-06-07T17:38:05Z</time>
      </trkpt>
      <trkpt lat="44.53925" lon="2.25493">
        <ele>267</ele>
        <time>2018-06-07T17:38:07Z</time>
      </trkpt>
      <trkpt lat="44.53926" lon="2.25486">
        <ele>268</ele>
        <time>2018-06-07T17:38:08Z</time>
      </trkpt>
      <trkpt lat="44.53928" lon="2.25481">
        <ele>268</ele>
        <time>2018-06-07T17:38:10Z</time>
      </trkpt>
      <trkpt lat="44.53929" lon="2.25477">
        <ele>268</ele>
        <time>2018-06-07T17:38:11Z</time>
      </trkpt>
      <trkpt lat="44.5393" lon="2.25472">
        <ele>268</ele>
        <time>2018-06-07T17:38:13Z</time>
      </trkpt>
      <trkpt lat="44.53931" lon="2.25468">
        <ele>269</ele>
        <time>2018-06-07T17:38:14Z</time>
      </trkpt>
      <trkpt lat="44.53933" lon="2.2546">
        <ele>269</ele>
        <time>2018-06-07T17:38:16Z</time>
      </trkpt>
      <trkpt lat="44.53934" lon="2.25456">
        <ele>269</ele>
        <time>2018-06-07T17:38:17Z</time>
      </trkpt>
      <trkpt lat="44.53935" lon="2.25449">
        <ele>269</ele>
        <time>2018-06-07T17:38:19Z</time>
      </trkpt>
      <trkpt lat="44.53936" lon="2.25444">
        <ele>269</ele>
        <time>2018-06-07T17:38:20Z</time>
      </trkpt>
      <trkpt lat="44.53936" lon="2.25439">
        <ele>269</ele>
        <time>2018-06-07T17:38:21Z</time>
      </trkpt>
      <trkpt lat="44.53937" lon="2.25434">
        <ele>269</ele>
        <time>2018-06-07T17:38:22Z</time>
      </trkpt>
      <trkpt lat="44.53938" lon="2.25427">
        <ele>269</ele>
        <time>2018-06-07T17:38:24Z</time>
      </trkpt>
      <trkpt lat="44.5394" lon="2.25418">
        <ele>269</ele>
        <time>2018-06-07T17:38:25Z</time>
      </trkpt>
      <trkpt lat="44.53943" lon="2.25412">
        <ele>268</ele>
        <time>2018-06-07T17:38:27Z</time>
      </trkpt>
      <trkpt lat="44.53945" lon="2.25406">
        <ele>268</ele>
        <time>2018-06-07T17:38:29Z</time>
      </trkpt>
      <trkpt lat="44.53948" lon="2.25396">
        <ele>268</ele>
        <time>2018-06-07T17:38:31Z</time>
      </trkpt>
      <trkpt lat="44.53949" lon="2.25392">
        <ele>268</ele>
        <time>2018-06-07T17:38:32Z</time>
      </trkpt>
      <trkpt lat="44.53952" lon="2.25388">
        <ele>268</ele>
        <time>2018-06-07T17:38:35Z</time>
      </trkpt>
      <trkpt lat="44.53953" lon="2.25382">
        <ele>268</ele>
        <time>2018-06-07T17:38:36Z</time>
      </trkpt>
      <trkpt lat="44.53954" lon="2.25377">
        <ele>268</ele>
        <time>2018-06-07T17:38:37Z</time>
      </trkpt>
      <trkpt lat="44.53956" lon="2.25375">
        <ele>268</ele>
        <time>2018-06-07T17:38:38Z</time>
      </trkpt>
      <trkpt lat="44.53958" lon="2.2537">
        <ele>267</ele>
        <time>2018-06-07T17:38:39Z</time>
      </trkpt>
      <trkpt lat="44.53962" lon="2.25367">
        <ele>267</ele>
        <time>2018-06-07T17:38:41Z</time>
      </trkpt>
      <trkpt lat="44.53963" lon="2.25363">
        <ele>267</ele>
        <time>2018-06-07T17:38:42Z</time>
      </trkpt>
      <trkpt lat="44.53966" lon="2.25357">
        <ele>267</ele>
        <time>2018-06-07T17:38:44Z</time>
      </trkpt>
      <trkpt lat="44.53968" lon="2.2535">
        <ele>267</ele>
        <time>2018-06-07T17:38:46Z</time>
      </trkpt>
      <trkpt lat="44.53969" lon="2.25346">
        <ele>266</ele>
        <time>2018-06-07T17:38:47Z</time>
      </trkpt>
      <trkpt lat="44.53972" lon="2.2534">
        <ele>266</ele>
        <time>2018-06-07T17:38:49Z</time>
      </trkpt>
      <trkpt lat="44.53975" lon="2.25334">
        <ele>266</ele>
        <time>2018-06-07T17:38:52Z</time>
      </trkpt>
      <trkpt lat="44.53977" lon="2.25328">
        <ele>263</ele>
        <time>2018-06-07T17:38:54Z</time>
      </trkpt>
      <trkpt lat="44.53979" lon="2.25322">
        <ele>263</ele>
        <time>2018-06-07T17:38:56Z</time>
      </trkpt>
      <trkpt lat="44.53981" lon="2.25316">
        <ele>263</ele>
        <time>2018-06-07T17:38:58Z</time>
      </trkpt>
      <trkpt lat="44.53983" lon="2.25311">
        <ele>263</ele>
        <time>2018-06-07T17:39:00Z</time>
      </trkpt>
      <trkpt lat="44.53985" lon="2.25307">
        <ele>263</ele>
        <time>2018-06-07T17:39:01Z</time>
      </trkpt>
      <trkpt lat="44.53986" lon="2.25302">
        <ele>262</ele>
        <time>2018-06-07T17:39:02Z</time>
      </trkpt>
      <trkpt lat="44.53987" lon="2.25297">
        <ele>262</ele>
        <time>2018-06-07T17:39:03Z</time>
      </trkpt>
      <trkpt lat="44.5399" lon="2.25293">
        <ele>262</ele>
        <time>2018-06-07T17:39:05Z</time>
      </trkpt>
      <trkpt lat="44.53991" lon="2.25287">
        <ele>262</ele>
        <time>2018-06-07T17:39:07Z</time>
      </trkpt>
      <trkpt lat="44.53992" lon="2.25283">
        <ele>261</ele>
        <time>2018-06-07T17:39:08Z</time>
      </trkpt>
      <trkpt lat="44.53995" lon="2.2528">
        <ele>261</ele>
        <time>2018-06-07T17:39:09Z</time>
      </trkpt>
      <trkpt lat="44.53998" lon="2.25278">
        <ele>261</ele>
        <time>2018-06-07T17:39:10Z</time>
      </trkpt>
      <trkpt lat="44.54001" lon="2.25276">
        <ele>260</ele>
        <time>2018-06-07T17:39:11Z</time>
      </trkpt>
      <trkpt lat="44.54004" lon="2.25272">
        <ele>260</ele>
        <time>2018-06-07T17:39:13Z</time>
      </trkpt>
      <trkpt lat="44.53999" lon="2.2526">
        <ele>258</ele>
        <time>2018-06-07T17:39:15Z</time>
      </trkpt>
      <trkpt lat="44.53999" lon="2.25256">
        <ele>258</ele>
        <time>2018-06-07T17:39:16Z</time>
      </trkpt>
      <trkpt lat="44.54002" lon="2.25252">
        <ele>257</ele>
        <time>2018-06-07T17:39:17Z</time>
      </trkpt>
      <trkpt lat="44.54001" lon="2.25245">
        <ele>256</ele>
        <time>2018-06-07T17:39:18Z</time>
      </trkpt>
      <trkpt lat="44.54004" lon="2.25239">
        <ele>257</ele>
        <time>2018-06-07T17:39:19Z</time>
      </trkpt>
      <trkpt lat="44.54008" lon="2.25234">
        <ele>257</ele>
        <time>2018-06-07T17:39:20Z</time>
      </trkpt>
      <trkpt lat="44.54011" lon="2.25232">
        <ele>257</ele>
        <time>2018-06-07T17:39:21Z</time>
      </trkpt>
      <trkpt lat="44.54013" lon="2.25228">
        <ele>257</ele>
        <time>2018-06-07T17:39:22Z</time>
      </trkpt>
      <trkpt lat="44.54017" lon="2.25226">
        <ele>257</ele>
        <time>2018-06-07T17:39:24Z</time>
      </trkpt>
      <trkpt lat="44.54019" lon="2.25222">
        <ele>258</ele>
        <time>2018-06-07T17:39:26Z</time>
      </trkpt>
      <trkpt lat="44.5402" lon="2.25217">
        <ele>258</ele>
        <time>2018-06-07T17:39:27Z</time>
      </trkpt>
      <trkpt lat="44.54023" lon="2.25213">
        <ele>258</ele>
        <time>2018-06-07T17:39:28Z</time>
      </trkpt>
      <trkpt lat="44.54023" lon="2.25207">
        <ele>258</ele>
        <time>2018-06-07T17:39:29Z</time>
      </trkpt>
      <trkpt lat="44.54024" lon="2.25198">
        <ele>258</ele>
        <time>2018-06-07T17:39:31Z</time>
      </trkpt>
      <trkpt lat="44.54026" lon="2.25195">
        <ele>258</ele>
        <time>2018-06-07T17:39:32Z</time>
      </trkpt>
      <trkpt lat="44.54031" lon="2.2519">
        <ele>258</ele>
        <time>2018-06-07T17:39:34Z</time>
      </trkpt>
      <trkpt lat="44.54034" lon="2.25188">
        <ele>258</ele>
        <time>2018-06-07T17:39:35Z</time>
      </trkpt>
      <trkpt lat="44.54038" lon="2.25186">
        <ele>257</ele>
        <time>2018-06-07T17:39:37Z</time>
      </trkpt>
      <trkpt lat="44.54039" lon="2.25179">
        <ele>257</ele>
        <time>2018-06-07T17:39:39Z</time>
      </trkpt>
      <trkpt lat="44.54043" lon="2.25175">
        <ele>257</ele>
        <time>2018-06-07T17:39:41Z</time>
      </trkpt>
      <trkpt lat="44.54046" lon="2.2517">
        <ele>256</ele>
        <time>2018-06-07T17:39:42Z</time>
      </trkpt>
      <trkpt lat="44.54048" lon="2.25161">
        <ele>256</ele>
        <time>2018-06-07T17:39:43Z</time>
      </trkpt>
      <trkpt lat="44.54049" lon="2.25156">
        <ele>255</ele>
        <time>2018-06-07T17:39:46Z</time>
      </trkpt>
      <trkpt lat="44.5405" lon="2.25149">
        <ele>256</ele>
        <time>2018-06-07T17:39:48Z</time>
      </trkpt>
      <trkpt lat="44.54051" lon="2.25145">
        <ele>255</ele>
        <time>2018-06-07T17:39:50Z</time>
      </trkpt>
      <trkpt lat="44.54054" lon="2.25143">
        <ele>255</ele>
        <time>2018-06-07T17:39:51Z</time>
      </trkpt>
      <trkpt lat="44.54056" lon="2.25139">
        <ele>255</ele>
        <time>2018-06-07T17:39:53Z</time>
      </trkpt>
      <trkpt lat="44.54058" lon="2.25135">
        <ele>255</ele>
        <time>2018-06-07T17:39:55Z</time>
      </trkpt>
      <trkpt lat="44.5406" lon="2.25125">
        <ele>255</ele>
        <time>2018-06-07T17:39:56Z</time>
      </trkpt>
      <trkpt lat="44.54063" lon="2.25121">
        <ele>254</ele>
        <time>2018-06-07T17:39:57Z</time>
      </trkpt>
      <trkpt lat="44.54063" lon="2.25114">
        <ele>254</ele>
        <time>2018-06-07T17:39:58Z</time>
      </trkpt>
      <trkpt lat="44.54067" lon="2.25106">
        <ele>253</ele>
        <time>2018-06-07T17:40:00Z</time>
      </trkpt>
      <trkpt lat="44.54071" lon="2.25104">
        <ele>252</ele>
        <time>2018-06-07T17:40:01Z</time>
      </trkpt>
      <trkpt lat="44.54075" lon="2.25101">
        <ele>252</ele>
        <time>2018-06-07T17:40:03Z</time>
      </trkpt>
      <trkpt lat="44.5408" lon="2.25093">
        <ele>249</ele>
        <time>2018-06-07T17:40:05Z</time>
      </trkpt>
      <trkpt lat="44.54084" lon="2.25092">
        <ele>247</ele>
        <time>2018-06-07T17:40:07Z</time>
      </trkpt>
      <trkpt lat="44.54087" lon="2.25084">
        <ele>246</ele>
        <time>2018-06-07T17:40:09Z</time>
      </trkpt>
      <trkpt lat="44.5409" lon="2.2508">
        <ele>246</ele>
        <time>2018-06-07T17:40:11Z</time>
      </trkpt>
      <trkpt lat="44.54093" lon="2.25077">
        <ele>246</ele>
        <time>2018-06-07T17:40:12Z</time>
      </trkpt>
      <trkpt lat="44.54089" lon="2.25067">
        <ele>246</ele>
        <time>2018-06-07T17:40:15Z</time>
      </trkpt>
      <trkpt lat="44.54089" lon="2.25061">
        <ele>246</ele>
        <time>2018-06-07T17:40:16Z</time>
      </trkpt>
      <trkpt lat="44.54091" lon="2.25057">
        <ele>246</ele>
        <time>2018-06-07T17:40:17Z</time>
      </trkpt>
      <trkpt lat="44.54094" lon="2.25054">
        <ele>246</ele>
        <time>2018-06-07T17:40:19Z</time>
      </trkpt>
      <trkpt lat="44.54096" lon="2.25048">
        <ele>247</ele>
        <time>2018-06-07T17:40:21Z</time>
      </trkpt>
      <trkpt lat="44.54098" lon="2.25044">
        <ele>247</ele>
        <time>2018-06-07T17:40:24Z</time>
      </trkpt>
      <trkpt lat="44.54102" lon="2.25042">
        <ele>247</ele>
        <time>2018-06-07T17:40:26Z</time>
      </trkpt>
      <trkpt lat="44.54104" lon="2.25035">
        <ele>247</ele>
        <time>2018-06-07T17:40:27Z</time>
      </trkpt>
      <trkpt lat="44.54106" lon="2.25031">
        <ele>247</ele>
        <time>2018-06-07T17:40:29Z</time>
      </trkpt>
      <trkpt lat="44.54107" lon="2.25026">
        <ele>247</ele>
        <time>2018-06-07T17:40:31Z</time>
      </trkpt>
      <trkpt lat="44.54109" lon="2.25021">
        <ele>247</ele>
        <time>2018-06-07T17:40:32Z</time>
      </trkpt>
      <trkpt lat="44.54109" lon="2.25012">
        <ele>247</ele>
        <time>2018-06-07T17:40:34Z</time>
      </trkpt>
      <trkpt lat="44.54111" lon="2.25009">
        <ele>247</ele>
        <time>2018-06-07T17:40:36Z</time>
      </trkpt>
      <trkpt lat="44.54112" lon="2.25006">
        <ele>247</ele>
        <time>2018-06-07T17:40:37Z</time>
      </trkpt>
      <trkpt lat="44.54114" lon="2.25002">
        <ele>247</ele>
        <time>2018-06-07T17:40:38Z</time>
      </trkpt>
      <trkpt lat="44.54118" lon="2.24997">
        <ele>247</ele>
        <time>2018-06-07T17:40:40Z</time>
      </trkpt>
      <trkpt lat="44.54118" lon="2.24993">
        <ele>247</ele>
        <time>2018-06-07T17:40:41Z</time>
      </trkpt>
      <trkpt lat="44.54119" lon="2.24987">
        <ele>247</ele>
        <time>2018-06-07T17:40:42Z</time>
      </trkpt>
      <trkpt lat="44.54121" lon="2.24982">
        <ele>247</ele>
        <time>2018-06-07T17:40:43Z</time>
      </trkpt>
      <trkpt lat="44.54122" lon="2.24978">
        <ele>247</ele>
        <time>2018-06-07T17:40:44Z</time>
      </trkpt>
      <trkpt lat="44.54122" lon="2.24973">
        <ele>247</ele>
        <time>2018-06-07T17:40:45Z</time>
      </trkpt>
      <trkpt lat="44.54122" lon="2.24968">
        <ele>247</ele>
        <time>2018-06-07T17:40:46Z</time>
      </trkpt>
      <trkpt lat="44.54123" lon="2.24963">
        <ele>247</ele>
        <time>2018-06-07T17:40:48Z</time>
      </trkpt>
      <trkpt lat="44.54125" lon="2.24959">
        <ele>247</ele>
        <time>2018-06-07T17:40:49Z</time>
      </trkpt>
      <trkpt lat="44.54126" lon="2.24955">
        <ele>246</ele>
        <time>2018-06-07T17:40:50Z</time>
      </trkpt>
      <trkpt lat="44.54128" lon="2.24951">
        <ele>246</ele>
        <time>2018-06-07T17:40:52Z</time>
      </trkpt>
      <trkpt lat="44.54127" lon="2.24944">
        <ele>246</ele>
        <time>2018-06-07T17:40:53Z</time>
      </trkpt>
      <trkpt lat="44.54128" lon="2.24937">
        <ele>246</ele>
        <time>2018-06-07T17:40:54Z</time>
      </trkpt>
      <trkpt lat="44.54128" lon="2.24932">
        <ele>246</ele>
        <time>2018-06-07T17:40:55Z</time>
      </trkpt>
      <trkpt lat="44.54131" lon="2.24926">
        <ele>246</ele>
        <time>2018-06-07T17:40:57Z</time>
      </trkpt>
      <trkpt lat="44.54133" lon="2.24914">
        <ele>246</ele>
        <time>2018-06-07T17:40:59Z</time>
      </trkpt>
      <trkpt lat="44.54133" lon="2.24909">
        <ele>246</ele>
        <time>2018-06-07T17:41:00Z</time>
      </trkpt>
      <trkpt lat="44.54134" lon="2.24904">
        <ele>246</ele>
        <time>2018-06-07T17:41:01Z</time>
      </trkpt>
      <trkpt lat="44.54136" lon="2.24894">
        <ele>245</ele>
        <time>2018-06-07T17:41:03Z</time>
      </trkpt>
      <trkpt lat="44.54136" lon="2.24889">
        <ele>245</ele>
        <time>2018-06-07T17:41:04Z</time>
      </trkpt>
      <trkpt lat="44.54138" lon="2.24882">
        <ele>245</ele>
        <time>2018-06-07T17:41:06Z</time>
      </trkpt>
      <trkpt lat="44.54139" lon="2.24879">
        <ele>245</ele>
        <time>2018-06-07T17:41:07Z</time>
      </trkpt>
      <trkpt lat="44.5414" lon="2.24872">
        <ele>245</ele>
        <time>2018-06-07T17:41:09Z</time>
      </trkpt>
      <trkpt lat="44.54141" lon="2.24868">
        <ele>245</ele>
        <time>2018-06-07T17:41:11Z</time>
      </trkpt>
      <trkpt lat="44.54143" lon="2.24864">
        <ele>245</ele>
        <time>2018-06-07T17:41:13Z</time>
      </trkpt>
      <trkpt lat="44.54144" lon="2.2486">
        <ele>245</ele>
        <time>2018-06-07T17:41:14Z</time>
      </trkpt>
      <trkpt lat="44.54145" lon="2.24854">
        <ele>245</ele>
        <time>2018-06-07T17:41:16Z</time>
      </trkpt>
      <trkpt lat="44.54146" lon="2.24846">
        <ele>245</ele>
        <time>2018-06-07T17:41:17Z</time>
      </trkpt>
      <trkpt lat="44.54149" lon="2.24839">
        <ele>245</ele>
        <time>2018-06-07T17:41:19Z</time>
      </trkpt>
      <trkpt lat="44.54152" lon="2.24832">
        <ele>244</ele>
        <time>2018-06-07T17:41:21Z</time>
      </trkpt>
      <trkpt lat="44.54154" lon="2.24828">
        <ele>244</ele>
        <time>2018-06-07T17:41:23Z</time>
      </trkpt>
      <trkpt lat="44.54158" lon="2.24823">
        <ele>244</ele>
        <time>2018-06-07T17:41:25Z</time>
      </trkpt>
      <trkpt lat="44.5416" lon="2.24817">
        <ele>244</ele>
        <time>2018-06-07T17:41:27Z</time>
      </trkpt>
      <trkpt lat="44.54165" lon="2.2481">
        <ele>244</ele>
        <time>2018-06-07T17:41:29Z</time>
      </trkpt>
      <trkpt lat="44.54167" lon="2.24807">
        <ele>243</ele>
        <time>2018-06-07T17:41:30Z</time>
      </trkpt>
      <trkpt lat="44.54169" lon="2.24805">
        <ele>243</ele>
        <time>2018-06-07T17:41:31Z</time>
      </trkpt>
      <trkpt lat="44.54171" lon="2.24801">
        <ele>243</ele>
        <time>2018-06-07T17:41:32Z</time>
      </trkpt>
      <trkpt lat="44.54174" lon="2.24798">
        <ele>243</ele>
        <time>2018-06-07T17:41:33Z</time>
      </trkpt>
      <trkpt lat="44.54177" lon="2.24794">
        <ele>243</ele>
        <time>2018-06-07T17:41:34Z</time>
      </trkpt>
      <trkpt lat="44.5418" lon="2.24789">
        <ele>243</ele>
        <time>2018-06-07T17:41:37Z</time>
      </trkpt>
      <trkpt lat="44.54182" lon="2.24785">
        <ele>243</ele>
        <time>2018-06-07T17:41:38Z</time>
      </trkpt>
      <trkpt lat="44.54185" lon="2.24779">
        <ele>243</ele>
        <time>2018-06-07T17:41:40Z</time>
      </trkpt>
      <trkpt lat="44.54188" lon="2.24777">
        <ele>243</ele>
        <time>2018-06-07T17:41:41Z</time>
      </trkpt>
      <trkpt lat="44.5419" lon="2.24774">
        <ele>242</ele>
        <time>2018-06-07T17:41:42Z</time>
      </trkpt>
      <trkpt lat="44.54194" lon="2.24771">
        <ele>243</ele>
        <time>2018-06-07T17:41:44Z</time>
      </trkpt>
      <trkpt lat="44.54203" lon="2.24767">
        <ele>243</ele>
        <time>2018-06-07T17:41:48Z</time>
      </trkpt>
      <trkpt lat="44.54205" lon="2.24765">
        <ele>243</ele>
        <time>2018-06-07T17:41:49Z</time>
      </trkpt>
      <trkpt lat="44.54209" lon="2.24763">
        <ele>243</ele>
        <time>2018-06-07T17:41:51Z</time>
      </trkpt>
      <trkpt lat="44.54215" lon="2.24759">
        <ele>243</ele>
        <time>2018-06-07T17:41:53Z</time>
      </trkpt>
      <trkpt lat="44.54218" lon="2.24753">
        <ele>243</ele>
        <time>2018-06-07T17:41:57Z</time>
      </trkpt>
      <trkpt lat="44.5422" lon="2.24749">
        <ele>240</ele>
        <time>2018-06-07T17:41:59Z</time>
      </trkpt>
      <trkpt lat="44.54223" lon="2.2475">
        <ele>240</ele>
        <time>2018-06-07T17:42:01Z</time>
      </trkpt>
      <trkpt lat="44.54225" lon="2.24744">
        <ele>240</ele>
        <time>2018-06-07T17:42:02Z</time>
      </trkpt>
      <trkpt lat="44.5423" lon="2.24736">
        <ele>240</ele>
        <time>2018-06-07T17:42:04Z</time>
      </trkpt>
      <trkpt lat="44.54234" lon="2.24736">
        <ele>240</ele>
        <time>2018-06-07T17:42:06Z</time>
      </trkpt>
      <trkpt lat="44.54237" lon="2.24733">
        <ele>240</ele>
        <time>2018-06-07T17:42:07Z</time>
      </trkpt>
      <trkpt lat="44.5424" lon="2.24735">
        <ele>240</ele>
        <time>2018-06-07T17:42:09Z</time>
      </trkpt>
      <trkpt lat="44.54243" lon="2.24733">
        <ele>240</ele>
        <time>2018-06-07T17:42:10Z</time>
      </trkpt>
      <trkpt lat="44.54246" lon="2.24731">
        <ele>240</ele>
        <time>2018-06-07T17:42:11Z</time>
      </trkpt>
      <trkpt lat="44.54251" lon="2.2473">
        <ele>240</ele>
        <time>2018-06-07T17:42:13Z</time>
      </trkpt>
      <trkpt lat="44.54255" lon="2.24728">
        <ele>240</ele>
        <time>2018-06-07T17:42:14Z</time>
      </trkpt>
      <trkpt lat="44.54261" lon="2.24725">
        <ele>240</ele>
        <time>2018-06-07T17:42:17Z</time>
      </trkpt>
      <trkpt lat="44.54264" lon="2.24724">
        <ele>240</ele>
        <time>2018-06-07T17:42:18Z</time>
      </trkpt>
      <trkpt lat="44.54267" lon="2.24723">
        <ele>240</ele>
        <time>2018-06-07T17:42:19Z</time>
      </trkpt>
      <trkpt lat="44.5427" lon="2.24721">
        <ele>240</ele>
        <time>2018-06-07T17:42:20Z</time>
      </trkpt>
      <trkpt lat="44.54274" lon="2.2472">
        <ele>240</ele>
        <time>2018-06-07T17:42:22Z</time>
      </trkpt>
      <trkpt lat="44.54277" lon="2.24718">
        <ele>240</ele>
        <time>2018-06-07T17:42:23Z</time>
      </trkpt>
      <trkpt lat="44.54279" lon="2.24716">
        <ele>240</ele>
        <time>2018-06-07T17:42:24Z</time>
      </trkpt>
      <trkpt lat="44.54282" lon="2.24714">
        <ele>240</ele>
        <time>2018-06-07T17:42:25Z</time>
      </trkpt>
      <trkpt lat="44.54286" lon="2.24712">
        <ele>240</ele>
        <time>2018-06-07T17:42:28Z</time>
      </trkpt>
      <trkpt lat="44.54287" lon="2.24707">
        <ele>239</ele>
        <time>2018-06-07T17:42:30Z</time>
      </trkpt>
      <trkpt lat="44.54288" lon="2.24701">
        <ele>239</ele>
        <time>2018-06-07T17:42:32Z</time>
      </trkpt>
      <trkpt lat="44.54288" lon="2.24697">
        <ele>239</ele>
        <time>2018-06-07T17:42:33Z</time>
      </trkpt>
      <trkpt lat="44.54289" lon="2.24691">
        <ele>239</ele>
        <time>2018-06-07T17:42:35Z</time>
      </trkpt>
      <trkpt lat="44.54289" lon="2.24684">
        <ele>239</ele>
        <time>2018-06-07T17:42:37Z</time>
      </trkpt>
      <trkpt lat="44.5429" lon="2.2468">
        <ele>239</ele>
        <time>2018-06-07T17:42:38Z</time>
      </trkpt>
      <trkpt lat="44.54291" lon="2.24674">
        <ele>239</ele>
        <time>2018-06-07T17:42:40Z</time>
      </trkpt>
      <trkpt lat="44.54292" lon="2.2467">
        <ele>239</ele>
        <time>2018-06-07T17:42:42Z</time>
      </trkpt>
      <trkpt lat="44.54291" lon="2.24666">
        <ele>237</ele>
        <time>2018-06-07T17:42:44Z</time>
      </trkpt>
      <trkpt lat="44.5429" lon="2.24659">
        <ele>237</ele>
        <time>2018-06-07T17:42:46Z</time>
      </trkpt>
      <trkpt lat="44.54289" lon="2.24655">
        <ele>237</ele>
        <time>2018-06-07T17:42:48Z</time>
      </trkpt>
      <trkpt lat="44.54287" lon="2.24651">
        <ele>237</ele>
        <time>2018-06-07T17:42:49Z</time>
      </trkpt>
      <trkpt lat="44.54287" lon="2.24646">
        <ele>237</ele>
        <time>2018-06-07T17:42:50Z</time>
      </trkpt>
      <trkpt lat="44.54286" lon="2.24641">
        <ele>237</ele>
        <time>2018-06-07T17:42:51Z</time>
      </trkpt>
      <trkpt lat="44.54285" lon="2.24636">
        <ele>237</ele>
        <time>2018-06-07T17:42:52Z</time>
      </trkpt>
      <trkpt lat="44.54285" lon="2.24632">
        <ele>237</ele>
        <time>2018-06-07T17:42:53Z</time>
      </trkpt>
      <trkpt lat="44.54283" lon="2.24627">
        <ele>237</ele>
        <time>2018-06-07T17:42:55Z</time>
      </trkpt>
      <trkpt lat="44.54283" lon="2.2462">
        <ele>237</ele>
        <time>2018-06-07T17:42:58Z</time>
      </trkpt>
      <trkpt lat="44.54281" lon="2.24612">
        <ele>237</ele>
        <time>2018-06-07T17:43:01Z</time>
      </trkpt>
      <trkpt lat="44.5428" lon="2.24608">
        <ele>237</ele>
        <time>2018-06-07T17:43:02Z</time>
      </trkpt>
      <trkpt lat="44.5428" lon="2.24603">
        <ele>237</ele>
        <time>2018-06-07T17:43:03Z</time>
      </trkpt>
      <trkpt lat="44.54279" lon="2.24597">
        <ele>237</ele>
        <time>2018-06-07T17:43:05Z</time>
      </trkpt>
      <trkpt lat="44.54278" lon="2.24593">
        <ele>237</ele>
        <time>2018-06-07T17:43:06Z</time>
      </trkpt>
      <trkpt lat="44.54278" lon="2.24588">
        <ele>237</ele>
        <time>2018-06-07T17:43:07Z</time>
      </trkpt>
      <trkpt lat="44.54277" lon="2.24582">
        <ele>238</ele>
        <time>2018-06-07T17:43:08Z</time>
      </trkpt>
      <trkpt lat="44.54276" lon="2.24572">
        <ele>238</ele>
        <time>2018-06-07T17:43:10Z</time>
      </trkpt>
      <trkpt lat="44.54276" lon="2.24568">
        <ele>238</ele>
        <time>2018-06-07T17:43:11Z</time>
      </trkpt>
      <trkpt lat="44.54278" lon="2.24564">
        <ele>238</ele>
        <time>2018-06-07T17:43:13Z</time>
      </trkpt>
      <trkpt lat="44.54278" lon="2.24557">
        <ele>238</ele>
        <time>2018-06-07T17:43:15Z</time>
      </trkpt>
      <trkpt lat="44.54278" lon="2.24553">
        <ele>238</ele>
        <time>2018-06-07T17:43:16Z</time>
      </trkpt>
      <trkpt lat="44.54278" lon="2.24548">
        <ele>238</ele>
        <time>2018-06-07T17:43:17Z</time>
      </trkpt>
      <trkpt lat="44.54278" lon="2.24543">
        <ele>238</ele>
        <time>2018-06-07T17:43:18Z</time>
      </trkpt>
      <trkpt lat="44.54278" lon="2.24538">
        <ele>238</ele>
        <time>2018-06-07T17:43:20Z</time>
      </trkpt>
      <trkpt lat="44.54279" lon="2.24534">
        <ele>238</ele>
        <time>2018-06-07T17:43:21Z</time>
      </trkpt>
      <trkpt lat="44.54279" lon="2.2453">
        <ele>238</ele>
        <time>2018-06-07T17:43:22Z</time>
      </trkpt>
      <trkpt lat="44.54279" lon="2.24524">
        <ele>238</ele>
        <time>2018-06-07T17:43:23Z</time>
      </trkpt>
      <trkpt lat="44.5428" lon="2.24518">
        <ele>238</ele>
        <time>2018-06-07T17:43:25Z</time>
      </trkpt>
      <trkpt lat="44.54281" lon="2.24512">
        <ele>238</ele>
        <time>2018-06-07T17:43:27Z</time>
      </trkpt>
      <trkpt lat="44.54281" lon="2.24505">
        <ele>238</ele>
        <time>2018-06-07T17:43:30Z</time>
      </trkpt>
      <trkpt lat="44.54281" lon="2.24496">
        <ele>239</ele>
        <time>2018-06-07T17:43:32Z</time>
      </trkpt>
      <trkpt lat="44.54283" lon="2.24491">
        <ele>239</ele>
        <time>2018-06-07T17:43:36Z</time>
      </trkpt>
      <trkpt lat="44.54283" lon="2.24486">
        <ele>239</ele>
        <time>2018-06-07T17:43:37Z</time>
      </trkpt>
      <trkpt lat="44.54283" lon="2.24482">
        <ele>239</ele>
        <time>2018-06-07T17:43:38Z</time>
      </trkpt>
      <trkpt lat="44.54285" lon="2.24478">
        <ele>239</ele>
        <time>2018-06-07T17:43:40Z</time>
      </trkpt>
      <trkpt lat="44.54289" lon="2.24473">
        <ele>239</ele>
        <time>2018-06-07T17:43:42Z</time>
      </trkpt>
      <trkpt lat="44.54291" lon="2.24465">
        <ele>239</ele>
        <time>2018-06-07T17:43:44Z</time>
      </trkpt>
      <trkpt lat="44.54294" lon="2.2446">
        <ele>239</ele>
        <time>2018-06-07T17:43:46Z</time>
      </trkpt>
      <trkpt lat="44.54296" lon="2.24457">
        <ele>239</ele>
        <time>2018-06-07T17:43:47Z</time>
      </trkpt>
      <trkpt lat="44.54296" lon="2.24452">
        <ele>239</ele>
        <time>2018-06-07T17:43:48Z</time>
      </trkpt>
      <trkpt lat="44.54298" lon="2.24445">
        <ele>239</ele>
        <time>2018-06-07T17:43:50Z</time>
      </trkpt>
      <trkpt lat="44.54302" lon="2.2444">
        <ele>239</ele>
        <time>2018-06-07T17:43:52Z</time>
      </trkpt>
      <trkpt lat="44.54303" lon="2.24435">
        <ele>239</ele>
        <time>2018-06-07T17:43:53Z</time>
      </trkpt>
      <trkpt lat="44.54308" lon="2.24435">
        <ele>239</ele>
        <time>2018-06-07T17:43:55Z</time>
      </trkpt>
      <trkpt lat="44.54308" lon="2.24431">
        <ele>239</ele>
        <time>2018-06-07T17:43:56Z</time>
      </trkpt>
      <trkpt lat="44.54312" lon="2.24426">
        <ele>239</ele>
        <time>2018-06-07T17:43:58Z</time>
      </trkpt>
      <trkpt lat="44.54313" lon="2.24419">
        <ele>239</ele>
        <time>2018-06-07T17:43:59Z</time>
      </trkpt>
      <trkpt lat="44.54316" lon="2.24414">
        <ele>241</ele>
        <time>2018-06-07T17:44:00Z</time>
      </trkpt>
      <trkpt lat="44.54321" lon="2.24413">
        <ele>241</ele>
        <time>2018-06-07T17:44:01Z</time>
      </trkpt>
      <trkpt lat="44.54328" lon="2.24408">
        <ele>240</ele>
        <time>2018-06-07T17:44:03Z</time>
      </trkpt>
      <trkpt lat="44.5433" lon="2.24401">
        <ele>241</ele>
        <time>2018-06-07T17:44:04Z</time>
      </trkpt>
      <trkpt lat="44.54334" lon="2.24395">
        <ele>240</ele>
        <time>2018-06-07T17:44:06Z</time>
      </trkpt>
      <trkpt lat="44.54336" lon="2.2439">
        <ele>240</ele>
        <time>2018-06-07T17:44:09Z</time>
      </trkpt>
      <trkpt lat="44.54339" lon="2.24387">
        <ele>240</ele>
        <time>2018-06-07T17:44:10Z</time>
      </trkpt>
      <trkpt lat="44.54342" lon="2.24383">
        <ele>240</ele>
        <time>2018-06-07T17:44:12Z</time>
      </trkpt>
      <trkpt lat="44.54349" lon="2.24387">
        <ele>240</ele>
        <time>2018-06-07T17:44:13Z</time>
      </trkpt>
      <trkpt lat="44.54353" lon="2.24389">
        <ele>240</ele>
        <time>2018-06-07T17:44:14Z</time>
      </trkpt>
      <trkpt lat="44.54352" lon="2.24383">
        <ele>240</ele>
        <time>2018-06-07T17:44:15Z</time>
      </trkpt>
      <trkpt lat="44.54354" lon="2.2438">
        <ele>240</ele>
        <time>2018-06-07T17:44:16Z</time>
      </trkpt>
      <trkpt lat="44.54355" lon="2.24376">
        <ele>240</ele>
        <time>2018-06-07T17:44:17Z</time>
      </trkpt>
      <trkpt lat="44.54361" lon="2.2437">
        <ele>240</ele>
        <time>2018-06-07T17:44:19Z</time>
      </trkpt>
      <trkpt lat="44.54364" lon="2.2437">
        <ele>240</ele>
        <time>2018-06-07T17:44:21Z</time>
      </trkpt>
      <trkpt lat="44.54367" lon="2.24371">
        <ele>240</ele>
        <time>2018-06-07T17:44:24Z</time>
      </trkpt>
      <trkpt lat="44.5437" lon="2.24372">
        <ele>240</ele>
        <time>2018-06-07T17:44:26Z</time>
      </trkpt>
      <trkpt lat="44.54374" lon="2.24367">
        <ele>240</ele>
        <time>2018-06-07T17:44:28Z</time>
      </trkpt>
      <trkpt lat="44.54376" lon="2.24364">
        <ele>240</ele>
        <time>2018-06-07T17:44:30Z</time>
      </trkpt>
      <trkpt lat="44.5438" lon="2.24364">
        <ele>240</ele>
        <time>2018-06-07T17:44:32Z</time>
      </trkpt>
      <trkpt lat="44.54384" lon="2.24362">
        <ele>240</ele>
        <time>2018-06-07T17:44:33Z</time>
      </trkpt>
      <trkpt lat="44.54386" lon="2.24357">
        <ele>240</ele>
        <time>2018-06-07T17:44:34Z</time>
      </trkpt>
      <trkpt lat="44.54392" lon="2.24354">
        <ele>239</ele>
        <time>2018-06-07T17:44:36Z</time>
      </trkpt>
      <trkpt lat="44.54397" lon="2.24348">
        <ele>239</ele>
        <time>2018-06-07T17:44:39Z</time>
      </trkpt>
      <trkpt lat="44.54406" lon="2.24345">
        <ele>238</ele>
        <time>2018-06-07T17:44:40Z</time>
      </trkpt>
      <trkpt lat="44.54409" lon="2.24342">
        <ele>238</ele>
        <time>2018-06-07T17:44:41Z</time>
      </trkpt>
      <trkpt lat="44.5441" lon="2.24335">
        <ele>237</ele>
        <time>2018-06-07T17:44:43Z</time>
      </trkpt>
      <trkpt lat="44.54412" lon="2.24332">
        <ele>236</ele>
        <time>2018-06-07T17:44:44Z</time>
      </trkpt>
      <trkpt lat="44.54413" lon="2.24327">
        <ele>237</ele>
        <time>2018-06-07T17:44:45Z</time>
      </trkpt>
      <trkpt lat="44.54416" lon="2.24323">
        <ele>237</ele>
        <time>2018-06-07T17:44:46Z</time>
      </trkpt>
      <trkpt lat="44.54418" lon="2.24317">
        <ele>238</ele>
        <time>2018-06-07T17:44:47Z</time>
      </trkpt>
      <trkpt lat="44.54422" lon="2.24311">
        <ele>238</ele>
        <time>2018-06-07T17:44:49Z</time>
      </trkpt>
      <trkpt lat="44.54424" lon="2.24305">
        <ele>238</ele>
        <time>2018-06-07T17:44:51Z</time>
      </trkpt>
      <trkpt lat="44.5443" lon="2.24302">
        <ele>238</ele>
        <time>2018-06-07T17:44:52Z</time>
      </trkpt>
      <trkpt lat="44.54435" lon="2.24298">
        <ele>238</ele>
        <time>2018-06-07T17:44:55Z</time>
      </trkpt>
      <trkpt lat="44.54438" lon="2.24298">
        <ele>239</ele>
        <time>2018-06-07T17:44:56Z</time>
      </trkpt>
      <trkpt lat="44.54441" lon="2.24292">
        <ele>239</ele>
        <time>2018-06-07T17:44:58Z</time>
      </trkpt>
      <trkpt lat="44.54443" lon="2.24287">
        <ele>238</ele>
        <time>2018-06-07T17:45:00Z</time>
      </trkpt>
      <trkpt lat="44.54445" lon="2.24286">
        <ele>238</ele>
        <time>2018-06-07T17:45:01Z</time>
      </trkpt>
      <trkpt lat="44.54448" lon="2.24281">
        <ele>238</ele>
        <time>2018-06-07T17:45:02Z</time>
      </trkpt>
      <trkpt lat="44.5445" lon="2.24277">
        <ele>238</ele>
        <time>2018-06-07T17:45:04Z</time>
      </trkpt>
      <trkpt lat="44.54454" lon="2.24272">
        <ele>238</ele>
        <time>2018-06-07T17:45:06Z</time>
      </trkpt>
      <trkpt lat="44.54456" lon="2.24269">
        <ele>238</ele>
        <time>2018-06-07T17:45:08Z</time>
      </trkpt>
      <trkpt lat="44.54459" lon="2.2426">
        <ele>238</ele>
        <time>2018-06-07T17:45:10Z</time>
      </trkpt>
      <trkpt lat="44.54463" lon="2.24255">
        <ele>238</ele>
        <time>2018-06-07T17:45:12Z</time>
      </trkpt>
      <trkpt lat="44.54466" lon="2.24251">
        <ele>238</ele>
        <time>2018-06-07T17:45:13Z</time>
      </trkpt>
      <trkpt lat="44.54469" lon="2.24248">
        <ele>235</ele>
        <time>2018-06-07T17:45:14Z</time>
      </trkpt>
      <trkpt lat="44.54472" lon="2.24243">
        <ele>235</ele>
        <time>2018-06-07T17:45:16Z</time>
      </trkpt>
      <trkpt lat="44.54472" lon="2.24238">
        <ele>235</ele>
        <time>2018-06-07T17:45:17Z</time>
      </trkpt>
      <trkpt lat="44.54479" lon="2.24231">
        <ele>235</ele>
        <time>2018-06-07T17:45:20Z</time>
      </trkpt>
      <trkpt lat="44.54485" lon="2.24226">
        <ele>235</ele>
        <time>2018-06-07T17:45:22Z</time>
      </trkpt>
      <trkpt lat="44.54486" lon="2.24221">
        <ele>235</ele>
        <time>2018-06-07T17:45:23Z</time>
      </trkpt>
      <trkpt lat="44.54491" lon="2.24217">
        <ele>235</ele>
        <time>2018-06-07T17:45:25Z</time>
      </trkpt>
      <trkpt lat="44.54494" lon="2.24213">
        <ele>234</ele>
        <time>2018-06-07T17:45:27Z</time>
      </trkpt>
      <trkpt lat="44.54497" lon="2.24211">
        <ele>234</ele>
        <time>2018-06-07T17:45:29Z</time>
      </trkpt>
      <trkpt lat="44.545" lon="2.24208">
        <ele>239</ele>
        <time>2018-06-07T17:45:30Z</time>
      </trkpt>
      <trkpt lat="44.54503" lon="2.24205">
        <ele>239</ele>
        <time>2018-06-07T17:45:31Z</time>
      </trkpt>
      <trkpt lat="44.54507" lon="2.24202">
        <ele>239</ele>
        <time>2018-06-07T17:45:33Z</time>
      </trkpt>
      <trkpt lat="44.54511" lon="2.24199">
        <ele>239</ele>
        <time>2018-06-07T17:45:35Z</time>
      </trkpt>
      <trkpt lat="44.54514" lon="2.24196">
        <ele>239</ele>
        <time>2018-06-07T17:45:36Z</time>
      </trkpt>
      <trkpt lat="44.54519" lon="2.24192">
        <ele>239</ele>
        <time>2018-06-07T17:45:39Z</time>
      </trkpt>
      <trkpt lat="44.54523" lon="2.24187">
        <ele>239</ele>
        <time>2018-06-07T17:45:40Z</time>
      </trkpt>
      <trkpt lat="44.54527" lon="2.24183">
        <ele>239</ele>
        <time>2018-06-07T17:45:42Z</time>
      </trkpt>
      <trkpt lat="44.54529" lon="2.2418">
        <ele>239</ele>
        <time>2018-06-07T17:45:43Z</time>
      </trkpt>
      <trkpt lat="44.54533" lon="2.24178">
        <ele>239</ele>
        <time>2018-06-07T17:45:45Z</time>
      </trkpt>
      <trkpt lat="44.54535" lon="2.24177">
        <ele>239</ele>
        <time>2018-06-07T17:45:46Z</time>
      </trkpt>
      <trkpt lat="44.54539" lon="2.24173">
        <ele>239</ele>
        <time>2018-06-07T17:45:48Z</time>
      </trkpt>
      <trkpt lat="44.5454" lon="2.24169">
        <ele>239</ele>
        <time>2018-06-07T17:45:49Z</time>
      </trkpt>
      <trkpt lat="44.54543" lon="2.24165">
        <ele>234</ele>
        <time>2018-06-07T17:45:50Z</time>
      </trkpt>
      <trkpt lat="44.54546" lon="2.24163">
        <ele>234</ele>
        <time>2018-06-07T17:45:51Z</time>
      </trkpt>
      <trkpt lat="44.5455" lon="2.24157">
        <ele>234</ele>
        <time>2018-06-07T17:45:53Z</time>
      </trkpt>
      <trkpt lat="44.54554" lon="2.24152">
        <ele>234</ele>
        <time>2018-06-07T17:45:55Z</time>
      </trkpt>
      <trkpt lat="44.54555" lon="2.24149">
        <ele>234</ele>
        <time>2018-06-07T17:45:56Z</time>
      </trkpt>
      <trkpt lat="44.54558" lon="2.24146">
        <ele>234</ele>
        <time>2018-06-07T17:45:57Z</time>
      </trkpt>
      <trkpt lat="44.54562" lon="2.24142">
        <ele>235</ele>
        <time>2018-06-07T17:45:59Z</time>
      </trkpt>
      <trkpt lat="44.54564" lon="2.24139">
        <ele>234</ele>
        <time>2018-06-07T17:46:00Z</time>
      </trkpt>
      <trkpt lat="44.54566" lon="2.24136">
        <ele>234</ele>
        <time>2018-06-07T17:46:01Z</time>
      </trkpt>
      <trkpt lat="44.54569" lon="2.24134">
        <ele>234</ele>
        <time>2018-06-07T17:46:02Z</time>
      </trkpt>
      <trkpt lat="44.54572" lon="2.24132">
        <ele>234</ele>
        <time>2018-06-07T17:46:03Z</time>
      </trkpt>
      <trkpt lat="44.54576" lon="2.24128">
        <ele>234</ele>
        <time>2018-06-07T17:46:04Z</time>
      </trkpt>
      <trkpt lat="44.54579" lon="2.24126">
        <ele>234</ele>
        <time>2018-06-07T17:46:05Z</time>
      </trkpt>
      <trkpt lat="44.54583" lon="2.24122">
        <ele>234</ele>
        <time>2018-06-07T17:46:07Z</time>
      </trkpt>
      <trkpt lat="44.54589" lon="2.24116">
        <ele>239</ele>
        <time>2018-06-07T17:46:09Z</time>
      </trkpt>
      <trkpt lat="44.54591" lon="2.24114">
        <ele>239</ele>
        <time>2018-06-07T17:46:10Z</time>
      </trkpt>
      <trkpt lat="44.54595" lon="2.2411">
        <ele>238</ele>
        <time>2018-06-07T17:46:12Z</time>
      </trkpt>
      <trkpt lat="44.54599" lon="2.24108">
        <ele>239</ele>
        <time>2018-06-07T17:46:14Z</time>
      </trkpt>
      <trkpt lat="44.54604" lon="2.24103">
        <ele>238</ele>
        <time>2018-06-07T17:46:16Z</time>
      </trkpt>
      <trkpt lat="44.54606" lon="2.24099">
        <ele>238</ele>
        <time>2018-06-07T17:46:17Z</time>
      </trkpt>
      <trkpt lat="44.5461" lon="2.24094">
        <ele>238</ele>
        <time>2018-06-07T17:46:19Z</time>
      </trkpt>
      <trkpt lat="44.54611" lon="2.2409">
        <ele>238</ele>
        <time>2018-06-07T17:46:20Z</time>
      </trkpt>
      <trkpt lat="44.54616" lon="2.24085">
        <ele>239</ele>
        <time>2018-06-07T17:46:22Z</time>
      </trkpt>
      <trkpt lat="44.5462" lon="2.24081">
        <ele>236</ele>
        <time>2018-06-07T17:46:23Z</time>
      </trkpt>
      <trkpt lat="44.54623" lon="2.24076">
        <ele>236</ele>
        <time>2018-06-07T17:46:25Z</time>
      </trkpt>
      <trkpt lat="44.54627" lon="2.24071">
        <ele>236</ele>
        <time>2018-06-07T17:46:27Z</time>
      </trkpt>
      <trkpt lat="44.54629" lon="2.24068">
        <ele>237</ele>
        <time>2018-06-07T17:46:28Z</time>
      </trkpt>
      <trkpt lat="44.54634" lon="2.24063">
        <ele>237</ele>
        <time>2018-06-07T17:46:30Z</time>
      </trkpt>
      <trkpt lat="44.54638" lon="2.24059">
        <ele>237</ele>
        <time>2018-06-07T17:46:32Z</time>
      </trkpt>
      <trkpt lat="44.5464" lon="2.24056">
        <ele>237</ele>
        <time>2018-06-07T17:46:33Z</time>
      </trkpt>
      <trkpt lat="44.54644" lon="2.24051">
        <ele>237</ele>
        <time>2018-06-07T17:46:35Z</time>
      </trkpt>
      <trkpt lat="44.54647" lon="2.24046">
        <ele>237</ele>
        <time>2018-06-07T17:46:37Z</time>
      </trkpt>
      <trkpt lat="44.54649" lon="2.24043">
        <ele>237</ele>
        <time>2018-06-07T17:46:38Z</time>
      </trkpt>
      <trkpt lat="44.5465" lon="2.24039">
        <ele>237</ele>
        <time>2018-06-07T17:46:39Z</time>
      </trkpt>
      <trkpt lat="44.54652" lon="2.24036">
        <ele>237</ele>
        <time>2018-06-07T17:46:40Z</time>
      </trkpt>
      <trkpt lat="44.54655" lon="2.24033">
        <ele>237</ele>
        <time>2018-06-07T17:46:41Z</time>
      </trkpt>
      <trkpt lat="44.54657" lon="2.24028">
        <ele>237</ele>
        <time>2018-06-07T17:46:43Z</time>
      </trkpt>
      <trkpt lat="44.54659" lon="2.24022">
        <ele>238</ele>
        <time>2018-06-07T17:46:45Z</time>
      </trkpt>
      <trkpt lat="44.54661" lon="2.24019">
        <ele>238</ele>
        <time>2018-06-07T17:46:46Z</time>
      </trkpt>
      <trkpt lat="44.54663" lon="2.24012">
        <ele>238</ele>
        <time>2018-06-07T17:46:48Z</time>
      </trkpt>
      <trkpt lat="44.54665" lon="2.24009">
        <ele>238</ele>
        <time>2018-06-07T17:46:49Z</time>
      </trkpt>
      <trkpt lat="44.54666" lon="2.24006">
        <ele>238</ele>
        <time>2018-06-07T17:46:50Z</time>
      </trkpt>
      <trkpt lat="44.54668" lon="2.23998">
        <ele>239</ele>
        <time>2018-06-07T17:46:52Z</time>
      </trkpt>
      <trkpt lat="44.5467" lon="2.23992">
        <ele>240</ele>
        <time>2018-06-07T17:46:54Z</time>
      </trkpt>
      <trkpt lat="44.54672" lon="2.23985">
        <ele>241</ele>
        <time>2018-06-07T17:46:56Z</time>
      </trkpt>
      <trkpt lat="44.54675" lon="2.23979">
        <ele>241</ele>
        <time>2018-06-07T17:46:58Z</time>
      </trkpt>
      <trkpt lat="44.54675" lon="2.23975">
        <ele>241</ele>
        <time>2018-06-07T17:46:59Z</time>
      </trkpt>
      <trkpt lat="44.54676" lon="2.23971">
        <ele>241</ele>
        <time>2018-06-07T17:47:00Z</time>
      </trkpt>
      <trkpt lat="44.54678" lon="2.23965">
        <ele>242</ele>
        <time>2018-06-07T17:47:02Z</time>
      </trkpt>
      <trkpt lat="44.54679" lon="2.23959">
        <ele>242</ele>
        <time>2018-06-07T17:47:04Z</time>
      </trkpt>
      <trkpt lat="44.5468" lon="2.23954">
        <ele>242</ele>
        <time>2018-06-07T17:47:05Z</time>
      </trkpt>
      <trkpt lat="44.54682" lon="2.23951">
        <ele>242</ele>
        <time>2018-06-07T17:47:06Z</time>
      </trkpt>
      <trkpt lat="44.54683" lon="2.23946">
        <ele>242</ele>
        <time>2018-06-07T17:47:07Z</time>
      </trkpt>
      <trkpt lat="44.54683" lon="2.2394">
        <ele>241</ele>
        <time>2018-06-07T17:47:08Z</time>
      </trkpt>
      <trkpt lat="44.54682" lon="2.23933">
        <ele>241</ele>
        <time>2018-06-07T17:47:10Z</time>
      </trkpt>
      <trkpt lat="44.54683" lon="2.23924">
        <ele>241</ele>
        <time>2018-06-07T17:47:12Z</time>
      </trkpt>
      <trkpt lat="44.54685" lon="2.2392">
        <ele>241</ele>
        <time>2018-06-07T17:47:13Z</time>
      </trkpt>
      <trkpt lat="44.54687" lon="2.23915">
        <ele>239</ele>
        <time>2018-06-07T17:47:15Z</time>
      </trkpt>
      <trkpt lat="44.54688" lon="2.23911">
        <ele>239</ele>
        <time>2018-06-07T17:47:16Z</time>
      </trkpt>
      <trkpt lat="44.5469" lon="2.23906">
        <ele>239</ele>
        <time>2018-06-07T17:47:18Z</time>
      </trkpt>
      <trkpt lat="44.54691" lon="2.23902">
        <ele>239</ele>
        <time>2018-06-07T17:47:19Z</time>
      </trkpt>
      <trkpt lat="44.54692" lon="2.23898">
        <ele>239</ele>
        <time>2018-06-07T17:47:20Z</time>
      </trkpt>
      <trkpt lat="44.54693" lon="2.23894">
        <ele>239</ele>
        <time>2018-06-07T17:47:21Z</time>
      </trkpt>
      <trkpt lat="44.54693" lon="2.23889">
        <ele>239</ele>
        <time>2018-06-07T17:47:22Z</time>
      </trkpt>
      <trkpt lat="44.54694" lon="2.23885">
        <ele>239</ele>
        <time>2018-06-07T17:47:23Z</time>
      </trkpt>
      <trkpt lat="44.54696" lon="2.23882">
        <ele>239</ele>
        <time>2018-06-07T17:47:24Z</time>
      </trkpt>
      <trkpt lat="44.54697" lon="2.23877">
        <ele>239</ele>
        <time>2018-06-07T17:47:26Z</time>
      </trkpt>
      <trkpt lat="44.54698" lon="2.2387">
        <ele>239</ele>
        <time>2018-06-07T17:47:28Z</time>
      </trkpt>
      <trkpt lat="44.54699" lon="2.23866">
        <ele>239</ele>
        <time>2018-06-07T17:47:29Z</time>
      </trkpt>
      <trkpt lat="44.547" lon="2.23861">
        <ele>238</ele>
        <time>2018-06-07T17:47:30Z</time>
      </trkpt>
      <trkpt lat="44.547" lon="2.23857">
        <ele>238</ele>
        <time>2018-06-07T17:47:31Z</time>
      </trkpt>
      <trkpt lat="44.54701" lon="2.23852">
        <ele>238</ele>
        <time>2018-06-07T17:47:32Z</time>
      </trkpt>
      <trkpt lat="44.54702" lon="2.23847">
        <ele>238</ele>
        <time>2018-06-07T17:47:34Z</time>
      </trkpt>
      <trkpt lat="44.54703" lon="2.23841">
        <ele>238</ele>
        <time>2018-06-07T17:47:36Z</time>
      </trkpt>
      <trkpt lat="44.54704" lon="2.23835">
        <ele>238</ele>
        <time>2018-06-07T17:47:38Z</time>
      </trkpt>
      <trkpt lat="44.54707" lon="2.23827">
        <ele>233</ele>
        <time>2018-06-07T17:47:40Z</time>
      </trkpt>
      <trkpt lat="44.54708" lon="2.23823">
        <ele>233</ele>
        <time>2018-06-07T17:47:41Z</time>
      </trkpt>
      <trkpt lat="44.54709" lon="2.23819">
        <ele>233</ele>
        <time>2018-06-07T17:47:42Z</time>
      </trkpt>
      <trkpt lat="44.5471" lon="2.23814">
        <ele>233</ele>
        <time>2018-06-07T17:47:44Z</time>
      </trkpt>
      <trkpt lat="44.54711" lon="2.2381">
        <ele>233</ele>
        <time>2018-06-07T17:47:45Z</time>
      </trkpt>
      <trkpt lat="44.54712" lon="2.23806">
        <ele>233</ele>
        <time>2018-06-07T17:47:46Z</time>
      </trkpt>
      <trkpt lat="44.54713" lon="2.23802">
        <ele>233</ele>
        <time>2018-06-07T17:47:47Z</time>
      </trkpt>
      <trkpt lat="44.54714" lon="2.23798">
        <ele>233</ele>
        <time>2018-06-07T17:47:48Z</time>
      </trkpt>
      <trkpt lat="44.54716" lon="2.23792">
        <ele>233</ele>
        <time>2018-06-07T17:47:50Z</time>
      </trkpt>
      <trkpt lat="44.54718" lon="2.23786">
        <ele>232</ele>
        <time>2018-06-07T17:47:52Z</time>
      </trkpt>
      <trkpt lat="44.5472" lon="2.23781">
        <ele>232</ele>
        <time>2018-06-07T17:47:53Z</time>
      </trkpt>
      <trkpt lat="44.54722" lon="2.23776">
        <ele>232</ele>
        <time>2018-06-07T17:47:55Z</time>
      </trkpt>
      <trkpt lat="44.54725" lon="2.23769">
        <ele>232</ele>
        <time>2018-06-07T17:47:57Z</time>
      </trkpt>
      <trkpt lat="44.54728" lon="2.23764">
        <ele>232</ele>
        <time>2018-06-07T17:47:59Z</time>
      </trkpt>
      <trkpt lat="44.5473" lon="2.23758">
        <ele>231</ele>
        <time>2018-06-07T17:48:01Z</time>
      </trkpt>
      <trkpt lat="44.54732" lon="2.23752">
        <ele>231</ele>
        <time>2018-06-07T17:48:03Z</time>
      </trkpt>
      <trkpt lat="44.54735" lon="2.23745">
        <ele>230</ele>
        <time>2018-06-07T17:48:05Z</time>
      </trkpt>
      <trkpt lat="44.54736" lon="2.23736">
        <ele>231</ele>
        <time>2018-06-07T17:48:07Z</time>
      </trkpt>
      <trkpt lat="44.54742" lon="2.23707">
        <ele>232</ele>
        <time>2018-06-07T17:48:20Z</time>
      </trkpt>
      <trkpt lat="44.54742" lon="2.23701">
        <ele>232</ele>
        <time>2018-06-07T17:48:24Z</time>
      </trkpt>
      <trkpt lat="44.54741" lon="2.23697">
        <ele>232</ele>
        <time>2018-06-07T17:48:26Z</time>
      </trkpt>
      <trkpt lat="44.54741" lon="2.23693">
        <ele>232</ele>
        <time>2018-06-07T17:48:28Z</time>
      </trkpt>
      <trkpt lat="44.54741" lon="2.23688">
        <ele>232</ele>
        <time>2018-06-07T17:48:33Z</time>
      </trkpt>
      <trkpt lat="44.54738" lon="2.23678">
        <ele>233</ele>
        <time>2018-06-07T17:48:36Z</time>
      </trkpt>
      <trkpt lat="44.54742" lon="2.23684">
        <ele>233</ele>
        <time>2018-06-07T17:48:37Z</time>
      </trkpt>
      <trkpt lat="44.54745" lon="2.23678">
        <ele>233</ele>
        <time>2018-06-07T17:48:38Z</time>
      </trkpt>
      <trkpt lat="44.54748" lon="2.23673">
        <ele>234</ele>
        <time>2018-06-07T17:48:40Z</time>
      </trkpt>
      <trkpt lat="44.54747" lon="2.23669">
        <ele>234</ele>
        <time>2018-06-07T17:48:41Z</time>
      </trkpt>
      <trkpt lat="44.54747" lon="2.23664">
        <ele>235</ele>
        <time>2018-06-07T17:48:42Z</time>
      </trkpt>
      <trkpt lat="44.54746" lon="2.23656">
        <ele>235</ele>
        <time>2018-06-07T17:48:44Z</time>
      </trkpt>
      <trkpt lat="44.54744" lon="2.23653">
        <ele>235</ele>
        <time>2018-06-07T17:48:45Z</time>
      </trkpt>
      <trkpt lat="44.54741" lon="2.23647">
        <ele>235</ele>
        <time>2018-06-07T17:48:46Z</time>
      </trkpt>
      <trkpt lat="44.54739" lon="2.23642">
        <ele>235</ele>
        <time>2018-06-07T17:48:47Z</time>
      </trkpt>
      <trkpt lat="44.54738" lon="2.23637">
        <ele>235</ele>
        <time>2018-06-07T17:48:49Z</time>
      </trkpt>
      <trkpt lat="44.54737" lon="2.23632">
        <ele>236</ele>
        <time>2018-06-07T17:48:50Z</time>
      </trkpt>
      <trkpt lat="44.54736" lon="2.23625">
        <ele>236</ele>
        <time>2018-06-07T17:48:51Z</time>
      </trkpt>
      <trkpt lat="44.54734" lon="2.23619">
        <ele>236</ele>
        <time>2018-06-07T17:48:53Z</time>
      </trkpt>
      <trkpt lat="44.54732" lon="2.23614">
        <ele>236</ele>
        <time>2018-06-07T17:48:54Z</time>
      </trkpt>
      <trkpt lat="44.54732" lon="2.23611">
        <ele>237</ele>
        <time>2018-06-07T17:48:55Z</time>
      </trkpt>
      <trkpt lat="44.54727" lon="2.23602">
        <ele>237</ele>
        <time>2018-06-07T17:48:56Z</time>
      </trkpt>
      <trkpt lat="44.54725" lon="2.23599">
        <ele>237</ele>
        <time>2018-06-07T17:48:57Z</time>
      </trkpt>
      <trkpt lat="44.54725" lon="2.23594">
        <ele>237</ele>
        <time>2018-06-07T17:48:59Z</time>
      </trkpt>
      <trkpt lat="44.54724" lon="2.23586">
        <ele>237</ele>
        <time>2018-06-07T17:49:02Z</time>
      </trkpt>
      <trkpt lat="44.54719" lon="2.23586">
        <ele>237</ele>
        <time>2018-06-07T17:49:03Z</time>
      </trkpt>
      <trkpt lat="44.54716" lon="2.23585">
        <ele>236</ele>
        <time>2018-06-07T17:49:04Z</time>
      </trkpt>
      <trkpt lat="44.54705" lon="2.23587">
        <ele>235</ele>
        <time>2018-06-07T17:49:06Z</time>
      </trkpt>
      <trkpt lat="44.54709" lon="2.2358">
        <ele>238</ele>
        <time>2018-06-07T17:49:07Z</time>
      </trkpt>
      <trkpt lat="44.54708" lon="2.23575">
        <ele>238</ele>
        <time>2018-06-07T17:49:09Z</time>
      </trkpt>
      <trkpt lat="44.54706" lon="2.23568">
        <ele>238</ele>
        <time>2018-06-07T17:49:11Z</time>
      </trkpt>
      <trkpt lat="44.5471" lon="2.2356">
        <ele>239</ele>
        <time>2018-06-07T17:49:14Z</time>
      </trkpt>
      <trkpt lat="44.54709" lon="2.23555">
        <ele>239</ele>
        <time>2018-06-07T17:49:15Z</time>
      </trkpt>
      <trkpt lat="44.54709" lon="2.2355">
        <ele>239</ele>
        <time>2018-06-07T17:49:16Z</time>
      </trkpt>
      <trkpt lat="44.54709" lon="2.23543">
        <ele>239</ele>
        <time>2018-06-07T17:49:17Z</time>
      </trkpt>
      <trkpt lat="44.54708" lon="2.23539">
        <ele>239</ele>
        <time>2018-06-07T17:49:18Z</time>
      </trkpt>
      <trkpt lat="44.54707" lon="2.23532">
        <ele>239</ele>
        <time>2018-06-07T17:49:19Z</time>
      </trkpt>
      <trkpt lat="44.54701" lon="2.23526">
        <ele>238</ele>
        <time>2018-06-07T17:49:20Z</time>
      </trkpt>
      <trkpt lat="44.547" lon="2.23522">
        <ele>238</ele>
        <time>2018-06-07T17:49:21Z</time>
      </trkpt>
      <trkpt lat="44.54697" lon="2.2352">
        <ele>237</ele>
        <time>2018-06-07T17:49:22Z</time>
      </trkpt>
      <trkpt lat="44.547" lon="2.23519">
        <ele>238</ele>
        <time>2018-06-07T17:49:24Z</time>
      </trkpt>
      <trkpt lat="44.54696" lon="2.23517">
        <ele>237</ele>
        <time>2018-06-07T17:49:25Z</time>
      </trkpt>
      <trkpt lat="44.54697" lon="2.23509">
        <ele>237</ele>
        <time>2018-06-07T17:49:26Z</time>
      </trkpt>
      <trkpt lat="44.54702" lon="2.23509">
        <ele>238</ele>
        <time>2018-06-07T17:49:27Z</time>
      </trkpt>
      <trkpt lat="44.54698" lon="2.23506">
        <ele>237</ele>
        <time>2018-06-07T17:49:28Z</time>
      </trkpt>
      <trkpt lat="44.54697" lon="2.23499">
        <ele>240</ele>
        <time>2018-06-07T17:49:29Z</time>
      </trkpt>
      <trkpt lat="44.54694" lon="2.23489">
        <ele>240</ele>
        <time>2018-06-07T17:49:30Z</time>
      </trkpt>
      <trkpt lat="44.54692" lon="2.2348">
        <ele>240</ele>
        <time>2018-06-07T17:49:33Z</time>
      </trkpt>
      <trkpt lat="44.5469" lon="2.23473">
        <ele>240</ele>
        <time>2018-06-07T17:49:34Z</time>
      </trkpt>
      <trkpt lat="44.54691" lon="2.23463">
        <ele>241</ele>
        <time>2018-06-07T17:49:37Z</time>
      </trkpt>
      <trkpt lat="44.54689" lon="2.2346">
        <ele>241</ele>
        <time>2018-06-07T17:49:38Z</time>
      </trkpt>
      <trkpt lat="44.54687" lon="2.23455">
        <ele>240</ele>
        <time>2018-06-07T17:49:42Z</time>
      </trkpt>
      <trkpt lat="44.54687" lon="2.2345">
        <ele>240</ele>
        <time>2018-06-07T17:49:44Z</time>
      </trkpt>
      <trkpt lat="44.54686" lon="2.23445">
        <ele>240</ele>
        <time>2018-06-07T17:49:46Z</time>
      </trkpt>
      <trkpt lat="44.54683" lon="2.23435">
        <ele>239</ele>
        <time>2018-06-07T17:49:47Z</time>
      </trkpt>
      <trkpt lat="44.54682" lon="2.23428">
        <ele>238</ele>
        <time>2018-06-07T17:49:48Z</time>
      </trkpt>
      <trkpt lat="44.54681" lon="2.23424">
        <ele>237</ele>
        <time>2018-06-07T17:49:49Z</time>
      </trkpt>
      <trkpt lat="44.54682" lon="2.23416">
        <ele>238</ele>
        <time>2018-06-07T17:49:50Z</time>
      </trkpt>
      <trkpt lat="44.54681" lon="2.23419">
        <ele>237</ele>
        <time>2018-06-07T17:49:51Z</time>
      </trkpt>
      <trkpt lat="44.54682" lon="2.23415">
        <ele>238</ele>
        <time>2018-06-07T17:49:54Z</time>
      </trkpt>
      <trkpt lat="44.54679" lon="2.23383">
        <ele>240</ele>
        <time>2018-06-07T17:50:03Z</time>
      </trkpt>
      <trkpt lat="44.54675" lon="2.23382">
        <ele>240</ele>
        <time>2018-06-07T17:50:04Z</time>
      </trkpt>
      <trkpt lat="44.5467" lon="2.23378">
        <ele>239</ele>
        <time>2018-06-07T17:50:07Z</time>
      </trkpt>
      <trkpt lat="44.54672" lon="2.23376">
        <ele>240</ele>
        <time>2018-06-07T17:50:09Z</time>
      </trkpt>
      <trkpt lat="44.54669" lon="2.23371">
        <ele>239</ele>
        <time>2018-06-07T17:50:10Z</time>
      </trkpt>
      <trkpt lat="44.5467" lon="2.23365">
        <ele>239</ele>
        <time>2018-06-07T17:50:12Z</time>
      </trkpt>
      <trkpt lat="44.54674" lon="2.2336">
        <ele>238</ele>
        <time>2018-06-07T17:50:14Z</time>
      </trkpt>
      <trkpt lat="44.54675" lon="2.23351">
        <ele>237</ele>
        <time>2018-06-07T17:50:16Z</time>
      </trkpt>
      <trkpt lat="44.54676" lon="2.23344">
        <ele>235</ele>
        <time>2018-06-07T17:50:18Z</time>
      </trkpt>
      <trkpt lat="44.5468" lon="2.23339">
        <ele>235</ele>
        <time>2018-06-07T17:50:20Z</time>
      </trkpt>
      <trkpt lat="44.54678" lon="2.23334">
        <ele>234</ele>
        <time>2018-06-07T17:50:21Z</time>
      </trkpt>
      <trkpt lat="44.54677" lon="2.23326">
        <ele>233</ele>
        <time>2018-06-07T17:50:23Z</time>
      </trkpt>
      <trkpt lat="44.5468" lon="2.23326">
        <ele>234</ele>
        <time>2018-06-07T17:50:24Z</time>
      </trkpt>
      <trkpt lat="44.54679" lon="2.23319">
        <ele>235</ele>
        <time>2018-06-07T17:50:26Z</time>
      </trkpt>
      <trkpt lat="44.54682" lon="2.23314">
        <ele>236</ele>
        <time>2018-06-07T17:50:29Z</time>
      </trkpt>
      <trkpt lat="44.54686" lon="2.23313">
        <ele>237</ele>
        <time>2018-06-07T17:50:30Z</time>
      </trkpt>
      <trkpt lat="44.54692" lon="2.23314">
        <ele>238</ele>
        <time>2018-06-07T17:50:33Z</time>
      </trkpt>
      <trkpt lat="44.54692" lon="2.23309">
        <ele>238</ele>
        <time>2018-06-07T17:50:36Z</time>
      </trkpt>
      <trkpt lat="44.54694" lon="2.23305">
        <ele>239</ele>
        <time>2018-06-07T17:50:38Z</time>
      </trkpt>
    </trkseg>
  </trk>
</gpx>